<?xml version="1.0" encoding="UTF-8" standalone="no" ?>
<gpx xmlns="http://www.topografix.com/GPX/1/1" xmlns:xsi="http://www.w3.org/2001/XMLSchema-instance" xsi:schemaLocation="http://www.topografix.com/GPX/1/1 http://www.topografix.com/GPX/1/1/gpx.xsd" version="1.1" creator="VisuGPX - https://www.visugpx.com">
  <metadata>
    <name>Marche nordique</name>
    <desc><![CDATA[Avec le groupe de 8h à 10h par un temps froid !]]></desc>
  </metadata>
  <trk>
    <name><![CDATA[23/02/2013 7:59]]></name>
    <desc><![CDATA[]]></desc>
    <trkseg>
      <trkpt lat="47.29795" lon="4.93633">
        <ele>542.6</ele>
        <time>2013-02-23T07:00:03.000Z</time>
      </trkpt>
      <trkpt lat="47.29796" lon="4.9363">
        <ele>540.8</ele>
        <time>2013-02-23T07:01:23.000Z</time>
      </trkpt>
      <trkpt lat="47.29792" lon="4.93626">
        <ele>550</ele>
        <time>2013-02-23T07:01:30.000Z</time>
      </trkpt>
      <trkpt lat="47.29796" lon="4.93625">
        <ele>549.6</ele>
        <time>2013-02-23T07:01:33.000Z</time>
      </trkpt>
      <trkpt lat="47.29797" lon="4.93626">
        <ele>549.4</ele>
        <time>2013-02-23T07:01:34.000Z</time>
      </trkpt>
      <trkpt lat="47.29795" lon="4.93631">
        <ele>548</ele>
        <time>2013-02-23T07:01:43.000Z</time>
      </trkpt>
      <trkpt lat="47.29794" lon="4.93632">
        <ele>548</ele>
        <time>2013-02-23T07:01:44.000Z</time>
      </trkpt>
      <trkpt lat="47.29793" lon="4.93626">
        <ele>546.2</ele>
        <time>2013-02-23T07:06:06.000Z</time>
      </trkpt>
      <trkpt lat="47.29794" lon="4.93625">
        <ele>546.3</ele>
        <time>2013-02-23T07:06:07.000Z</time>
      </trkpt>
      <trkpt lat="47.29797" lon="4.93621">
        <ele>546.7</ele>
        <time>2013-02-23T07:06:10.000Z</time>
      </trkpt>
      <trkpt lat="47.29797" lon="4.93619">
        <ele>546.8</ele>
        <time>2013-02-23T07:06:11.000Z</time>
      </trkpt>
      <trkpt lat="47.298" lon="4.93614">
        <ele>547.1</ele>
        <time>2013-02-23T07:06:15.000Z</time>
      </trkpt>
      <trkpt lat="47.29801" lon="4.93612">
        <ele>547.2</ele>
        <time>2013-02-23T07:06:16.000Z</time>
      </trkpt>
      <trkpt lat="47.29803" lon="4.93609">
        <ele>547.3</ele>
        <time>2013-02-23T07:06:18.000Z</time>
      </trkpt>
      <trkpt lat="47.29804" lon="4.93607">
        <ele>547.4</ele>
        <time>2013-02-23T07:06:19.000Z</time>
      </trkpt>
      <trkpt lat="47.29806" lon="4.93602">
        <ele>547.6</ele>
        <time>2013-02-23T07:06:22.000Z</time>
      </trkpt>
      <trkpt lat="47.29807" lon="4.936">
        <ele>547.7</ele>
        <time>2013-02-23T07:06:23.000Z</time>
      </trkpt>
      <trkpt lat="47.29816" lon="4.93584">
        <ele>546.5</ele>
        <time>2013-02-23T07:06:30.000Z</time>
      </trkpt>
      <trkpt lat="47.29818" lon="4.93581">
        <ele>545.4</ele>
        <time>2013-02-23T07:06:32.000Z</time>
      </trkpt>
      <trkpt lat="47.2982" lon="4.9358">
        <ele>545.6</ele>
        <time>2013-02-23T07:06:33.000Z</time>
      </trkpt>
      <trkpt lat="47.29823" lon="4.93576">
        <ele>546.2</ele>
        <time>2013-02-23T07:06:36.000Z</time>
      </trkpt>
      <trkpt lat="47.29824" lon="4.93575">
        <ele>545.8</ele>
        <time>2013-02-23T07:06:37.000Z</time>
      </trkpt>
      <trkpt lat="47.29828" lon="4.93573">
        <ele>549.3</ele>
        <time>2013-02-23T07:06:41.000Z</time>
      </trkpt>
      <trkpt lat="47.29829" lon="4.93572">
        <ele>549.7</ele>
        <time>2013-02-23T07:06:42.000Z</time>
      </trkpt>
      <trkpt lat="47.29832" lon="4.93568">
        <ele>553.2</ele>
        <time>2013-02-23T07:06:46.000Z</time>
      </trkpt>
      <trkpt lat="47.29833" lon="4.93567">
        <ele>554.3</ele>
        <time>2013-02-23T07:06:47.000Z</time>
      </trkpt>
      <trkpt lat="47.29836" lon="4.93563">
        <ele>555.6</ele>
        <time>2013-02-23T07:06:50.000Z</time>
      </trkpt>
      <trkpt lat="47.29838" lon="4.93561">
        <ele>555.9</ele>
        <time>2013-02-23T07:06:51.000Z</time>
      </trkpt>
      <trkpt lat="47.2984" lon="4.93558">
        <ele>556.5</ele>
        <time>2013-02-23T07:06:53.000Z</time>
      </trkpt>
      <trkpt lat="47.29841" lon="4.93556">
        <ele>557</ele>
        <time>2013-02-23T07:06:54.000Z</time>
      </trkpt>
      <trkpt lat="47.29844" lon="4.93554">
        <ele>556.6</ele>
        <time>2013-02-23T07:06:56.000Z</time>
      </trkpt>
      <trkpt lat="47.29845" lon="4.93552">
        <ele>556.2</ele>
        <time>2013-02-23T07:06:57.000Z</time>
      </trkpt>
      <trkpt lat="47.29848" lon="4.93548">
        <ele>555.4</ele>
        <time>2013-02-23T07:06:59.000Z</time>
      </trkpt>
      <trkpt lat="47.29849" lon="4.93547">
        <ele>555.1</ele>
        <time>2013-02-23T07:07:00.000Z</time>
      </trkpt>
      <trkpt lat="47.29852" lon="4.93544">
        <ele>555.1</ele>
        <time>2013-02-23T07:07:02.000Z</time>
      </trkpt>
      <trkpt lat="47.29854" lon="4.93542">
        <ele>555.1</ele>
        <time>2013-02-23T07:07:03.000Z</time>
      </trkpt>
      <trkpt lat="47.29857" lon="4.93539">
        <ele>555</ele>
        <time>2013-02-23T07:07:05.000Z</time>
      </trkpt>
      <trkpt lat="47.29858" lon="4.93538">
        <ele>555.1</ele>
        <time>2013-02-23T07:07:06.000Z</time>
      </trkpt>
      <trkpt lat="47.29861" lon="4.93534">
        <ele>554.8</ele>
        <time>2013-02-23T07:07:08.000Z</time>
      </trkpt>
      <trkpt lat="47.29863" lon="4.93532">
        <ele>554.8</ele>
        <time>2013-02-23T07:07:09.000Z</time>
      </trkpt>
      <trkpt lat="47.29866" lon="4.93528">
        <ele>554.6</ele>
        <time>2013-02-23T07:07:11.000Z</time>
      </trkpt>
      <trkpt lat="47.29868" lon="4.93527">
        <ele>554.6</ele>
        <time>2013-02-23T07:07:12.000Z</time>
      </trkpt>
      <trkpt lat="47.29871" lon="4.93524">
        <ele>554.5</ele>
        <time>2013-02-23T07:07:14.000Z</time>
      </trkpt>
      <trkpt lat="47.29873" lon="4.93522">
        <ele>554.4</ele>
        <time>2013-02-23T07:07:15.000Z</time>
      </trkpt>
      <trkpt lat="47.29875" lon="4.9352">
        <ele>554.3</ele>
        <time>2013-02-23T07:07:16.000Z</time>
      </trkpt>
      <trkpt lat="47.29877" lon="4.93519">
        <ele>554.1</ele>
        <time>2013-02-23T07:07:17.000Z</time>
      </trkpt>
      <trkpt lat="47.29881" lon="4.93516">
        <ele>554.1</ele>
        <time>2013-02-23T07:07:19.000Z</time>
      </trkpt>
      <trkpt lat="47.29883" lon="4.93515">
        <ele>554</ele>
        <time>2013-02-23T07:07:20.000Z</time>
      </trkpt>
      <trkpt lat="47.29885" lon="4.93512">
        <ele>554</ele>
        <time>2013-02-23T07:07:21.000Z</time>
      </trkpt>
      <trkpt lat="47.29886" lon="4.9351">
        <ele>553.8</ele>
        <time>2013-02-23T07:07:22.000Z</time>
      </trkpt>
      <trkpt lat="47.29888" lon="4.93509">
        <ele>553.8</ele>
        <time>2013-02-23T07:07:23.000Z</time>
      </trkpt>
      <trkpt lat="47.29926" lon="4.93462">
        <ele>552.3</ele>
        <time>2013-02-23T07:07:44.000Z</time>
      </trkpt>
      <trkpt lat="47.29929" lon="4.9346">
        <ele>554.2</ele>
        <time>2013-02-23T07:07:46.000Z</time>
      </trkpt>
      <trkpt lat="47.29931" lon="4.93458">
        <ele>554</ele>
        <time>2013-02-23T07:07:47.000Z</time>
      </trkpt>
      <trkpt lat="47.29933" lon="4.93453">
        <ele>552.3</ele>
        <time>2013-02-23T07:07:49.000Z</time>
      </trkpt>
      <trkpt lat="47.29934" lon="4.93451">
        <ele>552.1</ele>
        <time>2013-02-23T07:07:50.000Z</time>
      </trkpt>
      <trkpt lat="47.29936" lon="4.93446">
        <ele>551.3</ele>
        <time>2013-02-23T07:07:52.000Z</time>
      </trkpt>
      <trkpt lat="47.29938" lon="4.93444">
        <ele>551.9</ele>
        <time>2013-02-23T07:07:53.000Z</time>
      </trkpt>
      <trkpt lat="47.2994" lon="4.9344">
        <ele>553.1</ele>
        <time>2013-02-23T07:07:55.000Z</time>
      </trkpt>
      <trkpt lat="47.29941" lon="4.93438">
        <ele>552.5</ele>
        <time>2013-02-23T07:07:56.000Z</time>
      </trkpt>
      <trkpt lat="47.29942" lon="4.93435">
        <ele>552.1</ele>
        <time>2013-02-23T07:07:57.000Z</time>
      </trkpt>
      <trkpt lat="47.29943" lon="4.93432">
        <ele>551.4</ele>
        <time>2013-02-23T07:07:58.000Z</time>
      </trkpt>
      <trkpt lat="47.29946" lon="4.93427">
        <ele>553.8</ele>
        <time>2013-02-23T07:08:01.000Z</time>
      </trkpt>
      <trkpt lat="47.29947" lon="4.93425">
        <ele>555.3</ele>
        <time>2013-02-23T07:08:02.000Z</time>
      </trkpt>
      <trkpt lat="47.29949" lon="4.93421">
        <ele>558.2</ele>
        <time>2013-02-23T07:08:05.000Z</time>
      </trkpt>
      <trkpt lat="47.2995" lon="4.9342">
        <ele>559</ele>
        <time>2013-02-23T07:08:06.000Z</time>
      </trkpt>
      <trkpt lat="47.29951" lon="4.93415">
        <ele>559.8</ele>
        <time>2013-02-23T07:08:08.000Z</time>
      </trkpt>
      <trkpt lat="47.29952" lon="4.93412">
        <ele>558.1</ele>
        <time>2013-02-23T07:08:09.000Z</time>
      </trkpt>
      <trkpt lat="47.29953" lon="4.93407">
        <ele>558.4</ele>
        <time>2013-02-23T07:08:11.000Z</time>
      </trkpt>
      <trkpt lat="47.29953" lon="4.93405">
        <ele>558.7</ele>
        <time>2013-02-23T07:08:12.000Z</time>
      </trkpt>
      <trkpt lat="47.29954" lon="4.93402">
        <ele>558.7</ele>
        <time>2013-02-23T07:08:13.000Z</time>
      </trkpt>
      <trkpt lat="47.29955" lon="4.93398">
        <ele>558.4</ele>
        <time>2013-02-23T07:08:14.000Z</time>
      </trkpt>
      <trkpt lat="47.29956" lon="4.93393">
        <ele>558.2</ele>
        <time>2013-02-23T07:08:16.000Z</time>
      </trkpt>
      <trkpt lat="47.29957" lon="4.93391">
        <ele>558.3</ele>
        <time>2013-02-23T07:08:17.000Z</time>
      </trkpt>
      <trkpt lat="47.29958" lon="4.93386">
        <ele>558.7</ele>
        <time>2013-02-23T07:08:19.000Z</time>
      </trkpt>
      <trkpt lat="47.29959" lon="4.93383">
        <ele>558.7</ele>
        <time>2013-02-23T07:08:20.000Z</time>
      </trkpt>
      <trkpt lat="47.2996" lon="4.93378">
        <ele>558.5</ele>
        <time>2013-02-23T07:08:22.000Z</time>
      </trkpt>
      <trkpt lat="47.29961" lon="4.93376">
        <ele>558.4</ele>
        <time>2013-02-23T07:08:23.000Z</time>
      </trkpt>
      <trkpt lat="47.29968" lon="4.93354">
        <ele>557.6</ele>
        <time>2013-02-23T07:08:30.000Z</time>
      </trkpt>
      <trkpt lat="47.29968" lon="4.9335">
        <ele>558</ele>
        <time>2013-02-23T07:08:32.000Z</time>
      </trkpt>
      <trkpt lat="47.29968" lon="4.93347">
        <ele>558.4</ele>
        <time>2013-02-23T07:08:33.000Z</time>
      </trkpt>
      <trkpt lat="47.2997" lon="4.93341">
        <ele>559.8</ele>
        <time>2013-02-23T07:08:36.000Z</time>
      </trkpt>
      <trkpt lat="47.2997" lon="4.93339">
        <ele>559.3</ele>
        <time>2013-02-23T07:08:37.000Z</time>
      </trkpt>
      <trkpt lat="47.2997" lon="4.93334">
        <ele>558.1</ele>
        <time>2013-02-23T07:08:39.000Z</time>
      </trkpt>
      <trkpt lat="47.29971" lon="4.9333">
        <ele>557.8</ele>
        <time>2013-02-23T07:08:40.000Z</time>
      </trkpt>
      <trkpt lat="47.29972" lon="4.93325">
        <ele>558.9</ele>
        <time>2013-02-23T07:08:42.000Z</time>
      </trkpt>
      <trkpt lat="47.29973" lon="4.93323">
        <ele>559.2</ele>
        <time>2013-02-23T07:08:43.000Z</time>
      </trkpt>
      <trkpt lat="47.29974" lon="4.93316">
        <ele>559.2</ele>
        <time>2013-02-23T07:08:45.000Z</time>
      </trkpt>
      <trkpt lat="47.29974" lon="4.93314">
        <ele>559.6</ele>
        <time>2013-02-23T07:08:46.000Z</time>
      </trkpt>
      <trkpt lat="47.29975" lon="4.93308">
        <ele>559.6</ele>
        <time>2013-02-23T07:08:48.000Z</time>
      </trkpt>
      <trkpt lat="47.29975" lon="4.93304">
        <ele>559.1</ele>
        <time>2013-02-23T07:08:49.000Z</time>
      </trkpt>
      <trkpt lat="47.29976" lon="4.93298">
        <ele>559</ele>
        <time>2013-02-23T07:08:51.000Z</time>
      </trkpt>
      <trkpt lat="47.29977" lon="4.93295">
        <ele>559</ele>
        <time>2013-02-23T07:08:52.000Z</time>
      </trkpt>
      <trkpt lat="47.29978" lon="4.93289">
        <ele>559.5</ele>
        <time>2013-02-23T07:08:54.000Z</time>
      </trkpt>
      <trkpt lat="47.29978" lon="4.93286">
        <ele>558.7</ele>
        <time>2013-02-23T07:08:55.000Z</time>
      </trkpt>
      <trkpt lat="47.29978" lon="4.93281">
        <ele>559.3</ele>
        <time>2013-02-23T07:08:57.000Z</time>
      </trkpt>
      <trkpt lat="47.29978" lon="4.93278">
        <ele>559.4</ele>
        <time>2013-02-23T07:08:58.000Z</time>
      </trkpt>
      <trkpt lat="47.29979" lon="4.93272">
        <ele>559.4</ele>
        <time>2013-02-23T07:09:00.000Z</time>
      </trkpt>
      <trkpt lat="47.29979" lon="4.9327">
        <ele>559.5</ele>
        <time>2013-02-23T07:09:01.000Z</time>
      </trkpt>
      <trkpt lat="47.29978" lon="4.93265">
        <ele>559.1</ele>
        <time>2013-02-23T07:09:04.000Z</time>
      </trkpt>
      <trkpt lat="47.29977" lon="4.93264">
        <ele>558.8</ele>
        <time>2013-02-23T07:09:05.000Z</time>
      </trkpt>
      <trkpt lat="47.29973" lon="4.93265">
        <ele>558.1</ele>
        <time>2013-02-23T07:09:11.000Z</time>
      </trkpt>
      <trkpt lat="47.29972" lon="4.93266">
        <ele>558.1</ele>
        <time>2013-02-23T07:09:12.000Z</time>
      </trkpt>
      <trkpt lat="47.29969" lon="4.93271">
        <ele>558.5</ele>
        <time>2013-02-23T07:09:15.000Z</time>
      </trkpt>
      <trkpt lat="47.29969" lon="4.93273">
        <ele>558.8</ele>
        <time>2013-02-23T07:09:16.000Z</time>
      </trkpt>
      <trkpt lat="47.29965" lon="4.93272">
        <ele>559.6</ele>
        <time>2013-02-23T07:09:23.000Z</time>
      </trkpt>
      <trkpt lat="47.29971" lon="4.93248">
        <ele>564.6</ele>
        <time>2013-02-23T07:09:35.000Z</time>
      </trkpt>
      <trkpt lat="47.29974" lon="4.93244">
        <ele>566.3</ele>
        <time>2013-02-23T07:09:38.000Z</time>
      </trkpt>
      <trkpt lat="47.29974" lon="4.93242">
        <ele>566</ele>
        <time>2013-02-23T07:09:39.000Z</time>
      </trkpt>
      <trkpt lat="47.29975" lon="4.93236">
        <ele>564.8</ele>
        <time>2013-02-23T07:09:42.000Z</time>
      </trkpt>
      <trkpt lat="47.29976" lon="4.93234">
        <ele>564.9</ele>
        <time>2013-02-23T07:09:43.000Z</time>
      </trkpt>
      <trkpt lat="47.29977" lon="4.9323">
        <ele>565.3</ele>
        <time>2013-02-23T07:09:45.000Z</time>
      </trkpt>
      <trkpt lat="47.29978" lon="4.93228">
        <ele>565.9</ele>
        <time>2013-02-23T07:09:46.000Z</time>
      </trkpt>
      <trkpt lat="47.29979" lon="4.93224">
        <ele>566.4</ele>
        <time>2013-02-23T07:09:48.000Z</time>
      </trkpt>
      <trkpt lat="47.2998" lon="4.93221">
        <ele>565.6</ele>
        <time>2013-02-23T07:09:49.000Z</time>
      </trkpt>
      <trkpt lat="47.29981" lon="4.93216">
        <ele>565.1</ele>
        <time>2013-02-23T07:09:51.000Z</time>
      </trkpt>
      <trkpt lat="47.29981" lon="4.93214">
        <ele>565.1</ele>
        <time>2013-02-23T07:09:52.000Z</time>
      </trkpt>
      <trkpt lat="47.29982" lon="4.93208">
        <ele>565.3</ele>
        <time>2013-02-23T07:09:54.000Z</time>
      </trkpt>
      <trkpt lat="47.29982" lon="4.93205">
        <ele>564.7</ele>
        <time>2013-02-23T07:09:55.000Z</time>
      </trkpt>
      <trkpt lat="47.29983" lon="4.93201">
        <ele>564</ele>
        <time>2013-02-23T07:09:56.000Z</time>
      </trkpt>
      <trkpt lat="47.29983" lon="4.93198">
        <ele>563.5</ele>
        <time>2013-02-23T07:09:57.000Z</time>
      </trkpt>
      <trkpt lat="47.29985" lon="4.93193">
        <ele>562.7</ele>
        <time>2013-02-23T07:09:59.000Z</time>
      </trkpt>
      <trkpt lat="47.29985" lon="4.9319">
        <ele>562.6</ele>
        <time>2013-02-23T07:10:00.000Z</time>
      </trkpt>
      <trkpt lat="47.29986" lon="4.93185">
        <ele>562.5</ele>
        <time>2013-02-23T07:10:02.000Z</time>
      </trkpt>
      <trkpt lat="47.29986" lon="4.93182">
        <ele>562.3</ele>
        <time>2013-02-23T07:10:03.000Z</time>
      </trkpt>
      <trkpt lat="47.29987" lon="4.93177">
        <ele>562.3</ele>
        <time>2013-02-23T07:10:05.000Z</time>
      </trkpt>
      <trkpt lat="47.29987" lon="4.93175">
        <ele>562</ele>
        <time>2013-02-23T07:10:06.000Z</time>
      </trkpt>
      <trkpt lat="47.29988" lon="4.93168">
        <ele>562</ele>
        <time>2013-02-23T07:10:09.000Z</time>
      </trkpt>
      <trkpt lat="47.29988" lon="4.93166">
        <ele>562.2</ele>
        <time>2013-02-23T07:10:10.000Z</time>
      </trkpt>
      <trkpt lat="47.29989" lon="4.93161">
        <ele>562.6</ele>
        <time>2013-02-23T07:10:12.000Z</time>
      </trkpt>
      <trkpt lat="47.29989" lon="4.93159">
        <ele>562.9</ele>
        <time>2013-02-23T07:10:13.000Z</time>
      </trkpt>
      <trkpt lat="47.29991" lon="4.93154">
        <ele>563.3</ele>
        <time>2013-02-23T07:10:15.000Z</time>
      </trkpt>
      <trkpt lat="47.29992" lon="4.93152">
        <ele>563.5</ele>
        <time>2013-02-23T07:10:16.000Z</time>
      </trkpt>
      <trkpt lat="47.29993" lon="4.93148">
        <ele>564</ele>
        <time>2013-02-23T07:10:18.000Z</time>
      </trkpt>
      <trkpt lat="47.29994" lon="4.93146">
        <ele>564.1</ele>
        <time>2013-02-23T07:10:19.000Z</time>
      </trkpt>
      <trkpt lat="47.29996" lon="4.93141">
        <ele>563.9</ele>
        <time>2013-02-23T07:10:21.000Z</time>
      </trkpt>
      <trkpt lat="47.29997" lon="4.93139">
        <ele>564</ele>
        <time>2013-02-23T07:10:22.000Z</time>
      </trkpt>
      <trkpt lat="47.29998" lon="4.93137">
        <ele>564</ele>
        <time>2013-02-23T07:10:23.000Z</time>
      </trkpt>
      <trkpt lat="47.30011" lon="4.93109">
        <ele>556.7</ele>
        <time>2013-02-23T07:10:32.000Z</time>
      </trkpt>
      <trkpt lat="47.30011" lon="4.93104">
        <ele>557.6</ele>
        <time>2013-02-23T07:10:35.000Z</time>
      </trkpt>
      <trkpt lat="47.30012" lon="4.93102">
        <ele>557.1</ele>
        <time>2013-02-23T07:10:36.000Z</time>
      </trkpt>
      <trkpt lat="47.30014" lon="4.93097">
        <ele>556.4</ele>
        <time>2013-02-23T07:10:38.000Z</time>
      </trkpt>
      <trkpt lat="47.30015" lon="4.93094">
        <ele>556.7</ele>
        <time>2013-02-23T07:10:39.000Z</time>
      </trkpt>
      <trkpt lat="47.30017" lon="4.93091">
        <ele>558.8</ele>
        <time>2013-02-23T07:10:41.000Z</time>
      </trkpt>
      <trkpt lat="47.30018" lon="4.93088">
        <ele>559.7</ele>
        <time>2013-02-23T07:10:42.000Z</time>
      </trkpt>
      <trkpt lat="47.3002" lon="4.93083">
        <ele>560.2</ele>
        <time>2013-02-23T07:10:45.000Z</time>
      </trkpt>
      <trkpt lat="47.30021" lon="4.9308">
        <ele>560.4</ele>
        <time>2013-02-23T07:10:46.000Z</time>
      </trkpt>
      <trkpt lat="47.30023" lon="4.93076">
        <ele>561.6</ele>
        <time>2013-02-23T07:10:48.000Z</time>
      </trkpt>
      <trkpt lat="47.30024" lon="4.93073">
        <ele>562.1</ele>
        <time>2013-02-23T07:10:49.000Z</time>
      </trkpt>
      <trkpt lat="47.30026" lon="4.93069">
        <ele>563.1</ele>
        <time>2013-02-23T07:10:51.000Z</time>
      </trkpt>
      <trkpt lat="47.30027" lon="4.93067">
        <ele>562.7</ele>
        <time>2013-02-23T07:10:52.000Z</time>
      </trkpt>
      <trkpt lat="47.30029" lon="4.93062">
        <ele>563.1</ele>
        <time>2013-02-23T07:10:54.000Z</time>
      </trkpt>
      <trkpt lat="47.30029" lon="4.9306">
        <ele>563.1</ele>
        <time>2013-02-23T07:10:55.000Z</time>
      </trkpt>
      <trkpt lat="47.30031" lon="4.93055">
        <ele>562.7</ele>
        <time>2013-02-23T07:10:57.000Z</time>
      </trkpt>
      <trkpt lat="47.30032" lon="4.93053">
        <ele>562.6</ele>
        <time>2013-02-23T07:10:58.000Z</time>
      </trkpt>
      <trkpt lat="47.30034" lon="4.93049">
        <ele>563</ele>
        <time>2013-02-23T07:11:00.000Z</time>
      </trkpt>
      <trkpt lat="47.30035" lon="4.93046">
        <ele>563.3</ele>
        <time>2013-02-23T07:11:01.000Z</time>
      </trkpt>
      <trkpt lat="47.30036" lon="4.93042">
        <ele>563.8</ele>
        <time>2013-02-23T07:11:03.000Z</time>
      </trkpt>
      <trkpt lat="47.30037" lon="4.9304">
        <ele>563.5</ele>
        <time>2013-02-23T07:11:04.000Z</time>
      </trkpt>
      <trkpt lat="47.30039" lon="4.93036">
        <ele>563.8</ele>
        <time>2013-02-23T07:11:06.000Z</time>
      </trkpt>
      <trkpt lat="47.30039" lon="4.93034">
        <ele>563.8</ele>
        <time>2013-02-23T07:11:07.000Z</time>
      </trkpt>
      <trkpt lat="47.30041" lon="4.93029">
        <ele>563.7</ele>
        <time>2013-02-23T07:11:09.000Z</time>
      </trkpt>
      <trkpt lat="47.30042" lon="4.93027">
        <ele>563.7</ele>
        <time>2013-02-23T07:11:10.000Z</time>
      </trkpt>
      <trkpt lat="47.30044" lon="4.93022">
        <ele>563.7</ele>
        <time>2013-02-23T07:11:12.000Z</time>
      </trkpt>
      <trkpt lat="47.30044" lon="4.93019">
        <ele>563.9</ele>
        <time>2013-02-23T07:11:13.000Z</time>
      </trkpt>
      <trkpt lat="47.30046" lon="4.93014">
        <ele>563.8</ele>
        <time>2013-02-23T07:11:15.000Z</time>
      </trkpt>
      <trkpt lat="47.30046" lon="4.93011">
        <ele>563.8</ele>
        <time>2013-02-23T07:11:16.000Z</time>
      </trkpt>
      <trkpt lat="47.30047" lon="4.93006">
        <ele>563.2</ele>
        <time>2013-02-23T07:11:18.000Z</time>
      </trkpt>
      <trkpt lat="47.30047" lon="4.93004">
        <ele>563.3</ele>
        <time>2013-02-23T07:11:19.000Z</time>
      </trkpt>
      <trkpt lat="47.30048" lon="4.93">
        <ele>563.1</ele>
        <time>2013-02-23T07:11:21.000Z</time>
      </trkpt>
      <trkpt lat="47.30049" lon="4.92998">
        <ele>563</ele>
        <time>2013-02-23T07:11:22.000Z</time>
      </trkpt>
      <trkpt lat="47.3005" lon="4.92995">
        <ele>562.7</ele>
        <time>2013-02-23T07:11:23.000Z</time>
      </trkpt>
      <trkpt lat="47.30057" lon="4.92967">
        <ele>564.1</ele>
        <time>2013-02-23T07:11:32.000Z</time>
      </trkpt>
      <trkpt lat="47.30058" lon="4.92962">
        <ele>565</ele>
        <time>2013-02-23T07:11:34.000Z</time>
      </trkpt>
      <trkpt lat="47.30059" lon="4.9296">
        <ele>563.8</ele>
        <time>2013-02-23T07:11:35.000Z</time>
      </trkpt>
      <trkpt lat="47.30059" lon="4.92955">
        <ele>562.9</ele>
        <time>2013-02-23T07:11:37.000Z</time>
      </trkpt>
      <trkpt lat="47.30059" lon="4.92952">
        <ele>561.3</ele>
        <time>2013-02-23T07:11:38.000Z</time>
      </trkpt>
      <trkpt lat="47.3006" lon="4.92947">
        <ele>562</ele>
        <time>2013-02-23T07:11:40.000Z</time>
      </trkpt>
      <trkpt lat="47.3006" lon="4.92944">
        <ele>562.6</ele>
        <time>2013-02-23T07:11:41.000Z</time>
      </trkpt>
      <trkpt lat="47.30061" lon="4.92939">
        <ele>562.2</ele>
        <time>2013-02-23T07:11:43.000Z</time>
      </trkpt>
      <trkpt lat="47.30061" lon="4.92937">
        <ele>562.9</ele>
        <time>2013-02-23T07:11:44.000Z</time>
      </trkpt>
      <trkpt lat="47.30061" lon="4.92933">
        <ele>564.5</ele>
        <time>2013-02-23T07:11:46.000Z</time>
      </trkpt>
      <trkpt lat="47.30061" lon="4.92929">
        <ele>563.3</ele>
        <time>2013-02-23T07:11:47.000Z</time>
      </trkpt>
      <trkpt lat="47.30061" lon="4.92923">
        <ele>565.1</ele>
        <time>2013-02-23T07:11:50.000Z</time>
      </trkpt>
      <trkpt lat="47.30061" lon="4.92921">
        <ele>566</ele>
        <time>2013-02-23T07:11:51.000Z</time>
      </trkpt>
      <trkpt lat="47.3006" lon="4.92916">
        <ele>566.7</ele>
        <time>2013-02-23T07:11:53.000Z</time>
      </trkpt>
      <trkpt lat="47.3006" lon="4.92913">
        <ele>566.2</ele>
        <time>2013-02-23T07:11:54.000Z</time>
      </trkpt>
      <trkpt lat="47.3006" lon="4.92907">
        <ele>565.1</ele>
        <time>2013-02-23T07:11:56.000Z</time>
      </trkpt>
      <trkpt lat="47.3006" lon="4.92905">
        <ele>564.9</ele>
        <time>2013-02-23T07:11:57.000Z</time>
      </trkpt>
      <trkpt lat="47.3006" lon="4.92899">
        <ele>564.3</ele>
        <time>2013-02-23T07:11:59.000Z</time>
      </trkpt>
      <trkpt lat="47.30059" lon="4.92897">
        <ele>564</ele>
        <time>2013-02-23T07:12:00.000Z</time>
      </trkpt>
      <trkpt lat="47.30059" lon="4.92892">
        <ele>563.5</ele>
        <time>2013-02-23T07:12:02.000Z</time>
      </trkpt>
      <trkpt lat="47.30058" lon="4.9289">
        <ele>563.5</ele>
        <time>2013-02-23T07:12:03.000Z</time>
      </trkpt>
      <trkpt lat="47.30058" lon="4.92885">
        <ele>563.6</ele>
        <time>2013-02-23T07:12:05.000Z</time>
      </trkpt>
      <trkpt lat="47.30058" lon="4.92882">
        <ele>563.4</ele>
        <time>2013-02-23T07:12:06.000Z</time>
      </trkpt>
      <trkpt lat="47.30057" lon="4.92878">
        <ele>563.9</ele>
        <time>2013-02-23T07:12:08.000Z</time>
      </trkpt>
      <trkpt lat="47.30057" lon="4.92875">
        <ele>563.8</ele>
        <time>2013-02-23T07:12:09.000Z</time>
      </trkpt>
      <trkpt lat="47.30057" lon="4.9287">
        <ele>563.6</ele>
        <time>2013-02-23T07:12:11.000Z</time>
      </trkpt>
      <trkpt lat="47.30057" lon="4.92868">
        <ele>563.6</ele>
        <time>2013-02-23T07:12:12.000Z</time>
      </trkpt>
      <trkpt lat="47.30056" lon="4.92862">
        <ele>564.3</ele>
        <time>2013-02-23T07:12:15.000Z</time>
      </trkpt>
      <trkpt lat="47.30056" lon="4.9286">
        <ele>564.3</ele>
        <time>2013-02-23T07:12:16.000Z</time>
      </trkpt>
      <trkpt lat="47.30055" lon="4.92855">
        <ele>563.8</ele>
        <time>2013-02-23T07:12:18.000Z</time>
      </trkpt>
      <trkpt lat="47.30055" lon="4.92852">
        <ele>563.8</ele>
        <time>2013-02-23T07:12:19.000Z</time>
      </trkpt>
      <trkpt lat="47.30055" lon="4.92847">
        <ele>563.5</ele>
        <time>2013-02-23T07:12:21.000Z</time>
      </trkpt>
      <trkpt lat="47.30054" lon="4.92844">
        <ele>563.4</ele>
        <time>2013-02-23T07:12:22.000Z</time>
      </trkpt>
      <trkpt lat="47.30054" lon="4.92842">
        <ele>563.3</ele>
        <time>2013-02-23T07:12:23.000Z</time>
      </trkpt>
      <trkpt lat="47.3005" lon="4.92823">
        <ele>559.7</ele>
        <time>2013-02-23T07:12:30.000Z</time>
      </trkpt>
      <trkpt lat="47.3005" lon="4.92817">
        <ele>560.1</ele>
        <time>2013-02-23T07:12:32.000Z</time>
      </trkpt>
      <trkpt lat="47.3005" lon="4.92814">
        <ele>560</ele>
        <time>2013-02-23T07:12:33.000Z</time>
      </trkpt>
      <trkpt lat="47.3005" lon="4.92809">
        <ele>559.8</ele>
        <time>2013-02-23T07:12:35.000Z</time>
      </trkpt>
      <trkpt lat="47.30049" lon="4.92806">
        <ele>558.7</ele>
        <time>2013-02-23T07:12:36.000Z</time>
      </trkpt>
      <trkpt lat="47.30048" lon="4.92801">
        <ele>557.5</ele>
        <time>2013-02-23T07:12:38.000Z</time>
      </trkpt>
      <trkpt lat="47.30048" lon="4.92799">
        <ele>557</ele>
        <time>2013-02-23T07:12:39.000Z</time>
      </trkpt>
      <trkpt lat="47.30046" lon="4.92793">
        <ele>557.1</ele>
        <time>2013-02-23T07:12:42.000Z</time>
      </trkpt>
      <trkpt lat="47.30046" lon="4.92791">
        <ele>556.8</ele>
        <time>2013-02-23T07:12:43.000Z</time>
      </trkpt>
      <trkpt lat="47.30043" lon="4.92786">
        <ele>556.2</ele>
        <time>2013-02-23T07:12:46.000Z</time>
      </trkpt>
      <trkpt lat="47.30042" lon="4.92785">
        <ele>556</ele>
        <time>2013-02-23T07:12:47.000Z</time>
      </trkpt>
      <trkpt lat="47.30039" lon="4.92782">
        <ele>554.8</ele>
        <time>2013-02-23T07:12:50.000Z</time>
      </trkpt>
      <trkpt lat="47.30037" lon="4.92781">
        <ele>555.5</ele>
        <time>2013-02-23T07:12:51.000Z</time>
      </trkpt>
      <trkpt lat="47.30034" lon="4.92779">
        <ele>556.4</ele>
        <time>2013-02-23T07:12:54.000Z</time>
      </trkpt>
      <trkpt lat="47.30033" lon="4.92778">
        <ele>556.3</ele>
        <time>2013-02-23T07:12:55.000Z</time>
      </trkpt>
      <trkpt lat="47.30029" lon="4.92777">
        <ele>557.4</ele>
        <time>2013-02-23T07:12:59.000Z</time>
      </trkpt>
      <trkpt lat="47.30028" lon="4.92776">
        <ele>557.7</ele>
        <time>2013-02-23T07:13:00.000Z</time>
      </trkpt>
      <trkpt lat="47.30025" lon="4.92774">
        <ele>558.7</ele>
        <time>2013-02-23T07:13:03.000Z</time>
      </trkpt>
      <trkpt lat="47.30023" lon="4.92773">
        <ele>558.8</ele>
        <time>2013-02-23T07:13:04.000Z</time>
      </trkpt>
      <trkpt lat="47.3002" lon="4.92771">
        <ele>559.4</ele>
        <time>2013-02-23T07:13:08.000Z</time>
      </trkpt>
      <trkpt lat="47.30019" lon="4.9277">
        <ele>559.3</ele>
        <time>2013-02-23T07:13:09.000Z</time>
      </trkpt>
      <trkpt lat="47.30016" lon="4.92765">
        <ele>560.6</ele>
        <time>2013-02-23T07:13:14.000Z</time>
      </trkpt>
      <trkpt lat="47.30015" lon="4.92764">
        <ele>560.7</ele>
        <time>2013-02-23T07:13:15.000Z</time>
      </trkpt>
      <trkpt lat="47.30011" lon="4.92764">
        <ele>561.4</ele>
        <time>2013-02-23T07:13:18.000Z</time>
      </trkpt>
      <trkpt lat="47.3001" lon="4.92764">
        <ele>561.9</ele>
        <time>2013-02-23T07:13:19.000Z</time>
      </trkpt>
      <trkpt lat="47.30005" lon="4.92762">
        <ele>563.4</ele>
        <time>2013-02-23T07:13:23.000Z</time>
      </trkpt>
      <trkpt lat="47.29996" lon="4.92761">
        <ele>572.3</ele>
        <time>2013-02-23T07:13:30.000Z</time>
      </trkpt>
      <trkpt lat="47.29993" lon="4.92757">
        <ele>579.9</ele>
        <time>2013-02-23T07:13:37.000Z</time>
      </trkpt>
      <trkpt lat="47.29991" lon="4.92757">
        <ele>580.4</ele>
        <time>2013-02-23T07:13:38.000Z</time>
      </trkpt>
      <trkpt lat="47.29988" lon="4.92754">
        <ele>581.9</ele>
        <time>2013-02-23T07:13:42.000Z</time>
      </trkpt>
      <trkpt lat="47.29987" lon="4.92753">
        <ele>581.8</ele>
        <time>2013-02-23T07:13:43.000Z</time>
      </trkpt>
      <trkpt lat="47.29984" lon="4.92749">
        <ele>583.2</ele>
        <time>2013-02-23T07:13:47.000Z</time>
      </trkpt>
      <trkpt lat="47.29983" lon="4.92748">
        <ele>582.8</ele>
        <time>2013-02-23T07:13:48.000Z</time>
      </trkpt>
      <trkpt lat="47.29979" lon="4.92747">
        <ele>581.9</ele>
        <time>2013-02-23T07:13:52.000Z</time>
      </trkpt>
      <trkpt lat="47.29978" lon="4.92746">
        <ele>581.7</ele>
        <time>2013-02-23T07:13:53.000Z</time>
      </trkpt>
      <trkpt lat="47.29973" lon="4.92745">
        <ele>581.5</ele>
        <time>2013-02-23T07:13:57.000Z</time>
      </trkpt>
      <trkpt lat="47.29972" lon="4.92745">
        <ele>581.1</ele>
        <time>2013-02-23T07:13:58.000Z</time>
      </trkpt>
      <trkpt lat="47.29968" lon="4.92742">
        <ele>579.8</ele>
        <time>2013-02-23T07:14:02.000Z</time>
      </trkpt>
      <trkpt lat="47.29968" lon="4.92741">
        <ele>579.9</ele>
        <time>2013-02-23T07:14:03.000Z</time>
      </trkpt>
      <trkpt lat="47.29964" lon="4.92738">
        <ele>580.4</ele>
        <time>2013-02-23T07:14:06.000Z</time>
      </trkpt>
      <trkpt lat="47.29963" lon="4.92737">
        <ele>580.7</ele>
        <time>2013-02-23T07:14:07.000Z</time>
      </trkpt>
      <trkpt lat="47.29959" lon="4.92735">
        <ele>581.7</ele>
        <time>2013-02-23T07:14:11.000Z</time>
      </trkpt>
      <trkpt lat="47.29958" lon="4.92734">
        <ele>581.8</ele>
        <time>2013-02-23T07:14:12.000Z</time>
      </trkpt>
      <trkpt lat="47.29954" lon="4.92732">
        <ele>583.4</ele>
        <time>2013-02-23T07:14:17.000Z</time>
      </trkpt>
      <trkpt lat="47.29953" lon="4.92731">
        <ele>583.4</ele>
        <time>2013-02-23T07:14:18.000Z</time>
      </trkpt>
      <trkpt lat="47.29949" lon="4.92728">
        <ele>583.8</ele>
        <time>2013-02-23T07:14:21.000Z</time>
      </trkpt>
      <trkpt lat="47.29948" lon="4.92727">
        <ele>584.1</ele>
        <time>2013-02-23T07:14:22.000Z</time>
      </trkpt>
      <trkpt lat="47.29947" lon="4.92726">
        <ele>584.4</ele>
        <time>2013-02-23T07:14:23.000Z</time>
      </trkpt>
      <trkpt lat="47.29939" lon="4.92726">
        <ele>587.8</ele>
        <time>2013-02-23T07:14:29.000Z</time>
      </trkpt>
      <trkpt lat="47.29935" lon="4.92727">
        <ele>590</ele>
        <time>2013-02-23T07:14:34.000Z</time>
      </trkpt>
      <trkpt lat="47.29934" lon="4.92727">
        <ele>592.1</ele>
        <time>2013-02-23T07:14:35.000Z</time>
      </trkpt>
      <trkpt lat="47.2993" lon="4.92724">
        <ele>596.3</ele>
        <time>2013-02-23T07:14:41.000Z</time>
      </trkpt>
      <trkpt lat="47.2993" lon="4.92723">
        <ele>596.5</ele>
        <time>2013-02-23T07:14:42.000Z</time>
      </trkpt>
      <trkpt lat="47.29927" lon="4.92718">
        <ele>595.8</ele>
        <time>2013-02-23T07:14:52.000Z</time>
      </trkpt>
      <trkpt lat="47.29926" lon="4.92718">
        <ele>596.3</ele>
        <time>2013-02-23T07:14:53.000Z</time>
      </trkpt>
      <trkpt lat="47.29922" lon="4.92716">
        <ele>598.3</ele>
        <time>2013-02-23T07:14:57.000Z</time>
      </trkpt>
      <trkpt lat="47.29921" lon="4.92716">
        <ele>598.7</ele>
        <time>2013-02-23T07:14:58.000Z</time>
      </trkpt>
      <trkpt lat="47.29917" lon="4.92715">
        <ele>600</ele>
        <time>2013-02-23T07:15:03.000Z</time>
      </trkpt>
      <trkpt lat="47.29916" lon="4.92715">
        <ele>600.1</ele>
        <time>2013-02-23T07:15:04.000Z</time>
      </trkpt>
      <trkpt lat="47.29912" lon="4.92714">
        <ele>602.4</ele>
        <time>2013-02-23T07:15:11.000Z</time>
      </trkpt>
      <trkpt lat="47.29912" lon="4.92714">
        <ele>602.5</ele>
        <time>2013-02-23T07:15:12.000Z</time>
      </trkpt>
      <trkpt lat="47.29908" lon="4.9271">
        <ele>602.4</ele>
        <time>2013-02-23T07:15:19.000Z</time>
      </trkpt>
      <trkpt lat="47.29907" lon="4.92709">
        <ele>602.5</ele>
        <time>2013-02-23T07:15:20.000Z</time>
      </trkpt>
      <trkpt lat="47.29906" lon="4.92707">
        <ele>602.7</ele>
        <time>2013-02-23T07:15:23.000Z</time>
      </trkpt>
      <trkpt lat="47.29903" lon="4.92703">
        <ele>606.8</ele>
        <time>2013-02-23T07:15:31.000Z</time>
      </trkpt>
      <trkpt lat="47.29899" lon="4.92701">
        <ele>611.9</ele>
        <time>2013-02-23T07:15:38.000Z</time>
      </trkpt>
      <trkpt lat="47.29898" lon="4.927">
        <ele>613</ele>
        <time>2013-02-23T07:15:39.000Z</time>
      </trkpt>
      <trkpt lat="47.29894" lon="4.92697">
        <ele>614.6</ele>
        <time>2013-02-23T07:15:44.000Z</time>
      </trkpt>
      <trkpt lat="47.29894" lon="4.92697">
        <ele>614.8</ele>
        <time>2013-02-23T07:15:45.000Z</time>
      </trkpt>
      <trkpt lat="47.2989" lon="4.92695">
        <ele>614.4</ele>
        <time>2013-02-23T07:15:52.000Z</time>
      </trkpt>
      <trkpt lat="47.29889" lon="4.92694">
        <ele>613.8</ele>
        <time>2013-02-23T07:15:53.000Z</time>
      </trkpt>
      <trkpt lat="47.29885" lon="4.92692">
        <ele>613.4</ele>
        <time>2013-02-23T07:16:00.000Z</time>
      </trkpt>
      <trkpt lat="47.29884" lon="4.92691">
        <ele>613.6</ele>
        <time>2013-02-23T07:16:01.000Z</time>
      </trkpt>
      <trkpt lat="47.29881" lon="4.92694">
        <ele>614.5</ele>
        <time>2013-02-23T07:16:16.000Z</time>
      </trkpt>
      <trkpt lat="47.29879" lon="4.92695">
        <ele>615.2</ele>
        <time>2013-02-23T07:16:17.000Z</time>
      </trkpt>
      <trkpt lat="47.29877" lon="4.92698">
        <ele>615.6</ele>
        <time>2013-02-23T07:16:23.000Z</time>
      </trkpt>
      <trkpt lat="47.29875" lon="4.92703">
        <ele>617.4</ele>
        <time>2013-02-23T07:16:30.000Z</time>
      </trkpt>
      <trkpt lat="47.29876" lon="4.92707">
        <ele>623.4</ele>
        <time>2013-02-23T07:16:54.000Z</time>
      </trkpt>
      <trkpt lat="47.29873" lon="4.92714">
        <ele>622.7</ele>
        <time>2013-02-23T07:16:55.000Z</time>
      </trkpt>
      <trkpt lat="47.29873" lon="4.92716">
        <ele>622.3</ele>
        <time>2013-02-23T07:17:15.000Z</time>
      </trkpt>
      <trkpt lat="47.2987" lon="4.92723">
        <ele>625</ele>
        <time>2013-02-23T07:17:16.000Z</time>
      </trkpt>
      <trkpt lat="47.29868" lon="4.92728">
        <ele>625.7</ele>
        <time>2013-02-23T07:17:23.000Z</time>
      </trkpt>
      <trkpt lat="47.29867" lon="4.92733">
        <ele>630.1</ele>
        <time>2013-02-23T07:17:30.000Z</time>
      </trkpt>
      <trkpt lat="47.29865" lon="4.92739">
        <ele>631.8</ele>
        <time>2013-02-23T07:17:37.000Z</time>
      </trkpt>
      <trkpt lat="47.29865" lon="4.9274">
        <ele>632.2</ele>
        <time>2013-02-23T07:17:38.000Z</time>
      </trkpt>
      <trkpt lat="47.29864" lon="4.92746">
        <ele>633.4</ele>
        <time>2013-02-23T07:17:44.000Z</time>
      </trkpt>
      <trkpt lat="47.29864" lon="4.92747">
        <ele>633.7</ele>
        <time>2013-02-23T07:17:45.000Z</time>
      </trkpt>
      <trkpt lat="47.29863" lon="4.92753">
        <ele>634.7</ele>
        <time>2013-02-23T07:17:51.000Z</time>
      </trkpt>
      <trkpt lat="47.29863" lon="4.92754">
        <ele>635.1</ele>
        <time>2013-02-23T07:17:52.000Z</time>
      </trkpt>
      <trkpt lat="47.2986" lon="4.92758">
        <ele>636.5</ele>
        <time>2013-02-23T07:18:23.000Z</time>
      </trkpt>
      <trkpt lat="47.29855" lon="4.92758">
        <ele>637.9</ele>
        <time>2013-02-23T07:18:30.000Z</time>
      </trkpt>
      <trkpt lat="47.29852" lon="4.92753">
        <ele>631.8</ele>
        <time>2013-02-23T07:20:23.000Z</time>
      </trkpt>
      <trkpt lat="47.29852" lon="4.92766">
        <ele>640.5</ele>
        <time>2013-02-23T07:20:31.000Z</time>
      </trkpt>
      <trkpt lat="47.29856" lon="4.92767">
        <ele>639.9</ele>
        <time>2013-02-23T07:20:34.000Z</time>
      </trkpt>
      <trkpt lat="47.29856" lon="4.92764">
        <ele>637.8</ele>
        <time>2013-02-23T07:20:35.000Z</time>
      </trkpt>
      <trkpt lat="47.29857" lon="4.92762">
        <ele>637.3</ele>
        <time>2013-02-23T07:21:23.000Z</time>
      </trkpt>
      <trkpt lat="47.29854" lon="4.92743">
        <ele>629.7</ele>
        <time>2013-02-23T07:21:31.000Z</time>
      </trkpt>
      <trkpt lat="47.29854" lon="4.92743">
        <ele>629.7</ele>
        <time>2013-02-23T07:22:23.000Z</time>
      </trkpt>
      <trkpt lat="47.29861" lon="4.92754">
        <ele>633.8</ele>
        <time>2013-02-23T07:22:31.000Z</time>
      </trkpt>
      <trkpt lat="47.29858" lon="4.92756">
        <ele>633.9</ele>
        <time>2013-02-23T07:22:44.000Z</time>
      </trkpt>
      <trkpt lat="47.29857" lon="4.92755">
        <ele>632.9</ele>
        <time>2013-02-23T07:22:45.000Z</time>
      </trkpt>
      <trkpt lat="47.29861" lon="4.92757">
        <ele>634.5</ele>
        <time>2013-02-23T07:22:53.000Z</time>
      </trkpt>
      <trkpt lat="47.29862" lon="4.92757">
        <ele>634.7</ele>
        <time>2013-02-23T07:22:54.000Z</time>
      </trkpt>
      <trkpt lat="47.29865" lon="4.92759">
        <ele>634.3</ele>
        <time>2013-02-23T07:22:57.000Z</time>
      </trkpt>
      <trkpt lat="47.29866" lon="4.92759">
        <ele>634.3</ele>
        <time>2013-02-23T07:22:58.000Z</time>
      </trkpt>
      <trkpt lat="47.2987" lon="4.92763">
        <ele>633.8</ele>
        <time>2013-02-23T07:23:01.000Z</time>
      </trkpt>
      <trkpt lat="47.29871" lon="4.92764">
        <ele>633.7</ele>
        <time>2013-02-23T07:23:02.000Z</time>
      </trkpt>
      <trkpt lat="47.29874" lon="4.92767">
        <ele>633</ele>
        <time>2013-02-23T07:23:05.000Z</time>
      </trkpt>
      <trkpt lat="47.29875" lon="4.92768">
        <ele>632.9</ele>
        <time>2013-02-23T07:23:06.000Z</time>
      </trkpt>
      <trkpt lat="47.29878" lon="4.92772">
        <ele>632.6</ele>
        <time>2013-02-23T07:23:10.000Z</time>
      </trkpt>
      <trkpt lat="47.29879" lon="4.92773">
        <ele>632.5</ele>
        <time>2013-02-23T07:23:11.000Z</time>
      </trkpt>
      <trkpt lat="47.29882" lon="4.92776">
        <ele>632.1</ele>
        <time>2013-02-23T07:23:14.000Z</time>
      </trkpt>
      <trkpt lat="47.29883" lon="4.92777">
        <ele>632</ele>
        <time>2013-02-23T07:23:15.000Z</time>
      </trkpt>
      <trkpt lat="47.29887" lon="4.9278">
        <ele>631.7</ele>
        <time>2013-02-23T07:23:18.000Z</time>
      </trkpt>
      <trkpt lat="47.29888" lon="4.92781">
        <ele>631.6</ele>
        <time>2013-02-23T07:23:19.000Z</time>
      </trkpt>
      <trkpt lat="47.29891" lon="4.92785">
        <ele>631.3</ele>
        <time>2013-02-23T07:23:22.000Z</time>
      </trkpt>
      <trkpt lat="47.29892" lon="4.92787">
        <ele>631.1</ele>
        <time>2013-02-23T07:23:23.000Z</time>
      </trkpt>
      <trkpt lat="47.29893" lon="4.92791">
        <ele>630.6</ele>
        <time>2013-02-23T07:23:25.000Z</time>
      </trkpt>
      <trkpt lat="47.29894" lon="4.92792">
        <ele>630.4</ele>
        <time>2013-02-23T07:23:26.000Z</time>
      </trkpt>
      <trkpt lat="47.29896" lon="4.92797">
        <ele>630</ele>
        <time>2013-02-23T07:23:29.000Z</time>
      </trkpt>
      <trkpt lat="47.29897" lon="4.92799">
        <ele>630</ele>
        <time>2013-02-23T07:23:30.000Z</time>
      </trkpt>
      <trkpt lat="47.29899" lon="4.92803">
        <ele>629.8</ele>
        <time>2013-02-23T07:23:33.000Z</time>
      </trkpt>
      <trkpt lat="47.299" lon="4.92805">
        <ele>629.7</ele>
        <time>2013-02-23T07:23:34.000Z</time>
      </trkpt>
      <trkpt lat="47.29901" lon="4.92811">
        <ele>629.4</ele>
        <time>2013-02-23T07:23:37.000Z</time>
      </trkpt>
      <trkpt lat="47.29901" lon="4.92813">
        <ele>629.3</ele>
        <time>2013-02-23T07:23:38.000Z</time>
      </trkpt>
      <trkpt lat="47.29901" lon="4.92819">
        <ele>629.1</ele>
        <time>2013-02-23T07:23:41.000Z</time>
      </trkpt>
      <trkpt lat="47.29901" lon="4.9282">
        <ele>629.1</ele>
        <time>2013-02-23T07:23:42.000Z</time>
      </trkpt>
      <trkpt lat="47.29901" lon="4.92825">
        <ele>628.7</ele>
        <time>2013-02-23T07:23:47.000Z</time>
      </trkpt>
      <trkpt lat="47.29901" lon="4.92827">
        <ele>628.6</ele>
        <time>2013-02-23T07:23:48.000Z</time>
      </trkpt>
      <trkpt lat="47.29902" lon="4.92832">
        <ele>628.6</ele>
        <time>2013-02-23T07:23:50.000Z</time>
      </trkpt>
      <trkpt lat="47.29902" lon="4.92835">
        <ele>628.6</ele>
        <time>2013-02-23T07:23:51.000Z</time>
      </trkpt>
      <trkpt lat="47.29903" lon="4.9284">
        <ele>628.8</ele>
        <time>2013-02-23T07:23:53.000Z</time>
      </trkpt>
      <trkpt lat="47.29903" lon="4.92843">
        <ele>628.8</ele>
        <time>2013-02-23T07:23:54.000Z</time>
      </trkpt>
      <trkpt lat="47.29903" lon="4.92848">
        <ele>628.7</ele>
        <time>2013-02-23T07:23:56.000Z</time>
      </trkpt>
      <trkpt lat="47.29903" lon="4.9285">
        <ele>628.6</ele>
        <time>2013-02-23T07:23:57.000Z</time>
      </trkpt>
      <trkpt lat="47.29903" lon="4.92855">
        <ele>628.4</ele>
        <time>2013-02-23T07:23:59.000Z</time>
      </trkpt>
      <trkpt lat="47.29903" lon="4.92857">
        <ele>628.2</ele>
        <time>2013-02-23T07:24:00.000Z</time>
      </trkpt>
      <trkpt lat="47.29903" lon="4.92863">
        <ele>628.1</ele>
        <time>2013-02-23T07:24:03.000Z</time>
      </trkpt>
      <trkpt lat="47.29903" lon="4.92865">
        <ele>628.1</ele>
        <time>2013-02-23T07:24:04.000Z</time>
      </trkpt>
      <trkpt lat="47.29902" lon="4.9287">
        <ele>627.8</ele>
        <time>2013-02-23T07:24:07.000Z</time>
      </trkpt>
      <trkpt lat="47.29902" lon="4.92872">
        <ele>627.6</ele>
        <time>2013-02-23T07:24:08.000Z</time>
      </trkpt>
      <trkpt lat="47.29902" lon="4.92878">
        <ele>627.6</ele>
        <time>2013-02-23T07:24:11.000Z</time>
      </trkpt>
      <trkpt lat="47.29902" lon="4.92881">
        <ele>627.7</ele>
        <time>2013-02-23T07:24:12.000Z</time>
      </trkpt>
      <trkpt lat="47.29901" lon="4.92887">
        <ele>627.7</ele>
        <time>2013-02-23T07:24:15.000Z</time>
      </trkpt>
      <trkpt lat="47.29901" lon="4.92889">
        <ele>627.7</ele>
        <time>2013-02-23T07:24:16.000Z</time>
      </trkpt>
      <trkpt lat="47.299" lon="4.92893">
        <ele>627.6</ele>
        <time>2013-02-23T07:24:18.000Z</time>
      </trkpt>
      <trkpt lat="47.299" lon="4.92896">
        <ele>627.5</ele>
        <time>2013-02-23T07:24:19.000Z</time>
      </trkpt>
      <trkpt lat="47.29899" lon="4.929">
        <ele>627.4</ele>
        <time>2013-02-23T07:24:21.000Z</time>
      </trkpt>
      <trkpt lat="47.29899" lon="4.92902">
        <ele>627.3</ele>
        <time>2013-02-23T07:24:22.000Z</time>
      </trkpt>
      <trkpt lat="47.29899" lon="4.92907">
        <ele>627.2</ele>
        <time>2013-02-23T07:24:24.000Z</time>
      </trkpt>
      <trkpt lat="47.29894" lon="4.92925">
        <ele>622.3</ele>
        <time>2013-02-23T07:24:31.000Z</time>
      </trkpt>
      <trkpt lat="47.29893" lon="4.9293">
        <ele>622.2</ele>
        <time>2013-02-23T07:24:33.000Z</time>
      </trkpt>
      <trkpt lat="47.29893" lon="4.92932">
        <ele>622.4</ele>
        <time>2013-02-23T07:24:34.000Z</time>
      </trkpt>
      <trkpt lat="47.29893" lon="4.92938">
        <ele>622.5</ele>
        <time>2013-02-23T07:24:37.000Z</time>
      </trkpt>
      <trkpt lat="47.29892" lon="4.9294">
        <ele>622.7</ele>
        <time>2013-02-23T07:24:38.000Z</time>
      </trkpt>
      <trkpt lat="47.29891" lon="4.92946">
        <ele>622.5</ele>
        <time>2013-02-23T07:24:41.000Z</time>
      </trkpt>
      <trkpt lat="47.29891" lon="4.92948">
        <ele>622.6</ele>
        <time>2013-02-23T07:24:42.000Z</time>
      </trkpt>
      <trkpt lat="47.2989" lon="4.92953">
        <ele>622.7</ele>
        <time>2013-02-23T07:24:44.000Z</time>
      </trkpt>
      <trkpt lat="47.29889" lon="4.92955">
        <ele>622.4</ele>
        <time>2013-02-23T07:24:45.000Z</time>
      </trkpt>
      <trkpt lat="47.29888" lon="4.92961">
        <ele>622.7</ele>
        <time>2013-02-23T07:24:48.000Z</time>
      </trkpt>
      <trkpt lat="47.29888" lon="4.92962">
        <ele>622.9</ele>
        <time>2013-02-23T07:24:49.000Z</time>
      </trkpt>
      <trkpt lat="47.29886" lon="4.92969">
        <ele>622.4</ele>
        <time>2013-02-23T07:24:52.000Z</time>
      </trkpt>
      <trkpt lat="47.29886" lon="4.92971">
        <ele>622</ele>
        <time>2013-02-23T07:24:53.000Z</time>
      </trkpt>
      <trkpt lat="47.29886" lon="4.92975">
        <ele>621.8</ele>
        <time>2013-02-23T07:24:55.000Z</time>
      </trkpt>
      <trkpt lat="47.29885" lon="4.92977">
        <ele>621.6</ele>
        <time>2013-02-23T07:24:56.000Z</time>
      </trkpt>
      <trkpt lat="47.29884" lon="4.92984">
        <ele>621</ele>
        <time>2013-02-23T07:24:59.000Z</time>
      </trkpt>
      <trkpt lat="47.29884" lon="4.92986">
        <ele>620.9</ele>
        <time>2013-02-23T07:25:00.000Z</time>
      </trkpt>
      <trkpt lat="47.29883" lon="4.92991">
        <ele>620</ele>
        <time>2013-02-23T07:25:03.000Z</time>
      </trkpt>
      <trkpt lat="47.29883" lon="4.92992">
        <ele>619.7</ele>
        <time>2013-02-23T07:25:04.000Z</time>
      </trkpt>
      <trkpt lat="47.29882" lon="4.92997">
        <ele>620</ele>
        <time>2013-02-23T07:25:07.000Z</time>
      </trkpt>
      <trkpt lat="47.29882" lon="4.92999">
        <ele>620</ele>
        <time>2013-02-23T07:25:08.000Z</time>
      </trkpt>
      <trkpt lat="47.29881" lon="4.93005">
        <ele>619.8</ele>
        <time>2013-02-23T07:25:11.000Z</time>
      </trkpt>
      <trkpt lat="47.29881" lon="4.93007">
        <ele>619.7</ele>
        <time>2013-02-23T07:25:12.000Z</time>
      </trkpt>
      <trkpt lat="47.2988" lon="4.93013">
        <ele>619.5</ele>
        <time>2013-02-23T07:25:15.000Z</time>
      </trkpt>
      <trkpt lat="47.2988" lon="4.93015">
        <ele>619.4</ele>
        <time>2013-02-23T07:25:16.000Z</time>
      </trkpt>
      <trkpt lat="47.29879" lon="4.9302">
        <ele>619.2</ele>
        <time>2013-02-23T07:25:18.000Z</time>
      </trkpt>
      <trkpt lat="47.29879" lon="4.93022">
        <ele>619.3</ele>
        <time>2013-02-23T07:25:19.000Z</time>
      </trkpt>
      <trkpt lat="47.29878" lon="4.93028">
        <ele>619.4</ele>
        <time>2013-02-23T07:25:22.000Z</time>
      </trkpt>
      <trkpt lat="47.29878" lon="4.93031">
        <ele>619.4</ele>
        <time>2013-02-23T07:25:23.000Z</time>
      </trkpt>
      <trkpt lat="47.29877" lon="4.93033">
        <ele>619.5</ele>
        <time>2013-02-23T07:25:24.000Z</time>
      </trkpt>
      <trkpt lat="47.29871" lon="4.93051">
        <ele>619.6</ele>
        <time>2013-02-23T07:25:31.000Z</time>
      </trkpt>
      <trkpt lat="47.2987" lon="4.93056">
        <ele>619.2</ele>
        <time>2013-02-23T07:25:33.000Z</time>
      </trkpt>
      <trkpt lat="47.2987" lon="4.93058">
        <ele>619.1</ele>
        <time>2013-02-23T07:25:34.000Z</time>
      </trkpt>
      <trkpt lat="47.2987" lon="4.93064">
        <ele>620</ele>
        <time>2013-02-23T07:25:37.000Z</time>
      </trkpt>
      <trkpt lat="47.2987" lon="4.93066">
        <ele>620.2</ele>
        <time>2013-02-23T07:25:38.000Z</time>
      </trkpt>
      <trkpt lat="47.29869" lon="4.9307">
        <ele>620.8</ele>
        <time>2013-02-23T07:25:40.000Z</time>
      </trkpt>
      <trkpt lat="47.29868" lon="4.93072">
        <ele>621</ele>
        <time>2013-02-23T07:25:41.000Z</time>
      </trkpt>
      <trkpt lat="47.29867" lon="4.93078">
        <ele>621.3</ele>
        <time>2013-02-23T07:25:44.000Z</time>
      </trkpt>
      <trkpt lat="47.29867" lon="4.9308">
        <ele>621.3</ele>
        <time>2013-02-23T07:25:45.000Z</time>
      </trkpt>
      <trkpt lat="47.29866" lon="4.93086">
        <ele>621.3</ele>
        <time>2013-02-23T07:25:48.000Z</time>
      </trkpt>
      <trkpt lat="47.29866" lon="4.93089">
        <ele>621.1</ele>
        <time>2013-02-23T07:25:49.000Z</time>
      </trkpt>
      <trkpt lat="47.29865" lon="4.93093">
        <ele>621.4</ele>
        <time>2013-02-23T07:25:51.000Z</time>
      </trkpt>
      <trkpt lat="47.29865" lon="4.93096">
        <ele>621.1</ele>
        <time>2013-02-23T07:25:52.000Z</time>
      </trkpt>
      <trkpt lat="47.29864" lon="4.93101">
        <ele>620.8</ele>
        <time>2013-02-23T07:25:54.000Z</time>
      </trkpt>
      <trkpt lat="47.29864" lon="4.93104">
        <ele>620.9</ele>
        <time>2013-02-23T07:25:55.000Z</time>
      </trkpt>
      <trkpt lat="47.29864" lon="4.93108">
        <ele>620.2</ele>
        <time>2013-02-23T07:25:57.000Z</time>
      </trkpt>
      <trkpt lat="47.29863" lon="4.93111">
        <ele>619.8</ele>
        <time>2013-02-23T07:25:58.000Z</time>
      </trkpt>
      <trkpt lat="47.29863" lon="4.93116">
        <ele>619.3</ele>
        <time>2013-02-23T07:26:00.000Z</time>
      </trkpt>
      <trkpt lat="47.29862" lon="4.93119">
        <ele>619.2</ele>
        <time>2013-02-23T07:26:01.000Z</time>
      </trkpt>
      <trkpt lat="47.29862" lon="4.93123">
        <ele>618.5</ele>
        <time>2013-02-23T07:26:03.000Z</time>
      </trkpt>
      <trkpt lat="47.29861" lon="4.93125">
        <ele>618.3</ele>
        <time>2013-02-23T07:26:04.000Z</time>
      </trkpt>
      <trkpt lat="47.2986" lon="4.9313">
        <ele>617.9</ele>
        <time>2013-02-23T07:26:06.000Z</time>
      </trkpt>
      <trkpt lat="47.2986" lon="4.93132">
        <ele>617.6</ele>
        <time>2013-02-23T07:26:07.000Z</time>
      </trkpt>
      <trkpt lat="47.2986" lon="4.93137">
        <ele>617.1</ele>
        <time>2013-02-23T07:26:09.000Z</time>
      </trkpt>
      <trkpt lat="47.29859" lon="4.93139">
        <ele>617</ele>
        <time>2013-02-23T07:26:10.000Z</time>
      </trkpt>
      <trkpt lat="47.2986" lon="4.93144">
        <ele>616.7</ele>
        <time>2013-02-23T07:26:12.000Z</time>
      </trkpt>
      <trkpt lat="47.2986" lon="4.93146">
        <ele>616.5</ele>
        <time>2013-02-23T07:26:13.000Z</time>
      </trkpt>
      <trkpt lat="47.2986" lon="4.9315">
        <ele>616.2</ele>
        <time>2013-02-23T07:26:15.000Z</time>
      </trkpt>
      <trkpt lat="47.2986" lon="4.93153">
        <ele>615.9</ele>
        <time>2013-02-23T07:26:16.000Z</time>
      </trkpt>
      <trkpt lat="47.2986" lon="4.93158">
        <ele>615.5</ele>
        <time>2013-02-23T07:26:18.000Z</time>
      </trkpt>
      <trkpt lat="47.2986" lon="4.9316">
        <ele>615.3</ele>
        <time>2013-02-23T07:26:19.000Z</time>
      </trkpt>
      <trkpt lat="47.29859" lon="4.93166">
        <ele>615</ele>
        <time>2013-02-23T07:26:22.000Z</time>
      </trkpt>
      <trkpt lat="47.29858" lon="4.93168">
        <ele>614.9</ele>
        <time>2013-02-23T07:26:23.000Z</time>
      </trkpt>
      <trkpt lat="47.29858" lon="4.93171">
        <ele>614.8</ele>
        <time>2013-02-23T07:26:24.000Z</time>
      </trkpt>
      <trkpt lat="47.29853" lon="4.93191">
        <ele>610.1</ele>
        <time>2013-02-23T07:26:31.000Z</time>
      </trkpt>
      <trkpt lat="47.29852" lon="4.93195">
        <ele>612</ele>
        <time>2013-02-23T07:26:33.000Z</time>
      </trkpt>
      <trkpt lat="47.29852" lon="4.93197">
        <ele>612</ele>
        <time>2013-02-23T07:26:34.000Z</time>
      </trkpt>
      <trkpt lat="47.2985" lon="4.93204">
        <ele>613.6</ele>
        <time>2013-02-23T07:26:37.000Z</time>
      </trkpt>
      <trkpt lat="47.2985" lon="4.93206">
        <ele>613.9</ele>
        <time>2013-02-23T07:26:38.000Z</time>
      </trkpt>
      <trkpt lat="47.29849" lon="4.93211">
        <ele>614.1</ele>
        <time>2013-02-23T07:26:40.000Z</time>
      </trkpt>
      <trkpt lat="47.29849" lon="4.93214">
        <ele>614</ele>
        <time>2013-02-23T07:26:41.000Z</time>
      </trkpt>
      <trkpt lat="47.29849" lon="4.93219">
        <ele>613.4</ele>
        <time>2013-02-23T07:26:43.000Z</time>
      </trkpt>
      <trkpt lat="47.29849" lon="4.93221">
        <ele>613.7</ele>
        <time>2013-02-23T07:26:44.000Z</time>
      </trkpt>
      <trkpt lat="47.29848" lon="4.93225">
        <ele>614.4</ele>
        <time>2013-02-23T07:26:46.000Z</time>
      </trkpt>
      <trkpt lat="47.29848" lon="4.93228">
        <ele>614.6</ele>
        <time>2013-02-23T07:26:47.000Z</time>
      </trkpt>
      <trkpt lat="47.29848" lon="4.93232">
        <ele>614.8</ele>
        <time>2013-02-23T07:26:49.000Z</time>
      </trkpt>
      <trkpt lat="47.29848" lon="4.93235">
        <ele>614.4</ele>
        <time>2013-02-23T07:26:50.000Z</time>
      </trkpt>
      <trkpt lat="47.29846" lon="4.93241">
        <ele>614.6</ele>
        <time>2013-02-23T07:26:53.000Z</time>
      </trkpt>
      <trkpt lat="47.29846" lon="4.93244">
        <ele>614.9</ele>
        <time>2013-02-23T07:26:54.000Z</time>
      </trkpt>
      <trkpt lat="47.29845" lon="4.93249">
        <ele>614.7</ele>
        <time>2013-02-23T07:26:56.000Z</time>
      </trkpt>
      <trkpt lat="47.29844" lon="4.93251">
        <ele>614.3</ele>
        <time>2013-02-23T07:26:57.000Z</time>
      </trkpt>
      <trkpt lat="47.29843" lon="4.93256">
        <ele>614</ele>
        <time>2013-02-23T07:26:59.000Z</time>
      </trkpt>
      <trkpt lat="47.29842" lon="4.93258">
        <ele>613.9</ele>
        <time>2013-02-23T07:27:00.000Z</time>
      </trkpt>
      <trkpt lat="47.29841" lon="4.93263">
        <ele>613.4</ele>
        <time>2013-02-23T07:27:02.000Z</time>
      </trkpt>
      <trkpt lat="47.29841" lon="4.93265">
        <ele>613.4</ele>
        <time>2013-02-23T07:27:03.000Z</time>
      </trkpt>
      <trkpt lat="47.2984" lon="4.9327">
        <ele>613.2</ele>
        <time>2013-02-23T07:27:05.000Z</time>
      </trkpt>
      <trkpt lat="47.29839" lon="4.93272">
        <ele>613.3</ele>
        <time>2013-02-23T07:27:06.000Z</time>
      </trkpt>
      <trkpt lat="47.29838" lon="4.93277">
        <ele>613.1</ele>
        <time>2013-02-23T07:27:08.000Z</time>
      </trkpt>
      <trkpt lat="47.29838" lon="4.93279">
        <ele>613</ele>
        <time>2013-02-23T07:27:09.000Z</time>
      </trkpt>
      <trkpt lat="47.29837" lon="4.93283">
        <ele>612.7</ele>
        <time>2013-02-23T07:27:11.000Z</time>
      </trkpt>
      <trkpt lat="47.29836" lon="4.93286">
        <ele>612.4</ele>
        <time>2013-02-23T07:27:12.000Z</time>
      </trkpt>
      <trkpt lat="47.29834" lon="4.93291">
        <ele>612.1</ele>
        <time>2013-02-23T07:27:14.000Z</time>
      </trkpt>
      <trkpt lat="47.29833" lon="4.93293">
        <ele>611.8</ele>
        <time>2013-02-23T07:27:15.000Z</time>
      </trkpt>
      <trkpt lat="47.29832" lon="4.93297">
        <ele>611.7</ele>
        <time>2013-02-23T07:27:17.000Z</time>
      </trkpt>
      <trkpt lat="47.29831" lon="4.93299">
        <ele>611.6</ele>
        <time>2013-02-23T07:27:18.000Z</time>
      </trkpt>
      <trkpt lat="47.29829" lon="4.93304">
        <ele>611.7</ele>
        <time>2013-02-23T07:27:20.000Z</time>
      </trkpt>
      <trkpt lat="47.29828" lon="4.93306">
        <ele>611.6</ele>
        <time>2013-02-23T07:27:21.000Z</time>
      </trkpt>
      <trkpt lat="47.29827" lon="4.93311">
        <ele>611.7</ele>
        <time>2013-02-23T07:27:23.000Z</time>
      </trkpt>
      <trkpt lat="47.29826" lon="4.93314">
        <ele>611.7</ele>
        <time>2013-02-23T07:27:24.000Z</time>
      </trkpt>
      <trkpt lat="47.29814" lon="4.9333">
        <ele>611</ele>
        <time>2013-02-23T07:27:31.000Z</time>
      </trkpt>
      <trkpt lat="47.29811" lon="4.93334">
        <ele>611</ele>
        <time>2013-02-23T07:27:33.000Z</time>
      </trkpt>
      <trkpt lat="47.2981" lon="4.93336">
        <ele>610.4</ele>
        <time>2013-02-23T07:27:34.000Z</time>
      </trkpt>
      <trkpt lat="47.29808" lon="4.93339">
        <ele>611.3</ele>
        <time>2013-02-23T07:27:36.000Z</time>
      </trkpt>
      <trkpt lat="47.29806" lon="4.9334">
        <ele>611.3</ele>
        <time>2013-02-23T07:27:37.000Z</time>
      </trkpt>
      <trkpt lat="47.29803" lon="4.93343">
        <ele>612.5</ele>
        <time>2013-02-23T07:27:39.000Z</time>
      </trkpt>
      <trkpt lat="47.29801" lon="4.93344">
        <ele>613</ele>
        <time>2013-02-23T07:27:40.000Z</time>
      </trkpt>
      <trkpt lat="47.29799" lon="4.93346">
        <ele>614.2</ele>
        <time>2013-02-23T07:27:42.000Z</time>
      </trkpt>
      <trkpt lat="47.29797" lon="4.93348">
        <ele>614.2</ele>
        <time>2013-02-23T07:27:43.000Z</time>
      </trkpt>
      <trkpt lat="47.29794" lon="4.9335">
        <ele>614.3</ele>
        <time>2013-02-23T07:27:45.000Z</time>
      </trkpt>
      <trkpt lat="47.29793" lon="4.9335">
        <ele>614.2</ele>
        <time>2013-02-23T07:27:46.000Z</time>
      </trkpt>
      <trkpt lat="47.29789" lon="4.93352">
        <ele>614.4</ele>
        <time>2013-02-23T07:27:48.000Z</time>
      </trkpt>
      <trkpt lat="47.29787" lon="4.93352">
        <ele>614.4</ele>
        <time>2013-02-23T07:27:49.000Z</time>
      </trkpt>
      <trkpt lat="47.29784" lon="4.93354">
        <ele>614.7</ele>
        <time>2013-02-23T07:27:51.000Z</time>
      </trkpt>
      <trkpt lat="47.29782" lon="4.93354">
        <ele>615</ele>
        <time>2013-02-23T07:27:52.000Z</time>
      </trkpt>
      <trkpt lat="47.29778" lon="4.93356">
        <ele>615.6</ele>
        <time>2013-02-23T07:27:54.000Z</time>
      </trkpt>
      <trkpt lat="47.29777" lon="4.93356">
        <ele>615.9</ele>
        <time>2013-02-23T07:27:55.000Z</time>
      </trkpt>
      <trkpt lat="47.29773" lon="4.93356">
        <ele>615.2</ele>
        <time>2013-02-23T07:27:58.000Z</time>
      </trkpt>
      <trkpt lat="47.29772" lon="4.93355">
        <ele>615</ele>
        <time>2013-02-23T07:27:59.000Z</time>
      </trkpt>
      <trkpt lat="47.29772" lon="4.93356">
        <ele>614.8</ele>
        <time>2013-02-23T07:28:24.000Z</time>
      </trkpt>
      <trkpt lat="47.29771" lon="4.93346">
        <ele>608.4</ele>
        <time>2013-02-23T07:28:31.000Z</time>
      </trkpt>
      <trkpt lat="47.29771" lon="4.93346">
        <ele>608.4</ele>
        <time>2013-02-23T07:28:32.000Z</time>
      </trkpt>
      <trkpt lat="47.29764" lon="4.93351">
        <ele>610.3</ele>
        <time>2013-02-23T07:28:33.000Z</time>
      </trkpt>
      <trkpt lat="47.29761" lon="4.93353">
        <ele>612.3</ele>
        <time>2013-02-23T07:28:36.000Z</time>
      </trkpt>
      <trkpt lat="47.2976" lon="4.93353">
        <ele>612.9</ele>
        <time>2013-02-23T07:28:37.000Z</time>
      </trkpt>
      <trkpt lat="47.29756" lon="4.93354">
        <ele>614.7</ele>
        <time>2013-02-23T07:28:40.000Z</time>
      </trkpt>
      <trkpt lat="47.29755" lon="4.93354">
        <ele>615.3</ele>
        <time>2013-02-23T07:28:41.000Z</time>
      </trkpt>
      <trkpt lat="47.29752" lon="4.93354">
        <ele>616.5</ele>
        <time>2013-02-23T07:28:43.000Z</time>
      </trkpt>
      <trkpt lat="47.2975" lon="4.93355">
        <ele>617</ele>
        <time>2013-02-23T07:28:44.000Z</time>
      </trkpt>
      <trkpt lat="47.29746" lon="4.93353">
        <ele>617.2</ele>
        <time>2013-02-23T07:28:47.000Z</time>
      </trkpt>
      <trkpt lat="47.29745" lon="4.93353">
        <ele>617.5</ele>
        <time>2013-02-23T07:28:48.000Z</time>
      </trkpt>
      <trkpt lat="47.2974" lon="4.93351">
        <ele>618.5</ele>
        <time>2013-02-23T07:28:51.000Z</time>
      </trkpt>
      <trkpt lat="47.29739" lon="4.93351">
        <ele>618.5</ele>
        <time>2013-02-23T07:28:52.000Z</time>
      </trkpt>
      <trkpt lat="47.29735" lon="4.9335">
        <ele>618.6</ele>
        <time>2013-02-23T07:28:55.000Z</time>
      </trkpt>
      <trkpt lat="47.29734" lon="4.93349">
        <ele>618.3</ele>
        <time>2013-02-23T07:28:56.000Z</time>
      </trkpt>
      <trkpt lat="47.2973" lon="4.93348">
        <ele>617.8</ele>
        <time>2013-02-23T07:28:58.000Z</time>
      </trkpt>
      <trkpt lat="47.29729" lon="4.93348">
        <ele>617.6</ele>
        <time>2013-02-23T07:28:59.000Z</time>
      </trkpt>
      <trkpt lat="47.29726" lon="4.93347">
        <ele>617.6</ele>
        <time>2013-02-23T07:29:01.000Z</time>
      </trkpt>
      <trkpt lat="47.29724" lon="4.93347">
        <ele>617.4</ele>
        <time>2013-02-23T07:29:02.000Z</time>
      </trkpt>
      <trkpt lat="47.29721" lon="4.93346">
        <ele>617.1</ele>
        <time>2013-02-23T07:29:04.000Z</time>
      </trkpt>
      <trkpt lat="47.29719" lon="4.93346">
        <ele>617</ele>
        <time>2013-02-23T07:29:05.000Z</time>
      </trkpt>
      <trkpt lat="47.29716" lon="4.93345">
        <ele>616.9</ele>
        <time>2013-02-23T07:29:07.000Z</time>
      </trkpt>
      <trkpt lat="47.29715" lon="4.93345">
        <ele>617</ele>
        <time>2013-02-23T07:29:08.000Z</time>
      </trkpt>
      <trkpt lat="47.2971" lon="4.93344">
        <ele>617.5</ele>
        <time>2013-02-23T07:29:11.000Z</time>
      </trkpt>
      <trkpt lat="47.29709" lon="4.93344">
        <ele>617.6</ele>
        <time>2013-02-23T07:29:12.000Z</time>
      </trkpt>
      <trkpt lat="47.29706" lon="4.93344">
        <ele>617.9</ele>
        <time>2013-02-23T07:29:14.000Z</time>
      </trkpt>
      <trkpt lat="47.29704" lon="4.93343">
        <ele>617.9</ele>
        <time>2013-02-23T07:29:15.000Z</time>
      </trkpt>
      <trkpt lat="47.297" lon="4.93342">
        <ele>618.1</ele>
        <time>2013-02-23T07:29:17.000Z</time>
      </trkpt>
      <trkpt lat="47.29699" lon="4.93341">
        <ele>618.1</ele>
        <time>2013-02-23T07:29:18.000Z</time>
      </trkpt>
      <trkpt lat="47.29696" lon="4.9334">
        <ele>618.2</ele>
        <time>2013-02-23T07:29:20.000Z</time>
      </trkpt>
      <trkpt lat="47.29694" lon="4.93339">
        <ele>618.3</ele>
        <time>2013-02-23T07:29:21.000Z</time>
      </trkpt>
      <trkpt lat="47.29691" lon="4.93339">
        <ele>618.6</ele>
        <time>2013-02-23T07:29:23.000Z</time>
      </trkpt>
      <trkpt lat="47.29689" lon="4.93339">
        <ele>618.7</ele>
        <time>2013-02-23T07:29:24.000Z</time>
      </trkpt>
      <trkpt lat="47.29672" lon="4.93339">
        <ele>621.6</ele>
        <time>2013-02-23T07:29:31.000Z</time>
      </trkpt>
      <trkpt lat="47.29669" lon="4.93337">
        <ele>621.8</ele>
        <time>2013-02-23T07:29:33.000Z</time>
      </trkpt>
      <trkpt lat="47.29667" lon="4.93337">
        <ele>622.7</ele>
        <time>2013-02-23T07:29:34.000Z</time>
      </trkpt>
      <trkpt lat="47.29663" lon="4.93335">
        <ele>623.2</ele>
        <time>2013-02-23T07:29:37.000Z</time>
      </trkpt>
      <trkpt lat="47.29662" lon="4.93335">
        <ele>623.1</ele>
        <time>2013-02-23T07:29:38.000Z</time>
      </trkpt>
      <trkpt lat="47.29658" lon="4.93334">
        <ele>622.6</ele>
        <time>2013-02-23T07:29:40.000Z</time>
      </trkpt>
      <trkpt lat="47.29657" lon="4.93333">
        <ele>621.6</ele>
        <time>2013-02-23T07:29:41.000Z</time>
      </trkpt>
      <trkpt lat="47.29654" lon="4.93332">
        <ele>621.6</ele>
        <time>2013-02-23T07:29:43.000Z</time>
      </trkpt>
      <trkpt lat="47.29652" lon="4.93331">
        <ele>621.5</ele>
        <time>2013-02-23T07:29:44.000Z</time>
      </trkpt>
      <trkpt lat="47.29648" lon="4.9333">
        <ele>622.1</ele>
        <time>2013-02-23T07:29:47.000Z</time>
      </trkpt>
      <trkpt lat="47.29647" lon="4.9333">
        <ele>622.3</ele>
        <time>2013-02-23T07:29:48.000Z</time>
      </trkpt>
      <trkpt lat="47.29644" lon="4.93329">
        <ele>621.8</ele>
        <time>2013-02-23T07:29:50.000Z</time>
      </trkpt>
      <trkpt lat="47.29642" lon="4.93329">
        <ele>621.4</ele>
        <time>2013-02-23T07:29:51.000Z</time>
      </trkpt>
      <trkpt lat="47.29639" lon="4.93328">
        <ele>621.1</ele>
        <time>2013-02-23T07:29:53.000Z</time>
      </trkpt>
      <trkpt lat="47.29638" lon="4.93327">
        <ele>621.1</ele>
        <time>2013-02-23T07:29:54.000Z</time>
      </trkpt>
      <trkpt lat="47.29634" lon="4.93326">
        <ele>620.9</ele>
        <time>2013-02-23T07:29:56.000Z</time>
      </trkpt>
      <trkpt lat="47.29632" lon="4.93326">
        <ele>620.8</ele>
        <time>2013-02-23T07:29:57.000Z</time>
      </trkpt>
      <trkpt lat="47.29629" lon="4.93325">
        <ele>620.7</ele>
        <time>2013-02-23T07:29:59.000Z</time>
      </trkpt>
      <trkpt lat="47.29627" lon="4.93325">
        <ele>620.8</ele>
        <time>2013-02-23T07:30:00.000Z</time>
      </trkpt>
      <trkpt lat="47.29624" lon="4.93324">
        <ele>620.8</ele>
        <time>2013-02-23T07:30:02.000Z</time>
      </trkpt>
      <trkpt lat="47.29623" lon="4.93323">
        <ele>620.9</ele>
        <time>2013-02-23T07:30:03.000Z</time>
      </trkpt>
      <trkpt lat="47.29619" lon="4.93322">
        <ele>620.8</ele>
        <time>2013-02-23T07:30:05.000Z</time>
      </trkpt>
      <trkpt lat="47.29618" lon="4.93322">
        <ele>620.8</ele>
        <time>2013-02-23T07:30:06.000Z</time>
      </trkpt>
      <trkpt lat="47.29614" lon="4.93321">
        <ele>620.8</ele>
        <time>2013-02-23T07:30:08.000Z</time>
      </trkpt>
      <trkpt lat="47.29613" lon="4.93321">
        <ele>620.9</ele>
        <time>2013-02-23T07:30:09.000Z</time>
      </trkpt>
      <trkpt lat="47.29608" lon="4.9332">
        <ele>620.9</ele>
        <time>2013-02-23T07:30:12.000Z</time>
      </trkpt>
      <trkpt lat="47.29607" lon="4.9332">
        <ele>620.9</ele>
        <time>2013-02-23T07:30:13.000Z</time>
      </trkpt>
      <trkpt lat="47.29603" lon="4.93319">
        <ele>620.9</ele>
        <time>2013-02-23T07:30:15.000Z</time>
      </trkpt>
      <trkpt lat="47.29602" lon="4.93319">
        <ele>620.8</ele>
        <time>2013-02-23T07:30:16.000Z</time>
      </trkpt>
      <trkpt lat="47.29598" lon="4.93318">
        <ele>620.8</ele>
        <time>2013-02-23T07:30:18.000Z</time>
      </trkpt>
      <trkpt lat="47.29597" lon="4.93317">
        <ele>620.8</ele>
        <time>2013-02-23T07:30:19.000Z</time>
      </trkpt>
      <trkpt lat="47.29593" lon="4.93317">
        <ele>620.8</ele>
        <time>2013-02-23T07:30:21.000Z</time>
      </trkpt>
      <trkpt lat="47.29591" lon="4.93317">
        <ele>620.7</ele>
        <time>2013-02-23T07:30:22.000Z</time>
      </trkpt>
      <trkpt lat="47.29587" lon="4.93316">
        <ele>620.8</ele>
        <time>2013-02-23T07:30:24.000Z</time>
      </trkpt>
      <trkpt lat="47.2957" lon="4.93314">
        <ele>622.4</ele>
        <time>2013-02-23T07:30:31.000Z</time>
      </trkpt>
      <trkpt lat="47.29565" lon="4.93313">
        <ele>622.9</ele>
        <time>2013-02-23T07:30:34.000Z</time>
      </trkpt>
      <trkpt lat="47.29564" lon="4.93312">
        <ele>622.8</ele>
        <time>2013-02-23T07:30:35.000Z</time>
      </trkpt>
      <trkpt lat="47.29561" lon="4.93312">
        <ele>623.6</ele>
        <time>2013-02-23T07:30:38.000Z</time>
      </trkpt>
      <trkpt lat="47.29559" lon="4.93311">
        <ele>623.6</ele>
        <time>2013-02-23T07:30:39.000Z</time>
      </trkpt>
      <trkpt lat="47.29555" lon="4.93308">
        <ele>622.9</ele>
        <time>2013-02-23T07:30:42.000Z</time>
      </trkpt>
      <trkpt lat="47.29554" lon="4.93308">
        <ele>623.1</ele>
        <time>2013-02-23T07:30:43.000Z</time>
      </trkpt>
      <trkpt lat="47.2955" lon="4.93307">
        <ele>623.9</ele>
        <time>2013-02-23T07:30:45.000Z</time>
      </trkpt>
      <trkpt lat="47.29549" lon="4.93307">
        <ele>623.7</ele>
        <time>2013-02-23T07:30:46.000Z</time>
      </trkpt>
      <trkpt lat="47.29545" lon="4.93306">
        <ele>624</ele>
        <time>2013-02-23T07:30:48.000Z</time>
      </trkpt>
      <trkpt lat="47.29543" lon="4.93305">
        <ele>623.4</ele>
        <time>2013-02-23T07:30:49.000Z</time>
      </trkpt>
      <trkpt lat="47.29541" lon="4.93305">
        <ele>623</ele>
        <time>2013-02-23T07:30:50.000Z</time>
      </trkpt>
      <trkpt lat="47.29539" lon="4.93304">
        <ele>622.6</ele>
        <time>2013-02-23T07:30:51.000Z</time>
      </trkpt>
      <trkpt lat="47.29535" lon="4.93304">
        <ele>622.9</ele>
        <time>2013-02-23T07:30:53.000Z</time>
      </trkpt>
      <trkpt lat="47.29533" lon="4.93304">
        <ele>622.9</ele>
        <time>2013-02-23T07:30:54.000Z</time>
      </trkpt>
      <trkpt lat="47.2953" lon="4.93302">
        <ele>622.4</ele>
        <time>2013-02-23T07:30:56.000Z</time>
      </trkpt>
      <trkpt lat="47.29529" lon="4.93301">
        <ele>622.3</ele>
        <time>2013-02-23T07:30:57.000Z</time>
      </trkpt>
      <trkpt lat="47.29524" lon="4.93301">
        <ele>622.5</ele>
        <time>2013-02-23T07:31:00.000Z</time>
      </trkpt>
      <trkpt lat="47.29523" lon="4.93301">
        <ele>622.7</ele>
        <time>2013-02-23T07:31:01.000Z</time>
      </trkpt>
      <trkpt lat="47.29519" lon="4.933">
        <ele>622.8</ele>
        <time>2013-02-23T07:31:03.000Z</time>
      </trkpt>
      <trkpt lat="47.29518" lon="4.933">
        <ele>622.6</ele>
        <time>2013-02-23T07:31:04.000Z</time>
      </trkpt>
      <trkpt lat="47.29515" lon="4.93298">
        <ele>622.4</ele>
        <time>2013-02-23T07:31:06.000Z</time>
      </trkpt>
      <trkpt lat="47.29513" lon="4.93298">
        <ele>622.1</ele>
        <time>2013-02-23T07:31:07.000Z</time>
      </trkpt>
      <trkpt lat="47.29509" lon="4.93297">
        <ele>622</ele>
        <time>2013-02-23T07:31:09.000Z</time>
      </trkpt>
      <trkpt lat="47.29507" lon="4.93296">
        <ele>621.8</ele>
        <time>2013-02-23T07:31:10.000Z</time>
      </trkpt>
      <trkpt lat="47.29503" lon="4.93295">
        <ele>621.5</ele>
        <time>2013-02-23T07:31:13.000Z</time>
      </trkpt>
      <trkpt lat="47.29502" lon="4.93294">
        <ele>621.5</ele>
        <time>2013-02-23T07:31:14.000Z</time>
      </trkpt>
      <trkpt lat="47.29498" lon="4.93294">
        <ele>621.5</ele>
        <time>2013-02-23T07:31:16.000Z</time>
      </trkpt>
      <trkpt lat="47.29497" lon="4.93293">
        <ele>621.6</ele>
        <time>2013-02-23T07:31:17.000Z</time>
      </trkpt>
      <trkpt lat="47.29493" lon="4.93293">
        <ele>621.4</ele>
        <time>2013-02-23T07:31:19.000Z</time>
      </trkpt>
      <trkpt lat="47.29492" lon="4.93293">
        <ele>621.4</ele>
        <time>2013-02-23T07:31:20.000Z</time>
      </trkpt>
      <trkpt lat="47.29488" lon="4.93293">
        <ele>621.6</ele>
        <time>2013-02-23T07:31:22.000Z</time>
      </trkpt>
      <trkpt lat="47.29486" lon="4.93293">
        <ele>621.8</ele>
        <time>2013-02-23T07:31:23.000Z</time>
      </trkpt>
      <trkpt lat="47.29483" lon="4.93292">
        <ele>621.8</ele>
        <time>2013-02-23T07:31:25.000Z</time>
      </trkpt>
      <trkpt lat="47.29481" lon="4.93292">
        <ele>621.9</ele>
        <time>2013-02-23T07:31:26.000Z</time>
      </trkpt>
      <trkpt lat="47.29478" lon="4.93291">
        <ele>621.9</ele>
        <time>2013-02-23T07:31:28.000Z</time>
      </trkpt>
      <trkpt lat="47.29476" lon="4.9329">
        <ele>621.9</ele>
        <time>2013-02-23T07:31:29.000Z</time>
      </trkpt>
      <trkpt lat="47.29473" lon="4.93289">
        <ele>621.8</ele>
        <time>2013-02-23T07:31:31.000Z</time>
      </trkpt>
      <trkpt lat="47.2947" lon="4.93289">
        <ele>621.8</ele>
        <time>2013-02-23T07:31:32.000Z</time>
      </trkpt>
      <trkpt lat="47.29467" lon="4.93288">
        <ele>622</ele>
        <time>2013-02-23T07:31:34.000Z</time>
      </trkpt>
      <trkpt lat="47.29465" lon="4.93287">
        <ele>622</ele>
        <time>2013-02-23T07:31:35.000Z</time>
      </trkpt>
      <trkpt lat="47.29462" lon="4.93285">
        <ele>621.8</ele>
        <time>2013-02-23T07:31:37.000Z</time>
      </trkpt>
      <trkpt lat="47.29461" lon="4.93285">
        <ele>621.7</ele>
        <time>2013-02-23T07:31:38.000Z</time>
      </trkpt>
      <trkpt lat="47.29457" lon="4.93285">
        <ele>621.8</ele>
        <time>2013-02-23T07:31:40.000Z</time>
      </trkpt>
      <trkpt lat="47.29455" lon="4.93284">
        <ele>621.9</ele>
        <time>2013-02-23T07:31:41.000Z</time>
      </trkpt>
      <trkpt lat="47.29451" lon="4.93283">
        <ele>622</ele>
        <time>2013-02-23T07:31:43.000Z</time>
      </trkpt>
      <trkpt lat="47.2945" lon="4.93282">
        <ele>622.1</ele>
        <time>2013-02-23T07:31:44.000Z</time>
      </trkpt>
      <trkpt lat="47.29446" lon="4.93282">
        <ele>622.2</ele>
        <time>2013-02-23T07:31:46.000Z</time>
      </trkpt>
      <trkpt lat="47.29444" lon="4.93281">
        <ele>622.2</ele>
        <time>2013-02-23T07:31:47.000Z</time>
      </trkpt>
      <trkpt lat="47.29439" lon="4.9328">
        <ele>622.2</ele>
        <time>2013-02-23T07:31:50.000Z</time>
      </trkpt>
      <trkpt lat="47.29438" lon="4.93279">
        <ele>622.3</ele>
        <time>2013-02-23T07:31:51.000Z</time>
      </trkpt>
      <trkpt lat="47.29435" lon="4.93278">
        <ele>622.4</ele>
        <time>2013-02-23T07:31:53.000Z</time>
      </trkpt>
      <trkpt lat="47.29433" lon="4.93278">
        <ele>622.4</ele>
        <time>2013-02-23T07:31:54.000Z</time>
      </trkpt>
      <trkpt lat="47.2943" lon="4.93277">
        <ele>622.5</ele>
        <time>2013-02-23T07:31:56.000Z</time>
      </trkpt>
      <trkpt lat="47.29428" lon="4.93277">
        <ele>622.6</ele>
        <time>2013-02-23T07:31:57.000Z</time>
      </trkpt>
      <trkpt lat="47.29424" lon="4.93277">
        <ele>622.7</ele>
        <time>2013-02-23T07:31:59.000Z</time>
      </trkpt>
      <trkpt lat="47.29423" lon="4.93276">
        <ele>622.8</ele>
        <time>2013-02-23T07:32:00.000Z</time>
      </trkpt>
      <trkpt lat="47.29419" lon="4.93276">
        <ele>623.1</ele>
        <time>2013-02-23T07:32:02.000Z</time>
      </trkpt>
      <trkpt lat="47.29417" lon="4.93275">
        <ele>623.3</ele>
        <time>2013-02-23T07:32:03.000Z</time>
      </trkpt>
      <trkpt lat="47.29414" lon="4.93274">
        <ele>623.5</ele>
        <time>2013-02-23T07:32:05.000Z</time>
      </trkpt>
      <trkpt lat="47.29412" lon="4.93274">
        <ele>623.6</ele>
        <time>2013-02-23T07:32:06.000Z</time>
      </trkpt>
      <trkpt lat="47.29408" lon="4.93273">
        <ele>623.6</ele>
        <time>2013-02-23T07:32:08.000Z</time>
      </trkpt>
      <trkpt lat="47.29406" lon="4.93272">
        <ele>623.7</ele>
        <time>2013-02-23T07:32:09.000Z</time>
      </trkpt>
      <trkpt lat="47.29403" lon="4.93272">
        <ele>623.8</ele>
        <time>2013-02-23T07:32:11.000Z</time>
      </trkpt>
      <trkpt lat="47.29401" lon="4.93271">
        <ele>623.8</ele>
        <time>2013-02-23T07:32:12.000Z</time>
      </trkpt>
      <trkpt lat="47.29398" lon="4.9327">
        <ele>623.6</ele>
        <time>2013-02-23T07:32:14.000Z</time>
      </trkpt>
      <trkpt lat="47.29396" lon="4.9327">
        <ele>623.7</ele>
        <time>2013-02-23T07:32:15.000Z</time>
      </trkpt>
      <trkpt lat="47.29393" lon="4.93269">
        <ele>623.6</ele>
        <time>2013-02-23T07:32:17.000Z</time>
      </trkpt>
      <trkpt lat="47.29391" lon="4.93269">
        <ele>623.6</ele>
        <time>2013-02-23T07:32:18.000Z</time>
      </trkpt>
      <trkpt lat="47.29388" lon="4.93268">
        <ele>623.6</ele>
        <time>2013-02-23T07:32:20.000Z</time>
      </trkpt>
      <trkpt lat="47.29386" lon="4.93268">
        <ele>623.6</ele>
        <time>2013-02-23T07:32:21.000Z</time>
      </trkpt>
      <trkpt lat="47.29383" lon="4.93267">
        <ele>623.6</ele>
        <time>2013-02-23T07:32:23.000Z</time>
      </trkpt>
      <trkpt lat="47.29381" lon="4.93267">
        <ele>623.7</ele>
        <time>2013-02-23T07:32:24.000Z</time>
      </trkpt>
      <trkpt lat="47.2937" lon="4.93261">
        <ele>624.2</ele>
        <time>2013-02-23T07:32:31.000Z</time>
      </trkpt>
      <trkpt lat="47.29367" lon="4.93262">
        <ele>624.8</ele>
        <time>2013-02-23T07:32:34.000Z</time>
      </trkpt>
      <trkpt lat="47.29365" lon="4.93262">
        <ele>626</ele>
        <time>2013-02-23T07:32:35.000Z</time>
      </trkpt>
      <trkpt lat="47.29362" lon="4.93262">
        <ele>627.5</ele>
        <time>2013-02-23T07:32:38.000Z</time>
      </trkpt>
      <trkpt lat="47.29361" lon="4.93262">
        <ele>627.8</ele>
        <time>2013-02-23T07:32:39.000Z</time>
      </trkpt>
      <trkpt lat="47.29357" lon="4.93261">
        <ele>626</ele>
        <time>2013-02-23T07:32:49.000Z</time>
      </trkpt>
      <trkpt lat="47.29356" lon="4.93261">
        <ele>625.1</ele>
        <time>2013-02-23T07:32:50.000Z</time>
      </trkpt>
      <trkpt lat="47.29352" lon="4.93261">
        <ele>621.7</ele>
        <time>2013-02-23T07:33:19.000Z</time>
      </trkpt>
      <trkpt lat="47.29351" lon="4.93261">
        <ele>621.7</ele>
        <time>2013-02-23T07:33:20.000Z</time>
      </trkpt>
      <trkpt lat="47.29347" lon="4.9326">
        <ele>621.9</ele>
        <time>2013-02-23T07:33:23.000Z</time>
      </trkpt>
      <trkpt lat="47.29346" lon="4.9326">
        <ele>622</ele>
        <time>2013-02-23T07:33:24.000Z</time>
      </trkpt>
      <trkpt lat="47.29334" lon="4.93258">
        <ele>626.3</ele>
        <time>2013-02-23T07:33:31.000Z</time>
      </trkpt>
      <trkpt lat="47.29331" lon="4.93254">
        <ele>626.7</ele>
        <time>2013-02-23T07:33:34.000Z</time>
      </trkpt>
      <trkpt lat="47.29329" lon="4.93254">
        <ele>626.5</ele>
        <time>2013-02-23T07:33:35.000Z</time>
      </trkpt>
      <trkpt lat="47.29326" lon="4.93251">
        <ele>625.8</ele>
        <time>2013-02-23T07:33:37.000Z</time>
      </trkpt>
      <trkpt lat="47.29325" lon="4.9325">
        <ele>625.8</ele>
        <time>2013-02-23T07:33:38.000Z</time>
      </trkpt>
      <trkpt lat="47.29322" lon="4.93247">
        <ele>625.2</ele>
        <time>2013-02-23T07:33:40.000Z</time>
      </trkpt>
      <trkpt lat="47.29321" lon="4.93246">
        <ele>625.3</ele>
        <time>2013-02-23T07:33:41.000Z</time>
      </trkpt>
      <trkpt lat="47.29318" lon="4.93243">
        <ele>625.3</ele>
        <time>2013-02-23T07:33:43.000Z</time>
      </trkpt>
      <trkpt lat="47.29317" lon="4.93242">
        <ele>625.6</ele>
        <time>2013-02-23T07:33:44.000Z</time>
      </trkpt>
      <trkpt lat="47.29315" lon="4.93239">
        <ele>625.7</ele>
        <time>2013-02-23T07:33:46.000Z</time>
      </trkpt>
      <trkpt lat="47.29313" lon="4.93238">
        <ele>625.9</ele>
        <time>2013-02-23T07:33:47.000Z</time>
      </trkpt>
      <trkpt lat="47.29311" lon="4.93234">
        <ele>626</ele>
        <time>2013-02-23T07:33:49.000Z</time>
      </trkpt>
      <trkpt lat="47.2931" lon="4.93233">
        <ele>626</ele>
        <time>2013-02-23T07:33:50.000Z</time>
      </trkpt>
      <trkpt lat="47.29306" lon="4.93228">
        <ele>626.7</ele>
        <time>2013-02-23T07:33:53.000Z</time>
      </trkpt>
      <trkpt lat="47.29305" lon="4.93226">
        <ele>626.4</ele>
        <time>2013-02-23T07:33:54.000Z</time>
      </trkpt>
      <trkpt lat="47.29304" lon="4.93222">
        <ele>625.6</ele>
        <time>2013-02-23T07:33:56.000Z</time>
      </trkpt>
      <trkpt lat="47.29303" lon="4.9322">
        <ele>625.3</ele>
        <time>2013-02-23T07:33:57.000Z</time>
      </trkpt>
      <trkpt lat="47.293" lon="4.93217">
        <ele>625.4</ele>
        <time>2013-02-23T07:33:59.000Z</time>
      </trkpt>
      <trkpt lat="47.29299" lon="4.93215">
        <ele>625.3</ele>
        <time>2013-02-23T07:34:00.000Z</time>
      </trkpt>
      <trkpt lat="47.29297" lon="4.9321">
        <ele>625.2</ele>
        <time>2013-02-23T07:34:02.000Z</time>
      </trkpt>
      <trkpt lat="47.29295" lon="4.93208">
        <ele>625.4</ele>
        <time>2013-02-23T07:34:03.000Z</time>
      </trkpt>
      <trkpt lat="47.29293" lon="4.93204">
        <ele>625.4</ele>
        <time>2013-02-23T07:34:05.000Z</time>
      </trkpt>
      <trkpt lat="47.29291" lon="4.93202">
        <ele>625.3</ele>
        <time>2013-02-23T07:34:06.000Z</time>
      </trkpt>
      <trkpt lat="47.29288" lon="4.93197">
        <ele>624.7</ele>
        <time>2013-02-23T07:34:08.000Z</time>
      </trkpt>
      <trkpt lat="47.29287" lon="4.93195">
        <ele>624.6</ele>
        <time>2013-02-23T07:34:09.000Z</time>
      </trkpt>
      <trkpt lat="47.29285" lon="4.93191">
        <ele>624.9</ele>
        <time>2013-02-23T07:34:11.000Z</time>
      </trkpt>
      <trkpt lat="47.29284" lon="4.9319">
        <ele>624.9</ele>
        <time>2013-02-23T07:34:12.000Z</time>
      </trkpt>
      <trkpt lat="47.29281" lon="4.93186">
        <ele>625.1</ele>
        <time>2013-02-23T07:34:14.000Z</time>
      </trkpt>
      <trkpt lat="47.2928" lon="4.93184">
        <ele>625.1</ele>
        <time>2013-02-23T07:34:15.000Z</time>
      </trkpt>
      <trkpt lat="47.29277" lon="4.9318">
        <ele>625.3</ele>
        <time>2013-02-23T07:34:17.000Z</time>
      </trkpt>
      <trkpt lat="47.29276" lon="4.93179">
        <ele>625.4</ele>
        <time>2013-02-23T07:34:18.000Z</time>
      </trkpt>
      <trkpt lat="47.29273" lon="4.93175">
        <ele>625.5</ele>
        <time>2013-02-23T07:34:20.000Z</time>
      </trkpt>
      <trkpt lat="47.29272" lon="4.93173">
        <ele>625.4</ele>
        <time>2013-02-23T07:34:21.000Z</time>
      </trkpt>
      <trkpt lat="47.29269" lon="4.93169">
        <ele>625.4</ele>
        <time>2013-02-23T07:34:23.000Z</time>
      </trkpt>
      <trkpt lat="47.29268" lon="4.93167">
        <ele>625.4</ele>
        <time>2013-02-23T07:34:24.000Z</time>
      </trkpt>
      <trkpt lat="47.29258" lon="4.93158">
        <ele>627.1</ele>
        <time>2013-02-23T07:34:31.000Z</time>
      </trkpt>
      <trkpt lat="47.29256" lon="4.93153">
        <ele>626.5</ele>
        <time>2013-02-23T07:34:33.000Z</time>
      </trkpt>
      <trkpt lat="47.29255" lon="4.93152">
        <ele>627</ele>
        <time>2013-02-23T07:34:34.000Z</time>
      </trkpt>
      <trkpt lat="47.29253" lon="4.93148">
        <ele>627.3</ele>
        <time>2013-02-23T07:34:36.000Z</time>
      </trkpt>
      <trkpt lat="47.29252" lon="4.93145">
        <ele>626.9</ele>
        <time>2013-02-23T07:34:37.000Z</time>
      </trkpt>
      <trkpt lat="47.29249" lon="4.93142">
        <ele>627.6</ele>
        <time>2013-02-23T07:34:39.000Z</time>
      </trkpt>
      <trkpt lat="47.29248" lon="4.9314">
        <ele>627.8</ele>
        <time>2013-02-23T07:34:40.000Z</time>
      </trkpt>
      <trkpt lat="47.29246" lon="4.93136">
        <ele>627.7</ele>
        <time>2013-02-23T07:34:42.000Z</time>
      </trkpt>
      <trkpt lat="47.29244" lon="4.93134">
        <ele>627.8</ele>
        <time>2013-02-23T07:34:43.000Z</time>
      </trkpt>
      <trkpt lat="47.29242" lon="4.93131">
        <ele>628</ele>
        <time>2013-02-23T07:34:45.000Z</time>
      </trkpt>
      <trkpt lat="47.2924" lon="4.93129">
        <ele>628.3</ele>
        <time>2013-02-23T07:34:46.000Z</time>
      </trkpt>
      <trkpt lat="47.29238" lon="4.93125">
        <ele>628.3</ele>
        <time>2013-02-23T07:34:48.000Z</time>
      </trkpt>
      <trkpt lat="47.29236" lon="4.93123">
        <ele>628.7</ele>
        <time>2013-02-23T07:34:49.000Z</time>
      </trkpt>
      <trkpt lat="47.29234" lon="4.9312">
        <ele>628.8</ele>
        <time>2013-02-23T07:34:51.000Z</time>
      </trkpt>
      <trkpt lat="47.29232" lon="4.93118">
        <ele>628.9</ele>
        <time>2013-02-23T07:34:52.000Z</time>
      </trkpt>
      <trkpt lat="47.2923" lon="4.93113">
        <ele>628.6</ele>
        <time>2013-02-23T07:34:54.000Z</time>
      </trkpt>
      <trkpt lat="47.29229" lon="4.93111">
        <ele>628.5</ele>
        <time>2013-02-23T07:34:55.000Z</time>
      </trkpt>
      <trkpt lat="47.29226" lon="4.93107">
        <ele>628.4</ele>
        <time>2013-02-23T07:34:57.000Z</time>
      </trkpt>
      <trkpt lat="47.29225" lon="4.93105">
        <ele>628.2</ele>
        <time>2013-02-23T07:34:58.000Z</time>
      </trkpt>
      <trkpt lat="47.29223" lon="4.93101">
        <ele>628.1</ele>
        <time>2013-02-23T07:35:00.000Z</time>
      </trkpt>
      <trkpt lat="47.29222" lon="4.93099">
        <ele>628</ele>
        <time>2013-02-23T07:35:01.000Z</time>
      </trkpt>
      <trkpt lat="47.2922" lon="4.93094">
        <ele>627.6</ele>
        <time>2013-02-23T07:35:03.000Z</time>
      </trkpt>
      <trkpt lat="47.29219" lon="4.93091">
        <ele>627.4</ele>
        <time>2013-02-23T07:35:04.000Z</time>
      </trkpt>
      <trkpt lat="47.29217" lon="4.93087">
        <ele>627.3</ele>
        <time>2013-02-23T07:35:06.000Z</time>
      </trkpt>
      <trkpt lat="47.29215" lon="4.93085">
        <ele>627.2</ele>
        <time>2013-02-23T07:35:07.000Z</time>
      </trkpt>
      <trkpt lat="47.29213" lon="4.9308">
        <ele>627.2</ele>
        <time>2013-02-23T07:35:09.000Z</time>
      </trkpt>
      <trkpt lat="47.29212" lon="4.93078">
        <ele>627.1</ele>
        <time>2013-02-23T07:35:10.000Z</time>
      </trkpt>
      <trkpt lat="47.2921" lon="4.93073">
        <ele>627.1</ele>
        <time>2013-02-23T07:35:12.000Z</time>
      </trkpt>
      <trkpt lat="47.29209" lon="4.93071">
        <ele>627.1</ele>
        <time>2013-02-23T07:35:13.000Z</time>
      </trkpt>
      <trkpt lat="47.29207" lon="4.93066">
        <ele>626.9</ele>
        <time>2013-02-23T07:35:15.000Z</time>
      </trkpt>
      <trkpt lat="47.29206" lon="4.93063">
        <ele>626.7</ele>
        <time>2013-02-23T07:35:16.000Z</time>
      </trkpt>
      <trkpt lat="47.29204" lon="4.93059">
        <ele>626.7</ele>
        <time>2013-02-23T07:35:18.000Z</time>
      </trkpt>
      <trkpt lat="47.29203" lon="4.93056">
        <ele>626.7</ele>
        <time>2013-02-23T07:35:19.000Z</time>
      </trkpt>
      <trkpt lat="47.29201" lon="4.93052">
        <ele>626.9</ele>
        <time>2013-02-23T07:35:21.000Z</time>
      </trkpt>
      <trkpt lat="47.292" lon="4.93049">
        <ele>626.9</ele>
        <time>2013-02-23T07:35:22.000Z</time>
      </trkpt>
      <trkpt lat="47.29198" lon="4.93044">
        <ele>626.8</ele>
        <time>2013-02-23T07:35:24.000Z</time>
      </trkpt>
      <trkpt lat="47.29191" lon="4.93025">
        <ele>625.1</ele>
        <time>2013-02-23T07:35:31.000Z</time>
      </trkpt>
      <trkpt lat="47.29189" lon="4.93022">
        <ele>626</ele>
        <time>2013-02-23T07:35:33.000Z</time>
      </trkpt>
      <trkpt lat="47.29187" lon="4.9302">
        <ele>626.2</ele>
        <time>2013-02-23T07:35:34.000Z</time>
      </trkpt>
      <trkpt lat="47.29185" lon="4.93016">
        <ele>626.6</ele>
        <time>2013-02-23T07:35:36.000Z</time>
      </trkpt>
      <trkpt lat="47.29184" lon="4.93014">
        <ele>626.6</ele>
        <time>2013-02-23T07:35:37.000Z</time>
      </trkpt>
      <trkpt lat="47.29182" lon="4.93011">
        <ele>627.4</ele>
        <time>2013-02-23T07:35:39.000Z</time>
      </trkpt>
      <trkpt lat="47.29181" lon="4.93009">
        <ele>627.5</ele>
        <time>2013-02-23T07:35:40.000Z</time>
      </trkpt>
      <trkpt lat="47.29179" lon="4.93005">
        <ele>627.6</ele>
        <time>2013-02-23T07:35:42.000Z</time>
      </trkpt>
      <trkpt lat="47.29178" lon="4.93003">
        <ele>627.8</ele>
        <time>2013-02-23T07:35:43.000Z</time>
      </trkpt>
      <trkpt lat="47.29176" lon="4.92999">
        <ele>628.2</ele>
        <time>2013-02-23T07:35:45.000Z</time>
      </trkpt>
      <trkpt lat="47.29175" lon="4.92997">
        <ele>628.3</ele>
        <time>2013-02-23T07:35:46.000Z</time>
      </trkpt>
      <trkpt lat="47.29172" lon="4.92993">
        <ele>628.7</ele>
        <time>2013-02-23T07:35:48.000Z</time>
      </trkpt>
      <trkpt lat="47.29171" lon="4.92991">
        <ele>629.1</ele>
        <time>2013-02-23T07:35:49.000Z</time>
      </trkpt>
      <trkpt lat="47.29169" lon="4.92987">
        <ele>629.5</ele>
        <time>2013-02-23T07:35:51.000Z</time>
      </trkpt>
      <trkpt lat="47.29168" lon="4.92985">
        <ele>629.5</ele>
        <time>2013-02-23T07:35:52.000Z</time>
      </trkpt>
      <trkpt lat="47.29166" lon="4.92981">
        <ele>629.2</ele>
        <time>2013-02-23T07:35:54.000Z</time>
      </trkpt>
      <trkpt lat="47.29164" lon="4.92978">
        <ele>629.3</ele>
        <time>2013-02-23T07:35:55.000Z</time>
      </trkpt>
      <trkpt lat="47.29162" lon="4.92974">
        <ele>628.8</ele>
        <time>2013-02-23T07:35:57.000Z</time>
      </trkpt>
      <trkpt lat="47.29161" lon="4.92971">
        <ele>628.7</ele>
        <time>2013-02-23T07:35:58.000Z</time>
      </trkpt>
      <trkpt lat="47.29159" lon="4.92967">
        <ele>628.6</ele>
        <time>2013-02-23T07:36:00.000Z</time>
      </trkpt>
      <trkpt lat="47.29158" lon="4.92964">
        <ele>628.4</ele>
        <time>2013-02-23T07:36:01.000Z</time>
      </trkpt>
      <trkpt lat="47.29156" lon="4.9296">
        <ele>628.4</ele>
        <time>2013-02-23T07:36:03.000Z</time>
      </trkpt>
      <trkpt lat="47.29155" lon="4.92958">
        <ele>628.5</ele>
        <time>2013-02-23T07:36:04.000Z</time>
      </trkpt>
      <trkpt lat="47.29153" lon="4.92953">
        <ele>628.3</ele>
        <time>2013-02-23T07:36:06.000Z</time>
      </trkpt>
      <trkpt lat="47.29152" lon="4.92951">
        <ele>628.2</ele>
        <time>2013-02-23T07:36:07.000Z</time>
      </trkpt>
      <trkpt lat="47.29151" lon="4.92946">
        <ele>628.3</ele>
        <time>2013-02-23T07:36:09.000Z</time>
      </trkpt>
      <trkpt lat="47.2915" lon="4.92944">
        <ele>628.3</ele>
        <time>2013-02-23T07:36:10.000Z</time>
      </trkpt>
      <trkpt lat="47.29148" lon="4.9294">
        <ele>628.5</ele>
        <time>2013-02-23T07:36:12.000Z</time>
      </trkpt>
      <trkpt lat="47.29147" lon="4.92938">
        <ele>628.5</ele>
        <time>2013-02-23T07:36:13.000Z</time>
      </trkpt>
      <trkpt lat="47.29145" lon="4.92932">
        <ele>628.3</ele>
        <time>2013-02-23T07:36:15.000Z</time>
      </trkpt>
      <trkpt lat="47.29144" lon="4.9293">
        <ele>628.2</ele>
        <time>2013-02-23T07:36:16.000Z</time>
      </trkpt>
      <trkpt lat="47.29142" lon="4.92925">
        <ele>628.2</ele>
        <time>2013-02-23T07:36:18.000Z</time>
      </trkpt>
      <trkpt lat="47.29141" lon="4.92923">
        <ele>628.2</ele>
        <time>2013-02-23T07:36:19.000Z</time>
      </trkpt>
      <trkpt lat="47.29139" lon="4.92918">
        <ele>628.3</ele>
        <time>2013-02-23T07:36:21.000Z</time>
      </trkpt>
      <trkpt lat="47.29138" lon="4.92915">
        <ele>628.1</ele>
        <time>2013-02-23T07:36:22.000Z</time>
      </trkpt>
      <trkpt lat="47.29136" lon="4.9291">
        <ele>628</ele>
        <time>2013-02-23T07:36:24.000Z</time>
      </trkpt>
      <trkpt lat="47.29128" lon="4.92894">
        <ele>627</ele>
        <time>2013-02-23T07:36:31.000Z</time>
      </trkpt>
      <trkpt lat="47.29125" lon="4.92891">
        <ele>628.6</ele>
        <time>2013-02-23T07:36:33.000Z</time>
      </trkpt>
      <trkpt lat="47.29124" lon="4.92888">
        <ele>628.8</ele>
        <time>2013-02-23T07:36:34.000Z</time>
      </trkpt>
      <trkpt lat="47.29121" lon="4.92885">
        <ele>628.6</ele>
        <time>2013-02-23T07:36:36.000Z</time>
      </trkpt>
      <trkpt lat="47.2912" lon="4.92883">
        <ele>628.7</ele>
        <time>2013-02-23T07:36:37.000Z</time>
      </trkpt>
      <trkpt lat="47.29117" lon="4.92879">
        <ele>629.2</ele>
        <time>2013-02-23T07:36:39.000Z</time>
      </trkpt>
      <trkpt lat="47.29116" lon="4.92878">
        <ele>629.8</ele>
        <time>2013-02-23T07:36:40.000Z</time>
      </trkpt>
      <trkpt lat="47.29114" lon="4.92874">
        <ele>630</ele>
        <time>2013-02-23T07:36:42.000Z</time>
      </trkpt>
      <trkpt lat="47.29112" lon="4.92872">
        <ele>630</ele>
        <time>2013-02-23T07:36:43.000Z</time>
      </trkpt>
      <trkpt lat="47.2911" lon="4.92869">
        <ele>630.7</ele>
        <time>2013-02-23T07:36:45.000Z</time>
      </trkpt>
      <trkpt lat="47.29108" lon="4.92867">
        <ele>630.6</ele>
        <time>2013-02-23T07:36:46.000Z</time>
      </trkpt>
      <trkpt lat="47.29105" lon="4.92864">
        <ele>630.6</ele>
        <time>2013-02-23T07:36:48.000Z</time>
      </trkpt>
      <trkpt lat="47.29104" lon="4.92862">
        <ele>631</ele>
        <time>2013-02-23T07:36:49.000Z</time>
      </trkpt>
      <trkpt lat="47.29102" lon="4.92858">
        <ele>631.1</ele>
        <time>2013-02-23T07:36:51.000Z</time>
      </trkpt>
      <trkpt lat="47.291" lon="4.92857">
        <ele>630.8</ele>
        <time>2013-02-23T07:36:52.000Z</time>
      </trkpt>
      <trkpt lat="47.29097" lon="4.92853">
        <ele>631</ele>
        <time>2013-02-23T07:36:54.000Z</time>
      </trkpt>
      <trkpt lat="47.29096" lon="4.92852">
        <ele>630.9</ele>
        <time>2013-02-23T07:36:55.000Z</time>
      </trkpt>
      <trkpt lat="47.29093" lon="4.92848">
        <ele>630.6</ele>
        <time>2013-02-23T07:36:57.000Z</time>
      </trkpt>
      <trkpt lat="47.29091" lon="4.92847">
        <ele>630.3</ele>
        <time>2013-02-23T07:36:58.000Z</time>
      </trkpt>
      <trkpt lat="47.29088" lon="4.92844">
        <ele>630.1</ele>
        <time>2013-02-23T07:37:00.000Z</time>
      </trkpt>
      <trkpt lat="47.29086" lon="4.92842">
        <ele>629.8</ele>
        <time>2013-02-23T07:37:01.000Z</time>
      </trkpt>
      <trkpt lat="47.29084" lon="4.92839">
        <ele>629.7</ele>
        <time>2013-02-23T07:37:03.000Z</time>
      </trkpt>
      <trkpt lat="47.29082" lon="4.92837">
        <ele>629.5</ele>
        <time>2013-02-23T07:37:04.000Z</time>
      </trkpt>
      <trkpt lat="47.29079" lon="4.92834">
        <ele>629.2</ele>
        <time>2013-02-23T07:37:06.000Z</time>
      </trkpt>
      <trkpt lat="47.29078" lon="4.92833">
        <ele>629.2</ele>
        <time>2013-02-23T07:37:07.000Z</time>
      </trkpt>
      <trkpt lat="47.29074" lon="4.9283">
        <ele>629.3</ele>
        <time>2013-02-23T07:37:09.000Z</time>
      </trkpt>
      <trkpt lat="47.29073" lon="4.92829">
        <ele>629.3</ele>
        <time>2013-02-23T07:37:10.000Z</time>
      </trkpt>
      <trkpt lat="47.29069" lon="4.92826">
        <ele>629.2</ele>
        <time>2013-02-23T07:37:12.000Z</time>
      </trkpt>
      <trkpt lat="47.29068" lon="4.92825">
        <ele>629</ele>
        <time>2013-02-23T07:37:13.000Z</time>
      </trkpt>
      <trkpt lat="47.29064" lon="4.92822">
        <ele>628.9</ele>
        <time>2013-02-23T07:37:15.000Z</time>
      </trkpt>
      <trkpt lat="47.29062" lon="4.92821">
        <ele>628.8</ele>
        <time>2013-02-23T07:37:16.000Z</time>
      </trkpt>
      <trkpt lat="47.29058" lon="4.92817">
        <ele>628.7</ele>
        <time>2013-02-23T07:37:18.000Z</time>
      </trkpt>
      <trkpt lat="47.29057" lon="4.92815">
        <ele>628.7</ele>
        <time>2013-02-23T07:37:19.000Z</time>
      </trkpt>
      <trkpt lat="47.29053" lon="4.92812">
        <ele>628.6</ele>
        <time>2013-02-23T07:37:21.000Z</time>
      </trkpt>
      <trkpt lat="47.29052" lon="4.92811">
        <ele>628.7</ele>
        <time>2013-02-23T07:37:22.000Z</time>
      </trkpt>
      <trkpt lat="47.29048" lon="4.92809">
        <ele>628.6</ele>
        <time>2013-02-23T07:37:24.000Z</time>
      </trkpt>
      <trkpt lat="47.29034" lon="4.928">
        <ele>630.2</ele>
        <time>2013-02-23T07:37:31.000Z</time>
      </trkpt>
      <trkpt lat="47.2903" lon="4.92796">
        <ele>629</ele>
        <time>2013-02-23T07:37:33.000Z</time>
      </trkpt>
      <trkpt lat="47.29028" lon="4.92795">
        <ele>629.3</ele>
        <time>2013-02-23T07:37:34.000Z</time>
      </trkpt>
      <trkpt lat="47.29025" lon="4.92793">
        <ele>628.9</ele>
        <time>2013-02-23T07:37:36.000Z</time>
      </trkpt>
      <trkpt lat="47.29023" lon="4.92793">
        <ele>629.4</ele>
        <time>2013-02-23T07:37:37.000Z</time>
      </trkpt>
      <trkpt lat="47.29019" lon="4.9279">
        <ele>629.1</ele>
        <time>2013-02-23T07:37:39.000Z</time>
      </trkpt>
      <trkpt lat="47.29017" lon="4.92789">
        <ele>628.9</ele>
        <time>2013-02-23T07:37:40.000Z</time>
      </trkpt>
      <trkpt lat="47.29014" lon="4.92787">
        <ele>628.4</ele>
        <time>2013-02-23T07:37:42.000Z</time>
      </trkpt>
      <trkpt lat="47.29011" lon="4.92785">
        <ele>628.2</ele>
        <time>2013-02-23T07:37:43.000Z</time>
      </trkpt>
      <trkpt lat="47.29007" lon="4.92783">
        <ele>628.2</ele>
        <time>2013-02-23T07:37:45.000Z</time>
      </trkpt>
      <trkpt lat="47.29006" lon="4.92781">
        <ele>628.1</ele>
        <time>2013-02-23T07:37:46.000Z</time>
      </trkpt>
      <trkpt lat="47.29002" lon="4.92778">
        <ele>627.9</ele>
        <time>2013-02-23T07:37:48.000Z</time>
      </trkpt>
      <trkpt lat="47.29" lon="4.92777">
        <ele>627.9</ele>
        <time>2013-02-23T07:37:49.000Z</time>
      </trkpt>
      <trkpt lat="47.28997" lon="4.92773">
        <ele>627.9</ele>
        <time>2013-02-23T07:37:51.000Z</time>
      </trkpt>
      <trkpt lat="47.28995" lon="4.92772">
        <ele>627.9</ele>
        <time>2013-02-23T07:37:52.000Z</time>
      </trkpt>
      <trkpt lat="47.28991" lon="4.92769">
        <ele>627.8</ele>
        <time>2013-02-23T07:37:54.000Z</time>
      </trkpt>
      <trkpt lat="47.2899" lon="4.92768">
        <ele>627.5</ele>
        <time>2013-02-23T07:37:55.000Z</time>
      </trkpt>
      <trkpt lat="47.28986" lon="4.92765">
        <ele>627.5</ele>
        <time>2013-02-23T07:37:57.000Z</time>
      </trkpt>
      <trkpt lat="47.28984" lon="4.92763">
        <ele>627.6</ele>
        <time>2013-02-23T07:37:58.000Z</time>
      </trkpt>
      <trkpt lat="47.28981" lon="4.92762">
        <ele>627.7</ele>
        <time>2013-02-23T07:38:00.000Z</time>
      </trkpt>
      <trkpt lat="47.2898" lon="4.9276">
        <ele>627.8</ele>
        <time>2013-02-23T07:38:01.000Z</time>
      </trkpt>
      <trkpt lat="47.28976" lon="4.92758">
        <ele>627.9</ele>
        <time>2013-02-23T07:38:03.000Z</time>
      </trkpt>
      <trkpt lat="47.28975" lon="4.92757">
        <ele>628</ele>
        <time>2013-02-23T07:38:04.000Z</time>
      </trkpt>
      <trkpt lat="47.28971" lon="4.92755">
        <ele>628.1</ele>
        <time>2013-02-23T07:38:06.000Z</time>
      </trkpt>
      <trkpt lat="47.2897" lon="4.92753">
        <ele>628.1</ele>
        <time>2013-02-23T07:38:07.000Z</time>
      </trkpt>
      <trkpt lat="47.28966" lon="4.9275">
        <ele>627.8</ele>
        <time>2013-02-23T07:38:09.000Z</time>
      </trkpt>
      <trkpt lat="47.28964" lon="4.92749">
        <ele>627.8</ele>
        <time>2013-02-23T07:38:10.000Z</time>
      </trkpt>
      <trkpt lat="47.28961" lon="4.92746">
        <ele>627.8</ele>
        <time>2013-02-23T07:38:12.000Z</time>
      </trkpt>
      <trkpt lat="47.28959" lon="4.92744">
        <ele>627.8</ele>
        <time>2013-02-23T07:38:13.000Z</time>
      </trkpt>
      <trkpt lat="47.28956" lon="4.92742">
        <ele>628.1</ele>
        <time>2013-02-23T07:38:15.000Z</time>
      </trkpt>
      <trkpt lat="47.28954" lon="4.92741">
        <ele>628.2</ele>
        <time>2013-02-23T07:38:16.000Z</time>
      </trkpt>
      <trkpt lat="47.28951" lon="4.9274">
        <ele>628.5</ele>
        <time>2013-02-23T07:38:18.000Z</time>
      </trkpt>
      <trkpt lat="47.28949" lon="4.9274">
        <ele>628.6</ele>
        <time>2013-02-23T07:38:19.000Z</time>
      </trkpt>
      <trkpt lat="47.28945" lon="4.92739">
        <ele>628.6</ele>
        <time>2013-02-23T07:38:21.000Z</time>
      </trkpt>
      <trkpt lat="47.28944" lon="4.92738">
        <ele>628.6</ele>
        <time>2013-02-23T07:38:22.000Z</time>
      </trkpt>
      <trkpt lat="47.2894" lon="4.92738">
        <ele>628.8</ele>
        <time>2013-02-23T07:38:24.000Z</time>
      </trkpt>
      <trkpt lat="47.28927" lon="4.92736">
        <ele>630</ele>
        <time>2013-02-23T07:38:31.000Z</time>
      </trkpt>
      <trkpt lat="47.28924" lon="4.92738">
        <ele>631</ele>
        <time>2013-02-23T07:38:33.000Z</time>
      </trkpt>
      <trkpt lat="47.28923" lon="4.92738">
        <ele>630.8</ele>
        <time>2013-02-23T07:38:34.000Z</time>
      </trkpt>
      <trkpt lat="47.28919" lon="4.92738">
        <ele>632.3</ele>
        <time>2013-02-23T07:38:36.000Z</time>
      </trkpt>
      <trkpt lat="47.28918" lon="4.92737">
        <ele>632.3</ele>
        <time>2013-02-23T07:38:37.000Z</time>
      </trkpt>
      <trkpt lat="47.28915" lon="4.92733">
        <ele>633.2</ele>
        <time>2013-02-23T07:38:40.000Z</time>
      </trkpt>
      <trkpt lat="47.28914" lon="4.92731">
        <ele>633.2</ele>
        <time>2013-02-23T07:38:41.000Z</time>
      </trkpt>
      <trkpt lat="47.28912" lon="4.92727">
        <ele>633.9</ele>
        <time>2013-02-23T07:38:43.000Z</time>
      </trkpt>
      <trkpt lat="47.28911" lon="4.92726">
        <ele>634.4</ele>
        <time>2013-02-23T07:38:44.000Z</time>
      </trkpt>
      <trkpt lat="47.28909" lon="4.92722">
        <ele>635.1</ele>
        <time>2013-02-23T07:38:46.000Z</time>
      </trkpt>
      <trkpt lat="47.28909" lon="4.9272">
        <ele>635.8</ele>
        <time>2013-02-23T07:38:47.000Z</time>
      </trkpt>
      <trkpt lat="47.28907" lon="4.92715">
        <ele>636.1</ele>
        <time>2013-02-23T07:38:49.000Z</time>
      </trkpt>
      <trkpt lat="47.28906" lon="4.92713">
        <ele>636.9</ele>
        <time>2013-02-23T07:38:50.000Z</time>
      </trkpt>
      <trkpt lat="47.28903" lon="4.92709">
        <ele>638</ele>
        <time>2013-02-23T07:38:53.000Z</time>
      </trkpt>
      <trkpt lat="47.28902" lon="4.92708">
        <ele>638.3</ele>
        <time>2013-02-23T07:38:54.000Z</time>
      </trkpt>
      <trkpt lat="47.289" lon="4.92703">
        <ele>638.1</ele>
        <time>2013-02-23T07:38:56.000Z</time>
      </trkpt>
      <trkpt lat="47.28899" lon="4.92701">
        <ele>637.7</ele>
        <time>2013-02-23T07:38:57.000Z</time>
      </trkpt>
      <trkpt lat="47.28897" lon="4.92698">
        <ele>637.5</ele>
        <time>2013-02-23T07:38:59.000Z</time>
      </trkpt>
      <trkpt lat="47.28896" lon="4.92695">
        <ele>637.4</ele>
        <time>2013-02-23T07:39:00.000Z</time>
      </trkpt>
      <trkpt lat="47.28894" lon="4.9269">
        <ele>637.3</ele>
        <time>2013-02-23T07:39:02.000Z</time>
      </trkpt>
      <trkpt lat="47.28893" lon="4.92688">
        <ele>637.3</ele>
        <time>2013-02-23T07:39:03.000Z</time>
      </trkpt>
      <trkpt lat="47.2889" lon="4.92684">
        <ele>637.1</ele>
        <time>2013-02-23T07:39:05.000Z</time>
      </trkpt>
      <trkpt lat="47.28889" lon="4.92683">
        <ele>636.9</ele>
        <time>2013-02-23T07:39:06.000Z</time>
      </trkpt>
      <trkpt lat="47.28894" lon="4.92683">
        <ele>634.2</ele>
        <time>2013-02-23T07:39:15.000Z</time>
      </trkpt>
      <trkpt lat="47.28895" lon="4.92685">
        <ele>633.9</ele>
        <time>2013-02-23T07:39:16.000Z</time>
      </trkpt>
      <trkpt lat="47.28897" lon="4.92688">
        <ele>633.7</ele>
        <time>2013-02-23T07:39:18.000Z</time>
      </trkpt>
      <trkpt lat="47.28898" lon="4.9269">
        <ele>633.9</ele>
        <time>2013-02-23T07:39:19.000Z</time>
      </trkpt>
      <trkpt lat="47.289" lon="4.92693">
        <ele>633.7</ele>
        <time>2013-02-23T07:39:21.000Z</time>
      </trkpt>
      <trkpt lat="47.28902" lon="4.92694">
        <ele>633.6</ele>
        <time>2013-02-23T07:39:22.000Z</time>
      </trkpt>
      <trkpt lat="47.28905" lon="4.92696">
        <ele>633.7</ele>
        <time>2013-02-23T07:39:24.000Z</time>
      </trkpt>
      <trkpt lat="47.2891" lon="4.92712">
        <ele>629</ele>
        <time>2013-02-23T07:39:31.000Z</time>
      </trkpt>
      <trkpt lat="47.28914" lon="4.92714">
        <ele>630.9</ele>
        <time>2013-02-23T07:39:33.000Z</time>
      </trkpt>
      <trkpt lat="47.28915" lon="4.92716">
        <ele>631.3</ele>
        <time>2013-02-23T07:39:34.000Z</time>
      </trkpt>
      <trkpt lat="47.28917" lon="4.9272">
        <ele>632</ele>
        <time>2013-02-23T07:39:36.000Z</time>
      </trkpt>
      <trkpt lat="47.28917" lon="4.92723">
        <ele>631</ele>
        <time>2013-02-23T07:39:37.000Z</time>
      </trkpt>
      <trkpt lat="47.28916" lon="4.92727">
        <ele>631.1</ele>
        <time>2013-02-23T07:39:39.000Z</time>
      </trkpt>
      <trkpt lat="47.28914" lon="4.92728">
        <ele>631</ele>
        <time>2013-02-23T07:39:40.000Z</time>
      </trkpt>
      <trkpt lat="47.2891" lon="4.9273">
        <ele>632.5</ele>
        <time>2013-02-23T07:39:43.000Z</time>
      </trkpt>
      <trkpt lat="47.28908" lon="4.92731">
        <ele>632.7</ele>
        <time>2013-02-23T07:39:44.000Z</time>
      </trkpt>
      <trkpt lat="47.28904" lon="4.92731">
        <ele>633.5</ele>
        <time>2013-02-23T07:39:47.000Z</time>
      </trkpt>
      <trkpt lat="47.28902" lon="4.92731">
        <ele>633.6</ele>
        <time>2013-02-23T07:39:48.000Z</time>
      </trkpt>
      <trkpt lat="47.28898" lon="4.92733">
        <ele>633.3</ele>
        <time>2013-02-23T07:39:50.000Z</time>
      </trkpt>
      <trkpt lat="47.28896" lon="4.92734">
        <ele>633.4</ele>
        <time>2013-02-23T07:39:51.000Z</time>
      </trkpt>
      <trkpt lat="47.28894" lon="4.92734">
        <ele>633.4</ele>
        <time>2013-02-23T07:39:52.000Z</time>
      </trkpt>
      <trkpt lat="47.28892" lon="4.92735">
        <ele>633.2</ele>
        <time>2013-02-23T07:39:53.000Z</time>
      </trkpt>
      <trkpt lat="47.28888" lon="4.92736">
        <ele>632.9</ele>
        <time>2013-02-23T07:39:55.000Z</time>
      </trkpt>
      <trkpt lat="47.28886" lon="4.92736">
        <ele>632.7</ele>
        <time>2013-02-23T07:39:56.000Z</time>
      </trkpt>
      <trkpt lat="47.28882" lon="4.92736">
        <ele>632.4</ele>
        <time>2013-02-23T07:39:58.000Z</time>
      </trkpt>
      <trkpt lat="47.2888" lon="4.92736">
        <ele>632.2</ele>
        <time>2013-02-23T07:39:59.000Z</time>
      </trkpt>
      <trkpt lat="47.28877" lon="4.92735">
        <ele>631.7</ele>
        <time>2013-02-23T07:40:01.000Z</time>
      </trkpt>
      <trkpt lat="47.28875" lon="4.92736">
        <ele>631.4</ele>
        <time>2013-02-23T07:40:02.000Z</time>
      </trkpt>
      <trkpt lat="47.28872" lon="4.92735">
        <ele>631.6</ele>
        <time>2013-02-23T07:40:05.000Z</time>
      </trkpt>
      <trkpt lat="47.2887" lon="4.92735">
        <ele>631.5</ele>
        <time>2013-02-23T07:40:06.000Z</time>
      </trkpt>
      <trkpt lat="47.28866" lon="4.92736">
        <ele>631.9</ele>
        <time>2013-02-23T07:40:08.000Z</time>
      </trkpt>
      <trkpt lat="47.28864" lon="4.92736">
        <ele>632.1</ele>
        <time>2013-02-23T07:40:09.000Z</time>
      </trkpt>
      <trkpt lat="47.28861" lon="4.92737">
        <ele>631.7</ele>
        <time>2013-02-23T07:40:11.000Z</time>
      </trkpt>
      <trkpt lat="47.28859" lon="4.92738">
        <ele>631.8</ele>
        <time>2013-02-23T07:40:12.000Z</time>
      </trkpt>
      <trkpt lat="47.28856" lon="4.92739">
        <ele>632.1</ele>
        <time>2013-02-23T07:40:14.000Z</time>
      </trkpt>
      <trkpt lat="47.28854" lon="4.9274">
        <ele>632.2</ele>
        <time>2013-02-23T07:40:15.000Z</time>
      </trkpt>
      <trkpt lat="47.2885" lon="4.92741">
        <ele>632.3</ele>
        <time>2013-02-23T07:40:17.000Z</time>
      </trkpt>
      <trkpt lat="47.28848" lon="4.92742">
        <ele>632.2</ele>
        <time>2013-02-23T07:40:18.000Z</time>
      </trkpt>
      <trkpt lat="47.28844" lon="4.92743">
        <ele>632</ele>
        <time>2013-02-23T07:40:20.000Z</time>
      </trkpt>
      <trkpt lat="47.28842" lon="4.92744">
        <ele>632</ele>
        <time>2013-02-23T07:40:21.000Z</time>
      </trkpt>
      <trkpt lat="47.28839" lon="4.92746">
        <ele>632</ele>
        <time>2013-02-23T07:40:23.000Z</time>
      </trkpt>
      <trkpt lat="47.28836" lon="4.92746">
        <ele>632.1</ele>
        <time>2013-02-23T07:40:24.000Z</time>
      </trkpt>
      <trkpt lat="47.28822" lon="4.9275">
        <ele>637.5</ele>
        <time>2013-02-23T07:40:31.000Z</time>
      </trkpt>
      <trkpt lat="47.2882" lon="4.9275">
        <ele>638.4</ele>
        <time>2013-02-23T07:40:33.000Z</time>
      </trkpt>
      <trkpt lat="47.28817" lon="4.92751">
        <ele>638.3</ele>
        <time>2013-02-23T07:40:34.000Z</time>
      </trkpt>
      <trkpt lat="47.28814" lon="4.92753">
        <ele>638.6</ele>
        <time>2013-02-23T07:40:36.000Z</time>
      </trkpt>
      <trkpt lat="47.28812" lon="4.92753">
        <ele>639.1</ele>
        <time>2013-02-23T07:40:37.000Z</time>
      </trkpt>
      <trkpt lat="47.2881" lon="4.92754">
        <ele>638.5</ele>
        <time>2013-02-23T07:40:38.000Z</time>
      </trkpt>
      <trkpt lat="47.28808" lon="4.92755">
        <ele>638.4</ele>
        <time>2013-02-23T07:40:39.000Z</time>
      </trkpt>
      <trkpt lat="47.28804" lon="4.92757">
        <ele>639.4</ele>
        <time>2013-02-23T07:40:41.000Z</time>
      </trkpt>
      <trkpt lat="47.28802" lon="4.92758">
        <ele>639.3</ele>
        <time>2013-02-23T07:40:42.000Z</time>
      </trkpt>
      <trkpt lat="47.288" lon="4.9276">
        <ele>639.1</ele>
        <time>2013-02-23T07:40:44.000Z</time>
      </trkpt>
      <trkpt lat="47.28798" lon="4.92761">
        <ele>638.7</ele>
        <time>2013-02-23T07:40:45.000Z</time>
      </trkpt>
      <trkpt lat="47.28795" lon="4.92764">
        <ele>638.1</ele>
        <time>2013-02-23T07:40:47.000Z</time>
      </trkpt>
      <trkpt lat="47.28793" lon="4.92765">
        <ele>637.5</ele>
        <time>2013-02-23T07:40:48.000Z</time>
      </trkpt>
      <trkpt lat="47.2879" lon="4.92767">
        <ele>637</ele>
        <time>2013-02-23T07:40:50.000Z</time>
      </trkpt>
      <trkpt lat="47.28789" lon="4.92768">
        <ele>636.8</ele>
        <time>2013-02-23T07:40:51.000Z</time>
      </trkpt>
      <trkpt lat="47.28786" lon="4.92771">
        <ele>636.8</ele>
        <time>2013-02-23T07:40:53.000Z</time>
      </trkpt>
      <trkpt lat="47.28784" lon="4.92772">
        <ele>636.4</ele>
        <time>2013-02-23T07:40:54.000Z</time>
      </trkpt>
      <trkpt lat="47.28781" lon="4.92775">
        <ele>636.5</ele>
        <time>2013-02-23T07:40:57.000Z</time>
      </trkpt>
      <trkpt lat="47.28779" lon="4.92777">
        <ele>636.7</ele>
        <time>2013-02-23T07:40:58.000Z</time>
      </trkpt>
      <trkpt lat="47.28776" lon="4.9278">
        <ele>636.9</ele>
        <time>2013-02-23T07:41:00.000Z</time>
      </trkpt>
      <trkpt lat="47.28775" lon="4.92782">
        <ele>637.1</ele>
        <time>2013-02-23T07:41:01.000Z</time>
      </trkpt>
      <trkpt lat="47.28773" lon="4.92787">
        <ele>637.3</ele>
        <time>2013-02-23T07:41:03.000Z</time>
      </trkpt>
      <trkpt lat="47.28772" lon="4.92789">
        <ele>637.5</ele>
        <time>2013-02-23T07:41:04.000Z</time>
      </trkpt>
      <trkpt lat="47.2877" lon="4.92794">
        <ele>637.8</ele>
        <time>2013-02-23T07:41:07.000Z</time>
      </trkpt>
      <trkpt lat="47.2877" lon="4.92795">
        <ele>637.7</ele>
        <time>2013-02-23T07:41:08.000Z</time>
      </trkpt>
      <trkpt lat="47.28767" lon="4.92799">
        <ele>638</ele>
        <time>2013-02-23T07:41:11.000Z</time>
      </trkpt>
      <trkpt lat="47.28766" lon="4.92801">
        <ele>638.1</ele>
        <time>2013-02-23T07:41:12.000Z</time>
      </trkpt>
      <trkpt lat="47.28764" lon="4.92805">
        <ele>638.4</ele>
        <time>2013-02-23T07:41:14.000Z</time>
      </trkpt>
      <trkpt lat="47.28763" lon="4.92808">
        <ele>638.3</ele>
        <time>2013-02-23T07:41:15.000Z</time>
      </trkpt>
      <trkpt lat="47.28761" lon="4.92813">
        <ele>638.2</ele>
        <time>2013-02-23T07:41:17.000Z</time>
      </trkpt>
      <trkpt lat="47.28759" lon="4.92815">
        <ele>638.3</ele>
        <time>2013-02-23T07:41:18.000Z</time>
      </trkpt>
      <trkpt lat="47.28758" lon="4.9282">
        <ele>638.3</ele>
        <time>2013-02-23T07:41:20.000Z</time>
      </trkpt>
      <trkpt lat="47.28757" lon="4.92823">
        <ele>638.4</ele>
        <time>2013-02-23T07:41:21.000Z</time>
      </trkpt>
      <trkpt lat="47.28755" lon="4.92826">
        <ele>638.8</ele>
        <time>2013-02-23T07:41:23.000Z</time>
      </trkpt>
      <trkpt lat="47.28754" lon="4.92828">
        <ele>638.9</ele>
        <time>2013-02-23T07:41:24.000Z</time>
      </trkpt>
      <trkpt lat="47.28742" lon="4.92849">
        <ele>637.3</ele>
        <time>2013-02-23T07:41:31.000Z</time>
      </trkpt>
      <trkpt lat="47.28741" lon="4.92854">
        <ele>637.6</ele>
        <time>2013-02-23T07:41:33.000Z</time>
      </trkpt>
      <trkpt lat="47.2874" lon="4.92857">
        <ele>638.2</ele>
        <time>2013-02-23T07:41:34.000Z</time>
      </trkpt>
      <trkpt lat="47.28738" lon="4.92862">
        <ele>639.5</ele>
        <time>2013-02-23T07:41:37.000Z</time>
      </trkpt>
      <trkpt lat="47.28737" lon="4.92864">
        <ele>639.3</ele>
        <time>2013-02-23T07:41:38.000Z</time>
      </trkpt>
      <trkpt lat="47.28735" lon="4.92869">
        <ele>639.1</ele>
        <time>2013-02-23T07:41:40.000Z</time>
      </trkpt>
      <trkpt lat="47.28734" lon="4.92871">
        <ele>639</ele>
        <time>2013-02-23T07:41:41.000Z</time>
      </trkpt>
      <trkpt lat="47.28733" lon="4.92876">
        <ele>639.4</ele>
        <time>2013-02-23T07:41:43.000Z</time>
      </trkpt>
      <trkpt lat="47.28732" lon="4.92878">
        <ele>639.8</ele>
        <time>2013-02-23T07:41:44.000Z</time>
      </trkpt>
      <trkpt lat="47.2873" lon="4.92883">
        <ele>641.9</ele>
        <time>2013-02-23T07:41:47.000Z</time>
      </trkpt>
      <trkpt lat="47.2873" lon="4.92885">
        <ele>642.5</ele>
        <time>2013-02-23T07:41:48.000Z</time>
      </trkpt>
      <trkpt lat="47.28727" lon="4.9289">
        <ele>642.8</ele>
        <time>2013-02-23T07:41:51.000Z</time>
      </trkpt>
      <trkpt lat="47.28726" lon="4.92892">
        <ele>642.8</ele>
        <time>2013-02-23T07:41:52.000Z</time>
      </trkpt>
      <trkpt lat="47.28724" lon="4.92896">
        <ele>642.4</ele>
        <time>2013-02-23T07:41:54.000Z</time>
      </trkpt>
      <trkpt lat="47.28723" lon="4.92898">
        <ele>642.9</ele>
        <time>2013-02-23T07:41:55.000Z</time>
      </trkpt>
      <trkpt lat="47.28721" lon="4.92903">
        <ele>642.2</ele>
        <time>2013-02-23T07:41:57.000Z</time>
      </trkpt>
      <trkpt lat="47.28719" lon="4.92905">
        <ele>641.9</ele>
        <time>2013-02-23T07:41:58.000Z</time>
      </trkpt>
      <trkpt lat="47.28717" lon="4.9291">
        <ele>641.6</ele>
        <time>2013-02-23T07:42:00.000Z</time>
      </trkpt>
      <trkpt lat="47.28716" lon="4.92913">
        <ele>641.5</ele>
        <time>2013-02-23T07:42:01.000Z</time>
      </trkpt>
      <trkpt lat="47.28714" lon="4.92916">
        <ele>641.5</ele>
        <time>2013-02-23T07:42:03.000Z</time>
      </trkpt>
      <trkpt lat="47.28712" lon="4.92918">
        <ele>641.4</ele>
        <time>2013-02-23T07:42:04.000Z</time>
      </trkpt>
      <trkpt lat="47.28709" lon="4.9292">
        <ele>641.4</ele>
        <time>2013-02-23T07:42:06.000Z</time>
      </trkpt>
      <trkpt lat="47.28707" lon="4.92921">
        <ele>641.3</ele>
        <time>2013-02-23T07:42:07.000Z</time>
      </trkpt>
      <trkpt lat="47.28704" lon="4.92923">
        <ele>641.5</ele>
        <time>2013-02-23T07:42:09.000Z</time>
      </trkpt>
      <trkpt lat="47.28703" lon="4.92924">
        <ele>641.7</ele>
        <time>2013-02-23T07:42:10.000Z</time>
      </trkpt>
      <trkpt lat="47.28699" lon="4.92925">
        <ele>642</ele>
        <time>2013-02-23T07:42:12.000Z</time>
      </trkpt>
      <trkpt lat="47.28698" lon="4.92925">
        <ele>642.3</ele>
        <time>2013-02-23T07:42:13.000Z</time>
      </trkpt>
      <trkpt lat="47.28693" lon="4.92926">
        <ele>642.8</ele>
        <time>2013-02-23T07:42:16.000Z</time>
      </trkpt>
      <trkpt lat="47.28692" lon="4.92926">
        <ele>642.8</ele>
        <time>2013-02-23T07:42:17.000Z</time>
      </trkpt>
      <trkpt lat="47.28687" lon="4.92927">
        <ele>643.1</ele>
        <time>2013-02-23T07:42:20.000Z</time>
      </trkpt>
      <trkpt lat="47.28685" lon="4.92928">
        <ele>643.3</ele>
        <time>2013-02-23T07:42:21.000Z</time>
      </trkpt>
      <trkpt lat="47.28681" lon="4.92928">
        <ele>643.5</ele>
        <time>2013-02-23T07:42:23.000Z</time>
      </trkpt>
      <trkpt lat="47.28679" lon="4.92929">
        <ele>643.6</ele>
        <time>2013-02-23T07:42:24.000Z</time>
      </trkpt>
      <trkpt lat="47.28676" lon="4.92929">
        <ele>643.8</ele>
        <time>2013-02-23T07:42:26.000Z</time>
      </trkpt>
      <trkpt lat="47.28674" lon="4.92928">
        <ele>643.8</ele>
        <time>2013-02-23T07:42:27.000Z</time>
      </trkpt>
      <trkpt lat="47.28673" lon="4.92928">
        <ele>644.1</ele>
        <time>2013-02-23T07:42:28.000Z</time>
      </trkpt>
      <trkpt lat="47.28656" lon="4.92926">
        <ele>644.8</ele>
        <time>2013-02-23T07:42:35.000Z</time>
      </trkpt>
      <trkpt lat="47.28653" lon="4.92926">
        <ele>645.1</ele>
        <time>2013-02-23T07:42:37.000Z</time>
      </trkpt>
      <trkpt lat="47.28651" lon="4.92926">
        <ele>645.2</ele>
        <time>2013-02-23T07:42:38.000Z</time>
      </trkpt>
      <trkpt lat="47.28648" lon="4.92926">
        <ele>645.8</ele>
        <time>2013-02-23T07:42:40.000Z</time>
      </trkpt>
      <trkpt lat="47.28646" lon="4.92926">
        <ele>645.9</ele>
        <time>2013-02-23T07:42:41.000Z</time>
      </trkpt>
      <trkpt lat="47.28642" lon="4.92926">
        <ele>647.3</ele>
        <time>2013-02-23T07:42:44.000Z</time>
      </trkpt>
      <trkpt lat="47.28641" lon="4.92926">
        <ele>647.7</ele>
        <time>2013-02-23T07:42:45.000Z</time>
      </trkpt>
      <trkpt lat="47.28637" lon="4.92925">
        <ele>648.9</ele>
        <time>2013-02-23T07:42:47.000Z</time>
      </trkpt>
      <trkpt lat="47.28635" lon="4.92925">
        <ele>649.2</ele>
        <time>2013-02-23T07:42:48.000Z</time>
      </trkpt>
      <trkpt lat="47.28632" lon="4.92924">
        <ele>649.6</ele>
        <time>2013-02-23T07:42:50.000Z</time>
      </trkpt>
      <trkpt lat="47.2863" lon="4.92924">
        <ele>649.4</ele>
        <time>2013-02-23T07:42:51.000Z</time>
      </trkpt>
      <trkpt lat="47.28627" lon="4.92924">
        <ele>649.4</ele>
        <time>2013-02-23T07:42:53.000Z</time>
      </trkpt>
      <trkpt lat="47.28625" lon="4.92924">
        <ele>649.5</ele>
        <time>2013-02-23T07:42:54.000Z</time>
      </trkpt>
      <trkpt lat="47.28622" lon="4.92924">
        <ele>649.7</ele>
        <time>2013-02-23T07:42:56.000Z</time>
      </trkpt>
      <trkpt lat="47.2862" lon="4.92924">
        <ele>649.9</ele>
        <time>2013-02-23T07:42:57.000Z</time>
      </trkpt>
      <trkpt lat="47.28616" lon="4.92924">
        <ele>650.1</ele>
        <time>2013-02-23T07:42:59.000Z</time>
      </trkpt>
      <trkpt lat="47.28614" lon="4.92924">
        <ele>650</ele>
        <time>2013-02-23T07:43:00.000Z</time>
      </trkpt>
      <trkpt lat="47.28611" lon="4.92923">
        <ele>650.2</ele>
        <time>2013-02-23T07:43:02.000Z</time>
      </trkpt>
      <trkpt lat="47.28609" lon="4.92923">
        <ele>650.3</ele>
        <time>2013-02-23T07:43:03.000Z</time>
      </trkpt>
      <trkpt lat="47.28605" lon="4.92922">
        <ele>650.6</ele>
        <time>2013-02-23T07:43:06.000Z</time>
      </trkpt>
      <trkpt lat="47.28603" lon="4.92922">
        <ele>650.5</ele>
        <time>2013-02-23T07:43:07.000Z</time>
      </trkpt>
      <trkpt lat="47.286" lon="4.92922">
        <ele>650.4</ele>
        <time>2013-02-23T07:43:09.000Z</time>
      </trkpt>
      <trkpt lat="47.28598" lon="4.92921">
        <ele>650.1</ele>
        <time>2013-02-23T07:43:10.000Z</time>
      </trkpt>
      <trkpt lat="47.28594" lon="4.9292">
        <ele>649.8</ele>
        <time>2013-02-23T07:43:12.000Z</time>
      </trkpt>
      <trkpt lat="47.28592" lon="4.9292">
        <ele>649.5</ele>
        <time>2013-02-23T07:43:13.000Z</time>
      </trkpt>
      <trkpt lat="47.28588" lon="4.9292">
        <ele>648.9</ele>
        <time>2013-02-23T07:43:15.000Z</time>
      </trkpt>
      <trkpt lat="47.28586" lon="4.9292">
        <ele>648.7</ele>
        <time>2013-02-23T07:43:16.000Z</time>
      </trkpt>
      <trkpt lat="47.28583" lon="4.92919">
        <ele>648.4</ele>
        <time>2013-02-23T07:43:18.000Z</time>
      </trkpt>
      <trkpt lat="47.28581" lon="4.92918">
        <ele>648.3</ele>
        <time>2013-02-23T07:43:19.000Z</time>
      </trkpt>
      <trkpt lat="47.28577" lon="4.92917">
        <ele>647.7</ele>
        <time>2013-02-23T07:43:21.000Z</time>
      </trkpt>
      <trkpt lat="47.28575" lon="4.92917">
        <ele>647.6</ele>
        <time>2013-02-23T07:43:22.000Z</time>
      </trkpt>
      <trkpt lat="47.28571" lon="4.92917">
        <ele>647.5</ele>
        <time>2013-02-23T07:43:24.000Z</time>
      </trkpt>
      <trkpt lat="47.28569" lon="4.92917">
        <ele>647.4</ele>
        <time>2013-02-23T07:43:25.000Z</time>
      </trkpt>
      <trkpt lat="47.28566" lon="4.92917">
        <ele>647.3</ele>
        <time>2013-02-23T07:43:27.000Z</time>
      </trkpt>
      <trkpt lat="47.28564" lon="4.92917">
        <ele>647.2</ele>
        <time>2013-02-23T07:43:28.000Z</time>
      </trkpt>
      <trkpt lat="47.28546" lon="4.92916">
        <ele>646.9</ele>
        <time>2013-02-23T07:43:35.000Z</time>
      </trkpt>
      <trkpt lat="47.28542" lon="4.92917">
        <ele>645.3</ele>
        <time>2013-02-23T07:43:37.000Z</time>
      </trkpt>
      <trkpt lat="47.28541" lon="4.92917">
        <ele>646</ele>
        <time>2013-02-23T07:43:38.000Z</time>
      </trkpt>
      <trkpt lat="47.28538" lon="4.92916">
        <ele>646</ele>
        <time>2013-02-23T07:43:40.000Z</time>
      </trkpt>
      <trkpt lat="47.28536" lon="4.92915">
        <ele>645.2</ele>
        <time>2013-02-23T07:43:41.000Z</time>
      </trkpt>
      <trkpt lat="47.28532" lon="4.92916">
        <ele>641.1</ele>
        <time>2013-02-23T07:44:03.000Z</time>
      </trkpt>
      <trkpt lat="47.28531" lon="4.92917">
        <ele>641</ele>
        <time>2013-02-23T07:44:04.000Z</time>
      </trkpt>
      <trkpt lat="47.28529" lon="4.92913">
        <ele>643.6</ele>
        <time>2013-02-23T07:44:37.000Z</time>
      </trkpt>
      <trkpt lat="47.28528" lon="4.92911">
        <ele>643.2</ele>
        <time>2013-02-23T07:44:38.000Z</time>
      </trkpt>
      <trkpt lat="47.28526" lon="4.92907">
        <ele>642.6</ele>
        <time>2013-02-23T07:44:42.000Z</time>
      </trkpt>
      <trkpt lat="47.28526" lon="4.92905">
        <ele>642.8</ele>
        <time>2013-02-23T07:44:43.000Z</time>
      </trkpt>
      <trkpt lat="47.28525" lon="4.92899">
        <ele>642.4</ele>
        <time>2013-02-23T07:44:46.000Z</time>
      </trkpt>
      <trkpt lat="47.28524" lon="4.92898">
        <ele>642.7</ele>
        <time>2013-02-23T07:44:47.000Z</time>
      </trkpt>
      <trkpt lat="47.28525" lon="4.92893">
        <ele>640.2</ele>
        <time>2013-02-23T07:45:05.000Z</time>
      </trkpt>
      <trkpt lat="47.28526" lon="4.92891">
        <ele>639.1</ele>
        <time>2013-02-23T07:45:06.000Z</time>
      </trkpt>
      <trkpt lat="47.28527" lon="4.92897">
        <ele>639.9</ele>
        <time>2013-02-23T07:45:14.000Z</time>
      </trkpt>
      <trkpt lat="47.28528" lon="4.92897">
        <ele>640.1</ele>
        <time>2013-02-23T07:45:15.000Z</time>
      </trkpt>
      <trkpt lat="47.28526" lon="4.929">
        <ele>638.8</ele>
        <time>2013-02-23T07:46:28.000Z</time>
      </trkpt>
      <trkpt lat="47.28533" lon="4.92894">
        <ele>637</ele>
        <time>2013-02-23T07:46:35.000Z</time>
      </trkpt>
      <trkpt lat="47.28533" lon="4.92894">
        <ele>637</ele>
        <time>2013-02-23T07:47:28.000Z</time>
      </trkpt>
      <trkpt lat="47.28536" lon="4.92907">
        <ele>631.6</ele>
        <time>2013-02-23T07:47:35.000Z</time>
      </trkpt>
      <trkpt lat="47.28536" lon="4.92907">
        <ele>631.6</ele>
        <time>2013-02-23T07:48:28.000Z</time>
      </trkpt>
      <trkpt lat="47.28524" lon="4.92898">
        <ele>637.7</ele>
        <time>2013-02-23T07:48:35.000Z</time>
      </trkpt>
      <trkpt lat="47.28529" lon="4.92897">
        <ele>640.6</ele>
        <time>2013-02-23T07:49:27.000Z</time>
      </trkpt>
      <trkpt lat="47.28531" lon="4.92896">
        <ele>640.8</ele>
        <time>2013-02-23T07:49:28.000Z</time>
      </trkpt>
      <trkpt lat="47.28525" lon="4.92893">
        <ele>641.1</ele>
        <time>2013-02-23T07:49:35.000Z</time>
      </trkpt>
      <trkpt lat="47.28525" lon="4.92888">
        <ele>640.6</ele>
        <time>2013-02-23T07:49:38.000Z</time>
      </trkpt>
      <trkpt lat="47.28526" lon="4.92886">
        <ele>640.7</ele>
        <time>2013-02-23T07:49:39.000Z</time>
      </trkpt>
      <trkpt lat="47.28526" lon="4.9288">
        <ele>640.7</ele>
        <time>2013-02-23T07:49:42.000Z</time>
      </trkpt>
      <trkpt lat="47.28526" lon="4.92878">
        <ele>640.6</ele>
        <time>2013-02-23T07:49:43.000Z</time>
      </trkpt>
      <trkpt lat="47.28527" lon="4.92872">
        <ele>640.8</ele>
        <time>2013-02-23T07:49:46.000Z</time>
      </trkpt>
      <trkpt lat="47.28527" lon="4.9287">
        <ele>640.9</ele>
        <time>2013-02-23T07:49:47.000Z</time>
      </trkpt>
      <trkpt lat="47.28527" lon="4.92864">
        <ele>641.6</ele>
        <time>2013-02-23T07:49:50.000Z</time>
      </trkpt>
      <trkpt lat="47.28527" lon="4.92862">
        <ele>641.9</ele>
        <time>2013-02-23T07:49:51.000Z</time>
      </trkpt>
      <trkpt lat="47.28527" lon="4.92856">
        <ele>642</ele>
        <time>2013-02-23T07:49:54.000Z</time>
      </trkpt>
      <trkpt lat="47.28527" lon="4.92854">
        <ele>641.9</ele>
        <time>2013-02-23T07:49:55.000Z</time>
      </trkpt>
      <trkpt lat="47.28527" lon="4.92849">
        <ele>641.9</ele>
        <time>2013-02-23T07:49:57.000Z</time>
      </trkpt>
      <trkpt lat="47.28527" lon="4.92847">
        <ele>641.9</ele>
        <time>2013-02-23T07:49:58.000Z</time>
      </trkpt>
      <trkpt lat="47.28527" lon="4.92842">
        <ele>641.6</ele>
        <time>2013-02-23T07:50:00.000Z</time>
      </trkpt>
      <trkpt lat="47.28527" lon="4.9284">
        <ele>641.5</ele>
        <time>2013-02-23T07:50:01.000Z</time>
      </trkpt>
      <trkpt lat="47.28528" lon="4.92835">
        <ele>640.4</ele>
        <time>2013-02-23T07:50:03.000Z</time>
      </trkpt>
      <trkpt lat="47.28529" lon="4.92832">
        <ele>639.9</ele>
        <time>2013-02-23T07:50:04.000Z</time>
      </trkpt>
      <trkpt lat="47.28529" lon="4.92827">
        <ele>639.2</ele>
        <time>2013-02-23T07:50:06.000Z</time>
      </trkpt>
      <trkpt lat="47.2853" lon="4.92825">
        <ele>638.9</ele>
        <time>2013-02-23T07:50:07.000Z</time>
      </trkpt>
      <trkpt lat="47.2853" lon="4.9282">
        <ele>638.3</ele>
        <time>2013-02-23T07:50:09.000Z</time>
      </trkpt>
      <trkpt lat="47.28531" lon="4.92818">
        <ele>638.1</ele>
        <time>2013-02-23T07:50:10.000Z</time>
      </trkpt>
      <trkpt lat="47.28531" lon="4.92812">
        <ele>637.9</ele>
        <time>2013-02-23T07:50:13.000Z</time>
      </trkpt>
      <trkpt lat="47.28531" lon="4.9281">
        <ele>637.9</ele>
        <time>2013-02-23T07:50:14.000Z</time>
      </trkpt>
      <trkpt lat="47.28531" lon="4.92805">
        <ele>637.9</ele>
        <time>2013-02-23T07:50:16.000Z</time>
      </trkpt>
      <trkpt lat="47.28531" lon="4.92802">
        <ele>638.1</ele>
        <time>2013-02-23T07:50:17.000Z</time>
      </trkpt>
      <trkpt lat="47.28531" lon="4.92797">
        <ele>638.3</ele>
        <time>2013-02-23T07:50:19.000Z</time>
      </trkpt>
      <trkpt lat="47.28531" lon="4.92795">
        <ele>638.2</ele>
        <time>2013-02-23T07:50:20.000Z</time>
      </trkpt>
      <trkpt lat="47.28532" lon="4.9279">
        <ele>638.3</ele>
        <time>2013-02-23T07:50:22.000Z</time>
      </trkpt>
      <trkpt lat="47.28532" lon="4.92787">
        <ele>638.4</ele>
        <time>2013-02-23T07:50:23.000Z</time>
      </trkpt>
      <trkpt lat="47.28532" lon="4.92781">
        <ele>638.4</ele>
        <time>2013-02-23T07:50:26.000Z</time>
      </trkpt>
      <trkpt lat="47.28533" lon="4.92779">
        <ele>638.4</ele>
        <time>2013-02-23T07:50:27.000Z</time>
      </trkpt>
      <trkpt lat="47.28532" lon="4.92772">
        <ele>638.5</ele>
        <time>2013-02-23T07:50:30.000Z</time>
      </trkpt>
      <trkpt lat="47.28541" lon="4.92756">
        <ele>639.8</ele>
        <time>2013-02-23T07:50:37.000Z</time>
      </trkpt>
      <trkpt lat="47.28537" lon="4.92757">
        <ele>639.5</ele>
        <time>2013-02-23T07:50:41.000Z</time>
      </trkpt>
      <trkpt lat="47.28535" lon="4.92756">
        <ele>638.9</ele>
        <time>2013-02-23T07:50:42.000Z</time>
      </trkpt>
      <trkpt lat="47.28532" lon="4.92757">
        <ele>639.4</ele>
        <time>2013-02-23T07:50:45.000Z</time>
      </trkpt>
      <trkpt lat="47.28531" lon="4.92757">
        <ele>639.9</ele>
        <time>2013-02-23T07:50:46.000Z</time>
      </trkpt>
      <trkpt lat="47.28527" lon="4.92757">
        <ele>640.7</ele>
        <time>2013-02-23T07:50:49.000Z</time>
      </trkpt>
      <trkpt lat="47.28525" lon="4.92758">
        <ele>640.4</ele>
        <time>2013-02-23T07:50:50.000Z</time>
      </trkpt>
      <trkpt lat="47.28522" lon="4.92757">
        <ele>640.3</ele>
        <time>2013-02-23T07:50:52.000Z</time>
      </trkpt>
      <trkpt lat="47.2852" lon="4.92756">
        <ele>639.9</ele>
        <time>2013-02-23T07:50:53.000Z</time>
      </trkpt>
      <trkpt lat="47.28517" lon="4.92754">
        <ele>639.9</ele>
        <time>2013-02-23T07:50:55.000Z</time>
      </trkpt>
      <trkpt lat="47.28515" lon="4.92753">
        <ele>640.1</ele>
        <time>2013-02-23T07:50:56.000Z</time>
      </trkpt>
      <trkpt lat="47.28512" lon="4.9275">
        <ele>640.4</ele>
        <time>2013-02-23T07:50:59.000Z</time>
      </trkpt>
      <trkpt lat="47.28511" lon="4.92749">
        <ele>640.4</ele>
        <time>2013-02-23T07:51:00.000Z</time>
      </trkpt>
      <trkpt lat="47.28508" lon="4.92747">
        <ele>640.4</ele>
        <time>2013-02-23T07:51:02.000Z</time>
      </trkpt>
      <trkpt lat="47.28506" lon="4.92746">
        <ele>640.5</ele>
        <time>2013-02-23T07:51:03.000Z</time>
      </trkpt>
      <trkpt lat="47.28503" lon="4.92744">
        <ele>640.1</ele>
        <time>2013-02-23T07:51:05.000Z</time>
      </trkpt>
      <trkpt lat="47.28502" lon="4.92743">
        <ele>639.9</ele>
        <time>2013-02-23T07:51:06.000Z</time>
      </trkpt>
      <trkpt lat="47.28499" lon="4.92739">
        <ele>639.4</ele>
        <time>2013-02-23T07:51:08.000Z</time>
      </trkpt>
      <trkpt lat="47.28499" lon="4.92736">
        <ele>639.1</ele>
        <time>2013-02-23T07:51:09.000Z</time>
      </trkpt>
      <trkpt lat="47.28497" lon="4.92732">
        <ele>638.7</ele>
        <time>2013-02-23T07:51:11.000Z</time>
      </trkpt>
      <trkpt lat="47.28497" lon="4.9273">
        <ele>638.4</ele>
        <time>2013-02-23T07:51:12.000Z</time>
      </trkpt>
      <trkpt lat="47.28494" lon="4.92725">
        <ele>638.2</ele>
        <time>2013-02-23T07:51:15.000Z</time>
      </trkpt>
      <trkpt lat="47.28493" lon="4.92724">
        <ele>638.2</ele>
        <time>2013-02-23T07:51:16.000Z</time>
      </trkpt>
      <trkpt lat="47.2849" lon="4.92721">
        <ele>638.4</ele>
        <time>2013-02-23T07:51:18.000Z</time>
      </trkpt>
      <trkpt lat="47.28489" lon="4.9272">
        <ele>638.3</ele>
        <time>2013-02-23T07:51:19.000Z</time>
      </trkpt>
      <trkpt lat="47.28487" lon="4.92717">
        <ele>638.3</ele>
        <time>2013-02-23T07:51:21.000Z</time>
      </trkpt>
      <trkpt lat="47.28485" lon="4.92715">
        <ele>638.6</ele>
        <time>2013-02-23T07:51:22.000Z</time>
      </trkpt>
      <trkpt lat="47.28482" lon="4.92712">
        <ele>638.6</ele>
        <time>2013-02-23T07:51:24.000Z</time>
      </trkpt>
      <trkpt lat="47.28481" lon="4.92711">
        <ele>638.5</ele>
        <time>2013-02-23T07:51:25.000Z</time>
      </trkpt>
      <trkpt lat="47.28478" lon="4.92707">
        <ele>638.2</ele>
        <time>2013-02-23T07:51:27.000Z</time>
      </trkpt>
      <trkpt lat="47.28477" lon="4.92706">
        <ele>638.2</ele>
        <time>2013-02-23T07:51:28.000Z</time>
      </trkpt>
      <trkpt lat="47.28475" lon="4.92703">
        <ele>637.8</ele>
        <time>2013-02-23T07:51:30.000Z</time>
      </trkpt>
      <trkpt lat="47.28465" lon="4.92689">
        <ele>634.9</ele>
        <time>2013-02-23T07:51:37.000Z</time>
      </trkpt>
      <trkpt lat="47.28463" lon="4.92683">
        <ele>635.5</ele>
        <time>2013-02-23T07:51:40.000Z</time>
      </trkpt>
      <trkpt lat="47.28463" lon="4.9268">
        <ele>636.2</ele>
        <time>2013-02-23T07:51:41.000Z</time>
      </trkpt>
      <trkpt lat="47.28463" lon="4.92674">
        <ele>636.6</ele>
        <time>2013-02-23T07:51:43.000Z</time>
      </trkpt>
      <trkpt lat="47.28463" lon="4.92672">
        <ele>636.8</ele>
        <time>2013-02-23T07:51:44.000Z</time>
      </trkpt>
      <trkpt lat="47.28464" lon="4.92666">
        <ele>637.8</ele>
        <time>2013-02-23T07:51:46.000Z</time>
      </trkpt>
      <trkpt lat="47.28464" lon="4.92664">
        <ele>637.7</ele>
        <time>2013-02-23T07:51:47.000Z</time>
      </trkpt>
      <trkpt lat="47.28465" lon="4.92659">
        <ele>638</ele>
        <time>2013-02-23T07:51:49.000Z</time>
      </trkpt>
      <trkpt lat="47.28464" lon="4.92657">
        <ele>638.1</ele>
        <time>2013-02-23T07:51:50.000Z</time>
      </trkpt>
      <trkpt lat="47.28464" lon="4.92651">
        <ele>637.6</ele>
        <time>2013-02-23T07:51:54.000Z</time>
      </trkpt>
      <trkpt lat="47.28463" lon="4.92649">
        <ele>637.8</ele>
        <time>2013-02-23T07:51:55.000Z</time>
      </trkpt>
      <trkpt lat="47.28462" lon="4.92645">
        <ele>639.2</ele>
        <time>2013-02-23T07:51:58.000Z</time>
      </trkpt>
      <trkpt lat="47.28461" lon="4.92643">
        <ele>639.9</ele>
        <time>2013-02-23T07:51:59.000Z</time>
      </trkpt>
      <trkpt lat="47.28458" lon="4.92639">
        <ele>638.6</ele>
        <time>2013-02-23T07:52:02.000Z</time>
      </trkpt>
      <trkpt lat="47.28457" lon="4.92637">
        <ele>638.3</ele>
        <time>2013-02-23T07:52:03.000Z</time>
      </trkpt>
      <trkpt lat="47.28454" lon="4.92635">
        <ele>638.2</ele>
        <time>2013-02-23T07:52:05.000Z</time>
      </trkpt>
      <trkpt lat="47.28453" lon="4.92634">
        <ele>638.3</ele>
        <time>2013-02-23T07:52:06.000Z</time>
      </trkpt>
      <trkpt lat="47.2845" lon="4.9263">
        <ele>638.4</ele>
        <time>2013-02-23T07:52:08.000Z</time>
      </trkpt>
      <trkpt lat="47.28448" lon="4.92629">
        <ele>638.3</ele>
        <time>2013-02-23T07:52:09.000Z</time>
      </trkpt>
      <trkpt lat="47.28444" lon="4.92626">
        <ele>638.2</ele>
        <time>2013-02-23T07:52:11.000Z</time>
      </trkpt>
      <trkpt lat="47.28442" lon="4.92624">
        <ele>638.1</ele>
        <time>2013-02-23T07:52:12.000Z</time>
      </trkpt>
      <trkpt lat="47.2844" lon="4.92622">
        <ele>638</ele>
        <time>2013-02-23T07:52:13.000Z</time>
      </trkpt>
      <trkpt lat="47.28439" lon="4.9262">
        <ele>637.7</ele>
        <time>2013-02-23T07:52:14.000Z</time>
      </trkpt>
      <trkpt lat="47.28437" lon="4.92618">
        <ele>637.4</ele>
        <time>2013-02-23T07:52:15.000Z</time>
      </trkpt>
      <trkpt lat="47.28435" lon="4.92616">
        <ele>637.3</ele>
        <time>2013-02-23T07:52:16.000Z</time>
      </trkpt>
      <trkpt lat="47.28432" lon="4.92613">
        <ele>637.2</ele>
        <time>2013-02-23T07:52:18.000Z</time>
      </trkpt>
      <trkpt lat="47.2843" lon="4.92612">
        <ele>637</ele>
        <time>2013-02-23T07:52:19.000Z</time>
      </trkpt>
      <trkpt lat="47.28426" lon="4.92609">
        <ele>636.9</ele>
        <time>2013-02-23T07:52:21.000Z</time>
      </trkpt>
      <trkpt lat="47.28425" lon="4.92607">
        <ele>636.8</ele>
        <time>2013-02-23T07:52:22.000Z</time>
      </trkpt>
      <trkpt lat="47.28421" lon="4.92604">
        <ele>636.5</ele>
        <time>2013-02-23T07:52:24.000Z</time>
      </trkpt>
      <trkpt lat="47.28419" lon="4.92602">
        <ele>636.3</ele>
        <time>2013-02-23T07:52:25.000Z</time>
      </trkpt>
      <trkpt lat="47.28417" lon="4.926">
        <ele>636.4</ele>
        <time>2013-02-23T07:52:26.000Z</time>
      </trkpt>
      <trkpt lat="47.28415" lon="4.92598">
        <ele>636.5</ele>
        <time>2013-02-23T07:52:27.000Z</time>
      </trkpt>
      <trkpt lat="47.28413" lon="4.92596">
        <ele>636.5</ele>
        <time>2013-02-23T07:52:28.000Z</time>
      </trkpt>
      <trkpt lat="47.28411" lon="4.92594">
        <ele>636.4</ele>
        <time>2013-02-23T07:52:29.000Z</time>
      </trkpt>
      <trkpt lat="47.28409" lon="4.92593">
        <ele>636.3</ele>
        <time>2013-02-23T07:52:30.000Z</time>
      </trkpt>
      <trkpt lat="47.28393" lon="4.9257">
        <ele>632.4</ele>
        <time>2013-02-23T07:52:37.000Z</time>
      </trkpt>
      <trkpt lat="47.28389" lon="4.92566">
        <ele>630.8</ele>
        <time>2013-02-23T07:52:40.000Z</time>
      </trkpt>
      <trkpt lat="47.28389" lon="4.92565">
        <ele>630.4</ele>
        <time>2013-02-23T07:52:41.000Z</time>
      </trkpt>
      <trkpt lat="47.28386" lon="4.92561">
        <ele>630.2</ele>
        <time>2013-02-23T07:52:43.000Z</time>
      </trkpt>
      <trkpt lat="47.28384" lon="4.92559">
        <ele>630.1</ele>
        <time>2013-02-23T07:52:44.000Z</time>
      </trkpt>
      <trkpt lat="47.2838" lon="4.92557">
        <ele>628.3</ele>
        <time>2013-02-23T07:52:46.000Z</time>
      </trkpt>
      <trkpt lat="47.28378" lon="4.92555">
        <ele>628.5</ele>
        <time>2013-02-23T07:52:47.000Z</time>
      </trkpt>
      <trkpt lat="47.28375" lon="4.92552">
        <ele>629.4</ele>
        <time>2013-02-23T07:52:49.000Z</time>
      </trkpt>
      <trkpt lat="47.28374" lon="4.92551">
        <ele>629.2</ele>
        <time>2013-02-23T07:52:50.000Z</time>
      </trkpt>
      <trkpt lat="47.28372" lon="4.9255">
        <ele>629.7</ele>
        <time>2013-02-23T07:52:51.000Z</time>
      </trkpt>
      <trkpt lat="47.2837" lon="4.92547">
        <ele>630.3</ele>
        <time>2013-02-23T07:52:52.000Z</time>
      </trkpt>
      <trkpt lat="47.28367" lon="4.92544">
        <ele>631.6</ele>
        <time>2013-02-23T07:52:54.000Z</time>
      </trkpt>
      <trkpt lat="47.28365" lon="4.92543">
        <ele>631.2</ele>
        <time>2013-02-23T07:52:55.000Z</time>
      </trkpt>
      <trkpt lat="47.28361" lon="4.92539">
        <ele>631.3</ele>
        <time>2013-02-23T07:52:57.000Z</time>
      </trkpt>
      <trkpt lat="47.2836" lon="4.92537">
        <ele>631.5</ele>
        <time>2013-02-23T07:52:58.000Z</time>
      </trkpt>
      <trkpt lat="47.28358" lon="4.92535">
        <ele>631.7</ele>
        <time>2013-02-23T07:52:59.000Z</time>
      </trkpt>
      <trkpt lat="47.28355" lon="4.92532">
        <ele>631.7</ele>
        <time>2013-02-23T07:53:00.000Z</time>
      </trkpt>
      <trkpt lat="47.28354" lon="4.9253">
        <ele>631.1</ele>
        <time>2013-02-23T07:53:01.000Z</time>
      </trkpt>
      <trkpt lat="47.28352" lon="4.92528">
        <ele>629.8</ele>
        <time>2013-02-23T07:53:02.000Z</time>
      </trkpt>
      <trkpt lat="47.28348" lon="4.92524">
        <ele>629</ele>
        <time>2013-02-23T07:53:04.000Z</time>
      </trkpt>
      <trkpt lat="47.28347" lon="4.92522">
        <ele>628.5</ele>
        <time>2013-02-23T07:53:05.000Z</time>
      </trkpt>
      <trkpt lat="47.28343" lon="4.92518">
        <ele>627.6</ele>
        <time>2013-02-23T07:53:07.000Z</time>
      </trkpt>
      <trkpt lat="47.28342" lon="4.92516">
        <ele>627.4</ele>
        <time>2013-02-23T07:53:08.000Z</time>
      </trkpt>
      <trkpt lat="47.2834" lon="4.92514">
        <ele>627.2</ele>
        <time>2013-02-23T07:53:09.000Z</time>
      </trkpt>
      <trkpt lat="47.28338" lon="4.92512">
        <ele>626.8</ele>
        <time>2013-02-23T07:53:10.000Z</time>
      </trkpt>
      <trkpt lat="47.28335" lon="4.92507">
        <ele>626.5</ele>
        <time>2013-02-23T07:53:12.000Z</time>
      </trkpt>
      <trkpt lat="47.28333" lon="4.92505">
        <ele>626.4</ele>
        <time>2013-02-23T07:53:13.000Z</time>
      </trkpt>
      <trkpt lat="47.2833" lon="4.92502">
        <ele>625.7</ele>
        <time>2013-02-23T07:53:15.000Z</time>
      </trkpt>
      <trkpt lat="47.28328" lon="4.925">
        <ele>625.5</ele>
        <time>2013-02-23T07:53:16.000Z</time>
      </trkpt>
      <trkpt lat="47.28325" lon="4.92497">
        <ele>625.3</ele>
        <time>2013-02-23T07:53:18.000Z</time>
      </trkpt>
      <trkpt lat="47.28324" lon="4.92495">
        <ele>625.1</ele>
        <time>2013-02-23T07:53:19.000Z</time>
      </trkpt>
      <trkpt lat="47.2832" lon="4.92491">
        <ele>624.8</ele>
        <time>2013-02-23T07:53:21.000Z</time>
      </trkpt>
      <trkpt lat="47.28319" lon="4.92489">
        <ele>624.6</ele>
        <time>2013-02-23T07:53:22.000Z</time>
      </trkpt>
      <trkpt lat="47.28317" lon="4.92486">
        <ele>624.5</ele>
        <time>2013-02-23T07:53:23.000Z</time>
      </trkpt>
      <trkpt lat="47.28315" lon="4.92484">
        <ele>624.3</ele>
        <time>2013-02-23T07:53:24.000Z</time>
      </trkpt>
      <trkpt lat="47.28312" lon="4.9248">
        <ele>623.9</ele>
        <time>2013-02-23T07:53:26.000Z</time>
      </trkpt>
      <trkpt lat="47.2831" lon="4.92477">
        <ele>623.8</ele>
        <time>2013-02-23T07:53:27.000Z</time>
      </trkpt>
      <trkpt lat="47.28307" lon="4.92474">
        <ele>623.4</ele>
        <time>2013-02-23T07:53:29.000Z</time>
      </trkpt>
      <trkpt lat="47.28305" lon="4.92471">
        <ele>623.3</ele>
        <time>2013-02-23T07:53:30.000Z</time>
      </trkpt>
      <trkpt lat="47.28297" lon="4.92444">
        <ele>609.8</ele>
        <time>2013-02-23T07:53:37.000Z</time>
      </trkpt>
      <trkpt lat="47.28293" lon="4.92444">
        <ele>612.5</ele>
        <time>2013-02-23T07:53:39.000Z</time>
      </trkpt>
      <trkpt lat="47.28291" lon="4.92443">
        <ele>613.5</ele>
        <time>2013-02-23T07:53:40.000Z</time>
      </trkpt>
      <trkpt lat="47.28287" lon="4.9244">
        <ele>613.3</ele>
        <time>2013-02-23T07:53:42.000Z</time>
      </trkpt>
      <trkpt lat="47.28285" lon="4.92438">
        <ele>613.9</ele>
        <time>2013-02-23T07:53:43.000Z</time>
      </trkpt>
      <trkpt lat="47.28281" lon="4.92437">
        <ele>615.3</ele>
        <time>2013-02-23T07:53:45.000Z</time>
      </trkpt>
      <trkpt lat="47.28279" lon="4.92435">
        <ele>616.3</ele>
        <time>2013-02-23T07:53:46.000Z</time>
      </trkpt>
      <trkpt lat="47.28276" lon="4.9243">
        <ele>616.7</ele>
        <time>2013-02-23T07:53:48.000Z</time>
      </trkpt>
      <trkpt lat="47.28275" lon="4.92428">
        <ele>616.8</ele>
        <time>2013-02-23T07:53:49.000Z</time>
      </trkpt>
      <trkpt lat="47.28271" lon="4.92425">
        <ele>617.3</ele>
        <time>2013-02-23T07:53:51.000Z</time>
      </trkpt>
      <trkpt lat="47.28269" lon="4.92423">
        <ele>617.7</ele>
        <time>2013-02-23T07:53:52.000Z</time>
      </trkpt>
      <trkpt lat="47.28266" lon="4.92419">
        <ele>618.2</ele>
        <time>2013-02-23T07:53:54.000Z</time>
      </trkpt>
      <trkpt lat="47.28264" lon="4.92418">
        <ele>618.4</ele>
        <time>2013-02-23T07:53:55.000Z</time>
      </trkpt>
      <trkpt lat="47.28262" lon="4.92415">
        <ele>618.6</ele>
        <time>2013-02-23T07:53:57.000Z</time>
      </trkpt>
      <trkpt lat="47.2826" lon="4.92413">
        <ele>618.6</ele>
        <time>2013-02-23T07:53:58.000Z</time>
      </trkpt>
      <trkpt lat="47.28257" lon="4.92408">
        <ele>618.6</ele>
        <time>2013-02-23T07:54:00.000Z</time>
      </trkpt>
      <trkpt lat="47.28256" lon="4.92407">
        <ele>619.1</ele>
        <time>2013-02-23T07:54:01.000Z</time>
      </trkpt>
      <trkpt lat="47.28252" lon="4.92403">
        <ele>617.6</ele>
        <time>2013-02-23T07:54:03.000Z</time>
      </trkpt>
      <trkpt lat="47.2825" lon="4.92402">
        <ele>617.3</ele>
        <time>2013-02-23T07:54:04.000Z</time>
      </trkpt>
      <trkpt lat="47.28246" lon="4.92398">
        <ele>616.9</ele>
        <time>2013-02-23T07:54:06.000Z</time>
      </trkpt>
      <trkpt lat="47.28245" lon="4.92397">
        <ele>616.8</ele>
        <time>2013-02-23T07:54:07.000Z</time>
      </trkpt>
      <trkpt lat="47.28241" lon="4.92394">
        <ele>616.4</ele>
        <time>2013-02-23T07:54:09.000Z</time>
      </trkpt>
      <trkpt lat="47.28239" lon="4.92392">
        <ele>616.3</ele>
        <time>2013-02-23T07:54:10.000Z</time>
      </trkpt>
      <trkpt lat="47.28236" lon="4.9239">
        <ele>616.5</ele>
        <time>2013-02-23T07:54:11.000Z</time>
      </trkpt>
      <trkpt lat="47.28234" lon="4.92387">
        <ele>616.5</ele>
        <time>2013-02-23T07:54:12.000Z</time>
      </trkpt>
      <trkpt lat="47.28233" lon="4.92385">
        <ele>616.6</ele>
        <time>2013-02-23T07:54:13.000Z</time>
      </trkpt>
      <trkpt lat="47.28231" lon="4.92382">
        <ele>616.5</ele>
        <time>2013-02-23T07:54:14.000Z</time>
      </trkpt>
      <trkpt lat="47.28229" lon="4.92378">
        <ele>616</ele>
        <time>2013-02-23T07:54:16.000Z</time>
      </trkpt>
      <trkpt lat="47.28228" lon="4.92377">
        <ele>615.8</ele>
        <time>2013-02-23T07:54:17.000Z</time>
      </trkpt>
      <trkpt lat="47.28225" lon="4.92374">
        <ele>615.7</ele>
        <time>2013-02-23T07:54:19.000Z</time>
      </trkpt>
      <trkpt lat="47.28223" lon="4.92371">
        <ele>615.6</ele>
        <time>2013-02-23T07:54:20.000Z</time>
      </trkpt>
      <trkpt lat="47.2822" lon="4.92366">
        <ele>615.4</ele>
        <time>2013-02-23T07:54:22.000Z</time>
      </trkpt>
      <trkpt lat="47.28219" lon="4.92364">
        <ele>615.3</ele>
        <time>2013-02-23T07:54:23.000Z</time>
      </trkpt>
      <trkpt lat="47.28217" lon="4.92362">
        <ele>615.2</ele>
        <time>2013-02-23T07:54:24.000Z</time>
      </trkpt>
      <trkpt lat="47.28215" lon="4.9236">
        <ele>615.1</ele>
        <time>2013-02-23T07:54:25.000Z</time>
      </trkpt>
      <trkpt lat="47.28212" lon="4.92356">
        <ele>614.9</ele>
        <time>2013-02-23T07:54:27.000Z</time>
      </trkpt>
      <trkpt lat="47.2821" lon="4.92354">
        <ele>614.8</ele>
        <time>2013-02-23T07:54:28.000Z</time>
      </trkpt>
      <trkpt lat="47.28208" lon="4.92352">
        <ele>614.6</ele>
        <time>2013-02-23T07:54:29.000Z</time>
      </trkpt>
      <trkpt lat="47.28206" lon="4.9235">
        <ele>614.7</ele>
        <time>2013-02-23T07:54:30.000Z</time>
      </trkpt>
      <trkpt lat="47.28197" lon="4.92324">
        <ele>609.9</ele>
        <time>2013-02-23T07:54:37.000Z</time>
      </trkpt>
      <trkpt lat="47.28193" lon="4.92321">
        <ele>609.8</ele>
        <time>2013-02-23T07:54:39.000Z</time>
      </trkpt>
      <trkpt lat="47.28192" lon="4.92321">
        <ele>610.1</ele>
        <time>2013-02-23T07:54:40.000Z</time>
      </trkpt>
      <trkpt lat="47.28188" lon="4.92318">
        <ele>610.3</ele>
        <time>2013-02-23T07:54:42.000Z</time>
      </trkpt>
      <trkpt lat="47.28185" lon="4.92317">
        <ele>610.3</ele>
        <time>2013-02-23T07:54:43.000Z</time>
      </trkpt>
      <trkpt lat="47.28183" lon="4.92315">
        <ele>611.2</ele>
        <time>2013-02-23T07:54:44.000Z</time>
      </trkpt>
      <trkpt lat="47.28181" lon="4.92313">
        <ele>611.5</ele>
        <time>2013-02-23T07:54:45.000Z</time>
      </trkpt>
      <trkpt lat="47.28179" lon="4.92311">
        <ele>612.2</ele>
        <time>2013-02-23T07:54:46.000Z</time>
      </trkpt>
      <trkpt lat="47.28177" lon="4.9231">
        <ele>612.8</ele>
        <time>2013-02-23T07:54:47.000Z</time>
      </trkpt>
      <trkpt lat="47.28174" lon="4.92307">
        <ele>612.7</ele>
        <time>2013-02-23T07:54:49.000Z</time>
      </trkpt>
      <trkpt lat="47.28173" lon="4.92303">
        <ele>611.3</ele>
        <time>2013-02-23T07:54:50.000Z</time>
      </trkpt>
      <trkpt lat="47.28172" lon="4.923">
        <ele>611.3</ele>
        <time>2013-02-23T07:54:51.000Z</time>
      </trkpt>
      <trkpt lat="47.2817" lon="4.92298">
        <ele>610.9</ele>
        <time>2013-02-23T07:54:52.000Z</time>
      </trkpt>
      <trkpt lat="47.28168" lon="4.92296">
        <ele>610.8</ele>
        <time>2013-02-23T07:54:53.000Z</time>
      </trkpt>
      <trkpt lat="47.28166" lon="4.92295">
        <ele>610.5</ele>
        <time>2013-02-23T07:54:54.000Z</time>
      </trkpt>
      <trkpt lat="47.28163" lon="4.92291">
        <ele>611.1</ele>
        <time>2013-02-23T07:54:56.000Z</time>
      </trkpt>
      <trkpt lat="47.28161" lon="4.9229">
        <ele>611.2</ele>
        <time>2013-02-23T07:54:57.000Z</time>
      </trkpt>
      <trkpt lat="47.28157" lon="4.92288">
        <ele>612.4</ele>
        <time>2013-02-23T07:54:59.000Z</time>
      </trkpt>
      <trkpt lat="47.28156" lon="4.92286">
        <ele>613</ele>
        <time>2013-02-23T07:55:00.000Z</time>
      </trkpt>
      <trkpt lat="47.28153" lon="4.92284">
        <ele>613.4</ele>
        <time>2013-02-23T07:55:01.000Z</time>
      </trkpt>
      <trkpt lat="47.28151" lon="4.92282">
        <ele>611.6</ele>
        <time>2013-02-23T07:55:02.000Z</time>
      </trkpt>
      <trkpt lat="47.28149" lon="4.92281">
        <ele>611.3</ele>
        <time>2013-02-23T07:55:03.000Z</time>
      </trkpt>
      <trkpt lat="47.28146" lon="4.92279">
        <ele>611</ele>
        <time>2013-02-23T07:55:04.000Z</time>
      </trkpt>
      <trkpt lat="47.28143" lon="4.92276">
        <ele>610.4</ele>
        <time>2013-02-23T07:55:06.000Z</time>
      </trkpt>
      <trkpt lat="47.28141" lon="4.92275">
        <ele>610.3</ele>
        <time>2013-02-23T07:55:07.000Z</time>
      </trkpt>
      <trkpt lat="47.28137" lon="4.92271">
        <ele>610.2</ele>
        <time>2013-02-23T07:55:09.000Z</time>
      </trkpt>
      <trkpt lat="47.28136" lon="4.9227">
        <ele>610.1</ele>
        <time>2013-02-23T07:55:10.000Z</time>
      </trkpt>
      <trkpt lat="47.28133" lon="4.92268">
        <ele>609.9</ele>
        <time>2013-02-23T07:55:11.000Z</time>
      </trkpt>
      <trkpt lat="47.28132" lon="4.92266">
        <ele>609.7</ele>
        <time>2013-02-23T07:55:12.000Z</time>
      </trkpt>
      <trkpt lat="47.2813" lon="4.92264">
        <ele>609.6</ele>
        <time>2013-02-23T07:55:13.000Z</time>
      </trkpt>
      <trkpt lat="47.28128" lon="4.92261">
        <ele>609.5</ele>
        <time>2013-02-23T07:55:14.000Z</time>
      </trkpt>
      <trkpt lat="47.28126" lon="4.9226">
        <ele>609.3</ele>
        <time>2013-02-23T07:55:15.000Z</time>
      </trkpt>
      <trkpt lat="47.28124" lon="4.92258">
        <ele>609.1</ele>
        <time>2013-02-23T07:55:16.000Z</time>
      </trkpt>
      <trkpt lat="47.28122" lon="4.92255">
        <ele>608.6</ele>
        <time>2013-02-23T07:55:17.000Z</time>
      </trkpt>
      <trkpt lat="47.28121" lon="4.92252">
        <ele>608.4</ele>
        <time>2013-02-23T07:55:18.000Z</time>
      </trkpt>
      <trkpt lat="47.28119" lon="4.9225">
        <ele>607.9</ele>
        <time>2013-02-23T07:55:19.000Z</time>
      </trkpt>
      <trkpt lat="47.28117" lon="4.92248">
        <ele>607.5</ele>
        <time>2013-02-23T07:55:20.000Z</time>
      </trkpt>
      <trkpt lat="47.28115" lon="4.92247">
        <ele>607</ele>
        <time>2013-02-23T07:55:21.000Z</time>
      </trkpt>
      <trkpt lat="47.28113" lon="4.92245">
        <ele>606.8</ele>
        <time>2013-02-23T07:55:22.000Z</time>
      </trkpt>
      <trkpt lat="47.2811" lon="4.92244">
        <ele>606.5</ele>
        <time>2013-02-23T07:55:23.000Z</time>
      </trkpt>
      <trkpt lat="47.28108" lon="4.92242">
        <ele>606.1</ele>
        <time>2013-02-23T07:55:24.000Z</time>
      </trkpt>
      <trkpt lat="47.28104" lon="4.92239">
        <ele>605.5</ele>
        <time>2013-02-23T07:55:26.000Z</time>
      </trkpt>
      <trkpt lat="47.28102" lon="4.92237">
        <ele>605.1</ele>
        <time>2013-02-23T07:55:27.000Z</time>
      </trkpt>
      <trkpt lat="47.28099" lon="4.92233">
        <ele>604.9</ele>
        <time>2013-02-23T07:55:29.000Z</time>
      </trkpt>
      <trkpt lat="47.28098" lon="4.9223">
        <ele>604.5</ele>
        <time>2013-02-23T07:55:30.000Z</time>
      </trkpt>
      <trkpt lat="47.28085" lon="4.92214">
        <ele>595.8</ele>
        <time>2013-02-23T07:55:37.000Z</time>
      </trkpt>
      <trkpt lat="47.28082" lon="4.92209">
        <ele>595.7</ele>
        <time>2013-02-23T07:55:39.000Z</time>
      </trkpt>
      <trkpt lat="47.28081" lon="4.92207">
        <ele>595.5</ele>
        <time>2013-02-23T07:55:40.000Z</time>
      </trkpt>
      <trkpt lat="47.28078" lon="4.92204">
        <ele>596.8</ele>
        <time>2013-02-23T07:55:42.000Z</time>
      </trkpt>
      <trkpt lat="47.28077" lon="4.92202">
        <ele>597.2</ele>
        <time>2013-02-23T07:55:43.000Z</time>
      </trkpt>
      <trkpt lat="47.28074" lon="4.92198">
        <ele>597.4</ele>
        <time>2013-02-23T07:55:45.000Z</time>
      </trkpt>
      <trkpt lat="47.28073" lon="4.92195">
        <ele>598.2</ele>
        <time>2013-02-23T07:55:46.000Z</time>
      </trkpt>
      <trkpt lat="47.28069" lon="4.92192">
        <ele>598.6</ele>
        <time>2013-02-23T07:55:48.000Z</time>
      </trkpt>
      <trkpt lat="47.28068" lon="4.9219">
        <ele>599.2</ele>
        <time>2013-02-23T07:55:49.000Z</time>
      </trkpt>
      <trkpt lat="47.28064" lon="4.92186">
        <ele>599.7</ele>
        <time>2013-02-23T07:55:51.000Z</time>
      </trkpt>
      <trkpt lat="47.28063" lon="4.92183">
        <ele>598.5</ele>
        <time>2013-02-23T07:55:52.000Z</time>
      </trkpt>
      <trkpt lat="47.2806" lon="4.92179">
        <ele>597.1</ele>
        <time>2013-02-23T07:55:54.000Z</time>
      </trkpt>
      <trkpt lat="47.2806" lon="4.92176">
        <ele>596.8</ele>
        <time>2013-02-23T07:55:55.000Z</time>
      </trkpt>
      <trkpt lat="47.28059" lon="4.92171">
        <ele>595.1</ele>
        <time>2013-02-23T07:55:57.000Z</time>
      </trkpt>
      <trkpt lat="47.28058" lon="4.92169">
        <ele>594.5</ele>
        <time>2013-02-23T07:55:58.000Z</time>
      </trkpt>
      <trkpt lat="47.28055" lon="4.92166">
        <ele>593.4</ele>
        <time>2013-02-23T07:56:01.000Z</time>
      </trkpt>
      <trkpt lat="47.28054" lon="4.92165">
        <ele>592.7</ele>
        <time>2013-02-23T07:56:02.000Z</time>
      </trkpt>
      <trkpt lat="47.28051" lon="4.92162">
        <ele>591.3</ele>
        <time>2013-02-23T07:56:04.000Z</time>
      </trkpt>
      <trkpt lat="47.28051" lon="4.9216">
        <ele>589.5</ele>
        <time>2013-02-23T07:56:05.000Z</time>
      </trkpt>
      <trkpt lat="47.28053" lon="4.92155">
        <ele>586.2</ele>
        <time>2013-02-23T07:56:09.000Z</time>
      </trkpt>
      <trkpt lat="47.28054" lon="4.92155">
        <ele>585.8</ele>
        <time>2013-02-23T07:56:10.000Z</time>
      </trkpt>
      <trkpt lat="47.28058" lon="4.92154">
        <ele>586</ele>
        <time>2013-02-23T07:56:14.000Z</time>
      </trkpt>
      <trkpt lat="47.28059" lon="4.92154">
        <ele>586.2</ele>
        <time>2013-02-23T07:56:15.000Z</time>
      </trkpt>
      <trkpt lat="47.28062" lon="4.92156">
        <ele>587</ele>
        <time>2013-02-23T07:56:18.000Z</time>
      </trkpt>
      <trkpt lat="47.28063" lon="4.92158">
        <ele>587</ele>
        <time>2013-02-23T07:56:19.000Z</time>
      </trkpt>
      <trkpt lat="47.28065" lon="4.92161">
        <ele>587.7</ele>
        <time>2013-02-23T07:56:21.000Z</time>
      </trkpt>
      <trkpt lat="47.28066" lon="4.92162">
        <ele>588</ele>
        <time>2013-02-23T07:56:22.000Z</time>
      </trkpt>
      <trkpt lat="47.28069" lon="4.92165">
        <ele>588.4</ele>
        <time>2013-02-23T07:56:25.000Z</time>
      </trkpt>
      <trkpt lat="47.2807" lon="4.92166">
        <ele>588.5</ele>
        <time>2013-02-23T07:56:26.000Z</time>
      </trkpt>
      <trkpt lat="47.28072" lon="4.92168">
        <ele>588.7</ele>
        <time>2013-02-23T07:56:28.000Z</time>
      </trkpt>
      <trkpt lat="47.28074" lon="4.9217">
        <ele>588.8</ele>
        <time>2013-02-23T07:56:29.000Z</time>
      </trkpt>
      <trkpt lat="47.28075" lon="4.92172">
        <ele>589</ele>
        <time>2013-02-23T07:56:30.000Z</time>
      </trkpt>
      <trkpt lat="47.28084" lon="4.92182">
        <ele>593.7</ele>
        <time>2013-02-23T07:56:37.000Z</time>
      </trkpt>
      <trkpt lat="47.28086" lon="4.92185">
        <ele>595.7</ele>
        <time>2013-02-23T07:56:39.000Z</time>
      </trkpt>
      <trkpt lat="47.28088" lon="4.92186">
        <ele>596.8</ele>
        <time>2013-02-23T07:56:40.000Z</time>
      </trkpt>
      <trkpt lat="47.2809" lon="4.92187">
        <ele>596.9</ele>
        <time>2013-02-23T07:56:42.000Z</time>
      </trkpt>
      <trkpt lat="47.28092" lon="4.92189">
        <ele>596.4</ele>
        <time>2013-02-23T07:56:43.000Z</time>
      </trkpt>
      <trkpt lat="47.28094" lon="4.92193">
        <ele>596.9</ele>
        <time>2013-02-23T07:56:45.000Z</time>
      </trkpt>
      <trkpt lat="47.28095" lon="4.92194">
        <ele>597.5</ele>
        <time>2013-02-23T07:56:46.000Z</time>
      </trkpt>
      <trkpt lat="47.28098" lon="4.92196">
        <ele>598</ele>
        <time>2013-02-23T07:56:48.000Z</time>
      </trkpt>
      <trkpt lat="47.28099" lon="4.92197">
        <ele>597.9</ele>
        <time>2013-02-23T07:56:49.000Z</time>
      </trkpt>
      <trkpt lat="47.28102" lon="4.922">
        <ele>595.4</ele>
        <time>2013-02-23T07:56:51.000Z</time>
      </trkpt>
      <trkpt lat="47.28103" lon="4.92201">
        <ele>594.3</ele>
        <time>2013-02-23T07:56:52.000Z</time>
      </trkpt>
      <trkpt lat="47.28098" lon="4.92203">
        <ele>592.5</ele>
        <time>2013-02-23T07:57:00.000Z</time>
      </trkpt>
      <trkpt lat="47.28097" lon="4.92202">
        <ele>592.7</ele>
        <time>2013-02-23T07:57:01.000Z</time>
      </trkpt>
      <trkpt lat="47.28093" lon="4.922">
        <ele>591.5</ele>
        <time>2013-02-23T07:57:04.000Z</time>
      </trkpt>
      <trkpt lat="47.28092" lon="4.922">
        <ele>591.5</ele>
        <time>2013-02-23T07:57:05.000Z</time>
      </trkpt>
      <trkpt lat="47.28088" lon="4.92198">
        <ele>591.9</ele>
        <time>2013-02-23T07:57:08.000Z</time>
      </trkpt>
      <trkpt lat="47.28087" lon="4.92197">
        <ele>591.8</ele>
        <time>2013-02-23T07:57:09.000Z</time>
      </trkpt>
      <trkpt lat="47.28084" lon="4.92195">
        <ele>591.8</ele>
        <time>2013-02-23T07:57:12.000Z</time>
      </trkpt>
      <trkpt lat="47.28083" lon="4.92195">
        <ele>591.8</ele>
        <time>2013-02-23T07:57:13.000Z</time>
      </trkpt>
      <trkpt lat="47.28079" lon="4.92192">
        <ele>591.4</ele>
        <time>2013-02-23T07:57:16.000Z</time>
      </trkpt>
      <trkpt lat="47.28078" lon="4.92191">
        <ele>591.4</ele>
        <time>2013-02-23T07:57:17.000Z</time>
      </trkpt>
      <trkpt lat="47.28075" lon="4.92189">
        <ele>591</ele>
        <time>2013-02-23T07:57:20.000Z</time>
      </trkpt>
      <trkpt lat="47.28074" lon="4.92188">
        <ele>591</ele>
        <time>2013-02-23T07:57:21.000Z</time>
      </trkpt>
      <trkpt lat="47.2807" lon="4.92186">
        <ele>591.4</ele>
        <time>2013-02-23T07:57:24.000Z</time>
      </trkpt>
      <trkpt lat="47.28069" lon="4.92185">
        <ele>591.5</ele>
        <time>2013-02-23T07:57:25.000Z</time>
      </trkpt>
      <trkpt lat="47.28066" lon="4.92183">
        <ele>591.4</ele>
        <time>2013-02-23T07:57:27.000Z</time>
      </trkpt>
      <trkpt lat="47.28065" lon="4.92181">
        <ele>591.2</ele>
        <time>2013-02-23T07:57:28.000Z</time>
      </trkpt>
      <trkpt lat="47.28062" lon="4.92178">
        <ele>590.7</ele>
        <time>2013-02-23T07:57:30.000Z</time>
      </trkpt>
      <trkpt lat="47.28055" lon="4.9216">
        <ele>588.7</ele>
        <time>2013-02-23T07:57:37.000Z</time>
      </trkpt>
      <trkpt lat="47.2805" lon="4.92159">
        <ele>591.3</ele>
        <time>2013-02-23T07:57:40.000Z</time>
      </trkpt>
      <trkpt lat="47.28049" lon="4.92155">
        <ele>589.5</ele>
        <time>2013-02-23T07:57:41.000Z</time>
      </trkpt>
      <trkpt lat="47.28045" lon="4.92154">
        <ele>587.9</ele>
        <time>2013-02-23T07:57:44.000Z</time>
      </trkpt>
      <trkpt lat="47.28044" lon="4.92152">
        <ele>587.6</ele>
        <time>2013-02-23T07:57:45.000Z</time>
      </trkpt>
      <trkpt lat="47.28042" lon="4.92147">
        <ele>586.7</ele>
        <time>2013-02-23T07:57:47.000Z</time>
      </trkpt>
      <trkpt lat="47.28041" lon="4.92147">
        <ele>587.6</ele>
        <time>2013-02-23T07:57:48.000Z</time>
      </trkpt>
      <trkpt lat="47.28038" lon="4.92142">
        <ele>586.2</ele>
        <time>2013-02-23T07:57:50.000Z</time>
      </trkpt>
      <trkpt lat="47.28037" lon="4.9214">
        <ele>585.7</ele>
        <time>2013-02-23T07:57:51.000Z</time>
      </trkpt>
      <trkpt lat="47.28034" lon="4.92137">
        <ele>584.6</ele>
        <time>2013-02-23T07:57:53.000Z</time>
      </trkpt>
      <trkpt lat="47.28033" lon="4.92136">
        <ele>584.7</ele>
        <time>2013-02-23T07:57:54.000Z</time>
      </trkpt>
      <trkpt lat="47.28029" lon="4.92135">
        <ele>585.1</ele>
        <time>2013-02-23T07:57:57.000Z</time>
      </trkpt>
      <trkpt lat="47.28028" lon="4.92134">
        <ele>584.9</ele>
        <time>2013-02-23T07:57:58.000Z</time>
      </trkpt>
      <trkpt lat="47.28024" lon="4.92132">
        <ele>585.7</ele>
        <time>2013-02-23T07:58:01.000Z</time>
      </trkpt>
      <trkpt lat="47.28023" lon="4.9213">
        <ele>585.4</ele>
        <time>2013-02-23T07:58:02.000Z</time>
      </trkpt>
      <trkpt lat="47.2802" lon="4.92125">
        <ele>585.3</ele>
        <time>2013-02-23T07:58:05.000Z</time>
      </trkpt>
      <trkpt lat="47.28019" lon="4.92124">
        <ele>585.2</ele>
        <time>2013-02-23T07:58:06.000Z</time>
      </trkpt>
      <trkpt lat="47.28017" lon="4.9212">
        <ele>584.8</ele>
        <time>2013-02-23T07:58:08.000Z</time>
      </trkpt>
      <trkpt lat="47.28016" lon="4.92119">
        <ele>584.5</ele>
        <time>2013-02-23T07:58:09.000Z</time>
      </trkpt>
      <trkpt lat="47.28014" lon="4.92115">
        <ele>583.9</ele>
        <time>2013-02-23T07:58:11.000Z</time>
      </trkpt>
      <trkpt lat="47.28012" lon="4.92114">
        <ele>583.5</ele>
        <time>2013-02-23T07:58:12.000Z</time>
      </trkpt>
      <trkpt lat="47.2801" lon="4.92111">
        <ele>582.9</ele>
        <time>2013-02-23T07:58:14.000Z</time>
      </trkpt>
      <trkpt lat="47.28008" lon="4.9211">
        <ele>582.6</ele>
        <time>2013-02-23T07:58:15.000Z</time>
      </trkpt>
      <trkpt lat="47.28006" lon="4.92107">
        <ele>582.2</ele>
        <time>2013-02-23T07:58:17.000Z</time>
      </trkpt>
      <trkpt lat="47.28005" lon="4.92105">
        <ele>582</ele>
        <time>2013-02-23T07:58:18.000Z</time>
      </trkpt>
      <trkpt lat="47.28002" lon="4.92102">
        <ele>581.3</ele>
        <time>2013-02-23T07:58:20.000Z</time>
      </trkpt>
      <trkpt lat="47.28001" lon="4.921">
        <ele>581</ele>
        <time>2013-02-23T07:58:21.000Z</time>
      </trkpt>
      <trkpt lat="47.27999" lon="4.92097">
        <ele>580.5</ele>
        <time>2013-02-23T07:58:23.000Z</time>
      </trkpt>
      <trkpt lat="47.27997" lon="4.92095">
        <ele>580.3</ele>
        <time>2013-02-23T07:58:24.000Z</time>
      </trkpt>
      <trkpt lat="47.27994" lon="4.92092">
        <ele>579.6</ele>
        <time>2013-02-23T07:58:26.000Z</time>
      </trkpt>
      <trkpt lat="47.27993" lon="4.92091">
        <ele>579.5</ele>
        <time>2013-02-23T07:58:27.000Z</time>
      </trkpt>
      <trkpt lat="47.2799" lon="4.92089">
        <ele>579.2</ele>
        <time>2013-02-23T07:58:29.000Z</time>
      </trkpt>
      <trkpt lat="47.27989" lon="4.92087">
        <ele>579.1</ele>
        <time>2013-02-23T07:58:30.000Z</time>
      </trkpt>
      <trkpt lat="47.27983" lon="4.92071">
        <ele>577.8</ele>
        <time>2013-02-23T07:58:37.000Z</time>
      </trkpt>
      <trkpt lat="47.27982" lon="4.92066">
        <ele>578</ele>
        <time>2013-02-23T07:58:39.000Z</time>
      </trkpt>
      <trkpt lat="47.27981" lon="4.92064">
        <ele>578.1</ele>
        <time>2013-02-23T07:58:40.000Z</time>
      </trkpt>
      <trkpt lat="47.27978" lon="4.92061">
        <ele>578.1</ele>
        <time>2013-02-23T07:58:42.000Z</time>
      </trkpt>
      <trkpt lat="47.27976" lon="4.9206">
        <ele>577.7</ele>
        <time>2013-02-23T07:58:43.000Z</time>
      </trkpt>
      <trkpt lat="47.27973" lon="4.92057">
        <ele>576.7</ele>
        <time>2013-02-23T07:58:45.000Z</time>
      </trkpt>
      <trkpt lat="47.27972" lon="4.92055">
        <ele>576.3</ele>
        <time>2013-02-23T07:58:46.000Z</time>
      </trkpt>
      <trkpt lat="47.2797" lon="4.92052">
        <ele>576.1</ele>
        <time>2013-02-23T07:58:48.000Z</time>
      </trkpt>
      <trkpt lat="47.27969" lon="4.92051">
        <ele>576</ele>
        <time>2013-02-23T07:58:49.000Z</time>
      </trkpt>
      <trkpt lat="47.27967" lon="4.92047">
        <ele>575.9</ele>
        <time>2013-02-23T07:58:51.000Z</time>
      </trkpt>
      <trkpt lat="47.27966" lon="4.92044">
        <ele>575.7</ele>
        <time>2013-02-23T07:58:52.000Z</time>
      </trkpt>
      <trkpt lat="47.27964" lon="4.92041">
        <ele>576.5</ele>
        <time>2013-02-23T07:58:55.000Z</time>
      </trkpt>
      <trkpt lat="47.27963" lon="4.92039">
        <ele>576.6</ele>
        <time>2013-02-23T07:58:56.000Z</time>
      </trkpt>
      <trkpt lat="47.2796" lon="4.92034">
        <ele>576.9</ele>
        <time>2013-02-23T07:58:59.000Z</time>
      </trkpt>
      <trkpt lat="47.2796" lon="4.92032">
        <ele>577</ele>
        <time>2013-02-23T07:59:00.000Z</time>
      </trkpt>
      <trkpt lat="47.27957" lon="4.92026">
        <ele>576.7</ele>
        <time>2013-02-23T07:59:03.000Z</time>
      </trkpt>
      <trkpt lat="47.27957" lon="4.92024">
        <ele>576.7</ele>
        <time>2013-02-23T07:59:04.000Z</time>
      </trkpt>
      <trkpt lat="47.27955" lon="4.92019">
        <ele>576.3</ele>
        <time>2013-02-23T07:59:06.000Z</time>
      </trkpt>
      <trkpt lat="47.27955" lon="4.92016">
        <ele>576.2</ele>
        <time>2013-02-23T07:59:07.000Z</time>
      </trkpt>
      <trkpt lat="47.27953" lon="4.92012">
        <ele>576.2</ele>
        <time>2013-02-23T07:59:09.000Z</time>
      </trkpt>
      <trkpt lat="47.27953" lon="4.92009">
        <ele>576.1</ele>
        <time>2013-02-23T07:59:10.000Z</time>
      </trkpt>
      <trkpt lat="47.27951" lon="4.92003">
        <ele>575.8</ele>
        <time>2013-02-23T07:59:13.000Z</time>
      </trkpt>
      <trkpt lat="47.2795" lon="4.92001">
        <ele>575.5</ele>
        <time>2013-02-23T07:59:14.000Z</time>
      </trkpt>
      <trkpt lat="47.27949" lon="4.91996">
        <ele>575.9</ele>
        <time>2013-02-23T07:59:16.000Z</time>
      </trkpt>
      <trkpt lat="47.27948" lon="4.91995">
        <ele>575.9</ele>
        <time>2013-02-23T07:59:17.000Z</time>
      </trkpt>
      <trkpt lat="47.27947" lon="4.9199">
        <ele>576.6</ele>
        <time>2013-02-23T07:59:20.000Z</time>
      </trkpt>
      <trkpt lat="47.27946" lon="4.91988">
        <ele>576.6</ele>
        <time>2013-02-23T07:59:21.000Z</time>
      </trkpt>
      <trkpt lat="47.27945" lon="4.91983">
        <ele>576.5</ele>
        <time>2013-02-23T07:59:23.000Z</time>
      </trkpt>
      <trkpt lat="47.27944" lon="4.91981">
        <ele>576.5</ele>
        <time>2013-02-23T07:59:24.000Z</time>
      </trkpt>
      <trkpt lat="47.27943" lon="4.91977">
        <ele>576.3</ele>
        <time>2013-02-23T07:59:26.000Z</time>
      </trkpt>
      <trkpt lat="47.27942" lon="4.91974">
        <ele>576.1</ele>
        <time>2013-02-23T07:59:27.000Z</time>
      </trkpt>
      <trkpt lat="47.27941" lon="4.9197">
        <ele>575.8</ele>
        <time>2013-02-23T07:59:29.000Z</time>
      </trkpt>
      <trkpt lat="47.2794" lon="4.91968">
        <ele>575.7</ele>
        <time>2013-02-23T07:59:30.000Z</time>
      </trkpt>
      <trkpt lat="47.27935" lon="4.91946">
        <ele>573.9</ele>
        <time>2013-02-23T07:59:37.000Z</time>
      </trkpt>
      <trkpt lat="47.27933" lon="4.91941">
        <ele>574.6</ele>
        <time>2013-02-23T07:59:41.000Z</time>
      </trkpt>
      <trkpt lat="47.27933" lon="4.91939">
        <ele>574.1</ele>
        <time>2013-02-23T07:59:42.000Z</time>
      </trkpt>
      <trkpt lat="47.27931" lon="4.91934">
        <ele>574.8</ele>
        <time>2013-02-23T07:59:45.000Z</time>
      </trkpt>
      <trkpt lat="47.2793" lon="4.91932">
        <ele>575.2</ele>
        <time>2013-02-23T07:59:46.000Z</time>
      </trkpt>
      <trkpt lat="47.27929" lon="4.91926">
        <ele>574.9</ele>
        <time>2013-02-23T07:59:48.000Z</time>
      </trkpt>
      <trkpt lat="47.27929" lon="4.91923">
        <ele>574.3</ele>
        <time>2013-02-23T07:59:49.000Z</time>
      </trkpt>
      <trkpt lat="47.27929" lon="4.91919">
        <ele>574.2</ele>
        <time>2013-02-23T07:59:51.000Z</time>
      </trkpt>
      <trkpt lat="47.27929" lon="4.91916">
        <ele>574.1</ele>
        <time>2013-02-23T07:59:52.000Z</time>
      </trkpt>
      <trkpt lat="47.27929" lon="4.9191">
        <ele>574.2</ele>
        <time>2013-02-23T07:59:54.000Z</time>
      </trkpt>
      <trkpt lat="47.27928" lon="4.91907">
        <ele>574.8</ele>
        <time>2013-02-23T07:59:55.000Z</time>
      </trkpt>
      <trkpt lat="47.27929" lon="4.91902">
        <ele>574.6</ele>
        <time>2013-02-23T07:59:57.000Z</time>
      </trkpt>
      <trkpt lat="47.27929" lon="4.919">
        <ele>574.5</ele>
        <time>2013-02-23T07:59:58.000Z</time>
      </trkpt>
      <trkpt lat="47.2793" lon="4.91894">
        <ele>574.6</ele>
        <time>2013-02-23T08:00:00.000Z</time>
      </trkpt>
      <trkpt lat="47.2793" lon="4.91892">
        <ele>574.4</ele>
        <time>2013-02-23T08:00:01.000Z</time>
      </trkpt>
      <trkpt lat="47.27931" lon="4.91887">
        <ele>574</ele>
        <time>2013-02-23T08:00:03.000Z</time>
      </trkpt>
      <trkpt lat="47.27931" lon="4.91884">
        <ele>573.9</ele>
        <time>2013-02-23T08:00:04.000Z</time>
      </trkpt>
      <trkpt lat="47.27931" lon="4.91879">
        <ele>574.2</ele>
        <time>2013-02-23T08:00:06.000Z</time>
      </trkpt>
      <trkpt lat="47.27932" lon="4.91877">
        <ele>574.4</ele>
        <time>2013-02-23T08:00:07.000Z</time>
      </trkpt>
      <trkpt lat="47.27932" lon="4.91872">
        <ele>574.6</ele>
        <time>2013-02-23T08:00:09.000Z</time>
      </trkpt>
      <trkpt lat="47.27932" lon="4.9187">
        <ele>574.7</ele>
        <time>2013-02-23T08:00:10.000Z</time>
      </trkpt>
      <trkpt lat="47.27933" lon="4.91865">
        <ele>575</ele>
        <time>2013-02-23T08:00:12.000Z</time>
      </trkpt>
      <trkpt lat="47.27933" lon="4.91862">
        <ele>575.2</ele>
        <time>2013-02-23T08:00:13.000Z</time>
      </trkpt>
      <trkpt lat="47.27934" lon="4.91857">
        <ele>575.6</ele>
        <time>2013-02-23T08:00:15.000Z</time>
      </trkpt>
      <trkpt lat="47.27934" lon="4.91854">
        <ele>575.6</ele>
        <time>2013-02-23T08:00:16.000Z</time>
      </trkpt>
      <trkpt lat="47.27936" lon="4.91848">
        <ele>575.8</ele>
        <time>2013-02-23T08:00:19.000Z</time>
      </trkpt>
      <trkpt lat="47.27936" lon="4.91847">
        <ele>575.9</ele>
        <time>2013-02-23T08:00:20.000Z</time>
      </trkpt>
      <trkpt lat="47.27937" lon="4.91842">
        <ele>576.1</ele>
        <time>2013-02-23T08:00:22.000Z</time>
      </trkpt>
      <trkpt lat="47.27938" lon="4.91839">
        <ele>576.2</ele>
        <time>2013-02-23T08:00:23.000Z</time>
      </trkpt>
      <trkpt lat="47.27939" lon="4.91834">
        <ele>576.1</ele>
        <time>2013-02-23T08:00:25.000Z</time>
      </trkpt>
      <trkpt lat="47.2794" lon="4.91831">
        <ele>576.1</ele>
        <time>2013-02-23T08:00:26.000Z</time>
      </trkpt>
      <trkpt lat="47.27941" lon="4.91827">
        <ele>576.2</ele>
        <time>2013-02-23T08:00:28.000Z</time>
      </trkpt>
      <trkpt lat="47.27941" lon="4.91824">
        <ele>576.3</ele>
        <time>2013-02-23T08:00:29.000Z</time>
      </trkpt>
      <trkpt lat="47.27942" lon="4.91822">
        <ele>576.3</ele>
        <time>2013-02-23T08:00:30.000Z</time>
      </trkpt>
      <trkpt lat="47.27946" lon="4.918">
        <ele>578.7</ele>
        <time>2013-02-23T08:00:37.000Z</time>
      </trkpt>
      <trkpt lat="47.27949" lon="4.91798">
        <ele>577.2</ele>
        <time>2013-02-23T08:00:39.000Z</time>
      </trkpt>
      <trkpt lat="47.27949" lon="4.91795">
        <ele>578.3</ele>
        <time>2013-02-23T08:00:40.000Z</time>
      </trkpt>
      <trkpt lat="47.27951" lon="4.91791">
        <ele>579.7</ele>
        <time>2013-02-23T08:00:42.000Z</time>
      </trkpt>
      <trkpt lat="47.27951" lon="4.91788">
        <ele>580.4</ele>
        <time>2013-02-23T08:00:43.000Z</time>
      </trkpt>
      <trkpt lat="47.27953" lon="4.91784">
        <ele>581.3</ele>
        <time>2013-02-23T08:00:46.000Z</time>
      </trkpt>
      <trkpt lat="47.27955" lon="4.91783">
        <ele>580.1</ele>
        <time>2013-02-23T08:00:47.000Z</time>
      </trkpt>
      <trkpt lat="47.27958" lon="4.9178">
        <ele>579.2</ele>
        <time>2013-02-23T08:00:49.000Z</time>
      </trkpt>
      <trkpt lat="47.27959" lon="4.91778">
        <ele>579.2</ele>
        <time>2013-02-23T08:00:50.000Z</time>
      </trkpt>
      <trkpt lat="47.2796" lon="4.91774">
        <ele>579.6</ele>
        <time>2013-02-23T08:00:52.000Z</time>
      </trkpt>
      <trkpt lat="47.2796" lon="4.91771">
        <ele>579.9</ele>
        <time>2013-02-23T08:00:53.000Z</time>
      </trkpt>
      <trkpt lat="47.27962" lon="4.91767">
        <ele>579.9</ele>
        <time>2013-02-23T08:00:55.000Z</time>
      </trkpt>
      <trkpt lat="47.27963" lon="4.91766">
        <ele>579.5</ele>
        <time>2013-02-23T08:00:56.000Z</time>
      </trkpt>
      <trkpt lat="47.27965" lon="4.91761">
        <ele>579.4</ele>
        <time>2013-02-23T08:00:58.000Z</time>
      </trkpt>
      <trkpt lat="47.27966" lon="4.91759">
        <ele>578.6</ele>
        <time>2013-02-23T08:00:59.000Z</time>
      </trkpt>
      <trkpt lat="47.27968" lon="4.91755">
        <ele>577.6</ele>
        <time>2013-02-23T08:01:02.000Z</time>
      </trkpt>
      <trkpt lat="47.27969" lon="4.91753">
        <ele>577.1</ele>
        <time>2013-02-23T08:01:03.000Z</time>
      </trkpt>
      <trkpt lat="47.27973" lon="4.91749">
        <ele>575.9</ele>
        <time>2013-02-23T08:01:06.000Z</time>
      </trkpt>
      <trkpt lat="47.27974" lon="4.91747">
        <ele>575.7</ele>
        <time>2013-02-23T08:01:07.000Z</time>
      </trkpt>
      <trkpt lat="47.27976" lon="4.91744">
        <ele>575.1</ele>
        <time>2013-02-23T08:01:09.000Z</time>
      </trkpt>
      <trkpt lat="47.27977" lon="4.91742">
        <ele>574.4</ele>
        <time>2013-02-23T08:01:10.000Z</time>
      </trkpt>
      <trkpt lat="47.2798" lon="4.91739">
        <ele>573.5</ele>
        <time>2013-02-23T08:01:12.000Z</time>
      </trkpt>
      <trkpt lat="47.27981" lon="4.91737">
        <ele>572.9</ele>
        <time>2013-02-23T08:01:13.000Z</time>
      </trkpt>
      <trkpt lat="47.27984" lon="4.91734">
        <ele>572.4</ele>
        <time>2013-02-23T08:01:16.000Z</time>
      </trkpt>
      <trkpt lat="47.27986" lon="4.91733">
        <ele>572.3</ele>
        <time>2013-02-23T08:01:17.000Z</time>
      </trkpt>
      <trkpt lat="47.27989" lon="4.91729">
        <ele>572</ele>
        <time>2013-02-23T08:01:20.000Z</time>
      </trkpt>
      <trkpt lat="47.27991" lon="4.91728">
        <ele>571.8</ele>
        <time>2013-02-23T08:01:21.000Z</time>
      </trkpt>
      <trkpt lat="47.27994" lon="4.91725">
        <ele>571.7</ele>
        <time>2013-02-23T08:01:24.000Z</time>
      </trkpt>
      <trkpt lat="47.27996" lon="4.91724">
        <ele>571.7</ele>
        <time>2013-02-23T08:01:25.000Z</time>
      </trkpt>
      <trkpt lat="47.27999" lon="4.91722">
        <ele>571.9</ele>
        <time>2013-02-23T08:01:28.000Z</time>
      </trkpt>
      <trkpt lat="47.28" lon="4.91721">
        <ele>571.8</ele>
        <time>2013-02-23T08:01:29.000Z</time>
      </trkpt>
      <trkpt lat="47.28001" lon="4.9172">
        <ele>571.8</ele>
        <time>2013-02-23T08:01:30.000Z</time>
      </trkpt>
      <trkpt lat="47.28011" lon="4.91711">
        <ele>569.1</ele>
        <time>2013-02-23T08:01:37.000Z</time>
      </trkpt>
      <trkpt lat="47.28015" lon="4.9171">
        <ele>569.1</ele>
        <time>2013-02-23T08:01:40.000Z</time>
      </trkpt>
      <trkpt lat="47.28016" lon="4.9171">
        <ele>569.1</ele>
        <time>2013-02-23T08:01:41.000Z</time>
      </trkpt>
      <trkpt lat="47.28019" lon="4.91712">
        <ele>568.9</ele>
        <time>2013-02-23T08:01:46.000Z</time>
      </trkpt>
      <trkpt lat="47.28021" lon="4.91714">
        <ele>568.3</ele>
        <time>2013-02-23T08:01:47.000Z</time>
      </trkpt>
      <trkpt lat="47.28024" lon="4.91717">
        <ele>567.3</ele>
        <time>2013-02-23T08:01:50.000Z</time>
      </trkpt>
      <trkpt lat="47.28025" lon="4.91718">
        <ele>567.1</ele>
        <time>2013-02-23T08:01:51.000Z</time>
      </trkpt>
      <trkpt lat="47.28027" lon="4.91722">
        <ele>567</ele>
        <time>2013-02-23T08:01:55.000Z</time>
      </trkpt>
      <trkpt lat="47.28028" lon="4.91723">
        <ele>567.1</ele>
        <time>2013-02-23T08:01:56.000Z</time>
      </trkpt>
      <trkpt lat="47.2803" lon="4.91727">
        <ele>567.4</ele>
        <time>2013-02-23T08:01:59.000Z</time>
      </trkpt>
      <trkpt lat="47.28031" lon="4.91728">
        <ele>567.6</ele>
        <time>2013-02-23T08:02:00.000Z</time>
      </trkpt>
      <trkpt lat="47.28033" lon="4.91732">
        <ele>567.9</ele>
        <time>2013-02-23T08:02:03.000Z</time>
      </trkpt>
      <trkpt lat="47.28033" lon="4.91734">
        <ele>568</ele>
        <time>2013-02-23T08:02:04.000Z</time>
      </trkpt>
      <trkpt lat="47.28036" lon="4.91737">
        <ele>568.5</ele>
        <time>2013-02-23T08:02:07.000Z</time>
      </trkpt>
      <trkpt lat="47.28036" lon="4.91739">
        <ele>568.7</ele>
        <time>2013-02-23T08:02:08.000Z</time>
      </trkpt>
      <trkpt lat="47.2804" lon="4.91742">
        <ele>569</ele>
        <time>2013-02-23T08:02:11.000Z</time>
      </trkpt>
      <trkpt lat="47.28041" lon="4.91743">
        <ele>569.2</ele>
        <time>2013-02-23T08:02:12.000Z</time>
      </trkpt>
      <trkpt lat="47.28044" lon="4.91745">
        <ele>569.1</ele>
        <time>2013-02-23T08:02:14.000Z</time>
      </trkpt>
      <trkpt lat="47.28046" lon="4.91745">
        <ele>569.2</ele>
        <time>2013-02-23T08:02:15.000Z</time>
      </trkpt>
      <trkpt lat="47.2805" lon="4.91747">
        <ele>569.5</ele>
        <time>2013-02-23T08:02:18.000Z</time>
      </trkpt>
      <trkpt lat="47.28051" lon="4.91748">
        <ele>569.5</ele>
        <time>2013-02-23T08:02:19.000Z</time>
      </trkpt>
      <trkpt lat="47.28055" lon="4.91749">
        <ele>569.8</ele>
        <time>2013-02-23T08:02:21.000Z</time>
      </trkpt>
      <trkpt lat="47.28056" lon="4.91749">
        <ele>570</ele>
        <time>2013-02-23T08:02:22.000Z</time>
      </trkpt>
      <trkpt lat="47.2806" lon="4.9175">
        <ele>570.4</ele>
        <time>2013-02-23T08:02:25.000Z</time>
      </trkpt>
      <trkpt lat="47.28062" lon="4.91751">
        <ele>570.5</ele>
        <time>2013-02-23T08:02:26.000Z</time>
      </trkpt>
      <trkpt lat="47.28065" lon="4.91752">
        <ele>570.7</ele>
        <time>2013-02-23T08:02:28.000Z</time>
      </trkpt>
      <trkpt lat="47.28066" lon="4.91752">
        <ele>570.8</ele>
        <time>2013-02-23T08:02:29.000Z</time>
      </trkpt>
      <trkpt lat="47.28068" lon="4.91752">
        <ele>570.8</ele>
        <time>2013-02-23T08:02:30.000Z</time>
      </trkpt>
      <trkpt lat="47.2808" lon="4.91756">
        <ele>570.2</ele>
        <time>2013-02-23T08:02:37.000Z</time>
      </trkpt>
      <trkpt lat="47.28083" lon="4.91757">
        <ele>570.9</ele>
        <time>2013-02-23T08:02:39.000Z</time>
      </trkpt>
      <trkpt lat="47.28085" lon="4.91757">
        <ele>570.8</ele>
        <time>2013-02-23T08:02:40.000Z</time>
      </trkpt>
      <trkpt lat="47.28088" lon="4.91757">
        <ele>570.8</ele>
        <time>2013-02-23T08:02:41.000Z</time>
      </trkpt>
      <trkpt lat="47.2809" lon="4.91759">
        <ele>570</ele>
        <time>2013-02-23T08:02:42.000Z</time>
      </trkpt>
      <trkpt lat="47.28094" lon="4.9176">
        <ele>568.9</ele>
        <time>2013-02-23T08:02:44.000Z</time>
      </trkpt>
      <trkpt lat="47.28095" lon="4.91759">
        <ele>569.6</ele>
        <time>2013-02-23T08:02:45.000Z</time>
      </trkpt>
      <trkpt lat="47.28098" lon="4.91761">
        <ele>569.1</ele>
        <time>2013-02-23T08:02:47.000Z</time>
      </trkpt>
      <trkpt lat="47.281" lon="4.91761">
        <ele>569.6</ele>
        <time>2013-02-23T08:02:48.000Z</time>
      </trkpt>
      <trkpt lat="47.28103" lon="4.91761">
        <ele>570.2</ele>
        <time>2013-02-23T08:02:50.000Z</time>
      </trkpt>
      <trkpt lat="47.28105" lon="4.91762">
        <ele>570.3</ele>
        <time>2013-02-23T08:02:51.000Z</time>
      </trkpt>
      <trkpt lat="47.28109" lon="4.91762">
        <ele>571.1</ele>
        <time>2013-02-23T08:02:54.000Z</time>
      </trkpt>
      <trkpt lat="47.28111" lon="4.91763">
        <ele>570.8</ele>
        <time>2013-02-23T08:02:55.000Z</time>
      </trkpt>
      <trkpt lat="47.28114" lon="4.91764">
        <ele>571</ele>
        <time>2013-02-23T08:02:57.000Z</time>
      </trkpt>
      <trkpt lat="47.28116" lon="4.91764">
        <ele>571.3</ele>
        <time>2013-02-23T08:02:58.000Z</time>
      </trkpt>
      <trkpt lat="47.2812" lon="4.91763">
        <ele>571.8</ele>
        <time>2013-02-23T08:03:01.000Z</time>
      </trkpt>
      <trkpt lat="47.28122" lon="4.91764">
        <ele>571.3</ele>
        <time>2013-02-23T08:03:02.000Z</time>
      </trkpt>
      <trkpt lat="47.28126" lon="4.91764">
        <ele>571.4</ele>
        <time>2013-02-23T08:03:05.000Z</time>
      </trkpt>
      <trkpt lat="47.28128" lon="4.91764">
        <ele>571.5</ele>
        <time>2013-02-23T08:03:06.000Z</time>
      </trkpt>
      <trkpt lat="47.28131" lon="4.91764">
        <ele>571.7</ele>
        <time>2013-02-23T08:03:08.000Z</time>
      </trkpt>
      <trkpt lat="47.28133" lon="4.91765">
        <ele>571.7</ele>
        <time>2013-02-23T08:03:09.000Z</time>
      </trkpt>
      <trkpt lat="47.28136" lon="4.91765">
        <ele>572.2</ele>
        <time>2013-02-23T08:03:11.000Z</time>
      </trkpt>
      <trkpt lat="47.28138" lon="4.91765">
        <ele>572.3</ele>
        <time>2013-02-23T08:03:12.000Z</time>
      </trkpt>
      <trkpt lat="47.28141" lon="4.91766">
        <ele>572.6</ele>
        <time>2013-02-23T08:03:14.000Z</time>
      </trkpt>
      <trkpt lat="47.28143" lon="4.91766">
        <ele>572.6</ele>
        <time>2013-02-23T08:03:15.000Z</time>
      </trkpt>
      <trkpt lat="47.28146" lon="4.91767">
        <ele>572.4</ele>
        <time>2013-02-23T08:03:17.000Z</time>
      </trkpt>
      <trkpt lat="47.28148" lon="4.91767">
        <ele>572.5</ele>
        <time>2013-02-23T08:03:18.000Z</time>
      </trkpt>
      <trkpt lat="47.28152" lon="4.91768">
        <ele>572.8</ele>
        <time>2013-02-23T08:03:21.000Z</time>
      </trkpt>
      <trkpt lat="47.28153" lon="4.91769">
        <ele>573</ele>
        <time>2013-02-23T08:03:22.000Z</time>
      </trkpt>
      <trkpt lat="47.28156" lon="4.91769">
        <ele>573.1</ele>
        <time>2013-02-23T08:03:24.000Z</time>
      </trkpt>
      <trkpt lat="47.28158" lon="4.9177">
        <ele>573.1</ele>
        <time>2013-02-23T08:03:25.000Z</time>
      </trkpt>
      <trkpt lat="47.28162" lon="4.91771">
        <ele>573.2</ele>
        <time>2013-02-23T08:03:28.000Z</time>
      </trkpt>
      <trkpt lat="47.28164" lon="4.91772">
        <ele>573.2</ele>
        <time>2013-02-23T08:03:29.000Z</time>
      </trkpt>
      <trkpt lat="47.28165" lon="4.91773">
        <ele>573.4</ele>
        <time>2013-02-23T08:03:30.000Z</time>
      </trkpt>
      <trkpt lat="47.28177" lon="4.91775">
        <ele>578.2</ele>
        <time>2013-02-23T08:03:37.000Z</time>
      </trkpt>
      <trkpt lat="47.2818" lon="4.91779">
        <ele>579</ele>
        <time>2013-02-23T08:03:40.000Z</time>
      </trkpt>
      <trkpt lat="47.28182" lon="4.91781">
        <ele>578.9</ele>
        <time>2013-02-23T08:03:41.000Z</time>
      </trkpt>
      <trkpt lat="47.28185" lon="4.91785">
        <ele>579.8</ele>
        <time>2013-02-23T08:03:44.000Z</time>
      </trkpt>
      <trkpt lat="47.28186" lon="4.91786">
        <ele>580.3</ele>
        <time>2013-02-23T08:03:45.000Z</time>
      </trkpt>
      <trkpt lat="47.28189" lon="4.91789">
        <ele>581.6</ele>
        <time>2013-02-23T08:03:48.000Z</time>
      </trkpt>
      <trkpt lat="47.28191" lon="4.9179">
        <ele>582.2</ele>
        <time>2013-02-23T08:03:49.000Z</time>
      </trkpt>
      <trkpt lat="47.28194" lon="4.91793">
        <ele>583</ele>
        <time>2013-02-23T08:03:52.000Z</time>
      </trkpt>
      <trkpt lat="47.28195" lon="4.91794">
        <ele>583.2</ele>
        <time>2013-02-23T08:03:53.000Z</time>
      </trkpt>
      <trkpt lat="47.28198" lon="4.91798">
        <ele>583</ele>
        <time>2013-02-23T08:03:56.000Z</time>
      </trkpt>
      <trkpt lat="47.28199" lon="4.91799">
        <ele>582.8</ele>
        <time>2013-02-23T08:03:57.000Z</time>
      </trkpt>
      <trkpt lat="47.28203" lon="4.91803">
        <ele>582.6</ele>
        <time>2013-02-23T08:04:00.000Z</time>
      </trkpt>
      <trkpt lat="47.28204" lon="4.91804">
        <ele>582.7</ele>
        <time>2013-02-23T08:04:01.000Z</time>
      </trkpt>
      <trkpt lat="47.28208" lon="4.91808">
        <ele>582.9</ele>
        <time>2013-02-23T08:04:04.000Z</time>
      </trkpt>
      <trkpt lat="47.28209" lon="4.91808">
        <ele>583</ele>
        <time>2013-02-23T08:04:05.000Z</time>
      </trkpt>
      <trkpt lat="47.28212" lon="4.91811">
        <ele>583.3</ele>
        <time>2013-02-23T08:04:08.000Z</time>
      </trkpt>
      <trkpt lat="47.28213" lon="4.91812">
        <ele>583.5</ele>
        <time>2013-02-23T08:04:09.000Z</time>
      </trkpt>
      <trkpt lat="47.28217" lon="4.91815">
        <ele>583.7</ele>
        <time>2013-02-23T08:04:12.000Z</time>
      </trkpt>
      <trkpt lat="47.28218" lon="4.91816">
        <ele>583.8</ele>
        <time>2013-02-23T08:04:13.000Z</time>
      </trkpt>
      <trkpt lat="47.28222" lon="4.91818">
        <ele>584.3</ele>
        <time>2013-02-23T08:04:16.000Z</time>
      </trkpt>
      <trkpt lat="47.28223" lon="4.9182">
        <ele>584.4</ele>
        <time>2013-02-23T08:04:17.000Z</time>
      </trkpt>
      <trkpt lat="47.28226" lon="4.91822">
        <ele>584.7</ele>
        <time>2013-02-23T08:04:19.000Z</time>
      </trkpt>
      <trkpt lat="47.28227" lon="4.91823">
        <ele>584.8</ele>
        <time>2013-02-23T08:04:20.000Z</time>
      </trkpt>
      <trkpt lat="47.28229" lon="4.91825">
        <ele>585.2</ele>
        <time>2013-02-23T08:04:22.000Z</time>
      </trkpt>
      <trkpt lat="47.28231" lon="4.91827">
        <ele>585.4</ele>
        <time>2013-02-23T08:04:23.000Z</time>
      </trkpt>
      <trkpt lat="47.28234" lon="4.9183">
        <ele>586</ele>
        <time>2013-02-23T08:04:26.000Z</time>
      </trkpt>
      <trkpt lat="47.28235" lon="4.91831">
        <ele>586.3</ele>
        <time>2013-02-23T08:04:27.000Z</time>
      </trkpt>
      <trkpt lat="47.28239" lon="4.91834">
        <ele>586.9</ele>
        <time>2013-02-23T08:04:30.000Z</time>
      </trkpt>
      <trkpt lat="47.28252" lon="4.91844">
        <ele>593.6</ele>
        <time>2013-02-23T08:04:37.000Z</time>
      </trkpt>
      <trkpt lat="47.28255" lon="4.91847">
        <ele>593.7</ele>
        <time>2013-02-23T08:04:41.000Z</time>
      </trkpt>
      <trkpt lat="47.28257" lon="4.91848">
        <ele>594</ele>
        <time>2013-02-23T08:04:42.000Z</time>
      </trkpt>
      <trkpt lat="47.2826" lon="4.91851">
        <ele>595.2</ele>
        <time>2013-02-23T08:04:45.000Z</time>
      </trkpt>
      <trkpt lat="47.2826" lon="4.91852">
        <ele>595.6</ele>
        <time>2013-02-23T08:04:46.000Z</time>
      </trkpt>
      <trkpt lat="47.28264" lon="4.91855">
        <ele>596.3</ele>
        <time>2013-02-23T08:04:50.000Z</time>
      </trkpt>
      <trkpt lat="47.28265" lon="4.91856">
        <ele>596.8</ele>
        <time>2013-02-23T08:04:51.000Z</time>
      </trkpt>
      <trkpt lat="47.28268" lon="4.91859">
        <ele>597.8</ele>
        <time>2013-02-23T08:04:54.000Z</time>
      </trkpt>
      <trkpt lat="47.2827" lon="4.9186">
        <ele>598.2</ele>
        <time>2013-02-23T08:04:55.000Z</time>
      </trkpt>
      <trkpt lat="47.28273" lon="4.91864">
        <ele>598.7</ele>
        <time>2013-02-23T08:04:58.000Z</time>
      </trkpt>
      <trkpt lat="47.28274" lon="4.91865">
        <ele>599.8</ele>
        <time>2013-02-23T08:04:59.000Z</time>
      </trkpt>
      <trkpt lat="47.28277" lon="4.91868">
        <ele>601</ele>
        <time>2013-02-23T08:05:02.000Z</time>
      </trkpt>
      <trkpt lat="47.28279" lon="4.9187">
        <ele>601</ele>
        <time>2013-02-23T08:05:03.000Z</time>
      </trkpt>
      <trkpt lat="47.28282" lon="4.91874">
        <ele>601.2</ele>
        <time>2013-02-23T08:05:06.000Z</time>
      </trkpt>
      <trkpt lat="47.28283" lon="4.91875">
        <ele>601.2</ele>
        <time>2013-02-23T08:05:07.000Z</time>
      </trkpt>
      <trkpt lat="47.28286" lon="4.91878">
        <ele>601.8</ele>
        <time>2013-02-23T08:05:10.000Z</time>
      </trkpt>
      <trkpt lat="47.28287" lon="4.91879">
        <ele>602</ele>
        <time>2013-02-23T08:05:11.000Z</time>
      </trkpt>
      <trkpt lat="47.28289" lon="4.91882">
        <ele>602.2</ele>
        <time>2013-02-23T08:05:13.000Z</time>
      </trkpt>
      <trkpt lat="47.2829" lon="4.91884">
        <ele>602.3</ele>
        <time>2013-02-23T08:05:14.000Z</time>
      </trkpt>
      <trkpt lat="47.28293" lon="4.91886">
        <ele>602.8</ele>
        <time>2013-02-23T08:05:16.000Z</time>
      </trkpt>
      <trkpt lat="47.28294" lon="4.91887">
        <ele>603.1</ele>
        <time>2013-02-23T08:05:17.000Z</time>
      </trkpt>
      <trkpt lat="47.28297" lon="4.91889">
        <ele>603.5</ele>
        <time>2013-02-23T08:05:19.000Z</time>
      </trkpt>
      <trkpt lat="47.28298" lon="4.9189">
        <ele>603.6</ele>
        <time>2013-02-23T08:05:20.000Z</time>
      </trkpt>
      <trkpt lat="47.28301" lon="4.91893">
        <ele>603.9</ele>
        <time>2013-02-23T08:05:23.000Z</time>
      </trkpt>
      <trkpt lat="47.28302" lon="4.91895">
        <ele>604.1</ele>
        <time>2013-02-23T08:05:24.000Z</time>
      </trkpt>
      <trkpt lat="47.28305" lon="4.91898">
        <ele>604.4</ele>
        <time>2013-02-23T08:05:27.000Z</time>
      </trkpt>
      <trkpt lat="47.28306" lon="4.919">
        <ele>604.4</ele>
        <time>2013-02-23T08:05:28.000Z</time>
      </trkpt>
      <trkpt lat="47.28308" lon="4.91902">
        <ele>605</ele>
        <time>2013-02-23T08:05:30.000Z</time>
      </trkpt>
      <trkpt lat="47.28319" lon="4.91915">
        <ele>608</ele>
        <time>2013-02-23T08:05:37.000Z</time>
      </trkpt>
      <trkpt lat="47.28322" lon="4.91916">
        <ele>610.3</ele>
        <time>2013-02-23T08:05:40.000Z</time>
      </trkpt>
      <trkpt lat="47.28324" lon="4.91917">
        <ele>611</ele>
        <time>2013-02-23T08:05:41.000Z</time>
      </trkpt>
      <trkpt lat="47.28327" lon="4.91921">
        <ele>612</ele>
        <time>2013-02-23T08:05:44.000Z</time>
      </trkpt>
      <trkpt lat="47.28327" lon="4.91922">
        <ele>612.3</ele>
        <time>2013-02-23T08:05:45.000Z</time>
      </trkpt>
      <trkpt lat="47.28331" lon="4.91925">
        <ele>614.2</ele>
        <time>2013-02-23T08:05:49.000Z</time>
      </trkpt>
      <trkpt lat="47.28331" lon="4.91926">
        <ele>614.8</ele>
        <time>2013-02-23T08:05:50.000Z</time>
      </trkpt>
      <trkpt lat="47.28335" lon="4.91928">
        <ele>615.9</ele>
        <time>2013-02-23T08:05:53.000Z</time>
      </trkpt>
      <trkpt lat="47.28336" lon="4.9193">
        <ele>615.7</ele>
        <time>2013-02-23T08:05:54.000Z</time>
      </trkpt>
      <trkpt lat="47.28339" lon="4.91934">
        <ele>616</ele>
        <time>2013-02-23T08:05:57.000Z</time>
      </trkpt>
      <trkpt lat="47.2834" lon="4.91936">
        <ele>616.1</ele>
        <time>2013-02-23T08:05:58.000Z</time>
      </trkpt>
      <trkpt lat="47.28343" lon="4.9194">
        <ele>616.1</ele>
        <time>2013-02-23T08:06:01.000Z</time>
      </trkpt>
      <trkpt lat="47.28344" lon="4.91941">
        <ele>616.1</ele>
        <time>2013-02-23T08:06:02.000Z</time>
      </trkpt>
      <trkpt lat="47.28348" lon="4.91945">
        <ele>616.3</ele>
        <time>2013-02-23T08:06:07.000Z</time>
      </trkpt>
      <trkpt lat="47.28349" lon="4.91946">
        <ele>616.5</ele>
        <time>2013-02-23T08:06:08.000Z</time>
      </trkpt>
      <trkpt lat="47.28352" lon="4.91949">
        <ele>617.3</ele>
        <time>2013-02-23T08:06:10.000Z</time>
      </trkpt>
      <trkpt lat="47.28353" lon="4.9195">
        <ele>617.7</ele>
        <time>2013-02-23T08:06:11.000Z</time>
      </trkpt>
      <trkpt lat="47.28355" lon="4.91953">
        <ele>618.3</ele>
        <time>2013-02-23T08:06:13.000Z</time>
      </trkpt>
      <trkpt lat="47.28356" lon="4.91955">
        <ele>618.3</ele>
        <time>2013-02-23T08:06:14.000Z</time>
      </trkpt>
      <trkpt lat="47.28358" lon="4.91958">
        <ele>618.6</ele>
        <time>2013-02-23T08:06:16.000Z</time>
      </trkpt>
      <trkpt lat="47.28359" lon="4.9196">
        <ele>618.8</ele>
        <time>2013-02-23T08:06:17.000Z</time>
      </trkpt>
      <trkpt lat="47.28362" lon="4.91962">
        <ele>618.9</ele>
        <time>2013-02-23T08:06:19.000Z</time>
      </trkpt>
      <trkpt lat="47.28363" lon="4.91964">
        <ele>618.9</ele>
        <time>2013-02-23T08:06:20.000Z</time>
      </trkpt>
      <trkpt lat="47.28365" lon="4.91967">
        <ele>619.3</ele>
        <time>2013-02-23T08:06:22.000Z</time>
      </trkpt>
      <trkpt lat="47.28366" lon="4.91968">
        <ele>619.4</ele>
        <time>2013-02-23T08:06:23.000Z</time>
      </trkpt>
      <trkpt lat="47.2837" lon="4.91972">
        <ele>619.9</ele>
        <time>2013-02-23T08:06:26.000Z</time>
      </trkpt>
      <trkpt lat="47.28371" lon="4.91974">
        <ele>620</ele>
        <time>2013-02-23T08:06:27.000Z</time>
      </trkpt>
      <trkpt lat="47.28374" lon="4.91977">
        <ele>620.3</ele>
        <time>2013-02-23T08:06:30.000Z</time>
      </trkpt>
      <trkpt lat="47.28384" lon="4.91985">
        <ele>627.2</ele>
        <time>2013-02-23T08:06:37.000Z</time>
      </trkpt>
      <trkpt lat="47.28388" lon="4.91988">
        <ele>626</ele>
        <time>2013-02-23T08:06:40.000Z</time>
      </trkpt>
      <trkpt lat="47.28388" lon="4.9199">
        <ele>626.1</ele>
        <time>2013-02-23T08:06:41.000Z</time>
      </trkpt>
      <trkpt lat="47.28391" lon="4.91993">
        <ele>627.1</ele>
        <time>2013-02-23T08:06:45.000Z</time>
      </trkpt>
      <trkpt lat="47.28391" lon="4.91995">
        <ele>627.2</ele>
        <time>2013-02-23T08:06:46.000Z</time>
      </trkpt>
      <trkpt lat="47.28394" lon="4.91998">
        <ele>628.6</ele>
        <time>2013-02-23T08:06:49.000Z</time>
      </trkpt>
      <trkpt lat="47.28394" lon="4.92">
        <ele>628.7</ele>
        <time>2013-02-23T08:06:50.000Z</time>
      </trkpt>
      <trkpt lat="47.28398" lon="4.92004">
        <ele>630</ele>
        <time>2013-02-23T08:06:55.000Z</time>
      </trkpt>
      <trkpt lat="47.28399" lon="4.92004">
        <ele>630.3</ele>
        <time>2013-02-23T08:06:56.000Z</time>
      </trkpt>
      <trkpt lat="47.28402" lon="4.92007">
        <ele>630.1</ele>
        <time>2013-02-23T08:06:59.000Z</time>
      </trkpt>
      <trkpt lat="47.28403" lon="4.92008">
        <ele>630.3</ele>
        <time>2013-02-23T08:07:00.000Z</time>
      </trkpt>
      <trkpt lat="47.28406" lon="4.92011">
        <ele>630.6</ele>
        <time>2013-02-23T08:07:03.000Z</time>
      </trkpt>
      <trkpt lat="47.28407" lon="4.92012">
        <ele>630.7</ele>
        <time>2013-02-23T08:07:04.000Z</time>
      </trkpt>
      <trkpt lat="47.2841" lon="4.92016">
        <ele>630.8</ele>
        <time>2013-02-23T08:07:08.000Z</time>
      </trkpt>
      <trkpt lat="47.28411" lon="4.92017">
        <ele>631</ele>
        <time>2013-02-23T08:07:09.000Z</time>
      </trkpt>
      <trkpt lat="47.28414" lon="4.92021">
        <ele>630.8</ele>
        <time>2013-02-23T08:07:13.000Z</time>
      </trkpt>
      <trkpt lat="47.28415" lon="4.92022">
        <ele>630.7</ele>
        <time>2013-02-23T08:07:14.000Z</time>
      </trkpt>
      <trkpt lat="47.28418" lon="4.92026">
        <ele>630.8</ele>
        <time>2013-02-23T08:07:18.000Z</time>
      </trkpt>
      <trkpt lat="47.28419" lon="4.92027">
        <ele>630.8</ele>
        <time>2013-02-23T08:07:19.000Z</time>
      </trkpt>
      <trkpt lat="47.28422" lon="4.92029">
        <ele>631.1</ele>
        <time>2013-02-23T08:07:22.000Z</time>
      </trkpt>
      <trkpt lat="47.28423" lon="4.9203">
        <ele>631.1</ele>
        <time>2013-02-23T08:07:23.000Z</time>
      </trkpt>
      <trkpt lat="47.28426" lon="4.92033">
        <ele>631.4</ele>
        <time>2013-02-23T08:07:26.000Z</time>
      </trkpt>
      <trkpt lat="47.28427" lon="4.92034">
        <ele>631.6</ele>
        <time>2013-02-23T08:07:27.000Z</time>
      </trkpt>
      <trkpt lat="47.28429" lon="4.92037">
        <ele>632</ele>
        <time>2013-02-23T08:07:30.000Z</time>
      </trkpt>
      <trkpt lat="47.2843" lon="4.92038">
        <ele>632.2</ele>
        <time>2013-02-23T08:07:31.000Z</time>
      </trkpt>
      <trkpt lat="47.28433" lon="4.92043">
        <ele>632.3</ele>
        <time>2013-02-23T08:07:35.000Z</time>
      </trkpt>
      <trkpt lat="47.28433" lon="4.92045">
        <ele>632.4</ele>
        <time>2013-02-23T08:07:36.000Z</time>
      </trkpt>
      <trkpt lat="47.2843" lon="4.92048">
        <ele>633.2</ele>
        <time>2013-02-23T08:07:40.000Z</time>
      </trkpt>
      <trkpt lat="47.28429" lon="4.92049">
        <ele>633.4</ele>
        <time>2013-02-23T08:07:41.000Z</time>
      </trkpt>
      <trkpt lat="47.28426" lon="4.92053">
        <ele>634.5</ele>
        <time>2013-02-23T08:07:45.000Z</time>
      </trkpt>
      <trkpt lat="47.28425" lon="4.92054">
        <ele>634.6</ele>
        <time>2013-02-23T08:07:46.000Z</time>
      </trkpt>
      <trkpt lat="47.28422" lon="4.92057">
        <ele>634.8</ele>
        <time>2013-02-23T08:07:50.000Z</time>
      </trkpt>
      <trkpt lat="47.28421" lon="4.92058">
        <ele>635.1</ele>
        <time>2013-02-23T08:07:51.000Z</time>
      </trkpt>
      <trkpt lat="47.28418" lon="4.92061">
        <ele>635.6</ele>
        <time>2013-02-23T08:07:54.000Z</time>
      </trkpt>
      <trkpt lat="47.28417" lon="4.92062">
        <ele>636</ele>
        <time>2013-02-23T08:07:55.000Z</time>
      </trkpt>
      <trkpt lat="47.28419" lon="4.92068">
        <ele>636.7</ele>
        <time>2013-02-23T08:08:02.000Z</time>
      </trkpt>
      <trkpt lat="47.28421" lon="4.92068">
        <ele>636.9</ele>
        <time>2013-02-23T08:08:03.000Z</time>
      </trkpt>
      <trkpt lat="47.28425" lon="4.92068">
        <ele>637.1</ele>
        <time>2013-02-23T08:08:06.000Z</time>
      </trkpt>
      <trkpt lat="47.28426" lon="4.92069">
        <ele>637.3</ele>
        <time>2013-02-23T08:08:07.000Z</time>
      </trkpt>
      <trkpt lat="47.2843" lon="4.92069">
        <ele>637.9</ele>
        <time>2013-02-23T08:08:10.000Z</time>
      </trkpt>
      <trkpt lat="47.28431" lon="4.92069">
        <ele>638</ele>
        <time>2013-02-23T08:08:11.000Z</time>
      </trkpt>
      <trkpt lat="47.28436" lon="4.92069">
        <ele>638.6</ele>
        <time>2013-02-23T08:08:14.000Z</time>
      </trkpt>
      <trkpt lat="47.28437" lon="4.92069">
        <ele>638.7</ele>
        <time>2013-02-23T08:08:15.000Z</time>
      </trkpt>
      <trkpt lat="47.28441" lon="4.92069">
        <ele>639.2</ele>
        <time>2013-02-23T08:08:18.000Z</time>
      </trkpt>
      <trkpt lat="47.28443" lon="4.9207">
        <ele>639.4</ele>
        <time>2013-02-23T08:08:19.000Z</time>
      </trkpt>
      <trkpt lat="47.28447" lon="4.92071">
        <ele>639.8</ele>
        <time>2013-02-23T08:08:24.000Z</time>
      </trkpt>
      <trkpt lat="47.28447" lon="4.92071">
        <ele>640</ele>
        <time>2013-02-23T08:08:25.000Z</time>
      </trkpt>
      <trkpt lat="47.28451" lon="4.92074">
        <ele>637.3</ele>
        <time>2013-02-23T08:09:30.000Z</time>
      </trkpt>
      <trkpt lat="47.2846" lon="4.92065">
        <ele>637.7</ele>
        <time>2013-02-23T08:09:37.000Z</time>
      </trkpt>
      <trkpt lat="47.28461" lon="4.92072">
        <ele>637.6</ele>
        <time>2013-02-23T08:10:10.000Z</time>
      </trkpt>
      <trkpt lat="47.28462" lon="4.92072">
        <ele>637.7</ele>
        <time>2013-02-23T08:10:11.000Z</time>
      </trkpt>
      <trkpt lat="47.28466" lon="4.92073">
        <ele>638.1</ele>
        <time>2013-02-23T08:10:14.000Z</time>
      </trkpt>
      <trkpt lat="47.28467" lon="4.92073">
        <ele>638.2</ele>
        <time>2013-02-23T08:10:15.000Z</time>
      </trkpt>
      <trkpt lat="47.28471" lon="4.92074">
        <ele>638.6</ele>
        <time>2013-02-23T08:10:18.000Z</time>
      </trkpt>
      <trkpt lat="47.28472" lon="4.92075">
        <ele>638.7</ele>
        <time>2013-02-23T08:10:19.000Z</time>
      </trkpt>
      <trkpt lat="47.28476" lon="4.92076">
        <ele>639.1</ele>
        <time>2013-02-23T08:10:22.000Z</time>
      </trkpt>
      <trkpt lat="47.28477" lon="4.92076">
        <ele>639.3</ele>
        <time>2013-02-23T08:10:23.000Z</time>
      </trkpt>
      <trkpt lat="47.28481" lon="4.92078">
        <ele>639.4</ele>
        <time>2013-02-23T08:10:26.000Z</time>
      </trkpt>
      <trkpt lat="47.28483" lon="4.92078">
        <ele>639.4</ele>
        <time>2013-02-23T08:10:27.000Z</time>
      </trkpt>
      <trkpt lat="47.28487" lon="4.9208">
        <ele>639.5</ele>
        <time>2013-02-23T08:10:30.000Z</time>
      </trkpt>
      <trkpt lat="47.28497" lon="4.92084">
        <ele>639.6</ele>
        <time>2013-02-23T08:10:37.000Z</time>
      </trkpt>
      <trkpt lat="47.28502" lon="4.92085">
        <ele>639.7</ele>
        <time>2013-02-23T08:10:40.000Z</time>
      </trkpt>
      <trkpt lat="47.28503" lon="4.92085">
        <ele>640</ele>
        <time>2013-02-23T08:10:41.000Z</time>
      </trkpt>
      <trkpt lat="47.28507" lon="4.92086">
        <ele>640.6</ele>
        <time>2013-02-23T08:10:44.000Z</time>
      </trkpt>
      <trkpt lat="47.28509" lon="4.92087">
        <ele>640.7</ele>
        <time>2013-02-23T08:10:45.000Z</time>
      </trkpt>
      <trkpt lat="47.28513" lon="4.92088">
        <ele>641</ele>
        <time>2013-02-23T08:10:48.000Z</time>
      </trkpt>
      <trkpt lat="47.28514" lon="4.92089">
        <ele>641.3</ele>
        <time>2013-02-23T08:10:49.000Z</time>
      </trkpt>
      <trkpt lat="47.28518" lon="4.9209">
        <ele>642</ele>
        <time>2013-02-23T08:10:52.000Z</time>
      </trkpt>
      <trkpt lat="47.2852" lon="4.9209">
        <ele>642.2</ele>
        <time>2013-02-23T08:10:53.000Z</time>
      </trkpt>
      <trkpt lat="47.28524" lon="4.92092">
        <ele>642.8</ele>
        <time>2013-02-23T08:10:56.000Z</time>
      </trkpt>
      <trkpt lat="47.28525" lon="4.92092">
        <ele>643</ele>
        <time>2013-02-23T08:10:57.000Z</time>
      </trkpt>
      <trkpt lat="47.28529" lon="4.92093">
        <ele>643.9</ele>
        <time>2013-02-23T08:11:00.000Z</time>
      </trkpt>
      <trkpt lat="47.28531" lon="4.92094">
        <ele>644.2</ele>
        <time>2013-02-23T08:11:01.000Z</time>
      </trkpt>
      <trkpt lat="47.28535" lon="4.92095">
        <ele>644.6</ele>
        <time>2013-02-23T08:11:04.000Z</time>
      </trkpt>
      <trkpt lat="47.28536" lon="4.92095">
        <ele>644.7</ele>
        <time>2013-02-23T08:11:05.000Z</time>
      </trkpt>
      <trkpt lat="47.2854" lon="4.92096">
        <ele>645</ele>
        <time>2013-02-23T08:11:08.000Z</time>
      </trkpt>
      <trkpt lat="47.28542" lon="4.92097">
        <ele>645.1</ele>
        <time>2013-02-23T08:11:09.000Z</time>
      </trkpt>
      <trkpt lat="47.28545" lon="4.92098">
        <ele>645.1</ele>
        <time>2013-02-23T08:11:11.000Z</time>
      </trkpt>
      <trkpt lat="47.28546" lon="4.92099">
        <ele>645</ele>
        <time>2013-02-23T08:11:12.000Z</time>
      </trkpt>
      <trkpt lat="47.28549" lon="4.92099">
        <ele>645.1</ele>
        <time>2013-02-23T08:11:14.000Z</time>
      </trkpt>
      <trkpt lat="47.28551" lon="4.921">
        <ele>645.1</ele>
        <time>2013-02-23T08:11:15.000Z</time>
      </trkpt>
      <trkpt lat="47.28555" lon="4.92101">
        <ele>645.4</ele>
        <time>2013-02-23T08:11:18.000Z</time>
      </trkpt>
      <trkpt lat="47.28556" lon="4.92102">
        <ele>645.6</ele>
        <time>2013-02-23T08:11:19.000Z</time>
      </trkpt>
      <trkpt lat="47.2856" lon="4.92103">
        <ele>646.2</ele>
        <time>2013-02-23T08:11:22.000Z</time>
      </trkpt>
      <trkpt lat="47.28561" lon="4.92103">
        <ele>646.5</ele>
        <time>2013-02-23T08:11:23.000Z</time>
      </trkpt>
      <trkpt lat="47.28564" lon="4.92105">
        <ele>647.6</ele>
        <time>2013-02-23T08:11:26.000Z</time>
      </trkpt>
      <trkpt lat="47.28565" lon="4.92105">
        <ele>647.9</ele>
        <time>2013-02-23T08:11:27.000Z</time>
      </trkpt>
      <trkpt lat="47.28569" lon="4.92106">
        <ele>648.4</ele>
        <time>2013-02-23T08:11:30.000Z</time>
      </trkpt>
      <trkpt lat="47.28579" lon="4.92107">
        <ele>651.5</ele>
        <time>2013-02-23T08:11:37.000Z</time>
      </trkpt>
      <trkpt lat="47.28583" lon="4.92108">
        <ele>650.8</ele>
        <time>2013-02-23T08:11:40.000Z</time>
      </trkpt>
      <trkpt lat="47.28585" lon="4.92109">
        <ele>650.2</ele>
        <time>2013-02-23T08:11:41.000Z</time>
      </trkpt>
      <trkpt lat="47.28589" lon="4.9211">
        <ele>649.8</ele>
        <time>2013-02-23T08:11:44.000Z</time>
      </trkpt>
      <trkpt lat="47.28591" lon="4.92111">
        <ele>649.3</ele>
        <time>2013-02-23T08:11:45.000Z</time>
      </trkpt>
      <trkpt lat="47.28594" lon="4.92111">
        <ele>649.4</ele>
        <time>2013-02-23T08:11:48.000Z</time>
      </trkpt>
      <trkpt lat="47.28595" lon="4.92112">
        <ele>649.5</ele>
        <time>2013-02-23T08:11:49.000Z</time>
      </trkpt>
      <trkpt lat="47.28599" lon="4.92111">
        <ele>650.2</ele>
        <time>2013-02-23T08:11:53.000Z</time>
      </trkpt>
      <trkpt lat="47.28601" lon="4.92111">
        <ele>650.2</ele>
        <time>2013-02-23T08:11:54.000Z</time>
      </trkpt>
      <trkpt lat="47.28604" lon="4.9211">
        <ele>650.6</ele>
        <time>2013-02-23T08:11:57.000Z</time>
      </trkpt>
      <trkpt lat="47.28606" lon="4.92111">
        <ele>650.7</ele>
        <time>2013-02-23T08:11:58.000Z</time>
      </trkpt>
      <trkpt lat="47.2861" lon="4.92112">
        <ele>650.7</ele>
        <time>2013-02-23T08:12:01.000Z</time>
      </trkpt>
      <trkpt lat="47.28611" lon="4.92112">
        <ele>650.7</ele>
        <time>2013-02-23T08:12:02.000Z</time>
      </trkpt>
      <trkpt lat="47.28615" lon="4.92113">
        <ele>650.7</ele>
        <time>2013-02-23T08:12:04.000Z</time>
      </trkpt>
      <trkpt lat="47.28616" lon="4.92114">
        <ele>650.7</ele>
        <time>2013-02-23T08:12:05.000Z</time>
      </trkpt>
      <trkpt lat="47.2862" lon="4.92115">
        <ele>651</ele>
        <time>2013-02-23T08:12:08.000Z</time>
      </trkpt>
      <trkpt lat="47.28621" lon="4.92116">
        <ele>651.1</ele>
        <time>2013-02-23T08:12:09.000Z</time>
      </trkpt>
      <trkpt lat="47.28625" lon="4.92117">
        <ele>651.6</ele>
        <time>2013-02-23T08:12:12.000Z</time>
      </trkpt>
      <trkpt lat="47.28627" lon="4.92117">
        <ele>651.6</ele>
        <time>2013-02-23T08:12:13.000Z</time>
      </trkpt>
      <trkpt lat="47.28631" lon="4.92118">
        <ele>652</ele>
        <time>2013-02-23T08:12:16.000Z</time>
      </trkpt>
      <trkpt lat="47.28632" lon="4.92118">
        <ele>652.2</ele>
        <time>2013-02-23T08:12:17.000Z</time>
      </trkpt>
      <trkpt lat="47.28636" lon="4.92119">
        <ele>652.2</ele>
        <time>2013-02-23T08:12:20.000Z</time>
      </trkpt>
      <trkpt lat="47.28637" lon="4.92119">
        <ele>652.1</ele>
        <time>2013-02-23T08:12:21.000Z</time>
      </trkpt>
      <trkpt lat="47.28641" lon="4.9212">
        <ele>652.1</ele>
        <time>2013-02-23T08:12:24.000Z</time>
      </trkpt>
      <trkpt lat="47.28642" lon="4.9212">
        <ele>652.2</ele>
        <time>2013-02-23T08:12:25.000Z</time>
      </trkpt>
      <trkpt lat="47.28646" lon="4.92121">
        <ele>652.6</ele>
        <time>2013-02-23T08:12:28.000Z</time>
      </trkpt>
      <trkpt lat="47.28647" lon="4.92121">
        <ele>652.7</ele>
        <time>2013-02-23T08:12:29.000Z</time>
      </trkpt>
      <trkpt lat="47.28649" lon="4.92121">
        <ele>652.6</ele>
        <time>2013-02-23T08:12:30.000Z</time>
      </trkpt>
      <trkpt lat="47.2866" lon="4.92123">
        <ele>652.2</ele>
        <time>2013-02-23T08:12:37.000Z</time>
      </trkpt>
      <trkpt lat="47.28663" lon="4.92124">
        <ele>651.9</ele>
        <time>2013-02-23T08:12:39.000Z</time>
      </trkpt>
      <trkpt lat="47.28664" lon="4.92124">
        <ele>652.2</ele>
        <time>2013-02-23T08:12:40.000Z</time>
      </trkpt>
      <trkpt lat="47.28668" lon="4.92126">
        <ele>652.2</ele>
        <time>2013-02-23T08:12:42.000Z</time>
      </trkpt>
      <trkpt lat="47.28669" lon="4.92126">
        <ele>651.9</ele>
        <time>2013-02-23T08:12:43.000Z</time>
      </trkpt>
      <trkpt lat="47.28673" lon="4.92126">
        <ele>652.9</ele>
        <time>2013-02-23T08:12:46.000Z</time>
      </trkpt>
      <trkpt lat="47.28675" lon="4.92126">
        <ele>653.2</ele>
        <time>2013-02-23T08:12:47.000Z</time>
      </trkpt>
      <trkpt lat="47.28679" lon="4.92127">
        <ele>653.4</ele>
        <time>2013-02-23T08:12:50.000Z</time>
      </trkpt>
      <trkpt lat="47.2868" lon="4.92127">
        <ele>653.6</ele>
        <time>2013-02-23T08:12:51.000Z</time>
      </trkpt>
      <trkpt lat="47.28685" lon="4.92128">
        <ele>653.7</ele>
        <time>2013-02-23T08:12:54.000Z</time>
      </trkpt>
      <trkpt lat="47.28686" lon="4.92128">
        <ele>653.6</ele>
        <time>2013-02-23T08:12:55.000Z</time>
      </trkpt>
      <trkpt lat="47.2869" lon="4.92129">
        <ele>653.3</ele>
        <time>2013-02-23T08:12:57.000Z</time>
      </trkpt>
      <trkpt lat="47.28691" lon="4.92129">
        <ele>653.4</ele>
        <time>2013-02-23T08:12:58.000Z</time>
      </trkpt>
      <trkpt lat="47.28696" lon="4.92129">
        <ele>653.9</ele>
        <time>2013-02-23T08:13:01.000Z</time>
      </trkpt>
      <trkpt lat="47.28697" lon="4.9213">
        <ele>653.8</ele>
        <time>2013-02-23T08:13:02.000Z</time>
      </trkpt>
      <trkpt lat="47.287" lon="4.9213">
        <ele>653.6</ele>
        <time>2013-02-23T08:13:04.000Z</time>
      </trkpt>
      <trkpt lat="47.28702" lon="4.9213">
        <ele>653.6</ele>
        <time>2013-02-23T08:13:05.000Z</time>
      </trkpt>
      <trkpt lat="47.28705" lon="4.92131">
        <ele>653.5</ele>
        <time>2013-02-23T08:13:07.000Z</time>
      </trkpt>
      <trkpt lat="47.28707" lon="4.92131">
        <ele>653.2</ele>
        <time>2013-02-23T08:13:08.000Z</time>
      </trkpt>
      <trkpt lat="47.28711" lon="4.92132">
        <ele>652.8</ele>
        <time>2013-02-23T08:13:10.000Z</time>
      </trkpt>
      <trkpt lat="47.28713" lon="4.92133">
        <ele>652.6</ele>
        <time>2013-02-23T08:13:11.000Z</time>
      </trkpt>
      <trkpt lat="47.28716" lon="4.92133">
        <ele>652.3</ele>
        <time>2013-02-23T08:13:13.000Z</time>
      </trkpt>
      <trkpt lat="47.28718" lon="4.92134">
        <ele>652.2</ele>
        <time>2013-02-23T08:13:14.000Z</time>
      </trkpt>
      <trkpt lat="47.28721" lon="4.92134">
        <ele>652.1</ele>
        <time>2013-02-23T08:13:16.000Z</time>
      </trkpt>
      <trkpt lat="47.28723" lon="4.92135">
        <ele>652</ele>
        <time>2013-02-23T08:13:17.000Z</time>
      </trkpt>
      <trkpt lat="47.28726" lon="4.92136">
        <ele>651.9</ele>
        <time>2013-02-23T08:13:19.000Z</time>
      </trkpt>
      <trkpt lat="47.28728" lon="4.92137">
        <ele>651.9</ele>
        <time>2013-02-23T08:13:20.000Z</time>
      </trkpt>
      <trkpt lat="47.28731" lon="4.92138">
        <ele>651.8</ele>
        <time>2013-02-23T08:13:22.000Z</time>
      </trkpt>
      <trkpt lat="47.28732" lon="4.92138">
        <ele>651.7</ele>
        <time>2013-02-23T08:13:23.000Z</time>
      </trkpt>
      <trkpt lat="47.28736" lon="4.92138">
        <ele>651.8</ele>
        <time>2013-02-23T08:13:25.000Z</time>
      </trkpt>
      <trkpt lat="47.28737" lon="4.92139">
        <ele>651.7</ele>
        <time>2013-02-23T08:13:26.000Z</time>
      </trkpt>
      <trkpt lat="47.2874" lon="4.92139">
        <ele>651.7</ele>
        <time>2013-02-23T08:13:28.000Z</time>
      </trkpt>
      <trkpt lat="47.28742" lon="4.9214">
        <ele>651.7</ele>
        <time>2013-02-23T08:13:29.000Z</time>
      </trkpt>
      <trkpt lat="47.28743" lon="4.9214">
        <ele>651.7</ele>
        <time>2013-02-23T08:13:30.000Z</time>
      </trkpt>
      <trkpt lat="47.28752" lon="4.92143">
        <ele>656.5</ele>
        <time>2013-02-23T08:13:37.000Z</time>
      </trkpt>
      <trkpt lat="47.28756" lon="4.92144">
        <ele>655.8</ele>
        <time>2013-02-23T08:13:39.000Z</time>
      </trkpt>
      <trkpt lat="47.28757" lon="4.92144">
        <ele>656</ele>
        <time>2013-02-23T08:13:40.000Z</time>
      </trkpt>
      <trkpt lat="47.2876" lon="4.92145">
        <ele>655.7</ele>
        <time>2013-02-23T08:13:42.000Z</time>
      </trkpt>
      <trkpt lat="47.28762" lon="4.92145">
        <ele>655.5</ele>
        <time>2013-02-23T08:13:43.000Z</time>
      </trkpt>
      <trkpt lat="47.28765" lon="4.92146">
        <ele>654.7</ele>
        <time>2013-02-23T08:13:45.000Z</time>
      </trkpt>
      <trkpt lat="47.28767" lon="4.92146">
        <ele>654.4</ele>
        <time>2013-02-23T08:13:46.000Z</time>
      </trkpt>
      <trkpt lat="47.2877" lon="4.92147">
        <ele>654.1</ele>
        <time>2013-02-23T08:13:48.000Z</time>
      </trkpt>
      <trkpt lat="47.28771" lon="4.92148">
        <ele>653.9</ele>
        <time>2013-02-23T08:13:49.000Z</time>
      </trkpt>
      <trkpt lat="47.28774" lon="4.92148">
        <ele>653.7</ele>
        <time>2013-02-23T08:13:51.000Z</time>
      </trkpt>
      <trkpt lat="47.28776" lon="4.92149">
        <ele>653.7</ele>
        <time>2013-02-23T08:13:52.000Z</time>
      </trkpt>
      <trkpt lat="47.2878" lon="4.9215">
        <ele>654.6</ele>
        <time>2013-02-23T08:13:55.000Z</time>
      </trkpt>
      <trkpt lat="47.28781" lon="4.9215">
        <ele>654.6</ele>
        <time>2013-02-23T08:13:56.000Z</time>
      </trkpt>
      <trkpt lat="47.28785" lon="4.92152">
        <ele>654.2</ele>
        <time>2013-02-23T08:13:58.000Z</time>
      </trkpt>
      <trkpt lat="47.28786" lon="4.92153">
        <ele>654.2</ele>
        <time>2013-02-23T08:13:59.000Z</time>
      </trkpt>
      <trkpt lat="47.28789" lon="4.92154">
        <ele>654.5</ele>
        <time>2013-02-23T08:14:01.000Z</time>
      </trkpt>
      <trkpt lat="47.28791" lon="4.92155">
        <ele>654.2</ele>
        <time>2013-02-23T08:14:02.000Z</time>
      </trkpt>
      <trkpt lat="47.28794" lon="4.92156">
        <ele>653.9</ele>
        <time>2013-02-23T08:14:04.000Z</time>
      </trkpt>
      <trkpt lat="47.28796" lon="4.92157">
        <ele>653.7</ele>
        <time>2013-02-23T08:14:05.000Z</time>
      </trkpt>
      <trkpt lat="47.28799" lon="4.92159">
        <ele>653.1</ele>
        <time>2013-02-23T08:14:07.000Z</time>
      </trkpt>
      <trkpt lat="47.28801" lon="4.92159">
        <ele>653</ele>
        <time>2013-02-23T08:14:08.000Z</time>
      </trkpt>
      <trkpt lat="47.28804" lon="4.9216">
        <ele>652.7</ele>
        <time>2013-02-23T08:14:10.000Z</time>
      </trkpt>
      <trkpt lat="47.28806" lon="4.92161">
        <ele>652.5</ele>
        <time>2013-02-23T08:14:11.000Z</time>
      </trkpt>
      <trkpt lat="47.28809" lon="4.92162">
        <ele>652.3</ele>
        <time>2013-02-23T08:14:13.000Z</time>
      </trkpt>
      <trkpt lat="47.2881" lon="4.92163">
        <ele>652.2</ele>
        <time>2013-02-23T08:14:14.000Z</time>
      </trkpt>
      <trkpt lat="47.28813" lon="4.92164">
        <ele>652.2</ele>
        <time>2013-02-23T08:14:16.000Z</time>
      </trkpt>
      <trkpt lat="47.28815" lon="4.92164">
        <ele>652.2</ele>
        <time>2013-02-23T08:14:17.000Z</time>
      </trkpt>
      <trkpt lat="47.28818" lon="4.92165">
        <ele>652</ele>
        <time>2013-02-23T08:14:19.000Z</time>
      </trkpt>
      <trkpt lat="47.28819" lon="4.92166">
        <ele>651.9</ele>
        <time>2013-02-23T08:14:20.000Z</time>
      </trkpt>
      <trkpt lat="47.28823" lon="4.92167">
        <ele>651.8</ele>
        <time>2013-02-23T08:14:22.000Z</time>
      </trkpt>
      <trkpt lat="47.28824" lon="4.92168">
        <ele>651.7</ele>
        <time>2013-02-23T08:14:23.000Z</time>
      </trkpt>
      <trkpt lat="47.28828" lon="4.9217">
        <ele>651.4</ele>
        <time>2013-02-23T08:14:25.000Z</time>
      </trkpt>
      <trkpt lat="47.2883" lon="4.9217">
        <ele>651.2</ele>
        <time>2013-02-23T08:14:26.000Z</time>
      </trkpt>
      <trkpt lat="47.28833" lon="4.92172">
        <ele>651</ele>
        <time>2013-02-23T08:14:28.000Z</time>
      </trkpt>
      <trkpt lat="47.28834" lon="4.92173">
        <ele>650.9</ele>
        <time>2013-02-23T08:14:29.000Z</time>
      </trkpt>
      <trkpt lat="47.28836" lon="4.92174">
        <ele>650.9</ele>
        <time>2013-02-23T08:14:30.000Z</time>
      </trkpt>
      <trkpt lat="47.28849" lon="4.92182">
        <ele>651.2</ele>
        <time>2013-02-23T08:14:37.000Z</time>
      </trkpt>
      <trkpt lat="47.28853" lon="4.92183">
        <ele>650.7</ele>
        <time>2013-02-23T08:14:40.000Z</time>
      </trkpt>
      <trkpt lat="47.28855" lon="4.92184">
        <ele>650.6</ele>
        <time>2013-02-23T08:14:41.000Z</time>
      </trkpt>
      <trkpt lat="47.28858" lon="4.92187">
        <ele>650.6</ele>
        <time>2013-02-23T08:14:44.000Z</time>
      </trkpt>
      <trkpt lat="47.2886" lon="4.92188">
        <ele>650.5</ele>
        <time>2013-02-23T08:14:45.000Z</time>
      </trkpt>
      <trkpt lat="47.28863" lon="4.92191">
        <ele>649.9</ele>
        <time>2013-02-23T08:14:47.000Z</time>
      </trkpt>
      <trkpt lat="47.28864" lon="4.92192">
        <ele>649.6</ele>
        <time>2013-02-23T08:14:48.000Z</time>
      </trkpt>
      <trkpt lat="47.28868" lon="4.92195">
        <ele>649.8</ele>
        <time>2013-02-23T08:14:51.000Z</time>
      </trkpt>
      <trkpt lat="47.28869" lon="4.92196">
        <ele>649.8</ele>
        <time>2013-02-23T08:14:52.000Z</time>
      </trkpt>
      <trkpt lat="47.28872" lon="4.92198">
        <ele>649.9</ele>
        <time>2013-02-23T08:14:54.000Z</time>
      </trkpt>
      <trkpt lat="47.28873" lon="4.922">
        <ele>649.8</ele>
        <time>2013-02-23T08:14:55.000Z</time>
      </trkpt>
      <trkpt lat="47.28876" lon="4.92202">
        <ele>649.8</ele>
        <time>2013-02-23T08:14:57.000Z</time>
      </trkpt>
      <trkpt lat="47.28877" lon="4.92203">
        <ele>650</ele>
        <time>2013-02-23T08:14:58.000Z</time>
      </trkpt>
      <trkpt lat="47.2888" lon="4.92205">
        <ele>650.5</ele>
        <time>2013-02-23T08:15:00.000Z</time>
      </trkpt>
      <trkpt lat="47.28881" lon="4.92206">
        <ele>650.7</ele>
        <time>2013-02-23T08:15:01.000Z</time>
      </trkpt>
      <trkpt lat="47.28884" lon="4.92209">
        <ele>650.5</ele>
        <time>2013-02-23T08:15:03.000Z</time>
      </trkpt>
      <trkpt lat="47.28885" lon="4.9221">
        <ele>650.3</ele>
        <time>2013-02-23T08:15:04.000Z</time>
      </trkpt>
      <trkpt lat="47.28888" lon="4.92214">
        <ele>650.3</ele>
        <time>2013-02-23T08:15:07.000Z</time>
      </trkpt>
      <trkpt lat="47.2889" lon="4.92215">
        <ele>650.3</ele>
        <time>2013-02-23T08:15:08.000Z</time>
      </trkpt>
      <trkpt lat="47.28893" lon="4.92218">
        <ele>650.2</ele>
        <time>2013-02-23T08:15:10.000Z</time>
      </trkpt>
      <trkpt lat="47.28894" lon="4.92219">
        <ele>650.2</ele>
        <time>2013-02-23T08:15:11.000Z</time>
      </trkpt>
      <trkpt lat="47.28897" lon="4.92221">
        <ele>650.2</ele>
        <time>2013-02-23T08:15:13.000Z</time>
      </trkpt>
      <trkpt lat="47.28898" lon="4.92223">
        <ele>650</ele>
        <time>2013-02-23T08:15:14.000Z</time>
      </trkpt>
      <trkpt lat="47.28901" lon="4.92226">
        <ele>650</ele>
        <time>2013-02-23T08:15:16.000Z</time>
      </trkpt>
      <trkpt lat="47.28902" lon="4.92227">
        <ele>649.9</ele>
        <time>2013-02-23T08:15:17.000Z</time>
      </trkpt>
      <trkpt lat="47.28905" lon="4.9223">
        <ele>649.7</ele>
        <time>2013-02-23T08:15:19.000Z</time>
      </trkpt>
      <trkpt lat="47.28907" lon="4.92231">
        <ele>649.7</ele>
        <time>2013-02-23T08:15:20.000Z</time>
      </trkpt>
      <trkpt lat="47.2891" lon="4.92233">
        <ele>649.5</ele>
        <time>2013-02-23T08:15:22.000Z</time>
      </trkpt>
      <trkpt lat="47.28911" lon="4.92235">
        <ele>649.4</ele>
        <time>2013-02-23T08:15:23.000Z</time>
      </trkpt>
      <trkpt lat="47.28914" lon="4.92237">
        <ele>649.1</ele>
        <time>2013-02-23T08:15:25.000Z</time>
      </trkpt>
      <trkpt lat="47.28915" lon="4.92238">
        <ele>649.1</ele>
        <time>2013-02-23T08:15:26.000Z</time>
      </trkpt>
      <trkpt lat="47.28917" lon="4.9224">
        <ele>649.2</ele>
        <time>2013-02-23T08:15:28.000Z</time>
      </trkpt>
      <trkpt lat="47.28919" lon="4.92242">
        <ele>649.2</ele>
        <time>2013-02-23T08:15:29.000Z</time>
      </trkpt>
      <trkpt lat="47.2892" lon="4.92243">
        <ele>649.2</ele>
        <time>2013-02-23T08:15:30.000Z</time>
      </trkpt>
      <trkpt lat="47.28931" lon="4.92253">
        <ele>649.1</ele>
        <time>2013-02-23T08:15:37.000Z</time>
      </trkpt>
      <trkpt lat="47.28934" lon="4.92256">
        <ele>648.9</ele>
        <time>2013-02-23T08:15:40.000Z</time>
      </trkpt>
      <trkpt lat="47.28936" lon="4.92257">
        <ele>649.3</ele>
        <time>2013-02-23T08:15:41.000Z</time>
      </trkpt>
      <trkpt lat="47.2894" lon="4.9226">
        <ele>650.2</ele>
        <time>2013-02-23T08:15:44.000Z</time>
      </trkpt>
      <trkpt lat="47.28941" lon="4.9226">
        <ele>650.3</ele>
        <time>2013-02-23T08:15:45.000Z</time>
      </trkpt>
      <trkpt lat="47.28943" lon="4.92263">
        <ele>650.3</ele>
        <time>2013-02-23T08:15:47.000Z</time>
      </trkpt>
      <trkpt lat="47.28945" lon="4.92264">
        <ele>650.4</ele>
        <time>2013-02-23T08:15:48.000Z</time>
      </trkpt>
      <trkpt lat="47.28947" lon="4.92267">
        <ele>650.4</ele>
        <time>2013-02-23T08:15:50.000Z</time>
      </trkpt>
      <trkpt lat="47.28949" lon="4.92268">
        <ele>650.3</ele>
        <time>2013-02-23T08:15:51.000Z</time>
      </trkpt>
      <trkpt lat="47.28952" lon="4.92271">
        <ele>650.4</ele>
        <time>2013-02-23T08:15:54.000Z</time>
      </trkpt>
      <trkpt lat="47.28954" lon="4.92272">
        <ele>650.2</ele>
        <time>2013-02-23T08:15:55.000Z</time>
      </trkpt>
      <trkpt lat="47.28956" lon="4.92275">
        <ele>650.4</ele>
        <time>2013-02-23T08:15:57.000Z</time>
      </trkpt>
      <trkpt lat="47.28958" lon="4.92276">
        <ele>650.5</ele>
        <time>2013-02-23T08:15:58.000Z</time>
      </trkpt>
      <trkpt lat="47.28959" lon="4.9228">
        <ele>650.9</ele>
        <time>2013-02-23T08:16:00.000Z</time>
      </trkpt>
      <trkpt lat="47.2896" lon="4.92282">
        <ele>651</ele>
        <time>2013-02-23T08:16:01.000Z</time>
      </trkpt>
      <trkpt lat="47.28961" lon="4.92288">
        <ele>650.3</ele>
        <time>2013-02-23T08:16:03.000Z</time>
      </trkpt>
      <trkpt lat="47.2896" lon="4.9229">
        <ele>650.2</ele>
        <time>2013-02-23T08:16:04.000Z</time>
      </trkpt>
      <trkpt lat="47.28959" lon="4.92296">
        <ele>650.3</ele>
        <time>2013-02-23T08:16:07.000Z</time>
      </trkpt>
      <trkpt lat="47.28958" lon="4.92298">
        <ele>650.2</ele>
        <time>2013-02-23T08:16:08.000Z</time>
      </trkpt>
      <trkpt lat="47.28957" lon="4.92304">
        <ele>650.4</ele>
        <time>2013-02-23T08:16:11.000Z</time>
      </trkpt>
      <trkpt lat="47.28956" lon="4.92306">
        <ele>650.4</ele>
        <time>2013-02-23T08:16:12.000Z</time>
      </trkpt>
      <trkpt lat="47.28955" lon="4.92312">
        <ele>650.4</ele>
        <time>2013-02-23T08:16:15.000Z</time>
      </trkpt>
      <trkpt lat="47.28954" lon="4.92314">
        <ele>650.5</ele>
        <time>2013-02-23T08:16:16.000Z</time>
      </trkpt>
      <trkpt lat="47.28953" lon="4.92319">
        <ele>650.7</ele>
        <time>2013-02-23T08:16:19.000Z</time>
      </trkpt>
      <trkpt lat="47.28952" lon="4.9232">
        <ele>650.8</ele>
        <time>2013-02-23T08:16:20.000Z</time>
      </trkpt>
      <trkpt lat="47.2895" lon="4.92326">
        <ele>651.4</ele>
        <time>2013-02-23T08:16:23.000Z</time>
      </trkpt>
      <trkpt lat="47.2895" lon="4.92328">
        <ele>651.5</ele>
        <time>2013-02-23T08:16:24.000Z</time>
      </trkpt>
      <trkpt lat="47.28949" lon="4.92332">
        <ele>651.7</ele>
        <time>2013-02-23T08:16:26.000Z</time>
      </trkpt>
      <trkpt lat="47.28948" lon="4.92334">
        <ele>651.8</ele>
        <time>2013-02-23T08:16:27.000Z</time>
      </trkpt>
      <trkpt lat="47.28946" lon="4.92338">
        <ele>651.7</ele>
        <time>2013-02-23T08:16:29.000Z</time>
      </trkpt>
      <trkpt lat="47.28945" lon="4.9234">
        <ele>651.7</ele>
        <time>2013-02-23T08:16:30.000Z</time>
      </trkpt>
      <trkpt lat="47.28939" lon="4.92354">
        <ele>651.2</ele>
        <time>2013-02-23T08:16:37.000Z</time>
      </trkpt>
      <trkpt lat="47.28937" lon="4.9236">
        <ele>651.9</ele>
        <time>2013-02-23T08:16:41.000Z</time>
      </trkpt>
      <trkpt lat="47.28936" lon="4.92362">
        <ele>651.3</ele>
        <time>2013-02-23T08:16:42.000Z</time>
      </trkpt>
      <trkpt lat="47.28935" lon="4.92366">
        <ele>651</ele>
        <time>2013-02-23T08:16:44.000Z</time>
      </trkpt>
      <trkpt lat="47.28934" lon="4.92368">
        <ele>650.8</ele>
        <time>2013-02-23T08:16:45.000Z</time>
      </trkpt>
      <trkpt lat="47.28933" lon="4.92372">
        <ele>650.4</ele>
        <time>2013-02-23T08:16:47.000Z</time>
      </trkpt>
      <trkpt lat="47.28932" lon="4.92374">
        <ele>650</ele>
        <time>2013-02-23T08:16:48.000Z</time>
      </trkpt>
      <trkpt lat="47.28931" lon="4.92378">
        <ele>649.9</ele>
        <time>2013-02-23T08:16:50.000Z</time>
      </trkpt>
      <trkpt lat="47.2893" lon="4.9238">
        <ele>649.7</ele>
        <time>2013-02-23T08:16:51.000Z</time>
      </trkpt>
      <trkpt lat="47.28929" lon="4.92386">
        <ele>649.9</ele>
        <time>2013-02-23T08:16:54.000Z</time>
      </trkpt>
      <trkpt lat="47.28928" lon="4.92388">
        <ele>649.7</ele>
        <time>2013-02-23T08:16:55.000Z</time>
      </trkpt>
      <trkpt lat="47.28926" lon="4.92393">
        <ele>649.5</ele>
        <time>2013-02-23T08:16:58.000Z</time>
      </trkpt>
      <trkpt lat="47.28926" lon="4.92395">
        <ele>649.6</ele>
        <time>2013-02-23T08:16:59.000Z</time>
      </trkpt>
      <trkpt lat="47.28924" lon="4.92401">
        <ele>649.5</ele>
        <time>2013-02-23T08:17:02.000Z</time>
      </trkpt>
      <trkpt lat="47.28924" lon="4.92403">
        <ele>649.4</ele>
        <time>2013-02-23T08:17:03.000Z</time>
      </trkpt>
      <trkpt lat="47.28923" lon="4.92407">
        <ele>649</ele>
        <time>2013-02-23T08:17:05.000Z</time>
      </trkpt>
      <trkpt lat="47.28922" lon="4.92409">
        <ele>648.9</ele>
        <time>2013-02-23T08:17:06.000Z</time>
      </trkpt>
      <trkpt lat="47.28921" lon="4.92415">
        <ele>648.8</ele>
        <time>2013-02-23T08:17:09.000Z</time>
      </trkpt>
      <trkpt lat="47.28921" lon="4.92417">
        <ele>648.8</ele>
        <time>2013-02-23T08:17:10.000Z</time>
      </trkpt>
      <trkpt lat="47.28919" lon="4.92422">
        <ele>648.7</ele>
        <time>2013-02-23T08:17:13.000Z</time>
      </trkpt>
      <trkpt lat="47.28919" lon="4.92424">
        <ele>648.7</ele>
        <time>2013-02-23T08:17:14.000Z</time>
      </trkpt>
      <trkpt lat="47.28918" lon="4.9243">
        <ele>648.9</ele>
        <time>2013-02-23T08:17:17.000Z</time>
      </trkpt>
      <trkpt lat="47.28917" lon="4.92432">
        <ele>648.7</ele>
        <time>2013-02-23T08:17:18.000Z</time>
      </trkpt>
      <trkpt lat="47.28915" lon="4.92438">
        <ele>648.4</ele>
        <time>2013-02-23T08:17:22.000Z</time>
      </trkpt>
      <trkpt lat="47.28915" lon="4.9244">
        <ele>648.2</ele>
        <time>2013-02-23T08:17:23.000Z</time>
      </trkpt>
      <trkpt lat="47.28913" lon="4.92444">
        <ele>648.3</ele>
        <time>2013-02-23T08:17:25.000Z</time>
      </trkpt>
      <trkpt lat="47.28913" lon="4.92446">
        <ele>648.3</ele>
        <time>2013-02-23T08:17:26.000Z</time>
      </trkpt>
      <trkpt lat="47.28912" lon="4.92451">
        <ele>648.3</ele>
        <time>2013-02-23T08:17:28.000Z</time>
      </trkpt>
      <trkpt lat="47.28911" lon="4.92453">
        <ele>648.3</ele>
        <time>2013-02-23T08:17:29.000Z</time>
      </trkpt>
      <trkpt lat="47.2891" lon="4.92455">
        <ele>648.3</ele>
        <time>2013-02-23T08:17:30.000Z</time>
      </trkpt>
      <trkpt lat="47.28903" lon="4.92473">
        <ele>644</ele>
        <time>2013-02-23T08:17:37.000Z</time>
      </trkpt>
      <trkpt lat="47.28902" lon="4.9248">
        <ele>643.8</ele>
        <time>2013-02-23T08:17:40.000Z</time>
      </trkpt>
      <trkpt lat="47.28901" lon="4.92481">
        <ele>643.9</ele>
        <time>2013-02-23T08:17:41.000Z</time>
      </trkpt>
      <trkpt lat="47.289" lon="4.92486">
        <ele>643.7</ele>
        <time>2013-02-23T08:17:43.000Z</time>
      </trkpt>
      <trkpt lat="47.289" lon="4.92488">
        <ele>644.2</ele>
        <time>2013-02-23T08:17:44.000Z</time>
      </trkpt>
      <trkpt lat="47.28899" lon="4.92494">
        <ele>645.4</ele>
        <time>2013-02-23T08:17:47.000Z</time>
      </trkpt>
      <trkpt lat="47.28898" lon="4.92496">
        <ele>645.9</ele>
        <time>2013-02-23T08:17:48.000Z</time>
      </trkpt>
      <trkpt lat="47.28898" lon="4.92502">
        <ele>646.5</ele>
        <time>2013-02-23T08:17:51.000Z</time>
      </trkpt>
      <trkpt lat="47.28898" lon="4.92504">
        <ele>646.8</ele>
        <time>2013-02-23T08:17:52.000Z</time>
      </trkpt>
      <trkpt lat="47.28898" lon="4.9251">
        <ele>648.2</ele>
        <time>2013-02-23T08:17:55.000Z</time>
      </trkpt>
      <trkpt lat="47.28898" lon="4.92511">
        <ele>648.4</ele>
        <time>2013-02-23T08:17:56.000Z</time>
      </trkpt>
      <trkpt lat="47.28898" lon="4.92517">
        <ele>649.1</ele>
        <time>2013-02-23T08:17:59.000Z</time>
      </trkpt>
      <trkpt lat="47.28898" lon="4.92519">
        <ele>649.6</ele>
        <time>2013-02-23T08:18:00.000Z</time>
      </trkpt>
      <trkpt lat="47.28898" lon="4.92526">
        <ele>649</ele>
        <time>2013-02-23T08:18:03.000Z</time>
      </trkpt>
      <trkpt lat="47.28897" lon="4.92528">
        <ele>648.8</ele>
        <time>2013-02-23T08:18:04.000Z</time>
      </trkpt>
      <trkpt lat="47.28896" lon="4.92533">
        <ele>648.1</ele>
        <time>2013-02-23T08:18:07.000Z</time>
      </trkpt>
      <trkpt lat="47.28896" lon="4.92535">
        <ele>648</ele>
        <time>2013-02-23T08:18:08.000Z</time>
      </trkpt>
      <trkpt lat="47.28896" lon="4.9254">
        <ele>647.6</ele>
        <time>2013-02-23T08:18:10.000Z</time>
      </trkpt>
      <trkpt lat="47.28895" lon="4.92543">
        <ele>647.6</ele>
        <time>2013-02-23T08:18:11.000Z</time>
      </trkpt>
      <trkpt lat="47.28894" lon="4.92547">
        <ele>647.2</ele>
        <time>2013-02-23T08:18:13.000Z</time>
      </trkpt>
      <trkpt lat="47.28893" lon="4.92549">
        <ele>647.2</ele>
        <time>2013-02-23T08:18:14.000Z</time>
      </trkpt>
      <trkpt lat="47.28892" lon="4.92553">
        <ele>646.9</ele>
        <time>2013-02-23T08:18:16.000Z</time>
      </trkpt>
      <trkpt lat="47.28892" lon="4.92556">
        <ele>646.8</ele>
        <time>2013-02-23T08:18:17.000Z</time>
      </trkpt>
      <trkpt lat="47.28891" lon="4.92562">
        <ele>646.2</ele>
        <time>2013-02-23T08:18:20.000Z</time>
      </trkpt>
      <trkpt lat="47.28891" lon="4.92564">
        <ele>646.1</ele>
        <time>2013-02-23T08:18:21.000Z</time>
      </trkpt>
      <trkpt lat="47.2889" lon="4.92569">
        <ele>645.8</ele>
        <time>2013-02-23T08:18:24.000Z</time>
      </trkpt>
      <trkpt lat="47.2889" lon="4.92572">
        <ele>645.7</ele>
        <time>2013-02-23T08:18:25.000Z</time>
      </trkpt>
      <trkpt lat="47.28889" lon="4.92577">
        <ele>645.4</ele>
        <time>2013-02-23T08:18:27.000Z</time>
      </trkpt>
      <trkpt lat="47.28889" lon="4.92579">
        <ele>645.1</ele>
        <time>2013-02-23T08:18:28.000Z</time>
      </trkpt>
      <trkpt lat="47.28887" lon="4.92584">
        <ele>644.6</ele>
        <time>2013-02-23T08:18:30.000Z</time>
      </trkpt>
      <trkpt lat="47.2888" lon="4.92605">
        <ele>638.7</ele>
        <time>2013-02-23T08:18:37.000Z</time>
      </trkpt>
      <trkpt lat="47.28879" lon="4.9261">
        <ele>638.8</ele>
        <time>2013-02-23T08:18:39.000Z</time>
      </trkpt>
      <trkpt lat="47.28879" lon="4.92612">
        <ele>638.4</ele>
        <time>2013-02-23T08:18:40.000Z</time>
      </trkpt>
      <trkpt lat="47.28878" lon="4.92616">
        <ele>638.4</ele>
        <time>2013-02-23T08:18:43.000Z</time>
      </trkpt>
      <trkpt lat="47.28877" lon="4.92618">
        <ele>638.5</ele>
        <time>2013-02-23T08:18:44.000Z</time>
      </trkpt>
      <trkpt lat="47.28876" lon="4.92624">
        <ele>638.9</ele>
        <time>2013-02-23T08:18:47.000Z</time>
      </trkpt>
      <trkpt lat="47.28876" lon="4.92626">
        <ele>639</ele>
        <time>2013-02-23T08:18:48.000Z</time>
      </trkpt>
      <trkpt lat="47.28874" lon="4.92632">
        <ele>639.1</ele>
        <time>2013-02-23T08:18:51.000Z</time>
      </trkpt>
      <trkpt lat="47.28874" lon="4.92633">
        <ele>639.1</ele>
        <time>2013-02-23T08:18:52.000Z</time>
      </trkpt>
      <trkpt lat="47.28874" lon="4.92639">
        <ele>638.2</ele>
        <time>2013-02-23T08:18:56.000Z</time>
      </trkpt>
      <trkpt lat="47.28874" lon="4.9264">
        <ele>638</ele>
        <time>2013-02-23T08:18:57.000Z</time>
      </trkpt>
      <trkpt lat="47.28876" lon="4.92646">
        <ele>637.2</ele>
        <time>2013-02-23T08:19:02.000Z</time>
      </trkpt>
      <trkpt lat="47.28877" lon="4.92647">
        <ele>636.8</ele>
        <time>2013-02-23T08:19:03.000Z</time>
      </trkpt>
      <trkpt lat="47.28879" lon="4.92653">
        <ele>635.9</ele>
        <time>2013-02-23T08:19:06.000Z</time>
      </trkpt>
      <trkpt lat="47.28879" lon="4.92654">
        <ele>635.7</ele>
        <time>2013-02-23T08:19:07.000Z</time>
      </trkpt>
      <trkpt lat="47.28882" lon="4.9266">
        <ele>635.2</ele>
        <time>2013-02-23T08:19:10.000Z</time>
      </trkpt>
      <trkpt lat="47.28882" lon="4.92662">
        <ele>635</ele>
        <time>2013-02-23T08:19:11.000Z</time>
      </trkpt>
      <trkpt lat="47.28885" lon="4.92665">
        <ele>634.8</ele>
        <time>2013-02-23T08:19:13.000Z</time>
      </trkpt>
      <trkpt lat="47.28886" lon="4.92667">
        <ele>634.6</ele>
        <time>2013-02-23T08:19:14.000Z</time>
      </trkpt>
      <trkpt lat="47.28888" lon="4.92671">
        <ele>634.3</ele>
        <time>2013-02-23T08:19:16.000Z</time>
      </trkpt>
      <trkpt lat="47.28888" lon="4.92673">
        <ele>634.2</ele>
        <time>2013-02-23T08:19:17.000Z</time>
      </trkpt>
      <trkpt lat="47.2889" lon="4.92677">
        <ele>634.1</ele>
        <time>2013-02-23T08:19:20.000Z</time>
      </trkpt>
      <trkpt lat="47.28891" lon="4.92679">
        <ele>634.1</ele>
        <time>2013-02-23T08:19:21.000Z</time>
      </trkpt>
      <trkpt lat="47.28893" lon="4.92683">
        <ele>633.8</ele>
        <time>2013-02-23T08:19:23.000Z</time>
      </trkpt>
      <trkpt lat="47.28894" lon="4.92685">
        <ele>633.7</ele>
        <time>2013-02-23T08:19:24.000Z</time>
      </trkpt>
      <trkpt lat="47.28897" lon="4.9269">
        <ele>633.6</ele>
        <time>2013-02-23T08:19:27.000Z</time>
      </trkpt>
      <trkpt lat="47.28898" lon="4.92691">
        <ele>633.6</ele>
        <time>2013-02-23T08:19:28.000Z</time>
      </trkpt>
      <trkpt lat="47.289" lon="4.92695">
        <ele>633.6</ele>
        <time>2013-02-23T08:19:30.000Z</time>
      </trkpt>
      <trkpt lat="47.2891" lon="4.92709">
        <ele>632.9</ele>
        <time>2013-02-23T08:19:37.000Z</time>
      </trkpt>
      <trkpt lat="47.28911" lon="4.92713">
        <ele>632</ele>
        <time>2013-02-23T08:19:40.000Z</time>
      </trkpt>
      <trkpt lat="47.28912" lon="4.92715">
        <ele>632.5</ele>
        <time>2013-02-23T08:19:41.000Z</time>
      </trkpt>
      <trkpt lat="47.28913" lon="4.92718">
        <ele>632.5</ele>
        <time>2013-02-23T08:19:44.000Z</time>
      </trkpt>
      <trkpt lat="47.28914" lon="4.9272">
        <ele>632.1</ele>
        <time>2013-02-23T08:19:45.000Z</time>
      </trkpt>
      <trkpt lat="47.28916" lon="4.92726">
        <ele>632</ele>
        <time>2013-02-23T08:20:30.000Z</time>
      </trkpt>
      <trkpt lat="47.28917" lon="4.92728">
        <ele>621.2</ele>
        <time>2013-02-23T08:20:37.000Z</time>
      </trkpt>
      <trkpt lat="47.2892" lon="4.92731">
        <ele>627.8</ele>
        <time>2013-02-23T08:20:51.000Z</time>
      </trkpt>
      <trkpt lat="47.28921" lon="4.92731">
        <ele>628</ele>
        <time>2013-02-23T08:20:52.000Z</time>
      </trkpt>
      <trkpt lat="47.28924" lon="4.92731">
        <ele>629.1</ele>
        <time>2013-02-23T08:20:55.000Z</time>
      </trkpt>
      <trkpt lat="47.28926" lon="4.92731">
        <ele>629.2</ele>
        <time>2013-02-23T08:20:56.000Z</time>
      </trkpt>
      <trkpt lat="47.2893" lon="4.92731">
        <ele>630</ele>
        <time>2013-02-23T08:20:59.000Z</time>
      </trkpt>
      <trkpt lat="47.28932" lon="4.92731">
        <ele>629.7</ele>
        <time>2013-02-23T08:21:00.000Z</time>
      </trkpt>
      <trkpt lat="47.28936" lon="4.92732">
        <ele>629.4</ele>
        <time>2013-02-23T08:21:03.000Z</time>
      </trkpt>
      <trkpt lat="47.28938" lon="4.92733">
        <ele>629.3</ele>
        <time>2013-02-23T08:21:04.000Z</time>
      </trkpt>
      <trkpt lat="47.28942" lon="4.92733">
        <ele>629.5</ele>
        <time>2013-02-23T08:21:07.000Z</time>
      </trkpt>
      <trkpt lat="47.28943" lon="4.92734">
        <ele>629.6</ele>
        <time>2013-02-23T08:21:08.000Z</time>
      </trkpt>
      <trkpt lat="47.28947" lon="4.92736">
        <ele>628.9</ele>
        <time>2013-02-23T08:21:10.000Z</time>
      </trkpt>
      <trkpt lat="47.28948" lon="4.92736">
        <ele>628.9</ele>
        <time>2013-02-23T08:21:11.000Z</time>
      </trkpt>
      <trkpt lat="47.28951" lon="4.92738">
        <ele>628.7</ele>
        <time>2013-02-23T08:21:13.000Z</time>
      </trkpt>
      <trkpt lat="47.28953" lon="4.92739">
        <ele>628.5</ele>
        <time>2013-02-23T08:21:14.000Z</time>
      </trkpt>
      <trkpt lat="47.28956" lon="4.92741">
        <ele>627.7</ele>
        <time>2013-02-23T08:21:16.000Z</time>
      </trkpt>
      <trkpt lat="47.28958" lon="4.92742">
        <ele>627.6</ele>
        <time>2013-02-23T08:21:17.000Z</time>
      </trkpt>
      <trkpt lat="47.28961" lon="4.92744">
        <ele>627.2</ele>
        <time>2013-02-23T08:21:19.000Z</time>
      </trkpt>
      <trkpt lat="47.28962" lon="4.92744">
        <ele>627.2</ele>
        <time>2013-02-23T08:21:20.000Z</time>
      </trkpt>
      <trkpt lat="47.28965" lon="4.92747">
        <ele>627.2</ele>
        <time>2013-02-23T08:21:22.000Z</time>
      </trkpt>
      <trkpt lat="47.28966" lon="4.92748">
        <ele>627.2</ele>
        <time>2013-02-23T08:21:23.000Z</time>
      </trkpt>
      <trkpt lat="47.28969" lon="4.92749">
        <ele>626.8</ele>
        <time>2013-02-23T08:21:25.000Z</time>
      </trkpt>
      <trkpt lat="47.28971" lon="4.9275">
        <ele>626.8</ele>
        <time>2013-02-23T08:21:26.000Z</time>
      </trkpt>
      <trkpt lat="47.28974" lon="4.92753">
        <ele>626.5</ele>
        <time>2013-02-23T08:21:28.000Z</time>
      </trkpt>
      <trkpt lat="47.28975" lon="4.92754">
        <ele>626.5</ele>
        <time>2013-02-23T08:21:29.000Z</time>
      </trkpt>
      <trkpt lat="47.28977" lon="4.92755">
        <ele>626.5</ele>
        <time>2013-02-23T08:21:30.000Z</time>
      </trkpt>
      <trkpt lat="47.28987" lon="4.92762">
        <ele>626.1</ele>
        <time>2013-02-23T08:21:37.000Z</time>
      </trkpt>
      <trkpt lat="47.2899" lon="4.92764">
        <ele>624.7</ele>
        <time>2013-02-23T08:21:39.000Z</time>
      </trkpt>
      <trkpt lat="47.28992" lon="4.92765">
        <ele>624.4</ele>
        <time>2013-02-23T08:21:40.000Z</time>
      </trkpt>
      <trkpt lat="47.28995" lon="4.92768">
        <ele>624.3</ele>
        <time>2013-02-23T08:21:42.000Z</time>
      </trkpt>
      <trkpt lat="47.28997" lon="4.92769">
        <ele>624.2</ele>
        <time>2013-02-23T08:21:43.000Z</time>
      </trkpt>
      <trkpt lat="47.29" lon="4.92772">
        <ele>625.4</ele>
        <time>2013-02-23T08:21:46.000Z</time>
      </trkpt>
      <trkpt lat="47.29002" lon="4.92774">
        <ele>625.4</ele>
        <time>2013-02-23T08:21:47.000Z</time>
      </trkpt>
      <trkpt lat="47.29005" lon="4.92775">
        <ele>625.6</ele>
        <time>2013-02-23T08:21:49.000Z</time>
      </trkpt>
      <trkpt lat="47.29006" lon="4.92776">
        <ele>625.8</ele>
        <time>2013-02-23T08:21:50.000Z</time>
      </trkpt>
      <trkpt lat="47.29009" lon="4.92778">
        <ele>625.9</ele>
        <time>2013-02-23T08:21:52.000Z</time>
      </trkpt>
      <trkpt lat="47.2901" lon="4.9278">
        <ele>626.1</ele>
        <time>2013-02-23T08:21:53.000Z</time>
      </trkpt>
      <trkpt lat="47.29013" lon="4.92782">
        <ele>626.5</ele>
        <time>2013-02-23T08:21:55.000Z</time>
      </trkpt>
      <trkpt lat="47.29014" lon="4.92783">
        <ele>626.7</ele>
        <time>2013-02-23T08:21:56.000Z</time>
      </trkpt>
      <trkpt lat="47.29017" lon="4.92785">
        <ele>626.8</ele>
        <time>2013-02-23T08:21:58.000Z</time>
      </trkpt>
      <trkpt lat="47.29019" lon="4.92786">
        <ele>627</ele>
        <time>2013-02-23T08:21:59.000Z</time>
      </trkpt>
      <trkpt lat="47.29021" lon="4.92788">
        <ele>627.6</ele>
        <time>2013-02-23T08:22:01.000Z</time>
      </trkpt>
      <trkpt lat="47.29023" lon="4.92789">
        <ele>627.5</ele>
        <time>2013-02-23T08:22:02.000Z</time>
      </trkpt>
      <trkpt lat="47.29026" lon="4.9279">
        <ele>627.4</ele>
        <time>2013-02-23T08:22:04.000Z</time>
      </trkpt>
      <trkpt lat="47.29027" lon="4.92792">
        <ele>627.5</ele>
        <time>2013-02-23T08:22:05.000Z</time>
      </trkpt>
      <trkpt lat="47.2903" lon="4.92794">
        <ele>627.6</ele>
        <time>2013-02-23T08:22:07.000Z</time>
      </trkpt>
      <trkpt lat="47.29031" lon="4.92795">
        <ele>627.5</ele>
        <time>2013-02-23T08:22:08.000Z</time>
      </trkpt>
      <trkpt lat="47.29034" lon="4.92797">
        <ele>627.3</ele>
        <time>2013-02-23T08:22:10.000Z</time>
      </trkpt>
      <trkpt lat="47.29035" lon="4.92798">
        <ele>627.4</ele>
        <time>2013-02-23T08:22:11.000Z</time>
      </trkpt>
      <trkpt lat="47.29039" lon="4.92801">
        <ele>627.6</ele>
        <time>2013-02-23T08:22:14.000Z</time>
      </trkpt>
      <trkpt lat="47.29041" lon="4.92802">
        <ele>627.7</ele>
        <time>2013-02-23T08:22:15.000Z</time>
      </trkpt>
      <trkpt lat="47.29044" lon="4.92804">
        <ele>627.6</ele>
        <time>2013-02-23T08:22:17.000Z</time>
      </trkpt>
      <trkpt lat="47.29045" lon="4.92805">
        <ele>627.7</ele>
        <time>2013-02-23T08:22:18.000Z</time>
      </trkpt>
      <trkpt lat="47.29048" lon="4.92807">
        <ele>627.8</ele>
        <time>2013-02-23T08:22:20.000Z</time>
      </trkpt>
      <trkpt lat="47.2905" lon="4.92808">
        <ele>627.9</ele>
        <time>2013-02-23T08:22:21.000Z</time>
      </trkpt>
      <trkpt lat="47.29053" lon="4.9281">
        <ele>627.7</ele>
        <time>2013-02-23T08:22:23.000Z</time>
      </trkpt>
      <trkpt lat="47.29054" lon="4.92811">
        <ele>627.6</ele>
        <time>2013-02-23T08:22:24.000Z</time>
      </trkpt>
      <trkpt lat="47.29057" lon="4.92814">
        <ele>627.6</ele>
        <time>2013-02-23T08:22:26.000Z</time>
      </trkpt>
      <trkpt lat="47.29058" lon="4.92815">
        <ele>627.5</ele>
        <time>2013-02-23T08:22:27.000Z</time>
      </trkpt>
      <trkpt lat="47.29061" lon="4.92817">
        <ele>627.2</ele>
        <time>2013-02-23T08:22:29.000Z</time>
      </trkpt>
      <trkpt lat="47.29063" lon="4.92818">
        <ele>627.2</ele>
        <time>2013-02-23T08:22:30.000Z</time>
      </trkpt>
      <trkpt lat="47.29075" lon="4.92827">
        <ele>627.4</ele>
        <time>2013-02-23T08:22:37.000Z</time>
      </trkpt>
      <trkpt lat="47.29078" lon="4.9283">
        <ele>625.9</ele>
        <time>2013-02-23T08:22:39.000Z</time>
      </trkpt>
      <trkpt lat="47.29079" lon="4.92831">
        <ele>625.8</ele>
        <time>2013-02-23T08:22:40.000Z</time>
      </trkpt>
      <trkpt lat="47.29082" lon="4.92833">
        <ele>625.6</ele>
        <time>2013-02-23T08:22:42.000Z</time>
      </trkpt>
      <trkpt lat="47.29083" lon="4.92834">
        <ele>625.8</ele>
        <time>2013-02-23T08:22:43.000Z</time>
      </trkpt>
      <trkpt lat="47.29087" lon="4.92837">
        <ele>626.6</ele>
        <time>2013-02-23T08:22:46.000Z</time>
      </trkpt>
      <trkpt lat="47.29088" lon="4.92838">
        <ele>626.7</ele>
        <time>2013-02-23T08:22:47.000Z</time>
      </trkpt>
      <trkpt lat="47.29092" lon="4.92841">
        <ele>627.9</ele>
        <time>2013-02-23T08:22:50.000Z</time>
      </trkpt>
      <trkpt lat="47.29094" lon="4.92842">
        <ele>627.6</ele>
        <time>2013-02-23T08:22:51.000Z</time>
      </trkpt>
      <trkpt lat="47.29096" lon="4.92845">
        <ele>627.2</ele>
        <time>2013-02-23T08:22:53.000Z</time>
      </trkpt>
      <trkpt lat="47.29098" lon="4.92846">
        <ele>627.2</ele>
        <time>2013-02-23T08:22:54.000Z</time>
      </trkpt>
      <trkpt lat="47.291" lon="4.92849">
        <ele>627.1</ele>
        <time>2013-02-23T08:22:56.000Z</time>
      </trkpt>
      <trkpt lat="47.29102" lon="4.9285">
        <ele>627.1</ele>
        <time>2013-02-23T08:22:57.000Z</time>
      </trkpt>
      <trkpt lat="47.29104" lon="4.92853">
        <ele>627.3</ele>
        <time>2013-02-23T08:22:59.000Z</time>
      </trkpt>
      <trkpt lat="47.29105" lon="4.92854">
        <ele>627.4</ele>
        <time>2013-02-23T08:23:00.000Z</time>
      </trkpt>
      <trkpt lat="47.29108" lon="4.92857">
        <ele>627.4</ele>
        <time>2013-02-23T08:23:02.000Z</time>
      </trkpt>
      <trkpt lat="47.29109" lon="4.92859">
        <ele>627.3</ele>
        <time>2013-02-23T08:23:03.000Z</time>
      </trkpt>
      <trkpt lat="47.29111" lon="4.92862">
        <ele>627.1</ele>
        <time>2013-02-23T08:23:05.000Z</time>
      </trkpt>
      <trkpt lat="47.29112" lon="4.92864">
        <ele>627.1</ele>
        <time>2013-02-23T08:23:06.000Z</time>
      </trkpt>
      <trkpt lat="47.29116" lon="4.92868">
        <ele>627.4</ele>
        <time>2013-02-23T08:23:09.000Z</time>
      </trkpt>
      <trkpt lat="47.29117" lon="4.92869">
        <ele>627.4</ele>
        <time>2013-02-23T08:23:10.000Z</time>
      </trkpt>
      <trkpt lat="47.29119" lon="4.92872">
        <ele>627.6</ele>
        <time>2013-02-23T08:23:12.000Z</time>
      </trkpt>
      <trkpt lat="47.2912" lon="4.92874">
        <ele>627.7</ele>
        <time>2013-02-23T08:23:13.000Z</time>
      </trkpt>
      <trkpt lat="47.29123" lon="4.92877">
        <ele>627.8</ele>
        <time>2013-02-23T08:23:15.000Z</time>
      </trkpt>
      <trkpt lat="47.29124" lon="4.92879">
        <ele>627.6</ele>
        <time>2013-02-23T08:23:16.000Z</time>
      </trkpt>
      <trkpt lat="47.29126" lon="4.92883">
        <ele>627.3</ele>
        <time>2013-02-23T08:23:18.000Z</time>
      </trkpt>
      <trkpt lat="47.29127" lon="4.92885">
        <ele>627.3</ele>
        <time>2013-02-23T08:23:19.000Z</time>
      </trkpt>
      <trkpt lat="47.29129" lon="4.92888">
        <ele>627.1</ele>
        <time>2013-02-23T08:23:21.000Z</time>
      </trkpt>
      <trkpt lat="47.2913" lon="4.9289">
        <ele>627</ele>
        <time>2013-02-23T08:23:22.000Z</time>
      </trkpt>
      <trkpt lat="47.29132" lon="4.92893">
        <ele>627.1</ele>
        <time>2013-02-23T08:23:24.000Z</time>
      </trkpt>
      <trkpt lat="47.29134" lon="4.92895">
        <ele>627</ele>
        <time>2013-02-23T08:23:25.000Z</time>
      </trkpt>
      <trkpt lat="47.29136" lon="4.92899">
        <ele>627</ele>
        <time>2013-02-23T08:23:27.000Z</time>
      </trkpt>
      <trkpt lat="47.29137" lon="4.92901">
        <ele>627</ele>
        <time>2013-02-23T08:23:28.000Z</time>
      </trkpt>
      <trkpt lat="47.29138" lon="4.92905">
        <ele>627</ele>
        <time>2013-02-23T08:23:30.000Z</time>
      </trkpt>
      <trkpt lat="47.29146" lon="4.92919">
        <ele>628.7</ele>
        <time>2013-02-23T08:23:37.000Z</time>
      </trkpt>
      <trkpt lat="47.29148" lon="4.92922">
        <ele>628.9</ele>
        <time>2013-02-23T08:23:39.000Z</time>
      </trkpt>
      <trkpt lat="47.29149" lon="4.92925">
        <ele>628.1</ele>
        <time>2013-02-23T08:23:40.000Z</time>
      </trkpt>
      <trkpt lat="47.29151" lon="4.9293">
        <ele>627.9</ele>
        <time>2013-02-23T08:23:43.000Z</time>
      </trkpt>
      <trkpt lat="47.29152" lon="4.92933">
        <ele>627.5</ele>
        <time>2013-02-23T08:23:44.000Z</time>
      </trkpt>
      <trkpt lat="47.29153" lon="4.92937">
        <ele>627.4</ele>
        <time>2013-02-23T08:23:46.000Z</time>
      </trkpt>
      <trkpt lat="47.29154" lon="4.92939">
        <ele>627.7</ele>
        <time>2013-02-23T08:23:47.000Z</time>
      </trkpt>
      <trkpt lat="47.29155" lon="4.92943">
        <ele>627.9</ele>
        <time>2013-02-23T08:23:49.000Z</time>
      </trkpt>
      <trkpt lat="47.29156" lon="4.92945">
        <ele>628.3</ele>
        <time>2013-02-23T08:23:50.000Z</time>
      </trkpt>
      <trkpt lat="47.29157" lon="4.92948">
        <ele>628.5</ele>
        <time>2013-02-23T08:23:52.000Z</time>
      </trkpt>
      <trkpt lat="47.29158" lon="4.9295">
        <ele>628.8</ele>
        <time>2013-02-23T08:23:53.000Z</time>
      </trkpt>
      <trkpt lat="47.2916" lon="4.92954">
        <ele>629</ele>
        <time>2013-02-23T08:23:55.000Z</time>
      </trkpt>
      <trkpt lat="47.29161" lon="4.92956">
        <ele>629.1</ele>
        <time>2013-02-23T08:23:56.000Z</time>
      </trkpt>
      <trkpt lat="47.29163" lon="4.9296">
        <ele>629.3</ele>
        <time>2013-02-23T08:23:58.000Z</time>
      </trkpt>
      <trkpt lat="47.29164" lon="4.92962">
        <ele>629.5</ele>
        <time>2013-02-23T08:23:59.000Z</time>
      </trkpt>
      <trkpt lat="47.29165" lon="4.92966">
        <ele>629.5</ele>
        <time>2013-02-23T08:24:01.000Z</time>
      </trkpt>
      <trkpt lat="47.29166" lon="4.92968">
        <ele>629.6</ele>
        <time>2013-02-23T08:24:02.000Z</time>
      </trkpt>
      <trkpt lat="47.29168" lon="4.92972">
        <ele>629.7</ele>
        <time>2013-02-23T08:24:04.000Z</time>
      </trkpt>
      <trkpt lat="47.29169" lon="4.92974">
        <ele>629.8</ele>
        <time>2013-02-23T08:24:05.000Z</time>
      </trkpt>
      <trkpt lat="47.29171" lon="4.92979">
        <ele>629.8</ele>
        <time>2013-02-23T08:24:08.000Z</time>
      </trkpt>
      <trkpt lat="47.29172" lon="4.92981">
        <ele>630</ele>
        <time>2013-02-23T08:24:09.000Z</time>
      </trkpt>
      <trkpt lat="47.29174" lon="4.92986">
        <ele>630.2</ele>
        <time>2013-02-23T08:24:12.000Z</time>
      </trkpt>
      <trkpt lat="47.29175" lon="4.92987">
        <ele>630.2</ele>
        <time>2013-02-23T08:24:13.000Z</time>
      </trkpt>
      <trkpt lat="47.29177" lon="4.92992">
        <ele>630.3</ele>
        <time>2013-02-23T08:24:16.000Z</time>
      </trkpt>
      <trkpt lat="47.29178" lon="4.92994">
        <ele>630.4</ele>
        <time>2013-02-23T08:24:17.000Z</time>
      </trkpt>
      <trkpt lat="47.2918" lon="4.92999">
        <ele>630.4</ele>
        <time>2013-02-23T08:24:19.000Z</time>
      </trkpt>
      <trkpt lat="47.29181" lon="4.93001">
        <ele>630.4</ele>
        <time>2013-02-23T08:24:20.000Z</time>
      </trkpt>
      <trkpt lat="47.29183" lon="4.93005">
        <ele>630.3</ele>
        <time>2013-02-23T08:24:22.000Z</time>
      </trkpt>
      <trkpt lat="47.29184" lon="4.93007">
        <ele>630.3</ele>
        <time>2013-02-23T08:24:23.000Z</time>
      </trkpt>
      <trkpt lat="47.29186" lon="4.93011">
        <ele>630.2</ele>
        <time>2013-02-23T08:24:25.000Z</time>
      </trkpt>
      <trkpt lat="47.29187" lon="4.93014">
        <ele>630.2</ele>
        <time>2013-02-23T08:24:26.000Z</time>
      </trkpt>
      <trkpt lat="47.2919" lon="4.93018">
        <ele>629.9</ele>
        <time>2013-02-23T08:24:29.000Z</time>
      </trkpt>
      <trkpt lat="47.2919" lon="4.93019">
        <ele>629.9</ele>
        <time>2013-02-23T08:24:30.000Z</time>
      </trkpt>
      <trkpt lat="47.29195" lon="4.93022">
        <ele>627.5</ele>
        <time>2013-02-23T08:24:37.000Z</time>
      </trkpt>
      <trkpt lat="47.29194" lon="4.93028">
        <ele>628.6</ele>
        <time>2013-02-23T08:24:49.000Z</time>
      </trkpt>
      <trkpt lat="47.29195" lon="4.93029">
        <ele>628.6</ele>
        <time>2013-02-23T08:24:50.000Z</time>
      </trkpt>
      <trkpt lat="47.29197" lon="4.93033">
        <ele>629.2</ele>
        <time>2013-02-23T08:24:53.000Z</time>
      </trkpt>
      <trkpt lat="47.29198" lon="4.93035">
        <ele>629.3</ele>
        <time>2013-02-23T08:24:54.000Z</time>
      </trkpt>
      <trkpt lat="47.292" lon="4.93039">
        <ele>629.8</ele>
        <time>2013-02-23T08:24:57.000Z</time>
      </trkpt>
      <trkpt lat="47.292" lon="4.93041">
        <ele>629.9</ele>
        <time>2013-02-23T08:24:58.000Z</time>
      </trkpt>
      <trkpt lat="47.29202" lon="4.93047">
        <ele>629.7</ele>
        <time>2013-02-23T08:25:01.000Z</time>
      </trkpt>
      <trkpt lat="47.29203" lon="4.93048">
        <ele>629.6</ele>
        <time>2013-02-23T08:25:02.000Z</time>
      </trkpt>
      <trkpt lat="47.29204" lon="4.93052">
        <ele>629.4</ele>
        <time>2013-02-23T08:25:04.000Z</time>
      </trkpt>
      <trkpt lat="47.29205" lon="4.93054">
        <ele>629.2</ele>
        <time>2013-02-23T08:25:05.000Z</time>
      </trkpt>
      <trkpt lat="47.29207" lon="4.93058">
        <ele>628.9</ele>
        <time>2013-02-23T08:25:07.000Z</time>
      </trkpt>
      <trkpt lat="47.29208" lon="4.9306">
        <ele>628.8</ele>
        <time>2013-02-23T08:25:08.000Z</time>
      </trkpt>
      <trkpt lat="47.2921" lon="4.93064">
        <ele>628.7</ele>
        <time>2013-02-23T08:25:10.000Z</time>
      </trkpt>
      <trkpt lat="47.29211" lon="4.93066">
        <ele>628.6</ele>
        <time>2013-02-23T08:25:11.000Z</time>
      </trkpt>
      <trkpt lat="47.29213" lon="4.93071">
        <ele>628.4</ele>
        <time>2013-02-23T08:25:14.000Z</time>
      </trkpt>
      <trkpt lat="47.29214" lon="4.93073">
        <ele>628.1</ele>
        <time>2013-02-23T08:25:15.000Z</time>
      </trkpt>
      <trkpt lat="47.29216" lon="4.93077">
        <ele>627.9</ele>
        <time>2013-02-23T08:25:17.000Z</time>
      </trkpt>
      <trkpt lat="47.29217" lon="4.93079">
        <ele>627.9</ele>
        <time>2013-02-23T08:25:18.000Z</time>
      </trkpt>
      <trkpt lat="47.29219" lon="4.93082">
        <ele>627.7</ele>
        <time>2013-02-23T08:25:20.000Z</time>
      </trkpt>
      <trkpt lat="47.29219" lon="4.93084">
        <ele>627.6</ele>
        <time>2013-02-23T08:25:21.000Z</time>
      </trkpt>
      <trkpt lat="47.29222" lon="4.93089">
        <ele>627.3</ele>
        <time>2013-02-23T08:25:24.000Z</time>
      </trkpt>
      <trkpt lat="47.29223" lon="4.93091">
        <ele>627.4</ele>
        <time>2013-02-23T08:25:25.000Z</time>
      </trkpt>
      <trkpt lat="47.29225" lon="4.93094">
        <ele>627.3</ele>
        <time>2013-02-23T08:25:27.000Z</time>
      </trkpt>
      <trkpt lat="47.29226" lon="4.93096">
        <ele>627.2</ele>
        <time>2013-02-23T08:25:28.000Z</time>
      </trkpt>
      <trkpt lat="47.29228" lon="4.931">
        <ele>627</ele>
        <time>2013-02-23T08:25:30.000Z</time>
      </trkpt>
      <trkpt lat="47.29237" lon="4.93113">
        <ele>626.4</ele>
        <time>2013-02-23T08:25:37.000Z</time>
      </trkpt>
      <trkpt lat="47.29239" lon="4.93117">
        <ele>626.1</ele>
        <time>2013-02-23T08:25:39.000Z</time>
      </trkpt>
      <trkpt lat="47.2924" lon="4.93119">
        <ele>624.9</ele>
        <time>2013-02-23T08:25:40.000Z</time>
      </trkpt>
      <trkpt lat="47.29242" lon="4.93123">
        <ele>624.9</ele>
        <time>2013-02-23T08:25:42.000Z</time>
      </trkpt>
      <trkpt lat="47.29243" lon="4.93125">
        <ele>624.5</ele>
        <time>2013-02-23T08:25:43.000Z</time>
      </trkpt>
      <trkpt lat="47.29246" lon="4.93129">
        <ele>625</ele>
        <time>2013-02-23T08:25:46.000Z</time>
      </trkpt>
      <trkpt lat="47.29248" lon="4.93131">
        <ele>624.8</ele>
        <time>2013-02-23T08:25:47.000Z</time>
      </trkpt>
      <trkpt lat="47.29251" lon="4.93135">
        <ele>625</ele>
        <time>2013-02-23T08:25:50.000Z</time>
      </trkpt>
      <trkpt lat="47.29252" lon="4.93137">
        <ele>625.1</ele>
        <time>2013-02-23T08:25:51.000Z</time>
      </trkpt>
      <trkpt lat="47.29254" lon="4.9314">
        <ele>625.3</ele>
        <time>2013-02-23T08:25:53.000Z</time>
      </trkpt>
      <trkpt lat="47.29255" lon="4.93142">
        <ele>625.2</ele>
        <time>2013-02-23T08:25:54.000Z</time>
      </trkpt>
      <trkpt lat="47.29258" lon="4.93146">
        <ele>625.2</ele>
        <time>2013-02-23T08:25:57.000Z</time>
      </trkpt>
      <trkpt lat="47.29259" lon="4.93147">
        <ele>625.2</ele>
        <time>2013-02-23T08:25:58.000Z</time>
      </trkpt>
      <trkpt lat="47.29261" lon="4.9315">
        <ele>624.9</ele>
        <time>2013-02-23T08:26:00.000Z</time>
      </trkpt>
      <trkpt lat="47.29263" lon="4.93152">
        <ele>624.6</ele>
        <time>2013-02-23T08:26:01.000Z</time>
      </trkpt>
      <trkpt lat="47.29266" lon="4.93157">
        <ele>624.6</ele>
        <time>2013-02-23T08:26:04.000Z</time>
      </trkpt>
      <trkpt lat="47.29267" lon="4.93158">
        <ele>624.7</ele>
        <time>2013-02-23T08:26:05.000Z</time>
      </trkpt>
      <trkpt lat="47.2927" lon="4.93163">
        <ele>624.4</ele>
        <time>2013-02-23T08:26:08.000Z</time>
      </trkpt>
      <trkpt lat="47.29271" lon="4.93164">
        <ele>624.3</ele>
        <time>2013-02-23T08:26:09.000Z</time>
      </trkpt>
      <trkpt lat="47.29273" lon="4.93168">
        <ele>624.2</ele>
        <time>2013-02-23T08:26:11.000Z</time>
      </trkpt>
      <trkpt lat="47.29274" lon="4.93169">
        <ele>624.1</ele>
        <time>2013-02-23T08:26:12.000Z</time>
      </trkpt>
      <trkpt lat="47.29276" lon="4.93173">
        <ele>623.8</ele>
        <time>2013-02-23T08:26:14.000Z</time>
      </trkpt>
      <trkpt lat="47.29277" lon="4.93175">
        <ele>623.8</ele>
        <time>2013-02-23T08:26:15.000Z</time>
      </trkpt>
      <trkpt lat="47.29279" lon="4.93178">
        <ele>623.7</ele>
        <time>2013-02-23T08:26:17.000Z</time>
      </trkpt>
      <trkpt lat="47.2928" lon="4.9318">
        <ele>623.7</ele>
        <time>2013-02-23T08:26:18.000Z</time>
      </trkpt>
      <trkpt lat="47.29284" lon="4.93184">
        <ele>623.7</ele>
        <time>2013-02-23T08:26:21.000Z</time>
      </trkpt>
      <trkpt lat="47.29285" lon="4.93185">
        <ele>623.8</ele>
        <time>2013-02-23T08:26:22.000Z</time>
      </trkpt>
      <trkpt lat="47.29288" lon="4.93189">
        <ele>623.7</ele>
        <time>2013-02-23T08:26:25.000Z</time>
      </trkpt>
      <trkpt lat="47.29289" lon="4.9319">
        <ele>623.6</ele>
        <time>2013-02-23T08:26:26.000Z</time>
      </trkpt>
      <trkpt lat="47.29291" lon="4.93194">
        <ele>623.4</ele>
        <time>2013-02-23T08:26:28.000Z</time>
      </trkpt>
      <trkpt lat="47.29292" lon="4.93196">
        <ele>623.4</ele>
        <time>2013-02-23T08:26:29.000Z</time>
      </trkpt>
      <trkpt lat="47.29293" lon="4.93197">
        <ele>623.4</ele>
        <time>2013-02-23T08:26:30.000Z</time>
      </trkpt>
      <trkpt lat="47.29302" lon="4.93208">
        <ele>624.9</ele>
        <time>2013-02-23T08:26:37.000Z</time>
      </trkpt>
      <trkpt lat="47.29305" lon="4.93212">
        <ele>624.1</ele>
        <time>2013-02-23T08:26:40.000Z</time>
      </trkpt>
      <trkpt lat="47.29306" lon="4.93213">
        <ele>624.3</ele>
        <time>2013-02-23T08:26:41.000Z</time>
      </trkpt>
      <trkpt lat="47.29308" lon="4.93217">
        <ele>623.4</ele>
        <time>2013-02-23T08:26:44.000Z</time>
      </trkpt>
      <trkpt lat="47.29309" lon="4.93219">
        <ele>623</ele>
        <time>2013-02-23T08:26:45.000Z</time>
      </trkpt>
      <trkpt lat="47.29312" lon="4.93224">
        <ele>623.5</ele>
        <time>2013-02-23T08:26:48.000Z</time>
      </trkpt>
      <trkpt lat="47.29313" lon="4.93226">
        <ele>623.6</ele>
        <time>2013-02-23T08:26:49.000Z</time>
      </trkpt>
      <trkpt lat="47.29315" lon="4.93229">
        <ele>623.5</ele>
        <time>2013-02-23T08:26:51.000Z</time>
      </trkpt>
      <trkpt lat="47.29316" lon="4.93231">
        <ele>623.3</ele>
        <time>2013-02-23T08:26:52.000Z</time>
      </trkpt>
      <trkpt lat="47.29319" lon="4.93234">
        <ele>622.8</ele>
        <time>2013-02-23T08:26:54.000Z</time>
      </trkpt>
      <trkpt lat="47.2932" lon="4.93236">
        <ele>622.1</ele>
        <time>2013-02-23T08:26:55.000Z</time>
      </trkpt>
      <trkpt lat="47.29323" lon="4.9324">
        <ele>621.4</ele>
        <time>2013-02-23T08:26:58.000Z</time>
      </trkpt>
      <trkpt lat="47.29325" lon="4.93241">
        <ele>621.3</ele>
        <time>2013-02-23T08:26:59.000Z</time>
      </trkpt>
      <trkpt lat="47.29327" lon="4.93244">
        <ele>621</ele>
        <time>2013-02-23T08:27:01.000Z</time>
      </trkpt>
      <trkpt lat="47.29329" lon="4.93245">
        <ele>620.9</ele>
        <time>2013-02-23T08:27:02.000Z</time>
      </trkpt>
      <trkpt lat="47.29331" lon="4.93247">
        <ele>620.8</ele>
        <time>2013-02-23T08:27:04.000Z</time>
      </trkpt>
      <trkpt lat="47.29333" lon="4.93248">
        <ele>620.7</ele>
        <time>2013-02-23T08:27:05.000Z</time>
      </trkpt>
      <trkpt lat="47.29336" lon="4.9325">
        <ele>621.1</ele>
        <time>2013-02-23T08:27:08.000Z</time>
      </trkpt>
      <trkpt lat="47.29338" lon="4.9325">
        <ele>621.3</ele>
        <time>2013-02-23T08:27:09.000Z</time>
      </trkpt>
      <trkpt lat="47.29342" lon="4.93252">
        <ele>621.5</ele>
        <time>2013-02-23T08:27:12.000Z</time>
      </trkpt>
      <trkpt lat="47.29343" lon="4.93252">
        <ele>621.6</ele>
        <time>2013-02-23T08:27:13.000Z</time>
      </trkpt>
      <trkpt lat="47.29347" lon="4.93253">
        <ele>621.7</ele>
        <time>2013-02-23T08:27:16.000Z</time>
      </trkpt>
      <trkpt lat="47.29348" lon="4.93253">
        <ele>621.8</ele>
        <time>2013-02-23T08:27:17.000Z</time>
      </trkpt>
      <trkpt lat="47.29352" lon="4.93255">
        <ele>622.1</ele>
        <time>2013-02-23T08:27:20.000Z</time>
      </trkpt>
      <trkpt lat="47.29354" lon="4.93256">
        <ele>622.2</ele>
        <time>2013-02-23T08:27:21.000Z</time>
      </trkpt>
      <trkpt lat="47.29357" lon="4.93257">
        <ele>622.3</ele>
        <time>2013-02-23T08:27:24.000Z</time>
      </trkpt>
      <trkpt lat="47.29359" lon="4.93258">
        <ele>622.4</ele>
        <time>2013-02-23T08:27:25.000Z</time>
      </trkpt>
      <trkpt lat="47.29363" lon="4.93259">
        <ele>622.7</ele>
        <time>2013-02-23T08:27:28.000Z</time>
      </trkpt>
      <trkpt lat="47.29364" lon="4.93259">
        <ele>622.8</ele>
        <time>2013-02-23T08:27:29.000Z</time>
      </trkpt>
      <trkpt lat="47.29366" lon="4.93259">
        <ele>622.8</ele>
        <time>2013-02-23T08:27:30.000Z</time>
      </trkpt>
      <trkpt lat="47.2938" lon="4.93259">
        <ele>621.5</ele>
        <time>2013-02-23T08:27:37.000Z</time>
      </trkpt>
      <trkpt lat="47.29383" lon="4.93261">
        <ele>623.4</ele>
        <time>2013-02-23T08:27:40.000Z</time>
      </trkpt>
      <trkpt lat="47.29384" lon="4.93261">
        <ele>623.6</ele>
        <time>2013-02-23T08:27:41.000Z</time>
      </trkpt>
      <trkpt lat="47.29387" lon="4.93262">
        <ele>623.8</ele>
        <time>2013-02-23T08:27:43.000Z</time>
      </trkpt>
      <trkpt lat="47.29389" lon="4.93262">
        <ele>623.7</ele>
        <time>2013-02-23T08:27:44.000Z</time>
      </trkpt>
      <trkpt lat="47.29393" lon="4.93263">
        <ele>626.1</ele>
        <time>2013-02-23T08:27:48.000Z</time>
      </trkpt>
      <trkpt lat="47.29394" lon="4.93263">
        <ele>626.3</ele>
        <time>2013-02-23T08:27:49.000Z</time>
      </trkpt>
      <trkpt lat="47.29398" lon="4.93264">
        <ele>627.4</ele>
        <time>2013-02-23T08:27:52.000Z</time>
      </trkpt>
      <trkpt lat="47.29399" lon="4.93264">
        <ele>627.7</ele>
        <time>2013-02-23T08:27:53.000Z</time>
      </trkpt>
      <trkpt lat="47.29403" lon="4.93265">
        <ele>628.8</ele>
        <time>2013-02-23T08:27:56.000Z</time>
      </trkpt>
      <trkpt lat="47.29405" lon="4.93266">
        <ele>628.9</ele>
        <time>2013-02-23T08:27:57.000Z</time>
      </trkpt>
      <trkpt lat="47.29408" lon="4.93267">
        <ele>629.1</ele>
        <time>2013-02-23T08:27:59.000Z</time>
      </trkpt>
      <trkpt lat="47.2941" lon="4.93267">
        <ele>629.3</ele>
        <time>2013-02-23T08:28:00.000Z</time>
      </trkpt>
      <trkpt lat="47.29413" lon="4.93269">
        <ele>628.2</ele>
        <time>2013-02-23T08:28:02.000Z</time>
      </trkpt>
      <trkpt lat="47.29414" lon="4.93269">
        <ele>627.8</ele>
        <time>2013-02-23T08:28:03.000Z</time>
      </trkpt>
      <trkpt lat="47.29418" lon="4.93269">
        <ele>627.4</ele>
        <time>2013-02-23T08:28:05.000Z</time>
      </trkpt>
      <trkpt lat="47.29419" lon="4.93269">
        <ele>627</ele>
        <time>2013-02-23T08:28:06.000Z</time>
      </trkpt>
      <trkpt lat="47.29422" lon="4.9327">
        <ele>626.5</ele>
        <time>2013-02-23T08:28:08.000Z</time>
      </trkpt>
      <trkpt lat="47.29423" lon="4.93271">
        <ele>626.1</ele>
        <time>2013-02-23T08:28:09.000Z</time>
      </trkpt>
      <trkpt lat="47.29426" lon="4.93272">
        <ele>626.1</ele>
        <time>2013-02-23T08:28:11.000Z</time>
      </trkpt>
      <trkpt lat="47.29428" lon="4.93272">
        <ele>626</ele>
        <time>2013-02-23T08:28:12.000Z</time>
      </trkpt>
      <trkpt lat="47.29431" lon="4.93273">
        <ele>625.9</ele>
        <time>2013-02-23T08:28:14.000Z</time>
      </trkpt>
      <trkpt lat="47.29433" lon="4.93273">
        <ele>626.1</ele>
        <time>2013-02-23T08:28:15.000Z</time>
      </trkpt>
      <trkpt lat="47.29436" lon="4.93274">
        <ele>625.8</ele>
        <time>2013-02-23T08:28:17.000Z</time>
      </trkpt>
      <trkpt lat="47.29438" lon="4.93274">
        <ele>625.5</ele>
        <time>2013-02-23T08:28:18.000Z</time>
      </trkpt>
      <trkpt lat="47.29441" lon="4.93275">
        <ele>625.3</ele>
        <time>2013-02-23T08:28:20.000Z</time>
      </trkpt>
      <trkpt lat="47.29443" lon="4.93275">
        <ele>625</ele>
        <time>2013-02-23T08:28:21.000Z</time>
      </trkpt>
      <trkpt lat="47.29446" lon="4.93276">
        <ele>624.9</ele>
        <time>2013-02-23T08:28:23.000Z</time>
      </trkpt>
      <trkpt lat="47.29448" lon="4.93277">
        <ele>624.8</ele>
        <time>2013-02-23T08:28:24.000Z</time>
      </trkpt>
      <trkpt lat="47.29451" lon="4.93277">
        <ele>624.5</ele>
        <time>2013-02-23T08:28:26.000Z</time>
      </trkpt>
      <trkpt lat="47.29452" lon="4.93278">
        <ele>624.6</ele>
        <time>2013-02-23T08:28:27.000Z</time>
      </trkpt>
      <trkpt lat="47.29455" lon="4.93279">
        <ele>624.7</ele>
        <time>2013-02-23T08:28:29.000Z</time>
      </trkpt>
      <trkpt lat="47.29457" lon="4.93279">
        <ele>624.7</ele>
        <time>2013-02-23T08:28:30.000Z</time>
      </trkpt>
      <trkpt lat="47.29466" lon="4.93279">
        <ele>623.9</ele>
        <time>2013-02-23T08:28:37.000Z</time>
      </trkpt>
      <trkpt lat="47.2947" lon="4.93278">
        <ele>623.3</ele>
        <time>2013-02-23T08:28:39.000Z</time>
      </trkpt>
      <trkpt lat="47.29472" lon="4.93279">
        <ele>623.6</ele>
        <time>2013-02-23T08:28:40.000Z</time>
      </trkpt>
      <trkpt lat="47.29475" lon="4.93279">
        <ele>623.6</ele>
        <time>2013-02-23T08:28:42.000Z</time>
      </trkpt>
      <trkpt lat="47.29477" lon="4.9328">
        <ele>623.9</ele>
        <time>2013-02-23T08:28:43.000Z</time>
      </trkpt>
      <trkpt lat="47.29479" lon="4.93281">
        <ele>624.9</ele>
        <time>2013-02-23T08:28:45.000Z</time>
      </trkpt>
      <trkpt lat="47.29481" lon="4.93282">
        <ele>624.6</ele>
        <time>2013-02-23T08:28:46.000Z</time>
      </trkpt>
      <trkpt lat="47.29485" lon="4.93283">
        <ele>625</ele>
        <time>2013-02-23T08:28:49.000Z</time>
      </trkpt>
      <trkpt lat="47.29487" lon="4.93283">
        <ele>625</ele>
        <time>2013-02-23T08:28:50.000Z</time>
      </trkpt>
      <trkpt lat="47.29491" lon="4.93285">
        <ele>626.2</ele>
        <time>2013-02-23T08:28:53.000Z</time>
      </trkpt>
      <trkpt lat="47.29493" lon="4.93285">
        <ele>626.6</ele>
        <time>2013-02-23T08:28:54.000Z</time>
      </trkpt>
      <trkpt lat="47.29496" lon="4.93286">
        <ele>627.1</ele>
        <time>2013-02-23T08:28:56.000Z</time>
      </trkpt>
      <trkpt lat="47.29497" lon="4.93287">
        <ele>627.6</ele>
        <time>2013-02-23T08:28:57.000Z</time>
      </trkpt>
      <trkpt lat="47.29501" lon="4.93287">
        <ele>628</ele>
        <time>2013-02-23T08:29:00.000Z</time>
      </trkpt>
      <trkpt lat="47.29502" lon="4.93286">
        <ele>628.1</ele>
        <time>2013-02-23T08:29:01.000Z</time>
      </trkpt>
      <trkpt lat="47.29506" lon="4.93287">
        <ele>627.5</ele>
        <time>2013-02-23T08:29:03.000Z</time>
      </trkpt>
      <trkpt lat="47.29508" lon="4.93287">
        <ele>627.2</ele>
        <time>2013-02-23T08:29:04.000Z</time>
      </trkpt>
      <trkpt lat="47.29511" lon="4.93287">
        <ele>626.4</ele>
        <time>2013-02-23T08:29:06.000Z</time>
      </trkpt>
      <trkpt lat="47.29512" lon="4.93288">
        <ele>626.3</ele>
        <time>2013-02-23T08:29:07.000Z</time>
      </trkpt>
      <trkpt lat="47.29515" lon="4.93289">
        <ele>626.1</ele>
        <time>2013-02-23T08:29:09.000Z</time>
      </trkpt>
      <trkpt lat="47.29517" lon="4.9329">
        <ele>626</ele>
        <time>2013-02-23T08:29:10.000Z</time>
      </trkpt>
      <trkpt lat="47.29521" lon="4.93292">
        <ele>625.5</ele>
        <time>2013-02-23T08:29:12.000Z</time>
      </trkpt>
      <trkpt lat="47.29522" lon="4.93293">
        <ele>625.4</ele>
        <time>2013-02-23T08:29:13.000Z</time>
      </trkpt>
      <trkpt lat="47.29525" lon="4.93295">
        <ele>625.2</ele>
        <time>2013-02-23T08:29:15.000Z</time>
      </trkpt>
      <trkpt lat="47.29527" lon="4.93295">
        <ele>625.1</ele>
        <time>2013-02-23T08:29:16.000Z</time>
      </trkpt>
      <trkpt lat="47.2953" lon="4.93296">
        <ele>625</ele>
        <time>2013-02-23T08:29:18.000Z</time>
      </trkpt>
      <trkpt lat="47.29532" lon="4.93297">
        <ele>624.9</ele>
        <time>2013-02-23T08:29:19.000Z</time>
      </trkpt>
      <trkpt lat="47.29535" lon="4.93298">
        <ele>624.7</ele>
        <time>2013-02-23T08:29:21.000Z</time>
      </trkpt>
      <trkpt lat="47.29537" lon="4.93298">
        <ele>624.6</ele>
        <time>2013-02-23T08:29:22.000Z</time>
      </trkpt>
      <trkpt lat="47.2954" lon="4.93299">
        <ele>624.7</ele>
        <time>2013-02-23T08:29:24.000Z</time>
      </trkpt>
      <trkpt lat="47.29541" lon="4.93299">
        <ele>624.7</ele>
        <time>2013-02-23T08:29:25.000Z</time>
      </trkpt>
      <trkpt lat="47.29544" lon="4.933">
        <ele>624.8</ele>
        <time>2013-02-23T08:29:27.000Z</time>
      </trkpt>
      <trkpt lat="47.29546" lon="4.933">
        <ele>624.7</ele>
        <time>2013-02-23T08:29:28.000Z</time>
      </trkpt>
      <trkpt lat="47.29549" lon="4.93301">
        <ele>624.6</ele>
        <time>2013-02-23T08:29:30.000Z</time>
      </trkpt>
      <trkpt lat="47.29562" lon="4.93301">
        <ele>622.5</ele>
        <time>2013-02-23T08:29:37.000Z</time>
      </trkpt>
      <trkpt lat="47.29565" lon="4.93301">
        <ele>623.8</ele>
        <time>2013-02-23T08:29:39.000Z</time>
      </trkpt>
      <trkpt lat="47.29567" lon="4.93303">
        <ele>623</ele>
        <time>2013-02-23T08:29:40.000Z</time>
      </trkpt>
      <trkpt lat="47.29571" lon="4.93304">
        <ele>625</ele>
        <time>2013-02-23T08:29:43.000Z</time>
      </trkpt>
      <trkpt lat="47.29572" lon="4.93304">
        <ele>625.5</ele>
        <time>2013-02-23T08:29:44.000Z</time>
      </trkpt>
      <trkpt lat="47.29575" lon="4.93305">
        <ele>625.7</ele>
        <time>2013-02-23T08:29:46.000Z</time>
      </trkpt>
      <trkpt lat="47.29577" lon="4.93306">
        <ele>625.7</ele>
        <time>2013-02-23T08:29:47.000Z</time>
      </trkpt>
      <trkpt lat="47.2958" lon="4.93307">
        <ele>627.5</ele>
        <time>2013-02-23T08:29:50.000Z</time>
      </trkpt>
      <trkpt lat="47.29582" lon="4.93308">
        <ele>627.8</ele>
        <time>2013-02-23T08:29:51.000Z</time>
      </trkpt>
      <trkpt lat="47.29584" lon="4.93309">
        <ele>627.9</ele>
        <time>2013-02-23T08:29:53.000Z</time>
      </trkpt>
      <trkpt lat="47.29586" lon="4.93309">
        <ele>628</ele>
        <time>2013-02-23T08:29:54.000Z</time>
      </trkpt>
      <trkpt lat="47.2959" lon="4.93311">
        <ele>628.8</ele>
        <time>2013-02-23T08:29:57.000Z</time>
      </trkpt>
      <trkpt lat="47.29592" lon="4.93311">
        <ele>628.4</ele>
        <time>2013-02-23T08:29:58.000Z</time>
      </trkpt>
      <trkpt lat="47.29595" lon="4.93311">
        <ele>628.7</ele>
        <time>2013-02-23T08:30:00.000Z</time>
      </trkpt>
      <trkpt lat="47.29596" lon="4.93312">
        <ele>628.9</ele>
        <time>2013-02-23T08:30:01.000Z</time>
      </trkpt>
      <trkpt lat="47.29599" lon="4.93312">
        <ele>628.4</ele>
        <time>2013-02-23T08:30:03.000Z</time>
      </trkpt>
      <trkpt lat="47.29601" lon="4.93312">
        <ele>627.8</ele>
        <time>2013-02-23T08:30:04.000Z</time>
      </trkpt>
      <trkpt lat="47.29605" lon="4.93313">
        <ele>627</ele>
        <time>2013-02-23T08:30:06.000Z</time>
      </trkpt>
      <trkpt lat="47.29607" lon="4.93314">
        <ele>626.7</ele>
        <time>2013-02-23T08:30:07.000Z</time>
      </trkpt>
      <trkpt lat="47.2961" lon="4.93314">
        <ele>626.5</ele>
        <time>2013-02-23T08:30:09.000Z</time>
      </trkpt>
      <trkpt lat="47.29611" lon="4.93315">
        <ele>626.4</ele>
        <time>2013-02-23T08:30:10.000Z</time>
      </trkpt>
      <trkpt lat="47.29615" lon="4.93315">
        <ele>626</ele>
        <time>2013-02-23T08:30:12.000Z</time>
      </trkpt>
      <trkpt lat="47.29616" lon="4.93316">
        <ele>625.8</ele>
        <time>2013-02-23T08:30:13.000Z</time>
      </trkpt>
      <trkpt lat="47.2962" lon="4.93316">
        <ele>625.5</ele>
        <time>2013-02-23T08:30:15.000Z</time>
      </trkpt>
      <trkpt lat="47.29621" lon="4.93317">
        <ele>625.3</ele>
        <time>2013-02-23T08:30:16.000Z</time>
      </trkpt>
      <trkpt lat="47.29625" lon="4.93318">
        <ele>625</ele>
        <time>2013-02-23T08:30:18.000Z</time>
      </trkpt>
      <trkpt lat="47.29626" lon="4.93318">
        <ele>624.8</ele>
        <time>2013-02-23T08:30:19.000Z</time>
      </trkpt>
      <trkpt lat="47.29629" lon="4.93319">
        <ele>624.5</ele>
        <time>2013-02-23T08:30:21.000Z</time>
      </trkpt>
      <trkpt lat="47.29631" lon="4.9332">
        <ele>624.4</ele>
        <time>2013-02-23T08:30:22.000Z</time>
      </trkpt>
      <trkpt lat="47.29634" lon="4.93321">
        <ele>623.9</ele>
        <time>2013-02-23T08:30:24.000Z</time>
      </trkpt>
      <trkpt lat="47.29636" lon="4.93322">
        <ele>623.8</ele>
        <time>2013-02-23T08:30:25.000Z</time>
      </trkpt>
      <trkpt lat="47.29639" lon="4.93323">
        <ele>623.5</ele>
        <time>2013-02-23T08:30:27.000Z</time>
      </trkpt>
      <trkpt lat="47.29641" lon="4.93323">
        <ele>623.3</ele>
        <time>2013-02-23T08:30:28.000Z</time>
      </trkpt>
      <trkpt lat="47.29644" lon="4.93324">
        <ele>623.1</ele>
        <time>2013-02-23T08:30:30.000Z</time>
      </trkpt>
      <trkpt lat="47.29658" lon="4.93325">
        <ele>617.2</ele>
        <time>2013-02-23T08:30:37.000Z</time>
      </trkpt>
      <trkpt lat="47.29661" lon="4.93326">
        <ele>617.8</ele>
        <time>2013-02-23T08:30:40.000Z</time>
      </trkpt>
      <trkpt lat="47.29663" lon="4.93327">
        <ele>618</ele>
        <time>2013-02-23T08:30:41.000Z</time>
      </trkpt>
      <trkpt lat="47.29666" lon="4.93328">
        <ele>618.1</ele>
        <time>2013-02-23T08:30:43.000Z</time>
      </trkpt>
      <trkpt lat="47.29667" lon="4.93329">
        <ele>618.9</ele>
        <time>2013-02-23T08:30:44.000Z</time>
      </trkpt>
      <trkpt lat="47.29671" lon="4.93329">
        <ele>620.3</ele>
        <time>2013-02-23T08:30:47.000Z</time>
      </trkpt>
      <trkpt lat="47.29672" lon="4.9333">
        <ele>620.5</ele>
        <time>2013-02-23T08:30:48.000Z</time>
      </trkpt>
      <trkpt lat="47.29677" lon="4.93329">
        <ele>621.4</ele>
        <time>2013-02-23T08:30:51.000Z</time>
      </trkpt>
      <trkpt lat="47.29678" lon="4.9333">
        <ele>622</ele>
        <time>2013-02-23T08:30:52.000Z</time>
      </trkpt>
      <trkpt lat="47.29681" lon="4.93331">
        <ele>623.2</ele>
        <time>2013-02-23T08:30:55.000Z</time>
      </trkpt>
      <trkpt lat="47.29683" lon="4.93331">
        <ele>623.7</ele>
        <time>2013-02-23T08:30:56.000Z</time>
      </trkpt>
      <trkpt lat="47.29686" lon="4.93332">
        <ele>624.9</ele>
        <time>2013-02-23T08:30:59.000Z</time>
      </trkpt>
      <trkpt lat="47.29687" lon="4.93332">
        <ele>625.5</ele>
        <time>2013-02-23T08:31:00.000Z</time>
      </trkpt>
      <trkpt lat="47.2969" lon="4.93332">
        <ele>625.2</ele>
        <time>2013-02-23T08:31:02.000Z</time>
      </trkpt>
      <trkpt lat="47.29692" lon="4.93333">
        <ele>624.2</ele>
        <time>2013-02-23T08:31:03.000Z</time>
      </trkpt>
      <trkpt lat="47.29695" lon="4.93335">
        <ele>623.1</ele>
        <time>2013-02-23T08:31:05.000Z</time>
      </trkpt>
      <trkpt lat="47.29697" lon="4.93335">
        <ele>622.6</ele>
        <time>2013-02-23T08:31:06.000Z</time>
      </trkpt>
      <trkpt lat="47.297" lon="4.93336">
        <ele>621.9</ele>
        <time>2013-02-23T08:31:08.000Z</time>
      </trkpt>
      <trkpt lat="47.29702" lon="4.93337">
        <ele>621.4</ele>
        <time>2013-02-23T08:31:09.000Z</time>
      </trkpt>
      <trkpt lat="47.29705" lon="4.93337">
        <ele>620.8</ele>
        <time>2013-02-23T08:31:11.000Z</time>
      </trkpt>
      <trkpt lat="47.29706" lon="4.93337">
        <ele>620.3</ele>
        <time>2013-02-23T08:31:12.000Z</time>
      </trkpt>
      <trkpt lat="47.29709" lon="4.93338">
        <ele>619.9</ele>
        <time>2013-02-23T08:31:14.000Z</time>
      </trkpt>
      <trkpt lat="47.29711" lon="4.93338">
        <ele>619.7</ele>
        <time>2013-02-23T08:31:15.000Z</time>
      </trkpt>
      <trkpt lat="47.29715" lon="4.93339">
        <ele>619.7</ele>
        <time>2013-02-23T08:31:17.000Z</time>
      </trkpt>
      <trkpt lat="47.29716" lon="4.93339">
        <ele>619.6</ele>
        <time>2013-02-23T08:31:18.000Z</time>
      </trkpt>
      <trkpt lat="47.2972" lon="4.9334">
        <ele>619.4</ele>
        <time>2013-02-23T08:31:21.000Z</time>
      </trkpt>
      <trkpt lat="47.29722" lon="4.9334">
        <ele>619.3</ele>
        <time>2013-02-23T08:31:22.000Z</time>
      </trkpt>
      <trkpt lat="47.29726" lon="4.93341">
        <ele>619</ele>
        <time>2013-02-23T08:31:25.000Z</time>
      </trkpt>
      <trkpt lat="47.29727" lon="4.93341">
        <ele>618.7</ele>
        <time>2013-02-23T08:31:26.000Z</time>
      </trkpt>
      <trkpt lat="47.29731" lon="4.93343">
        <ele>618.4</ele>
        <time>2013-02-23T08:31:29.000Z</time>
      </trkpt>
      <trkpt lat="47.29733" lon="4.93343">
        <ele>618.3</ele>
        <time>2013-02-23T08:31:30.000Z</time>
      </trkpt>
      <trkpt lat="47.29743" lon="4.93347">
        <ele>613.5</ele>
        <time>2013-02-23T08:31:37.000Z</time>
      </trkpt>
      <trkpt lat="47.29747" lon="4.93349">
        <ele>612.7</ele>
        <time>2013-02-23T08:31:39.000Z</time>
      </trkpt>
      <trkpt lat="47.29748" lon="4.9335">
        <ele>613.3</ele>
        <time>2013-02-23T08:31:40.000Z</time>
      </trkpt>
      <trkpt lat="47.29752" lon="4.93349">
        <ele>614.5</ele>
        <time>2013-02-23T08:31:43.000Z</time>
      </trkpt>
      <trkpt lat="47.29753" lon="4.9335">
        <ele>615.2</ele>
        <time>2013-02-23T08:31:44.000Z</time>
      </trkpt>
      <trkpt lat="47.29757" lon="4.9335">
        <ele>615.5</ele>
        <time>2013-02-23T08:31:47.000Z</time>
      </trkpt>
      <trkpt lat="47.29758" lon="4.9335">
        <ele>614.9</ele>
        <time>2013-02-23T08:31:48.000Z</time>
      </trkpt>
      <trkpt lat="47.29762" lon="4.9335">
        <ele>614.8</ele>
        <time>2013-02-23T08:31:51.000Z</time>
      </trkpt>
      <trkpt lat="47.29763" lon="4.93349">
        <ele>615.2</ele>
        <time>2013-02-23T08:31:52.000Z</time>
      </trkpt>
      <trkpt lat="47.29767" lon="4.93349">
        <ele>616.2</ele>
        <time>2013-02-23T08:31:55.000Z</time>
      </trkpt>
      <trkpt lat="47.29768" lon="4.93349">
        <ele>616.2</ele>
        <time>2013-02-23T08:31:56.000Z</time>
      </trkpt>
      <trkpt lat="47.29771" lon="4.93347">
        <ele>618.2</ele>
        <time>2013-02-23T08:31:59.000Z</time>
      </trkpt>
      <trkpt lat="47.29772" lon="4.93347">
        <ele>619.3</ele>
        <time>2013-02-23T08:32:00.000Z</time>
      </trkpt>
      <trkpt lat="47.29777" lon="4.93347">
        <ele>619.2</ele>
        <time>2013-02-23T08:32:03.000Z</time>
      </trkpt>
      <trkpt lat="47.29779" lon="4.93347">
        <ele>618.7</ele>
        <time>2013-02-23T08:32:04.000Z</time>
      </trkpt>
      <trkpt lat="47.29782" lon="4.93345">
        <ele>617.7</ele>
        <time>2013-02-23T08:32:06.000Z</time>
      </trkpt>
      <trkpt lat="47.29784" lon="4.93344">
        <ele>617.7</ele>
        <time>2013-02-23T08:32:07.000Z</time>
      </trkpt>
      <trkpt lat="47.29786" lon="4.93342">
        <ele>616.9</ele>
        <time>2013-02-23T08:32:09.000Z</time>
      </trkpt>
      <trkpt lat="47.29788" lon="4.93341">
        <ele>617</ele>
        <time>2013-02-23T08:32:10.000Z</time>
      </trkpt>
      <trkpt lat="47.29791" lon="4.93339">
        <ele>616.7</ele>
        <time>2013-02-23T08:32:12.000Z</time>
      </trkpt>
      <trkpt lat="47.29792" lon="4.93338">
        <ele>616.5</ele>
        <time>2013-02-23T08:32:13.000Z</time>
      </trkpt>
      <trkpt lat="47.29795" lon="4.93335">
        <ele>616.3</ele>
        <time>2013-02-23T08:32:15.000Z</time>
      </trkpt>
      <trkpt lat="47.29797" lon="4.93334">
        <ele>616.3</ele>
        <time>2013-02-23T08:32:16.000Z</time>
      </trkpt>
      <trkpt lat="47.298" lon="4.93332">
        <ele>616</ele>
        <time>2013-02-23T08:32:18.000Z</time>
      </trkpt>
      <trkpt lat="47.29802" lon="4.93331">
        <ele>615.7</ele>
        <time>2013-02-23T08:32:19.000Z</time>
      </trkpt>
      <trkpt lat="47.29804" lon="4.93328">
        <ele>615.5</ele>
        <time>2013-02-23T08:32:21.000Z</time>
      </trkpt>
      <trkpt lat="47.29806" lon="4.93327">
        <ele>615.3</ele>
        <time>2013-02-23T08:32:22.000Z</time>
      </trkpt>
      <trkpt lat="47.29808" lon="4.93324">
        <ele>615</ele>
        <time>2013-02-23T08:32:24.000Z</time>
      </trkpt>
      <trkpt lat="47.29809" lon="4.93323">
        <ele>615</ele>
        <time>2013-02-23T08:32:25.000Z</time>
      </trkpt>
      <trkpt lat="47.29813" lon="4.93319">
        <ele>614.7</ele>
        <time>2013-02-23T08:32:28.000Z</time>
      </trkpt>
      <trkpt lat="47.29814" lon="4.93317">
        <ele>614.5</ele>
        <time>2013-02-23T08:32:29.000Z</time>
      </trkpt>
      <trkpt lat="47.29814" lon="4.93316">
        <ele>614.3</ele>
        <time>2013-02-23T08:32:30.000Z</time>
      </trkpt>
      <trkpt lat="47.29827" lon="4.93308">
        <ele>608.8</ele>
        <time>2013-02-23T08:32:37.000Z</time>
      </trkpt>
      <trkpt lat="47.29826" lon="4.93302">
        <ele>611.7</ele>
        <time>2013-02-23T08:32:56.000Z</time>
      </trkpt>
      <trkpt lat="47.29826" lon="4.933">
        <ele>612.1</ele>
        <time>2013-02-23T08:32:57.000Z</time>
      </trkpt>
      <trkpt lat="47.29826" lon="4.93294">
        <ele>613.5</ele>
        <time>2013-02-23T08:33:00.000Z</time>
      </trkpt>
      <trkpt lat="47.29826" lon="4.93292">
        <ele>614</ele>
        <time>2013-02-23T08:33:01.000Z</time>
      </trkpt>
      <trkpt lat="47.29827" lon="4.93286">
        <ele>613.6</ele>
        <time>2013-02-23T08:33:04.000Z</time>
      </trkpt>
      <trkpt lat="47.29828" lon="4.93285">
        <ele>613.6</ele>
        <time>2013-02-23T08:33:05.000Z</time>
      </trkpt>
      <trkpt lat="47.29829" lon="4.93279">
        <ele>613.9</ele>
        <time>2013-02-23T08:33:08.000Z</time>
      </trkpt>
      <trkpt lat="47.29829" lon="4.93277">
        <ele>613.9</ele>
        <time>2013-02-23T08:33:09.000Z</time>
      </trkpt>
      <trkpt lat="47.2983" lon="4.93271">
        <ele>614.1</ele>
        <time>2013-02-23T08:33:13.000Z</time>
      </trkpt>
      <trkpt lat="47.29831" lon="4.93271">
        <ele>614.1</ele>
        <time>2013-02-23T08:33:14.000Z</time>
      </trkpt>
      <trkpt lat="47.29832" lon="4.93265">
        <ele>614</ele>
        <time>2013-02-23T08:33:19.000Z</time>
      </trkpt>
      <trkpt lat="47.29832" lon="4.93264">
        <ele>614.1</ele>
        <time>2013-02-23T08:33:20.000Z</time>
      </trkpt>
      <trkpt lat="47.29832" lon="4.93264">
        <ele>614</ele>
        <time>2013-02-23T08:33:30.000Z</time>
      </trkpt>
      <trkpt lat="47.29829" lon="4.93253">
        <ele>618.9</ele>
        <time>2013-02-23T08:33:37.000Z</time>
      </trkpt>
      <trkpt lat="47.29833" lon="4.93249">
        <ele>616.9</ele>
        <time>2013-02-23T08:33:45.000Z</time>
      </trkpt>
      <trkpt lat="47.29833" lon="4.93249">
        <ele>616.1</ele>
        <time>2013-02-23T08:33:46.000Z</time>
      </trkpt>
      <trkpt lat="47.29835" lon="4.93245">
        <ele>614.6</ele>
        <time>2013-02-23T08:33:50.000Z</time>
      </trkpt>
      <trkpt lat="47.29836" lon="4.93243">
        <ele>613.7</ele>
        <time>2013-02-23T08:33:51.000Z</time>
      </trkpt>
      <trkpt lat="47.29838" lon="4.93238">
        <ele>613.4</ele>
        <time>2013-02-23T08:33:54.000Z</time>
      </trkpt>
      <trkpt lat="47.29838" lon="4.93237">
        <ele>613.6</ele>
        <time>2013-02-23T08:33:55.000Z</time>
      </trkpt>
      <trkpt lat="47.29839" lon="4.93232">
        <ele>613.8</ele>
        <time>2013-02-23T08:33:58.000Z</time>
      </trkpt>
      <trkpt lat="47.2984" lon="4.93231">
        <ele>613.8</ele>
        <time>2013-02-23T08:33:59.000Z</time>
      </trkpt>
      <trkpt lat="47.29841" lon="4.93225">
        <ele>614.1</ele>
        <time>2013-02-23T08:34:02.000Z</time>
      </trkpt>
      <trkpt lat="47.29841" lon="4.93224">
        <ele>614.2</ele>
        <time>2013-02-23T08:34:03.000Z</time>
      </trkpt>
      <trkpt lat="47.29842" lon="4.93218">
        <ele>614</ele>
        <time>2013-02-23T08:34:06.000Z</time>
      </trkpt>
      <trkpt lat="47.29842" lon="4.93216">
        <ele>613.8</ele>
        <time>2013-02-23T08:34:07.000Z</time>
      </trkpt>
      <trkpt lat="47.29843" lon="4.93211">
        <ele>613.8</ele>
        <time>2013-02-23T08:34:09.000Z</time>
      </trkpt>
      <trkpt lat="47.29843" lon="4.93209">
        <ele>613.8</ele>
        <time>2013-02-23T08:34:10.000Z</time>
      </trkpt>
      <trkpt lat="47.29844" lon="4.93204">
        <ele>613.4</ele>
        <time>2013-02-23T08:34:13.000Z</time>
      </trkpt>
      <trkpt lat="47.29845" lon="4.93202">
        <ele>613.4</ele>
        <time>2013-02-23T08:34:14.000Z</time>
      </trkpt>
      <trkpt lat="47.29846" lon="4.93196">
        <ele>613</ele>
        <time>2013-02-23T08:34:17.000Z</time>
      </trkpt>
      <trkpt lat="47.29846" lon="4.93194">
        <ele>613</ele>
        <time>2013-02-23T08:34:18.000Z</time>
      </trkpt>
      <trkpt lat="47.29848" lon="4.93188">
        <ele>613</ele>
        <time>2013-02-23T08:34:21.000Z</time>
      </trkpt>
      <trkpt lat="47.29848" lon="4.93186">
        <ele>613.1</ele>
        <time>2013-02-23T08:34:22.000Z</time>
      </trkpt>
      <trkpt lat="47.29848" lon="4.93182">
        <ele>613.2</ele>
        <time>2013-02-23T08:34:24.000Z</time>
      </trkpt>
      <trkpt lat="47.29849" lon="4.93179">
        <ele>613.5</ele>
        <time>2013-02-23T08:34:25.000Z</time>
      </trkpt>
      <trkpt lat="47.2985" lon="4.93173">
        <ele>613.5</ele>
        <time>2013-02-23T08:34:28.000Z</time>
      </trkpt>
      <trkpt lat="47.2985" lon="4.93171">
        <ele>613.6</ele>
        <time>2013-02-23T08:34:29.000Z</time>
      </trkpt>
      <trkpt lat="47.2985" lon="4.93169">
        <ele>613.7</ele>
        <time>2013-02-23T08:34:30.000Z</time>
      </trkpt>
      <trkpt lat="47.29852" lon="4.9315">
        <ele>609.5</ele>
        <time>2013-02-23T08:34:37.000Z</time>
      </trkpt>
      <trkpt lat="47.29852" lon="4.93145">
        <ele>610.7</ele>
        <time>2013-02-23T08:34:40.000Z</time>
      </trkpt>
      <trkpt lat="47.29853" lon="4.93143">
        <ele>610.6</ele>
        <time>2013-02-23T08:34:41.000Z</time>
      </trkpt>
      <trkpt lat="47.29853" lon="4.93138">
        <ele>611.7</ele>
        <time>2013-02-23T08:34:44.000Z</time>
      </trkpt>
      <trkpt lat="47.29853" lon="4.93135">
        <ele>611.8</ele>
        <time>2013-02-23T08:34:45.000Z</time>
      </trkpt>
      <trkpt lat="47.29854" lon="4.93129">
        <ele>613.4</ele>
        <time>2013-02-23T08:34:48.000Z</time>
      </trkpt>
      <trkpt lat="47.29854" lon="4.93127">
        <ele>613.8</ele>
        <time>2013-02-23T08:34:49.000Z</time>
      </trkpt>
      <trkpt lat="47.29855" lon="4.93122">
        <ele>615.5</ele>
        <time>2013-02-23T08:34:52.000Z</time>
      </trkpt>
      <trkpt lat="47.29855" lon="4.9312">
        <ele>615.9</ele>
        <time>2013-02-23T08:34:53.000Z</time>
      </trkpt>
      <trkpt lat="47.29856" lon="4.93115">
        <ele>616.5</ele>
        <time>2013-02-23T08:34:56.000Z</time>
      </trkpt>
      <trkpt lat="47.29856" lon="4.93112">
        <ele>616.7</ele>
        <time>2013-02-23T08:34:57.000Z</time>
      </trkpt>
      <trkpt lat="47.29857" lon="4.93106">
        <ele>616.7</ele>
        <time>2013-02-23T08:35:00.000Z</time>
      </trkpt>
      <trkpt lat="47.29857" lon="4.93105">
        <ele>616.4</ele>
        <time>2013-02-23T08:35:01.000Z</time>
      </trkpt>
      <trkpt lat="47.29858" lon="4.93099">
        <ele>616.1</ele>
        <time>2013-02-23T08:35:04.000Z</time>
      </trkpt>
      <trkpt lat="47.29859" lon="4.93097">
        <ele>616.2</ele>
        <time>2013-02-23T08:35:05.000Z</time>
      </trkpt>
      <trkpt lat="47.2986" lon="4.93091">
        <ele>616.5</ele>
        <time>2013-02-23T08:35:08.000Z</time>
      </trkpt>
      <trkpt lat="47.2986" lon="4.93089">
        <ele>616.4</ele>
        <time>2013-02-23T08:35:09.000Z</time>
      </trkpt>
      <trkpt lat="47.29861" lon="4.93083">
        <ele>616.1</ele>
        <time>2013-02-23T08:35:12.000Z</time>
      </trkpt>
      <trkpt lat="47.29862" lon="4.93081">
        <ele>616.1</ele>
        <time>2013-02-23T08:35:13.000Z</time>
      </trkpt>
      <trkpt lat="47.29863" lon="4.93075">
        <ele>616</ele>
        <time>2013-02-23T08:35:16.000Z</time>
      </trkpt>
      <trkpt lat="47.29863" lon="4.93073">
        <ele>616.1</ele>
        <time>2013-02-23T08:35:17.000Z</time>
      </trkpt>
      <trkpt lat="47.29864" lon="4.93067">
        <ele>616.6</ele>
        <time>2013-02-23T08:35:21.000Z</time>
      </trkpt>
      <trkpt lat="47.29865" lon="4.93065">
        <ele>616.7</ele>
        <time>2013-02-23T08:35:22.000Z</time>
      </trkpt>
      <trkpt lat="47.29865" lon="4.9306">
        <ele>616.9</ele>
        <time>2013-02-23T08:35:24.000Z</time>
      </trkpt>
      <trkpt lat="47.29866" lon="4.93058">
        <ele>616.9</ele>
        <time>2013-02-23T08:35:25.000Z</time>
      </trkpt>
      <trkpt lat="47.29866" lon="4.93052">
        <ele>617</ele>
        <time>2013-02-23T08:35:27.000Z</time>
      </trkpt>
      <trkpt lat="47.29867" lon="4.9305">
        <ele>617</ele>
        <time>2013-02-23T08:35:28.000Z</time>
      </trkpt>
      <trkpt lat="47.29867" lon="4.93045">
        <ele>617.1</ele>
        <time>2013-02-23T08:35:30.000Z</time>
      </trkpt>
      <trkpt lat="47.29871" lon="4.93025">
        <ele>615.8</ele>
        <time>2013-02-23T08:35:37.000Z</time>
      </trkpt>
      <trkpt lat="47.29872" lon="4.9302">
        <ele>617.7</ele>
        <time>2013-02-23T08:35:40.000Z</time>
      </trkpt>
      <trkpt lat="47.29872" lon="4.93017">
        <ele>617.7</ele>
        <time>2013-02-23T08:35:41.000Z</time>
      </trkpt>
      <trkpt lat="47.29873" lon="4.93012">
        <ele>619</ele>
        <time>2013-02-23T08:35:44.000Z</time>
      </trkpt>
      <trkpt lat="47.29874" lon="4.9301">
        <ele>619.1</ele>
        <time>2013-02-23T08:35:45.000Z</time>
      </trkpt>
      <trkpt lat="47.29875" lon="4.93004">
        <ele>620.2</ele>
        <time>2013-02-23T08:35:48.000Z</time>
      </trkpt>
      <trkpt lat="47.29875" lon="4.93003">
        <ele>620</ele>
        <time>2013-02-23T08:35:49.000Z</time>
      </trkpt>
      <trkpt lat="47.29877" lon="4.92997">
        <ele>619.3</ele>
        <time>2013-02-23T08:35:52.000Z</time>
      </trkpt>
      <trkpt lat="47.29877" lon="4.92996">
        <ele>619.5</ele>
        <time>2013-02-23T08:35:53.000Z</time>
      </trkpt>
      <trkpt lat="47.29878" lon="4.9299">
        <ele>620.3</ele>
        <time>2013-02-23T08:35:56.000Z</time>
      </trkpt>
      <trkpt lat="47.29878" lon="4.92988">
        <ele>620.7</ele>
        <time>2013-02-23T08:35:57.000Z</time>
      </trkpt>
      <trkpt lat="47.29879" lon="4.92982">
        <ele>621.5</ele>
        <time>2013-02-23T08:36:00.000Z</time>
      </trkpt>
      <trkpt lat="47.2988" lon="4.9298">
        <ele>621.3</ele>
        <time>2013-02-23T08:36:01.000Z</time>
      </trkpt>
      <trkpt lat="47.29882" lon="4.92974">
        <ele>620.1</ele>
        <time>2013-02-23T08:36:04.000Z</time>
      </trkpt>
      <trkpt lat="47.29882" lon="4.92972">
        <ele>620.2</ele>
        <time>2013-02-23T08:36:05.000Z</time>
      </trkpt>
      <trkpt lat="47.29883" lon="4.92967">
        <ele>620</ele>
        <time>2013-02-23T08:36:08.000Z</time>
      </trkpt>
      <trkpt lat="47.29884" lon="4.92965">
        <ele>620</ele>
        <time>2013-02-23T08:36:09.000Z</time>
      </trkpt>
      <trkpt lat="47.29885" lon="4.92959">
        <ele>620.5</ele>
        <time>2013-02-23T08:36:12.000Z</time>
      </trkpt>
      <trkpt lat="47.29885" lon="4.92957">
        <ele>620.7</ele>
        <time>2013-02-23T08:36:13.000Z</time>
      </trkpt>
      <trkpt lat="47.29886" lon="4.92951">
        <ele>621</ele>
        <time>2013-02-23T08:36:16.000Z</time>
      </trkpt>
      <trkpt lat="47.29886" lon="4.92949">
        <ele>621</ele>
        <time>2013-02-23T08:36:17.000Z</time>
      </trkpt>
      <trkpt lat="47.29888" lon="4.92943">
        <ele>621.2</ele>
        <time>2013-02-23T08:36:20.000Z</time>
      </trkpt>
      <trkpt lat="47.29888" lon="4.92941">
        <ele>621.3</ele>
        <time>2013-02-23T08:36:21.000Z</time>
      </trkpt>
      <trkpt lat="47.29889" lon="4.92935">
        <ele>621.4</ele>
        <time>2013-02-23T08:36:24.000Z</time>
      </trkpt>
      <trkpt lat="47.29889" lon="4.92933">
        <ele>621.4</ele>
        <time>2013-02-23T08:36:25.000Z</time>
      </trkpt>
      <trkpt lat="47.2989" lon="4.92927">
        <ele>621.4</ele>
        <time>2013-02-23T08:36:28.000Z</time>
      </trkpt>
      <trkpt lat="47.29891" lon="4.92925">
        <ele>621.4</ele>
        <time>2013-02-23T08:36:29.000Z</time>
      </trkpt>
      <trkpt lat="47.29891" lon="4.92923">
        <ele>621.5</ele>
        <time>2013-02-23T08:36:30.000Z</time>
      </trkpt>
      <trkpt lat="47.29893" lon="4.9291">
        <ele>620.7</ele>
        <time>2013-02-23T08:36:37.000Z</time>
      </trkpt>
      <trkpt lat="47.29893" lon="4.92904">
        <ele>622.5</ele>
        <time>2013-02-23T08:36:40.000Z</time>
      </trkpt>
      <trkpt lat="47.29893" lon="4.92902">
        <ele>623.5</ele>
        <time>2013-02-23T08:36:41.000Z</time>
      </trkpt>
      <trkpt lat="47.29895" lon="4.92896">
        <ele>624.4</ele>
        <time>2013-02-23T08:36:44.000Z</time>
      </trkpt>
      <trkpt lat="47.29895" lon="4.92895">
        <ele>624.9</ele>
        <time>2013-02-23T08:36:45.000Z</time>
      </trkpt>
      <trkpt lat="47.29895" lon="4.92889">
        <ele>626</ele>
        <time>2013-02-23T08:36:48.000Z</time>
      </trkpt>
      <trkpt lat="47.29896" lon="4.92886">
        <ele>626.2</ele>
        <time>2013-02-23T08:36:49.000Z</time>
      </trkpt>
      <trkpt lat="47.29896" lon="4.9288">
        <ele>626.9</ele>
        <time>2013-02-23T08:36:52.000Z</time>
      </trkpt>
      <trkpt lat="47.29896" lon="4.92878">
        <ele>627.1</ele>
        <time>2013-02-23T08:36:53.000Z</time>
      </trkpt>
      <trkpt lat="47.29897" lon="4.92873">
        <ele>628.1</ele>
        <time>2013-02-23T08:36:56.000Z</time>
      </trkpt>
      <trkpt lat="47.29897" lon="4.92871">
        <ele>628.4</ele>
        <time>2013-02-23T08:36:57.000Z</time>
      </trkpt>
      <trkpt lat="47.29898" lon="4.92865">
        <ele>627.5</ele>
        <time>2013-02-23T08:37:01.000Z</time>
      </trkpt>
      <trkpt lat="47.29898" lon="4.92863">
        <ele>627.3</ele>
        <time>2013-02-23T08:37:02.000Z</time>
      </trkpt>
      <trkpt lat="47.29898" lon="4.92858">
        <ele>626.9</ele>
        <time>2013-02-23T08:37:05.000Z</time>
      </trkpt>
      <trkpt lat="47.29898" lon="4.92856">
        <ele>626.5</ele>
        <time>2013-02-23T08:37:06.000Z</time>
      </trkpt>
      <trkpt lat="47.29898" lon="4.92851">
        <ele>626.3</ele>
        <time>2013-02-23T08:37:09.000Z</time>
      </trkpt>
      <trkpt lat="47.29898" lon="4.92849">
        <ele>626.4</ele>
        <time>2013-02-23T08:37:10.000Z</time>
      </trkpt>
      <trkpt lat="47.29898" lon="4.92843">
        <ele>626</ele>
        <time>2013-02-23T08:37:13.000Z</time>
      </trkpt>
      <trkpt lat="47.29898" lon="4.92842">
        <ele>626</ele>
        <time>2013-02-23T08:37:14.000Z</time>
      </trkpt>
      <trkpt lat="47.29898" lon="4.92837">
        <ele>626.3</ele>
        <time>2013-02-23T08:37:17.000Z</time>
      </trkpt>
      <trkpt lat="47.29898" lon="4.92835">
        <ele>626.3</ele>
        <time>2013-02-23T08:37:18.000Z</time>
      </trkpt>
      <trkpt lat="47.29897" lon="4.9283">
        <ele>626.7</ele>
        <time>2013-02-23T08:37:21.000Z</time>
      </trkpt>
      <trkpt lat="47.29897" lon="4.92828">
        <ele>626.8</ele>
        <time>2013-02-23T08:37:22.000Z</time>
      </trkpt>
      <trkpt lat="47.29896" lon="4.92823">
        <ele>626.9</ele>
        <time>2013-02-23T08:37:25.000Z</time>
      </trkpt>
      <trkpt lat="47.29896" lon="4.92821">
        <ele>627.1</ele>
        <time>2013-02-23T08:37:26.000Z</time>
      </trkpt>
      <trkpt lat="47.29894" lon="4.92816">
        <ele>627.6</ele>
        <time>2013-02-23T08:37:30.000Z</time>
      </trkpt>
      <trkpt lat="47.2989" lon="4.928">
        <ele>629</ele>
        <time>2013-02-23T08:37:37.000Z</time>
      </trkpt>
      <trkpt lat="47.29886" lon="4.92799">
        <ele>631.1</ele>
        <time>2013-02-23T08:37:41.000Z</time>
      </trkpt>
      <trkpt lat="47.29886" lon="4.92797">
        <ele>631.6</ele>
        <time>2013-02-23T08:37:42.000Z</time>
      </trkpt>
      <trkpt lat="47.29882" lon="4.92793">
        <ele>631.9</ele>
        <time>2013-02-23T08:37:46.000Z</time>
      </trkpt>
      <trkpt lat="47.29881" lon="4.92792">
        <ele>632.2</ele>
        <time>2013-02-23T08:37:47.000Z</time>
      </trkpt>
      <trkpt lat="47.29878" lon="4.92788">
        <ele>634.2</ele>
        <time>2013-02-23T08:37:51.000Z</time>
      </trkpt>
      <trkpt lat="47.29877" lon="4.92787">
        <ele>634.4</ele>
        <time>2013-02-23T08:37:52.000Z</time>
      </trkpt>
      <trkpt lat="47.29874" lon="4.92784">
        <ele>635.7</ele>
        <time>2013-02-23T08:37:56.000Z</time>
      </trkpt>
      <trkpt lat="47.29873" lon="4.92783">
        <ele>635.8</ele>
        <time>2013-02-23T08:37:57.000Z</time>
      </trkpt>
      <trkpt lat="47.2987" lon="4.92779">
        <ele>636.8</ele>
        <time>2013-02-23T08:38:00.000Z</time>
      </trkpt>
      <trkpt lat="47.29869" lon="4.92777">
        <ele>637.1</ele>
        <time>2013-02-23T08:38:01.000Z</time>
      </trkpt>
      <trkpt lat="47.29865" lon="4.92774">
        <ele>636.6</ele>
        <time>2013-02-23T08:38:04.000Z</time>
      </trkpt>
      <trkpt lat="47.29864" lon="4.92773">
        <ele>636.6</ele>
        <time>2013-02-23T08:38:05.000Z</time>
      </trkpt>
      <trkpt lat="47.29861" lon="4.92771">
        <ele>635.4</ele>
        <time>2013-02-23T08:38:30.000Z</time>
      </trkpt>
      <trkpt lat="47.29858" lon="4.92776">
        <ele>632.9</ele>
        <time>2013-02-23T08:38:37.000Z</time>
      </trkpt>
      <trkpt lat="47.29856" lon="4.92781">
        <ele>635.3</ele>
        <time>2013-02-23T08:38:43.000Z</time>
      </trkpt>
      <trkpt lat="47.29856" lon="4.92782">
        <ele>635.1</ele>
        <time>2013-02-23T08:38:44.000Z</time>
      </trkpt>
      <trkpt lat="47.29856" lon="4.92787">
        <ele>634.8</ele>
        <time>2013-02-23T08:38:49.000Z</time>
      </trkpt>
      <trkpt lat="47.29856" lon="4.92789">
        <ele>636</ele>
        <time>2013-02-23T08:38:50.000Z</time>
      </trkpt>
      <trkpt lat="47.29856" lon="4.92795">
        <ele>637.6</ele>
        <time>2013-02-23T08:38:54.000Z</time>
      </trkpt>
      <trkpt lat="47.29856" lon="4.92796">
        <ele>637.6</ele>
        <time>2013-02-23T08:38:55.000Z</time>
      </trkpt>
      <trkpt lat="47.29854" lon="4.92801">
        <ele>638.5</ele>
        <time>2013-02-23T08:38:58.000Z</time>
      </trkpt>
      <trkpt lat="47.29854" lon="4.92803">
        <ele>638.2</ele>
        <time>2013-02-23T08:38:59.000Z</time>
      </trkpt>
      <trkpt lat="47.29853" lon="4.92808">
        <ele>638.4</ele>
        <time>2013-02-23T08:39:01.000Z</time>
      </trkpt>
      <trkpt lat="47.29852" lon="4.9281">
        <ele>637.6</ele>
        <time>2013-02-23T08:39:02.000Z</time>
      </trkpt>
      <trkpt lat="47.29851" lon="4.92814">
        <ele>637.6</ele>
        <time>2013-02-23T08:39:04.000Z</time>
      </trkpt>
      <trkpt lat="47.29851" lon="4.92816">
        <ele>637.8</ele>
        <time>2013-02-23T08:39:05.000Z</time>
      </trkpt>
      <trkpt lat="47.2985" lon="4.92822">
        <ele>637.2</ele>
        <time>2013-02-23T08:39:08.000Z</time>
      </trkpt>
      <trkpt lat="47.2985" lon="4.92824">
        <ele>637.2</ele>
        <time>2013-02-23T08:39:09.000Z</time>
      </trkpt>
      <trkpt lat="47.29849" lon="4.92828">
        <ele>637.2</ele>
        <time>2013-02-23T08:39:11.000Z</time>
      </trkpt>
      <trkpt lat="47.29848" lon="4.9283">
        <ele>636.9</ele>
        <time>2013-02-23T08:39:12.000Z</time>
      </trkpt>
      <trkpt lat="47.29846" lon="4.92835">
        <ele>636.2</ele>
        <time>2013-02-23T08:39:15.000Z</time>
      </trkpt>
      <trkpt lat="47.29845" lon="4.92837">
        <ele>636.1</ele>
        <time>2013-02-23T08:39:16.000Z</time>
      </trkpt>
      <trkpt lat="47.29844" lon="4.92843">
        <ele>635.1</ele>
        <time>2013-02-23T08:39:20.000Z</time>
      </trkpt>
      <trkpt lat="47.29843" lon="4.92845">
        <ele>635.2</ele>
        <time>2013-02-23T08:39:21.000Z</time>
      </trkpt>
      <trkpt lat="47.29842" lon="4.92851">
        <ele>635</ele>
        <time>2013-02-23T08:39:24.000Z</time>
      </trkpt>
      <trkpt lat="47.29841" lon="4.92853">
        <ele>635</ele>
        <time>2013-02-23T08:39:25.000Z</time>
      </trkpt>
      <trkpt lat="47.29839" lon="4.92858">
        <ele>634.7</ele>
        <time>2013-02-23T08:39:28.000Z</time>
      </trkpt>
      <trkpt lat="47.29838" lon="4.9286">
        <ele>634.3</ele>
        <time>2013-02-23T08:39:29.000Z</time>
      </trkpt>
      <trkpt lat="47.29837" lon="4.92865">
        <ele>633.8</ele>
        <time>2013-02-23T08:39:32.000Z</time>
      </trkpt>
      <trkpt lat="47.29837" lon="4.92867">
        <ele>633.9</ele>
        <time>2013-02-23T08:39:33.000Z</time>
      </trkpt>
      <trkpt lat="47.29836" lon="4.92872">
        <ele>633.7</ele>
        <time>2013-02-23T08:39:36.000Z</time>
      </trkpt>
      <trkpt lat="47.29836" lon="4.92875">
        <ele>633.5</ele>
        <time>2013-02-23T08:39:37.000Z</time>
      </trkpt>
      <trkpt lat="47.29833" lon="4.9288">
        <ele>633.3</ele>
        <time>2013-02-23T08:39:40.000Z</time>
      </trkpt>
      <trkpt lat="47.29833" lon="4.92882">
        <ele>633.2</ele>
        <time>2013-02-23T08:39:41.000Z</time>
      </trkpt>
      <trkpt lat="47.29831" lon="4.92887">
        <ele>633.1</ele>
        <time>2013-02-23T08:39:44.000Z</time>
      </trkpt>
      <trkpt lat="47.29831" lon="4.92889">
        <ele>633.1</ele>
        <time>2013-02-23T08:39:45.000Z</time>
      </trkpt>
      <trkpt lat="47.2983" lon="4.92895">
        <ele>632.8</ele>
        <time>2013-02-23T08:39:48.000Z</time>
      </trkpt>
      <trkpt lat="47.29829" lon="4.92897">
        <ele>632.4</ele>
        <time>2013-02-23T08:39:49.000Z</time>
      </trkpt>
      <trkpt lat="47.29828" lon="4.92903">
        <ele>632</ele>
        <time>2013-02-23T08:39:52.000Z</time>
      </trkpt>
      <trkpt lat="47.29827" lon="4.92905">
        <ele>631.7</ele>
        <time>2013-02-23T08:39:53.000Z</time>
      </trkpt>
      <trkpt lat="47.29825" lon="4.9291">
        <ele>631.4</ele>
        <time>2013-02-23T08:39:56.000Z</time>
      </trkpt>
      <trkpt lat="47.29825" lon="4.92912">
        <ele>631.3</ele>
        <time>2013-02-23T08:39:57.000Z</time>
      </trkpt>
      <trkpt lat="47.29823" lon="4.92917">
        <ele>631</ele>
        <time>2013-02-23T08:40:00.000Z</time>
      </trkpt>
      <trkpt lat="47.29823" lon="4.92919">
        <ele>630.9</ele>
        <time>2013-02-23T08:40:01.000Z</time>
      </trkpt>
      <trkpt lat="47.29821" lon="4.92923">
        <ele>630.6</ele>
        <time>2013-02-23T08:40:03.000Z</time>
      </trkpt>
      <trkpt lat="47.29821" lon="4.92926">
        <ele>630.5</ele>
        <time>2013-02-23T08:40:04.000Z</time>
      </trkpt>
      <trkpt lat="47.2982" lon="4.9293">
        <ele>630.2</ele>
        <time>2013-02-23T08:40:06.000Z</time>
      </trkpt>
      <trkpt lat="47.29819" lon="4.92932">
        <ele>630.1</ele>
        <time>2013-02-23T08:40:07.000Z</time>
      </trkpt>
      <trkpt lat="47.29817" lon="4.92937">
        <ele>629.8</ele>
        <time>2013-02-23T08:40:10.000Z</time>
      </trkpt>
      <trkpt lat="47.29817" lon="4.92939">
        <ele>629.7</ele>
        <time>2013-02-23T08:40:11.000Z</time>
      </trkpt>
      <trkpt lat="47.29816" lon="4.92945">
        <ele>629.5</ele>
        <time>2013-02-23T08:40:14.000Z</time>
      </trkpt>
      <trkpt lat="47.29816" lon="4.92947">
        <ele>629.3</ele>
        <time>2013-02-23T08:40:15.000Z</time>
      </trkpt>
      <trkpt lat="47.29815" lon="4.92953">
        <ele>628.5</ele>
        <time>2013-02-23T08:40:30.000Z</time>
      </trkpt>
      <trkpt lat="47.29812" lon="4.92965">
        <ele>623.3</ele>
        <time>2013-02-23T08:40:38.000Z</time>
      </trkpt>
      <trkpt lat="47.29813" lon="4.92959">
        <ele>625.8</ele>
        <time>2013-02-23T08:40:44.000Z</time>
      </trkpt>
      <trkpt lat="47.29814" lon="4.92958">
        <ele>626.3</ele>
        <time>2013-02-23T08:40:45.000Z</time>
      </trkpt>
      <trkpt lat="47.29817" lon="4.92959">
        <ele>627.6</ele>
        <time>2013-02-23T08:40:48.000Z</time>
      </trkpt>
      <trkpt lat="47.29818" lon="4.92959">
        <ele>626.5</ele>
        <time>2013-02-23T08:40:49.000Z</time>
      </trkpt>
      <trkpt lat="47.29822" lon="4.92961">
        <ele>626.5</ele>
        <time>2013-02-23T08:40:52.000Z</time>
      </trkpt>
      <trkpt lat="47.29823" lon="4.92961">
        <ele>626.5</ele>
        <time>2013-02-23T08:40:53.000Z</time>
      </trkpt>
      <trkpt lat="47.29827" lon="4.92963">
        <ele>627.2</ele>
        <time>2013-02-23T08:40:56.000Z</time>
      </trkpt>
      <trkpt lat="47.29829" lon="4.92963">
        <ele>626.9</ele>
        <time>2013-02-23T08:40:57.000Z</time>
      </trkpt>
      <trkpt lat="47.29832" lon="4.92965">
        <ele>627.4</ele>
        <time>2013-02-23T08:41:00.000Z</time>
      </trkpt>
      <trkpt lat="47.29833" lon="4.92965">
        <ele>627.3</ele>
        <time>2013-02-23T08:41:01.000Z</time>
      </trkpt>
      <trkpt lat="47.29838" lon="4.92966">
        <ele>626.5</ele>
        <time>2013-02-23T08:41:04.000Z</time>
      </trkpt>
      <trkpt lat="47.29839" lon="4.92967">
        <ele>626.5</ele>
        <time>2013-02-23T08:41:05.000Z</time>
      </trkpt>
      <trkpt lat="47.29843" lon="4.9297">
        <ele>626.1</ele>
        <time>2013-02-23T08:41:08.000Z</time>
      </trkpt>
      <trkpt lat="47.29844" lon="4.9297">
        <ele>626.5</ele>
        <time>2013-02-23T08:41:09.000Z</time>
      </trkpt>
      <trkpt lat="47.29847" lon="4.92972">
        <ele>626.5</ele>
        <time>2013-02-23T08:41:11.000Z</time>
      </trkpt>
      <trkpt lat="47.29848" lon="4.92972">
        <ele>626.3</ele>
        <time>2013-02-23T08:41:12.000Z</time>
      </trkpt>
      <trkpt lat="47.29853" lon="4.92972">
        <ele>625.8</ele>
        <time>2013-02-23T08:41:15.000Z</time>
      </trkpt>
      <trkpt lat="47.29854" lon="4.92973">
        <ele>625.6</ele>
        <time>2013-02-23T08:41:16.000Z</time>
      </trkpt>
      <trkpt lat="47.29858" lon="4.92973">
        <ele>625.2</ele>
        <time>2013-02-23T08:41:19.000Z</time>
      </trkpt>
      <trkpt lat="47.29859" lon="4.92974">
        <ele>625</ele>
        <time>2013-02-23T08:41:20.000Z</time>
      </trkpt>
      <trkpt lat="47.29863" lon="4.92975">
        <ele>624.3</ele>
        <time>2013-02-23T08:41:23.000Z</time>
      </trkpt>
      <trkpt lat="47.29864" lon="4.92976">
        <ele>624.2</ele>
        <time>2013-02-23T08:41:24.000Z</time>
      </trkpt>
      <trkpt lat="47.29867" lon="4.92979">
        <ele>623.6</ele>
        <time>2013-02-23T08:41:27.000Z</time>
      </trkpt>
      <trkpt lat="47.29868" lon="4.9298">
        <ele>623.3</ele>
        <time>2013-02-23T08:41:28.000Z</time>
      </trkpt>
      <trkpt lat="47.2987" lon="4.92983">
        <ele>622.5</ele>
        <time>2013-02-23T08:41:30.000Z</time>
      </trkpt>
      <trkpt lat="47.29879" lon="4.93">
        <ele>615.5</ele>
        <time>2013-02-23T08:41:37.000Z</time>
      </trkpt>
      <trkpt lat="47.29879" lon="4.93006">
        <ele>617.3</ele>
        <time>2013-02-23T08:41:41.000Z</time>
      </trkpt>
      <trkpt lat="47.29879" lon="4.93007">
        <ele>618.3</ele>
        <time>2013-02-23T08:41:42.000Z</time>
      </trkpt>
      <trkpt lat="47.29879" lon="4.93012">
        <ele>619</ele>
        <time>2013-02-23T08:41:45.000Z</time>
      </trkpt>
      <trkpt lat="47.29879" lon="4.93014">
        <ele>619</ele>
        <time>2013-02-23T08:41:46.000Z</time>
      </trkpt>
      <trkpt lat="47.29878" lon="4.93021">
        <ele>618.4</ele>
        <time>2013-02-23T08:41:49.000Z</time>
      </trkpt>
      <trkpt lat="47.29878" lon="4.93022">
        <ele>618.5</ele>
        <time>2013-02-23T08:41:50.000Z</time>
      </trkpt>
      <trkpt lat="47.29877" lon="4.93027">
        <ele>619.5</ele>
        <time>2013-02-23T08:41:53.000Z</time>
      </trkpt>
      <trkpt lat="47.29876" lon="4.93028">
        <ele>619.4</ele>
        <time>2013-02-23T08:41:54.000Z</time>
      </trkpt>
      <trkpt lat="47.29875" lon="4.93035">
        <ele>618.4</ele>
        <time>2013-02-23T08:41:57.000Z</time>
      </trkpt>
      <trkpt lat="47.29875" lon="4.93037">
        <ele>618</ele>
        <time>2013-02-23T08:41:58.000Z</time>
      </trkpt>
      <trkpt lat="47.29874" lon="4.93042">
        <ele>617.6</ele>
        <time>2013-02-23T08:42:01.000Z</time>
      </trkpt>
      <trkpt lat="47.29873" lon="4.93044">
        <ele>617.6</ele>
        <time>2013-02-23T08:42:02.000Z</time>
      </trkpt>
      <trkpt lat="47.29872" lon="4.93051">
        <ele>617.5</ele>
        <time>2013-02-23T08:42:05.000Z</time>
      </trkpt>
      <trkpt lat="47.29872" lon="4.93052">
        <ele>617.6</ele>
        <time>2013-02-23T08:42:06.000Z</time>
      </trkpt>
      <trkpt lat="47.29872" lon="4.93058">
        <ele>617.4</ele>
        <time>2013-02-23T08:42:09.000Z</time>
      </trkpt>
      <trkpt lat="47.29872" lon="4.9306">
        <ele>617.3</ele>
        <time>2013-02-23T08:42:10.000Z</time>
      </trkpt>
      <trkpt lat="47.29872" lon="4.93066">
        <ele>617.3</ele>
        <time>2013-02-23T08:42:12.000Z</time>
      </trkpt>
      <trkpt lat="47.29871" lon="4.93068">
        <ele>617.4</ele>
        <time>2013-02-23T08:42:13.000Z</time>
      </trkpt>
      <trkpt lat="47.29871" lon="4.93073">
        <ele>617.5</ele>
        <time>2013-02-23T08:42:15.000Z</time>
      </trkpt>
      <trkpt lat="47.2987" lon="4.93075">
        <ele>617.4</ele>
        <time>2013-02-23T08:42:16.000Z</time>
      </trkpt>
      <trkpt lat="47.29869" lon="4.93081">
        <ele>617.2</ele>
        <time>2013-02-23T08:42:19.000Z</time>
      </trkpt>
      <trkpt lat="47.29868" lon="4.93083">
        <ele>617.2</ele>
        <time>2013-02-23T08:42:20.000Z</time>
      </trkpt>
      <trkpt lat="47.29867" lon="4.93087">
        <ele>616.6</ele>
        <time>2013-02-23T08:42:23.000Z</time>
      </trkpt>
      <trkpt lat="47.29867" lon="4.93089">
        <ele>616.3</ele>
        <time>2013-02-23T08:42:24.000Z</time>
      </trkpt>
      <trkpt lat="47.29865" lon="4.93093">
        <ele>615.9</ele>
        <time>2013-02-23T08:42:27.000Z</time>
      </trkpt>
      <trkpt lat="47.29865" lon="4.93095">
        <ele>615.9</ele>
        <time>2013-02-23T08:42:28.000Z</time>
      </trkpt>
      <trkpt lat="47.29865" lon="4.931">
        <ele>615.9</ele>
        <time>2013-02-23T08:42:30.000Z</time>
      </trkpt>
      <trkpt lat="47.29865" lon="4.93102">
        <ele>615.9</ele>
        <time>2013-02-23T08:42:31.000Z</time>
      </trkpt>
      <trkpt lat="47.2986" lon="4.93115">
        <ele>612.9</ele>
        <time>2013-02-23T08:42:38.000Z</time>
      </trkpt>
      <trkpt lat="47.2986" lon="4.93121">
        <ele>614.1</ele>
        <time>2013-02-23T08:42:41.000Z</time>
      </trkpt>
      <trkpt lat="47.2986" lon="4.93123">
        <ele>614</ele>
        <time>2013-02-23T08:42:42.000Z</time>
      </trkpt>
      <trkpt lat="47.29859" lon="4.93128">
        <ele>615.6</ele>
        <time>2013-02-23T08:42:45.000Z</time>
      </trkpt>
      <trkpt lat="47.29859" lon="4.9313">
        <ele>614.8</ele>
        <time>2013-02-23T08:42:46.000Z</time>
      </trkpt>
      <trkpt lat="47.29859" lon="4.93136">
        <ele>614.7</ele>
        <time>2013-02-23T08:42:49.000Z</time>
      </trkpt>
      <trkpt lat="47.29858" lon="4.93138">
        <ele>614.7</ele>
        <time>2013-02-23T08:42:50.000Z</time>
      </trkpt>
      <trkpt lat="47.29858" lon="4.93143">
        <ele>614.6</ele>
        <time>2013-02-23T08:42:53.000Z</time>
      </trkpt>
      <trkpt lat="47.29858" lon="4.93145">
        <ele>614.6</ele>
        <time>2013-02-23T08:42:54.000Z</time>
      </trkpt>
      <trkpt lat="47.29858" lon="4.9315">
        <ele>614.1</ele>
        <time>2013-02-23T08:42:58.000Z</time>
      </trkpt>
      <trkpt lat="47.29857" lon="4.93151">
        <ele>614.5</ele>
        <time>2013-02-23T08:42:59.000Z</time>
      </trkpt>
      <trkpt lat="47.29857" lon="4.93156">
        <ele>613.9</ele>
        <time>2013-02-23T08:43:02.000Z</time>
      </trkpt>
      <trkpt lat="47.29857" lon="4.93158">
        <ele>613.5</ele>
        <time>2013-02-23T08:43:03.000Z</time>
      </trkpt>
      <trkpt lat="47.29856" lon="4.93164">
        <ele>612.5</ele>
        <time>2013-02-23T08:43:06.000Z</time>
      </trkpt>
      <trkpt lat="47.29856" lon="4.93166">
        <ele>612</ele>
        <time>2013-02-23T08:43:07.000Z</time>
      </trkpt>
      <trkpt lat="47.29856" lon="4.93171">
        <ele>611.4</ele>
        <time>2013-02-23T08:43:10.000Z</time>
      </trkpt>
      <trkpt lat="47.29855" lon="4.93173">
        <ele>611.2</ele>
        <time>2013-02-23T08:43:11.000Z</time>
      </trkpt>
      <trkpt lat="47.29855" lon="4.93179">
        <ele>610.8</ele>
        <time>2013-02-23T08:43:14.000Z</time>
      </trkpt>
      <trkpt lat="47.29854" lon="4.9318">
        <ele>610.7</ele>
        <time>2013-02-23T08:43:15.000Z</time>
      </trkpt>
      <trkpt lat="47.29853" lon="4.93186">
        <ele>610.2</ele>
        <time>2013-02-23T08:43:18.000Z</time>
      </trkpt>
      <trkpt lat="47.29853" lon="4.93189">
        <ele>610.1</ele>
        <time>2013-02-23T08:43:19.000Z</time>
      </trkpt>
      <trkpt lat="47.29853" lon="4.93195">
        <ele>609.9</ele>
        <time>2013-02-23T08:43:22.000Z</time>
      </trkpt>
      <trkpt lat="47.29853" lon="4.93196">
        <ele>609.9</ele>
        <time>2013-02-23T08:43:23.000Z</time>
      </trkpt>
      <trkpt lat="47.29853" lon="4.93202">
        <ele>609.9</ele>
        <time>2013-02-23T08:43:26.000Z</time>
      </trkpt>
      <trkpt lat="47.29852" lon="4.93204">
        <ele>609.8</ele>
        <time>2013-02-23T08:43:27.000Z</time>
      </trkpt>
      <trkpt lat="47.29852" lon="4.93209">
        <ele>609.9</ele>
        <time>2013-02-23T08:43:30.000Z</time>
      </trkpt>
      <trkpt lat="47.29852" lon="4.93211">
        <ele>609.9</ele>
        <time>2013-02-23T08:43:31.000Z</time>
      </trkpt>
      <trkpt lat="47.29848" lon="4.93227">
        <ele>607</ele>
        <time>2013-02-23T08:43:38.000Z</time>
      </trkpt>
      <trkpt lat="47.29848" lon="4.93232">
        <ele>608.4</ele>
        <time>2013-02-23T08:43:41.000Z</time>
      </trkpt>
      <trkpt lat="47.29848" lon="4.93234">
        <ele>608.6</ele>
        <time>2013-02-23T08:43:42.000Z</time>
      </trkpt>
      <trkpt lat="47.29847" lon="4.9324">
        <ele>609.2</ele>
        <time>2013-02-23T08:43:46.000Z</time>
      </trkpt>
      <trkpt lat="47.29846" lon="4.93242">
        <ele>608.9</ele>
        <time>2013-02-23T08:43:47.000Z</time>
      </trkpt>
      <trkpt lat="47.29845" lon="4.93247">
        <ele>609.9</ele>
        <time>2013-02-23T08:43:50.000Z</time>
      </trkpt>
      <trkpt lat="47.29844" lon="4.93249">
        <ele>609.5</ele>
        <time>2013-02-23T08:43:51.000Z</time>
      </trkpt>
      <trkpt lat="47.29843" lon="4.93254">
        <ele>609.9</ele>
        <time>2013-02-23T08:43:54.000Z</time>
      </trkpt>
      <trkpt lat="47.29843" lon="4.93256">
        <ele>610.4</ele>
        <time>2013-02-23T08:43:55.000Z</time>
      </trkpt>
      <trkpt lat="47.29842" lon="4.93261">
        <ele>610.7</ele>
        <time>2013-02-23T08:43:57.000Z</time>
      </trkpt>
      <trkpt lat="47.29842" lon="4.93263">
        <ele>610.5</ele>
        <time>2013-02-23T08:43:58.000Z</time>
      </trkpt>
      <trkpt lat="47.2984" lon="4.93269">
        <ele>609.4</ele>
        <time>2013-02-23T08:44:01.000Z</time>
      </trkpt>
      <trkpt lat="47.2984" lon="4.9327">
        <ele>608.8</ele>
        <time>2013-02-23T08:44:02.000Z</time>
      </trkpt>
      <trkpt lat="47.29839" lon="4.93276">
        <ele>608.7</ele>
        <time>2013-02-23T08:44:05.000Z</time>
      </trkpt>
      <trkpt lat="47.29838" lon="4.93278">
        <ele>608.6</ele>
        <time>2013-02-23T08:44:06.000Z</time>
      </trkpt>
      <trkpt lat="47.29836" lon="4.93283">
        <ele>608.6</ele>
        <time>2013-02-23T08:44:09.000Z</time>
      </trkpt>
      <trkpt lat="47.29836" lon="4.93284">
        <ele>608.5</ele>
        <time>2013-02-23T08:44:10.000Z</time>
      </trkpt>
      <trkpt lat="47.29835" lon="4.93289">
        <ele>608.6</ele>
        <time>2013-02-23T08:44:13.000Z</time>
      </trkpt>
      <trkpt lat="47.29835" lon="4.9329">
        <ele>608.4</ele>
        <time>2013-02-23T08:44:14.000Z</time>
      </trkpt>
      <trkpt lat="47.29832" lon="4.93295">
        <ele>607.9</ele>
        <time>2013-02-23T08:44:17.000Z</time>
      </trkpt>
      <trkpt lat="47.29831" lon="4.93296">
        <ele>607.8</ele>
        <time>2013-02-23T08:44:18.000Z</time>
      </trkpt>
      <trkpt lat="47.29829" lon="4.93302">
        <ele>607.4</ele>
        <time>2013-02-23T08:44:21.000Z</time>
      </trkpt>
      <trkpt lat="47.29829" lon="4.93303">
        <ele>607.4</ele>
        <time>2013-02-23T08:44:22.000Z</time>
      </trkpt>
      <trkpt lat="47.29826" lon="4.93308">
        <ele>606.9</ele>
        <time>2013-02-23T08:44:25.000Z</time>
      </trkpt>
      <trkpt lat="47.29826" lon="4.9331">
        <ele>606.7</ele>
        <time>2013-02-23T08:44:26.000Z</time>
      </trkpt>
      <trkpt lat="47.29824" lon="4.93316">
        <ele>606.7</ele>
        <time>2013-02-23T08:44:29.000Z</time>
      </trkpt>
      <trkpt lat="47.29823" lon="4.93317">
        <ele>606.7</ele>
        <time>2013-02-23T08:44:30.000Z</time>
      </trkpt>
      <trkpt lat="47.29822" lon="4.93319">
        <ele>606.8</ele>
        <time>2013-02-23T08:44:31.000Z</time>
      </trkpt>
      <trkpt lat="47.29817" lon="4.93333">
        <ele>607.7</ele>
        <time>2013-02-23T08:44:38.000Z</time>
      </trkpt>
      <trkpt lat="47.29814" lon="4.93336">
        <ele>608.9</ele>
        <time>2013-02-23T08:44:41.000Z</time>
      </trkpt>
      <trkpt lat="47.29813" lon="4.93337">
        <ele>609</ele>
        <time>2013-02-23T08:44:42.000Z</time>
      </trkpt>
      <trkpt lat="47.2981" lon="4.93341">
        <ele>608.6</ele>
        <time>2013-02-23T08:44:46.000Z</time>
      </trkpt>
      <trkpt lat="47.29809" lon="4.93342">
        <ele>608.7</ele>
        <time>2013-02-23T08:44:47.000Z</time>
      </trkpt>
      <trkpt lat="47.29806" lon="4.93344">
        <ele>608.6</ele>
        <time>2013-02-23T08:44:50.000Z</time>
      </trkpt>
      <trkpt lat="47.29805" lon="4.93345">
        <ele>608.8</ele>
        <time>2013-02-23T08:44:51.000Z</time>
      </trkpt>
      <trkpt lat="47.29802" lon="4.93347">
        <ele>608.6</ele>
        <time>2013-02-23T08:44:53.000Z</time>
      </trkpt>
      <trkpt lat="47.298" lon="4.93348">
        <ele>608.3</ele>
        <time>2013-02-23T08:44:54.000Z</time>
      </trkpt>
      <trkpt lat="47.29797" lon="4.93349">
        <ele>607.8</ele>
        <time>2013-02-23T08:44:56.000Z</time>
      </trkpt>
      <trkpt lat="47.29796" lon="4.9335">
        <ele>607.7</ele>
        <time>2013-02-23T08:44:57.000Z</time>
      </trkpt>
      <trkpt lat="47.29791" lon="4.93353">
        <ele>607.5</ele>
        <time>2013-02-23T08:45:00.000Z</time>
      </trkpt>
      <trkpt lat="47.2979" lon="4.93354">
        <ele>607.3</ele>
        <time>2013-02-23T08:45:01.000Z</time>
      </trkpt>
      <trkpt lat="47.29787" lon="4.93354">
        <ele>607.7</ele>
        <time>2013-02-23T08:45:03.000Z</time>
      </trkpt>
      <trkpt lat="47.29785" lon="4.93355">
        <ele>607.7</ele>
        <time>2013-02-23T08:45:04.000Z</time>
      </trkpt>
      <trkpt lat="47.29782" lon="4.93356">
        <ele>607.3</ele>
        <time>2013-02-23T08:45:06.000Z</time>
      </trkpt>
      <trkpt lat="47.29781" lon="4.93357">
        <ele>606.8</ele>
        <time>2013-02-23T08:45:07.000Z</time>
      </trkpt>
      <trkpt lat="47.29777" lon="4.93358">
        <ele>606.3</ele>
        <time>2013-02-23T08:45:09.000Z</time>
      </trkpt>
      <trkpt lat="47.29776" lon="4.93359">
        <ele>606.2</ele>
        <time>2013-02-23T08:45:10.000Z</time>
      </trkpt>
      <trkpt lat="47.29772" lon="4.93359">
        <ele>606.6</ele>
        <time>2013-02-23T08:45:13.000Z</time>
      </trkpt>
      <trkpt lat="47.2977" lon="4.93359">
        <ele>606.5</ele>
        <time>2013-02-23T08:45:14.000Z</time>
      </trkpt>
      <trkpt lat="47.29766" lon="4.93359">
        <ele>606.5</ele>
        <time>2013-02-23T08:45:17.000Z</time>
      </trkpt>
      <trkpt lat="47.29764" lon="4.93359">
        <ele>606.6</ele>
        <time>2013-02-23T08:45:18.000Z</time>
      </trkpt>
      <trkpt lat="47.29761" lon="4.93359">
        <ele>606.4</ele>
        <time>2013-02-23T08:45:20.000Z</time>
      </trkpt>
      <trkpt lat="47.2976" lon="4.93359">
        <ele>606.4</ele>
        <time>2013-02-23T08:45:21.000Z</time>
      </trkpt>
      <trkpt lat="47.29756" lon="4.93359">
        <ele>606.7</ele>
        <time>2013-02-23T08:45:24.000Z</time>
      </trkpt>
      <trkpt lat="47.29754" lon="4.93358">
        <ele>606.7</ele>
        <time>2013-02-23T08:45:25.000Z</time>
      </trkpt>
      <trkpt lat="47.29751" lon="4.93358">
        <ele>606.7</ele>
        <time>2013-02-23T08:45:27.000Z</time>
      </trkpt>
      <trkpt lat="47.29749" lon="4.93358">
        <ele>606.8</ele>
        <time>2013-02-23T08:45:28.000Z</time>
      </trkpt>
      <trkpt lat="47.29746" lon="4.93357">
        <ele>606.7</ele>
        <time>2013-02-23T08:45:30.000Z</time>
      </trkpt>
      <trkpt lat="47.29745" lon="4.93356">
        <ele>606.9</ele>
        <time>2013-02-23T08:45:31.000Z</time>
      </trkpt>
      <trkpt lat="47.2973" lon="4.93351">
        <ele>608.8</ele>
        <time>2013-02-23T08:45:38.000Z</time>
      </trkpt>
      <trkpt lat="47.29726" lon="4.93351">
        <ele>609.3</ele>
        <time>2013-02-23T08:45:43.000Z</time>
      </trkpt>
      <trkpt lat="47.29725" lon="4.9335">
        <ele>609.6</ele>
        <time>2013-02-23T08:45:44.000Z</time>
      </trkpt>
      <trkpt lat="47.29721" lon="4.9335">
        <ele>610.1</ele>
        <time>2013-02-23T08:45:47.000Z</time>
      </trkpt>
      <trkpt lat="47.2972" lon="4.9335">
        <ele>610.9</ele>
        <time>2013-02-23T08:45:48.000Z</time>
      </trkpt>
      <trkpt lat="47.29716" lon="4.93348">
        <ele>611.3</ele>
        <time>2013-02-23T08:45:51.000Z</time>
      </trkpt>
      <trkpt lat="47.29715" lon="4.93348">
        <ele>611.1</ele>
        <time>2013-02-23T08:45:52.000Z</time>
      </trkpt>
      <trkpt lat="47.29712" lon="4.93348">
        <ele>611.4</ele>
        <time>2013-02-23T08:45:54.000Z</time>
      </trkpt>
      <trkpt lat="47.2971" lon="4.93349">
        <ele>611.2</ele>
        <time>2013-02-23T08:45:55.000Z</time>
      </trkpt>
      <trkpt lat="47.29706" lon="4.93349">
        <ele>611.8</ele>
        <time>2013-02-23T08:45:57.000Z</time>
      </trkpt>
      <trkpt lat="47.29705" lon="4.93349">
        <ele>611.5</ele>
        <time>2013-02-23T08:45:58.000Z</time>
      </trkpt>
      <trkpt lat="47.29701" lon="4.93349">
        <ele>611.8</ele>
        <time>2013-02-23T08:46:01.000Z</time>
      </trkpt>
      <trkpt lat="47.297" lon="4.93349">
        <ele>611.9</ele>
        <time>2013-02-23T08:46:02.000Z</time>
      </trkpt>
      <trkpt lat="47.29697" lon="4.93348">
        <ele>611.5</ele>
        <time>2013-02-23T08:46:04.000Z</time>
      </trkpt>
      <trkpt lat="47.29695" lon="4.93347">
        <ele>611.4</ele>
        <time>2013-02-23T08:46:05.000Z</time>
      </trkpt>
      <trkpt lat="47.29691" lon="4.93346">
        <ele>610.8</ele>
        <time>2013-02-23T08:46:08.000Z</time>
      </trkpt>
      <trkpt lat="47.29689" lon="4.93345">
        <ele>610.7</ele>
        <time>2013-02-23T08:46:09.000Z</time>
      </trkpt>
      <trkpt lat="47.29686" lon="4.93345">
        <ele>610.6</ele>
        <time>2013-02-23T08:46:11.000Z</time>
      </trkpt>
      <trkpt lat="47.29685" lon="4.93344">
        <ele>610.6</ele>
        <time>2013-02-23T08:46:12.000Z</time>
      </trkpt>
      <trkpt lat="47.29681" lon="4.93344">
        <ele>610.9</ele>
        <time>2013-02-23T08:46:15.000Z</time>
      </trkpt>
      <trkpt lat="47.29679" lon="4.93344">
        <ele>610.8</ele>
        <time>2013-02-23T08:46:16.000Z</time>
      </trkpt>
      <trkpt lat="47.29675" lon="4.93343">
        <ele>610.8</ele>
        <time>2013-02-23T08:46:19.000Z</time>
      </trkpt>
      <trkpt lat="47.29674" lon="4.93342">
        <ele>611</ele>
        <time>2013-02-23T08:46:20.000Z</time>
      </trkpt>
      <trkpt lat="47.29671" lon="4.93341">
        <ele>611.2</ele>
        <time>2013-02-23T08:46:22.000Z</time>
      </trkpt>
      <trkpt lat="47.29669" lon="4.93341">
        <ele>611.1</ele>
        <time>2013-02-23T08:46:23.000Z</time>
      </trkpt>
      <trkpt lat="47.29666" lon="4.93339">
        <ele>611.3</ele>
        <time>2013-02-23T08:46:25.000Z</time>
      </trkpt>
      <trkpt lat="47.29664" lon="4.93339">
        <ele>611.4</ele>
        <time>2013-02-23T08:46:26.000Z</time>
      </trkpt>
      <trkpt lat="47.29661" lon="4.93337">
        <ele>611.6</ele>
        <time>2013-02-23T08:46:28.000Z</time>
      </trkpt>
      <trkpt lat="47.2966" lon="4.93337">
        <ele>611.6</ele>
        <time>2013-02-23T08:46:29.000Z</time>
      </trkpt>
      <trkpt lat="47.29657" lon="4.93336">
        <ele>611.5</ele>
        <time>2013-02-23T08:46:31.000Z</time>
      </trkpt>
      <trkpt lat="47.29642" lon="4.9333">
        <ele>613.9</ele>
        <time>2013-02-23T08:46:38.000Z</time>
      </trkpt>
      <trkpt lat="47.29638" lon="4.93331">
        <ele>615.6</ele>
        <time>2013-02-23T08:46:43.000Z</time>
      </trkpt>
      <trkpt lat="47.29637" lon="4.93332">
        <ele>615.4</ele>
        <time>2013-02-23T08:46:44.000Z</time>
      </trkpt>
      <trkpt lat="47.29633" lon="4.93331">
        <ele>615.5</ele>
        <time>2013-02-23T08:46:47.000Z</time>
      </trkpt>
      <trkpt lat="47.29632" lon="4.93331">
        <ele>615.7</ele>
        <time>2013-02-23T08:46:48.000Z</time>
      </trkpt>
      <trkpt lat="47.29628" lon="4.9333">
        <ele>616.1</ele>
        <time>2013-02-23T08:46:51.000Z</time>
      </trkpt>
      <trkpt lat="47.29627" lon="4.9333">
        <ele>616.1</ele>
        <time>2013-02-23T08:46:52.000Z</time>
      </trkpt>
      <trkpt lat="47.29624" lon="4.93329">
        <ele>616.4</ele>
        <time>2013-02-23T08:46:54.000Z</time>
      </trkpt>
      <trkpt lat="47.29622" lon="4.93329">
        <ele>616.2</ele>
        <time>2013-02-23T08:46:55.000Z</time>
      </trkpt>
      <trkpt lat="47.29618" lon="4.93329">
        <ele>616.4</ele>
        <time>2013-02-23T08:46:58.000Z</time>
      </trkpt>
      <trkpt lat="47.29616" lon="4.93328">
        <ele>616.7</ele>
        <time>2013-02-23T08:46:59.000Z</time>
      </trkpt>
      <trkpt lat="47.29612" lon="4.93327">
        <ele>615.8</ele>
        <time>2013-02-23T08:47:02.000Z</time>
      </trkpt>
      <trkpt lat="47.29611" lon="4.93327">
        <ele>615.7</ele>
        <time>2013-02-23T08:47:03.000Z</time>
      </trkpt>
      <trkpt lat="47.29606" lon="4.93326">
        <ele>615.9</ele>
        <time>2013-02-23T08:47:06.000Z</time>
      </trkpt>
      <trkpt lat="47.29605" lon="4.93325">
        <ele>615.7</ele>
        <time>2013-02-23T08:47:07.000Z</time>
      </trkpt>
      <trkpt lat="47.29602" lon="4.93324">
        <ele>615.3</ele>
        <time>2013-02-23T08:47:09.000Z</time>
      </trkpt>
      <trkpt lat="47.296" lon="4.93324">
        <ele>615.2</ele>
        <time>2013-02-23T08:47:10.000Z</time>
      </trkpt>
      <trkpt lat="47.29597" lon="4.93323">
        <ele>614.9</ele>
        <time>2013-02-23T08:47:12.000Z</time>
      </trkpt>
      <trkpt lat="47.29596" lon="4.93323">
        <ele>615</ele>
        <time>2013-02-23T08:47:13.000Z</time>
      </trkpt>
      <trkpt lat="47.29591" lon="4.93321">
        <ele>614.8</ele>
        <time>2013-02-23T08:47:16.000Z</time>
      </trkpt>
      <trkpt lat="47.2959" lon="4.93321">
        <ele>615</ele>
        <time>2013-02-23T08:47:17.000Z</time>
      </trkpt>
      <trkpt lat="47.29586" lon="4.93321">
        <ele>615</ele>
        <time>2013-02-23T08:47:19.000Z</time>
      </trkpt>
      <trkpt lat="47.29584" lon="4.93321">
        <ele>615.2</ele>
        <time>2013-02-23T08:47:20.000Z</time>
      </trkpt>
      <trkpt lat="47.29581" lon="4.93321">
        <ele>615</ele>
        <time>2013-02-23T08:47:22.000Z</time>
      </trkpt>
      <trkpt lat="47.29579" lon="4.9332">
        <ele>614.8</ele>
        <time>2013-02-23T08:47:23.000Z</time>
      </trkpt>
      <trkpt lat="47.29576" lon="4.93319">
        <ele>614.8</ele>
        <time>2013-02-23T08:47:25.000Z</time>
      </trkpt>
      <trkpt lat="47.29574" lon="4.93319">
        <ele>614.9</ele>
        <time>2013-02-23T08:47:26.000Z</time>
      </trkpt>
      <trkpt lat="47.29571" lon="4.93318">
        <ele>614.9</ele>
        <time>2013-02-23T08:47:28.000Z</time>
      </trkpt>
      <trkpt lat="47.29569" lon="4.93318">
        <ele>614.7</ele>
        <time>2013-02-23T08:47:29.000Z</time>
      </trkpt>
      <trkpt lat="47.29566" lon="4.93318">
        <ele>614.5</ele>
        <time>2013-02-23T08:47:31.000Z</time>
      </trkpt>
      <trkpt lat="47.29556" lon="4.9331">
        <ele>618</ele>
        <time>2013-02-23T08:47:38.000Z</time>
      </trkpt>
      <trkpt lat="47.29552" lon="4.93311">
        <ele>616.3</ele>
        <time>2013-02-23T08:47:41.000Z</time>
      </trkpt>
      <trkpt lat="47.2955" lon="4.93311">
        <ele>616.7</ele>
        <time>2013-02-23T08:47:42.000Z</time>
      </trkpt>
      <trkpt lat="47.29546" lon="4.93311">
        <ele>618</ele>
        <time>2013-02-23T08:47:44.000Z</time>
      </trkpt>
      <trkpt lat="47.29545" lon="4.93311">
        <ele>617.7</ele>
        <time>2013-02-23T08:47:45.000Z</time>
      </trkpt>
      <trkpt lat="47.29541" lon="4.93309">
        <ele>618.6</ele>
        <time>2013-02-23T08:47:48.000Z</time>
      </trkpt>
      <trkpt lat="47.2954" lon="4.93308">
        <ele>618.2</ele>
        <time>2013-02-23T08:47:49.000Z</time>
      </trkpt>
      <trkpt lat="47.29537" lon="4.93308">
        <ele>617.3</ele>
        <time>2013-02-23T08:47:51.000Z</time>
      </trkpt>
      <trkpt lat="47.29535" lon="4.93308">
        <ele>617.4</ele>
        <time>2013-02-23T08:47:52.000Z</time>
      </trkpt>
      <trkpt lat="47.29532" lon="4.93307">
        <ele>617.3</ele>
        <time>2013-02-23T08:47:54.000Z</time>
      </trkpt>
      <trkpt lat="47.2953" lon="4.93307">
        <ele>617.1</ele>
        <time>2013-02-23T08:47:55.000Z</time>
      </trkpt>
      <trkpt lat="47.29526" lon="4.93306">
        <ele>617.4</ele>
        <time>2013-02-23T08:47:58.000Z</time>
      </trkpt>
      <trkpt lat="47.29524" lon="4.93306">
        <ele>617.2</ele>
        <time>2013-02-23T08:47:59.000Z</time>
      </trkpt>
      <trkpt lat="47.2952" lon="4.93305">
        <ele>616.8</ele>
        <time>2013-02-23T08:48:02.000Z</time>
      </trkpt>
      <trkpt lat="47.29519" lon="4.93305">
        <ele>616.4</ele>
        <time>2013-02-23T08:48:03.000Z</time>
      </trkpt>
      <trkpt lat="47.29516" lon="4.93303">
        <ele>616.8</ele>
        <time>2013-02-23T08:48:06.000Z</time>
      </trkpt>
      <trkpt lat="47.29515" lon="4.93302">
        <ele>617</ele>
        <time>2013-02-23T08:48:07.000Z</time>
      </trkpt>
      <trkpt lat="47.29511" lon="4.93302">
        <ele>616.7</ele>
        <time>2013-02-23T08:48:09.000Z</time>
      </trkpt>
      <trkpt lat="47.2951" lon="4.93301">
        <ele>616.6</ele>
        <time>2013-02-23T08:48:10.000Z</time>
      </trkpt>
      <trkpt lat="47.29506" lon="4.933">
        <ele>616.5</ele>
        <time>2013-02-23T08:48:13.000Z</time>
      </trkpt>
      <trkpt lat="47.29505" lon="4.933">
        <ele>616.4</ele>
        <time>2013-02-23T08:48:14.000Z</time>
      </trkpt>
      <trkpt lat="47.29501" lon="4.93301">
        <ele>616.1</ele>
        <time>2013-02-23T08:48:17.000Z</time>
      </trkpt>
      <trkpt lat="47.29499" lon="4.93301">
        <ele>615.9</ele>
        <time>2013-02-23T08:48:18.000Z</time>
      </trkpt>
      <trkpt lat="47.29495" lon="4.933">
        <ele>615.5</ele>
        <time>2013-02-23T08:48:21.000Z</time>
      </trkpt>
      <trkpt lat="47.29494" lon="4.93299">
        <ele>615.4</ele>
        <time>2013-02-23T08:48:22.000Z</time>
      </trkpt>
      <trkpt lat="47.2949" lon="4.93299">
        <ele>615.4</ele>
        <time>2013-02-23T08:48:25.000Z</time>
      </trkpt>
      <trkpt lat="47.29488" lon="4.93299">
        <ele>615.5</ele>
        <time>2013-02-23T08:48:26.000Z</time>
      </trkpt>
      <trkpt lat="47.29485" lon="4.93297">
        <ele>615.5</ele>
        <time>2013-02-23T08:48:28.000Z</time>
      </trkpt>
      <trkpt lat="47.29483" lon="4.93296">
        <ele>615.4</ele>
        <time>2013-02-23T08:48:29.000Z</time>
      </trkpt>
      <trkpt lat="47.29479" lon="4.93295">
        <ele>615.2</ele>
        <time>2013-02-23T08:48:31.000Z</time>
      </trkpt>
      <trkpt lat="47.29464" lon="4.93292">
        <ele>617.4</ele>
        <time>2013-02-23T08:48:38.000Z</time>
      </trkpt>
      <trkpt lat="47.2946" lon="4.93289">
        <ele>620.3</ele>
        <time>2013-02-23T08:48:40.000Z</time>
      </trkpt>
      <trkpt lat="47.29459" lon="4.93288">
        <ele>619.1</ele>
        <time>2013-02-23T08:48:41.000Z</time>
      </trkpt>
      <trkpt lat="47.29455" lon="4.9329">
        <ele>616.4</ele>
        <time>2013-02-23T08:48:44.000Z</time>
      </trkpt>
      <trkpt lat="47.29453" lon="4.93289">
        <ele>615.5</ele>
        <time>2013-02-23T08:48:45.000Z</time>
      </trkpt>
      <trkpt lat="47.29449" lon="4.93288">
        <ele>615.2</ele>
        <time>2013-02-23T08:48:48.000Z</time>
      </trkpt>
      <trkpt lat="47.29447" lon="4.93286">
        <ele>615.7</ele>
        <time>2013-02-23T08:48:49.000Z</time>
      </trkpt>
      <trkpt lat="47.29443" lon="4.93285">
        <ele>615.7</ele>
        <time>2013-02-23T08:48:52.000Z</time>
      </trkpt>
      <trkpt lat="47.29442" lon="4.93285">
        <ele>615.4</ele>
        <time>2013-02-23T08:48:53.000Z</time>
      </trkpt>
      <trkpt lat="47.29439" lon="4.93284">
        <ele>614.7</ele>
        <time>2013-02-23T08:48:55.000Z</time>
      </trkpt>
      <trkpt lat="47.29437" lon="4.93283">
        <ele>614.8</ele>
        <time>2013-02-23T08:48:56.000Z</time>
      </trkpt>
      <trkpt lat="47.29434" lon="4.93283">
        <ele>614.2</ele>
        <time>2013-02-23T08:48:58.000Z</time>
      </trkpt>
      <trkpt lat="47.29432" lon="4.93282">
        <ele>614.4</ele>
        <time>2013-02-23T08:48:59.000Z</time>
      </trkpt>
      <trkpt lat="47.29428" lon="4.93281">
        <ele>614.5</ele>
        <time>2013-02-23T08:49:02.000Z</time>
      </trkpt>
      <trkpt lat="47.29427" lon="4.93281">
        <ele>614.3</ele>
        <time>2013-02-23T08:49:03.000Z</time>
      </trkpt>
      <trkpt lat="47.29424" lon="4.9328">
        <ele>614.6</ele>
        <time>2013-02-23T08:49:05.000Z</time>
      </trkpt>
      <trkpt lat="47.29422" lon="4.9328">
        <ele>614.9</ele>
        <time>2013-02-23T08:49:06.000Z</time>
      </trkpt>
      <trkpt lat="47.29419" lon="4.9328">
        <ele>614.6</ele>
        <time>2013-02-23T08:49:08.000Z</time>
      </trkpt>
      <trkpt lat="47.29418" lon="4.93279">
        <ele>614.6</ele>
        <time>2013-02-23T08:49:09.000Z</time>
      </trkpt>
      <trkpt lat="47.29413" lon="4.93278">
        <ele>615</ele>
        <time>2013-02-23T08:49:12.000Z</time>
      </trkpt>
      <trkpt lat="47.29412" lon="4.93278">
        <ele>614.8</ele>
        <time>2013-02-23T08:49:13.000Z</time>
      </trkpt>
      <trkpt lat="47.29408" lon="4.93276">
        <ele>615</ele>
        <time>2013-02-23T08:49:16.000Z</time>
      </trkpt>
      <trkpt lat="47.29407" lon="4.93276">
        <ele>614.9</ele>
        <time>2013-02-23T08:49:17.000Z</time>
      </trkpt>
      <trkpt lat="47.29404" lon="4.93275">
        <ele>615.3</ele>
        <time>2013-02-23T08:49:19.000Z</time>
      </trkpt>
      <trkpt lat="47.29402" lon="4.93274">
        <ele>615.5</ele>
        <time>2013-02-23T08:49:20.000Z</time>
      </trkpt>
      <trkpt lat="47.29398" lon="4.93273">
        <ele>615.8</ele>
        <time>2013-02-23T08:49:22.000Z</time>
      </trkpt>
      <trkpt lat="47.29397" lon="4.93272">
        <ele>615.7</ele>
        <time>2013-02-23T08:49:23.000Z</time>
      </trkpt>
      <trkpt lat="47.29394" lon="4.93272">
        <ele>615.8</ele>
        <time>2013-02-23T08:49:25.000Z</time>
      </trkpt>
      <trkpt lat="47.29392" lon="4.93271">
        <ele>616.1</ele>
        <time>2013-02-23T08:49:26.000Z</time>
      </trkpt>
      <trkpt lat="47.29388" lon="4.93271">
        <ele>615.8</ele>
        <time>2013-02-23T08:49:28.000Z</time>
      </trkpt>
      <trkpt lat="47.29386" lon="4.93271">
        <ele>615.7</ele>
        <time>2013-02-23T08:49:29.000Z</time>
      </trkpt>
      <trkpt lat="47.29383" lon="4.93271">
        <ele>615.6</ele>
        <time>2013-02-23T08:49:31.000Z</time>
      </trkpt>
      <trkpt lat="47.29368" lon="4.93263">
        <ele>616</ele>
        <time>2013-02-23T08:49:38.000Z</time>
      </trkpt>
      <trkpt lat="47.29364" lon="4.93263">
        <ele>617.6</ele>
        <time>2013-02-23T08:49:42.000Z</time>
      </trkpt>
      <trkpt lat="47.29363" lon="4.93263">
        <ele>617.6</ele>
        <time>2013-02-23T08:49:43.000Z</time>
      </trkpt>
      <trkpt lat="47.29364" lon="4.93268">
        <ele>619.9</ele>
        <time>2013-02-23T08:50:00.000Z</time>
      </trkpt>
      <trkpt lat="47.29365" lon="4.93268">
        <ele>620.5</ele>
        <time>2013-02-23T08:50:01.000Z</time>
      </trkpt>
      <trkpt lat="47.29368" lon="4.93272">
        <ele>620</ele>
        <time>2013-02-23T08:50:06.000Z</time>
      </trkpt>
      <trkpt lat="47.29369" lon="4.93273">
        <ele>619.7</ele>
        <time>2013-02-23T08:50:07.000Z</time>
      </trkpt>
      <trkpt lat="47.29372" lon="4.93275">
        <ele>619.2</ele>
        <time>2013-02-23T08:50:10.000Z</time>
      </trkpt>
      <trkpt lat="47.29373" lon="4.93276">
        <ele>619.1</ele>
        <time>2013-02-23T08:50:11.000Z</time>
      </trkpt>
      <trkpt lat="47.29376" lon="4.9328">
        <ele>618.9</ele>
        <time>2013-02-23T08:50:14.000Z</time>
      </trkpt>
      <trkpt lat="47.29377" lon="4.93281">
        <ele>618.8</ele>
        <time>2013-02-23T08:50:15.000Z</time>
      </trkpt>
      <trkpt lat="47.2938" lon="4.93284">
        <ele>618.4</ele>
        <time>2013-02-23T08:50:18.000Z</time>
      </trkpt>
      <trkpt lat="47.29381" lon="4.93285">
        <ele>618.1</ele>
        <time>2013-02-23T08:50:19.000Z</time>
      </trkpt>
      <trkpt lat="47.29383" lon="4.9329">
        <ele>617.8</ele>
        <time>2013-02-23T08:50:22.000Z</time>
      </trkpt>
      <trkpt lat="47.29384" lon="4.93291">
        <ele>617.6</ele>
        <time>2013-02-23T08:50:23.000Z</time>
      </trkpt>
      <trkpt lat="47.29386" lon="4.93296">
        <ele>617.4</ele>
        <time>2013-02-23T08:50:26.000Z</time>
      </trkpt>
      <trkpt lat="47.29387" lon="4.93298">
        <ele>617.2</ele>
        <time>2013-02-23T08:50:27.000Z</time>
      </trkpt>
      <trkpt lat="47.2939" lon="4.93303">
        <ele>616.7</ele>
        <time>2013-02-23T08:50:30.000Z</time>
      </trkpt>
      <trkpt lat="47.2939" lon="4.93304">
        <ele>616.6</ele>
        <time>2013-02-23T08:50:31.000Z</time>
      </trkpt>
      <trkpt lat="47.29392" lon="4.93307">
        <ele>616.4</ele>
        <time>2013-02-23T08:50:33.000Z</time>
      </trkpt>
      <trkpt lat="47.29394" lon="4.93309">
        <ele>616.3</ele>
        <time>2013-02-23T08:50:34.000Z</time>
      </trkpt>
      <trkpt lat="47.29397" lon="4.93312">
        <ele>615.9</ele>
        <time>2013-02-23T08:50:37.000Z</time>
      </trkpt>
      <trkpt lat="47.29398" lon="4.93314">
        <ele>615.8</ele>
        <time>2013-02-23T08:50:38.000Z</time>
      </trkpt>
      <trkpt lat="47.294" lon="4.93316">
        <ele>615.5</ele>
        <time>2013-02-23T08:50:40.000Z</time>
      </trkpt>
      <trkpt lat="47.29402" lon="4.93318">
        <ele>615.2</ele>
        <time>2013-02-23T08:50:41.000Z</time>
      </trkpt>
      <trkpt lat="47.29405" lon="4.93321">
        <ele>614.8</ele>
        <time>2013-02-23T08:50:44.000Z</time>
      </trkpt>
      <trkpt lat="47.29405" lon="4.93322">
        <ele>614.7</ele>
        <time>2013-02-23T08:50:45.000Z</time>
      </trkpt>
      <trkpt lat="47.29408" lon="4.93326">
        <ele>613.7</ele>
        <time>2013-02-23T08:50:50.000Z</time>
      </trkpt>
      <trkpt lat="47.29409" lon="4.93327">
        <ele>613.6</ele>
        <time>2013-02-23T08:50:51.000Z</time>
      </trkpt>
      <trkpt lat="47.29411" lon="4.93328">
        <ele>613.1</ele>
        <time>2013-02-23T08:50:54.000Z</time>
      </trkpt>
      <trkpt lat="47.29413" lon="4.93329">
        <ele>613.1</ele>
        <time>2013-02-23T08:50:55.000Z</time>
      </trkpt>
      <trkpt lat="47.29416" lon="4.93332">
        <ele>613.3</ele>
        <time>2013-02-23T08:50:57.000Z</time>
      </trkpt>
      <trkpt lat="47.29418" lon="4.93333">
        <ele>613.4</ele>
        <time>2013-02-23T08:50:58.000Z</time>
      </trkpt>
      <trkpt lat="47.29422" lon="4.93336">
        <ele>613.1</ele>
        <time>2013-02-23T08:51:01.000Z</time>
      </trkpt>
      <trkpt lat="47.29423" lon="4.93337">
        <ele>613</ele>
        <time>2013-02-23T08:51:02.000Z</time>
      </trkpt>
      <trkpt lat="47.29426" lon="4.93339">
        <ele>612.6</ele>
        <time>2013-02-23T08:51:04.000Z</time>
      </trkpt>
      <trkpt lat="47.29427" lon="4.9334">
        <ele>612.2</ele>
        <time>2013-02-23T08:51:05.000Z</time>
      </trkpt>
      <trkpt lat="47.2943" lon="4.93342">
        <ele>611.7</ele>
        <time>2013-02-23T08:51:07.000Z</time>
      </trkpt>
      <trkpt lat="47.29431" lon="4.93343">
        <ele>611.5</ele>
        <time>2013-02-23T08:51:08.000Z</time>
      </trkpt>
      <trkpt lat="47.29433" lon="4.93346">
        <ele>611.2</ele>
        <time>2013-02-23T08:51:10.000Z</time>
      </trkpt>
      <trkpt lat="47.29435" lon="4.93348">
        <ele>611.2</ele>
        <time>2013-02-23T08:51:11.000Z</time>
      </trkpt>
      <trkpt lat="47.29438" lon="4.93351">
        <ele>610.3</ele>
        <time>2013-02-23T08:51:14.000Z</time>
      </trkpt>
      <trkpt lat="47.29439" lon="4.93352">
        <ele>610</ele>
        <time>2013-02-23T08:51:15.000Z</time>
      </trkpt>
      <trkpt lat="47.29443" lon="4.93354">
        <ele>609.2</ele>
        <time>2013-02-23T08:51:18.000Z</time>
      </trkpt>
      <trkpt lat="47.29444" lon="4.93355">
        <ele>608.9</ele>
        <time>2013-02-23T08:51:19.000Z</time>
      </trkpt>
      <trkpt lat="47.29447" lon="4.93358">
        <ele>608.6</ele>
        <time>2013-02-23T08:51:22.000Z</time>
      </trkpt>
      <trkpt lat="47.29448" lon="4.93359">
        <ele>608.5</ele>
        <time>2013-02-23T08:51:23.000Z</time>
      </trkpt>
      <trkpt lat="47.29451" lon="4.93363">
        <ele>607.8</ele>
        <time>2013-02-23T08:51:26.000Z</time>
      </trkpt>
      <trkpt lat="47.29453" lon="4.93365">
        <ele>607.6</ele>
        <time>2013-02-23T08:51:27.000Z</time>
      </trkpt>
      <trkpt lat="47.29456" lon="4.93369">
        <ele>607.3</ele>
        <time>2013-02-23T08:51:30.000Z</time>
      </trkpt>
      <trkpt lat="47.29457" lon="4.93371">
        <ele>607.2</ele>
        <time>2013-02-23T08:51:31.000Z</time>
      </trkpt>
      <trkpt lat="47.29467" lon="4.93386">
        <ele>600.9</ele>
        <time>2013-02-23T08:51:38.000Z</time>
      </trkpt>
      <trkpt lat="47.29469" lon="4.9339">
        <ele>600.9</ele>
        <time>2013-02-23T08:51:40.000Z</time>
      </trkpt>
      <trkpt lat="47.2947" lon="4.93392">
        <ele>600.4</ele>
        <time>2013-02-23T08:51:41.000Z</time>
      </trkpt>
      <trkpt lat="47.29473" lon="4.93394">
        <ele>598.9</ele>
        <time>2013-02-23T08:51:43.000Z</time>
      </trkpt>
      <trkpt lat="47.29475" lon="4.93395">
        <ele>599</ele>
        <time>2013-02-23T08:51:44.000Z</time>
      </trkpt>
      <trkpt lat="47.29478" lon="4.93399">
        <ele>600.5</ele>
        <time>2013-02-23T08:51:47.000Z</time>
      </trkpt>
      <trkpt lat="47.29478" lon="4.934">
        <ele>600.7</ele>
        <time>2013-02-23T08:51:48.000Z</time>
      </trkpt>
      <trkpt lat="47.29482" lon="4.93403">
        <ele>598.4</ele>
        <time>2013-02-23T08:51:53.000Z</time>
      </trkpt>
      <trkpt lat="47.29483" lon="4.93404">
        <ele>597.4</ele>
        <time>2013-02-23T08:51:54.000Z</time>
      </trkpt>
      <trkpt lat="47.29486" lon="4.93409">
        <ele>597.1</ele>
        <time>2013-02-23T08:51:58.000Z</time>
      </trkpt>
      <trkpt lat="47.29487" lon="4.9341">
        <ele>597.3</ele>
        <time>2013-02-23T08:51:59.000Z</time>
      </trkpt>
      <trkpt lat="47.29489" lon="4.93415">
        <ele>598</ele>
        <time>2013-02-23T08:52:02.000Z</time>
      </trkpt>
      <trkpt lat="47.2949" lon="4.93417">
        <ele>597.1</ele>
        <time>2013-02-23T08:52:03.000Z</time>
      </trkpt>
      <trkpt lat="47.29493" lon="4.93419">
        <ele>596.1</ele>
        <time>2013-02-23T08:52:07.000Z</time>
      </trkpt>
      <trkpt lat="47.29494" lon="4.93419">
        <ele>595.8</ele>
        <time>2013-02-23T08:52:08.000Z</time>
      </trkpt>
      <trkpt lat="47.29497" lon="4.93421">
        <ele>595</ele>
        <time>2013-02-23T08:52:11.000Z</time>
      </trkpt>
      <trkpt lat="47.29498" lon="4.93423">
        <ele>594.6</ele>
        <time>2013-02-23T08:52:12.000Z</time>
      </trkpt>
      <trkpt lat="47.29502" lon="4.93425">
        <ele>594.6</ele>
        <time>2013-02-23T08:52:16.000Z</time>
      </trkpt>
      <trkpt lat="47.29503" lon="4.93426">
        <ele>594.6</ele>
        <time>2013-02-23T08:52:17.000Z</time>
      </trkpt>
      <trkpt lat="47.29506" lon="4.9343">
        <ele>593.6</ele>
        <time>2013-02-23T08:52:20.000Z</time>
      </trkpt>
      <trkpt lat="47.29507" lon="4.93431">
        <ele>593.3</ele>
        <time>2013-02-23T08:52:21.000Z</time>
      </trkpt>
      <trkpt lat="47.2951" lon="4.93434">
        <ele>592.7</ele>
        <time>2013-02-23T08:52:23.000Z</time>
      </trkpt>
      <trkpt lat="47.29511" lon="4.93436">
        <ele>592.3</ele>
        <time>2013-02-23T08:52:24.000Z</time>
      </trkpt>
      <trkpt lat="47.29513" lon="4.93441">
        <ele>591.4</ele>
        <time>2013-02-23T08:52:26.000Z</time>
      </trkpt>
      <trkpt lat="47.29514" lon="4.93443">
        <ele>591.1</ele>
        <time>2013-02-23T08:52:27.000Z</time>
      </trkpt>
      <trkpt lat="47.29514" lon="4.93449">
        <ele>590.8</ele>
        <time>2013-02-23T08:52:29.000Z</time>
      </trkpt>
      <trkpt lat="47.29512" lon="4.93452">
        <ele>590.3</ele>
        <time>2013-02-23T08:52:30.000Z</time>
      </trkpt>
      <trkpt lat="47.29512" lon="4.93457">
        <ele>588.8</ele>
        <time>2013-02-23T08:52:32.000Z</time>
      </trkpt>
      <trkpt lat="47.29512" lon="4.93459">
        <ele>588.2</ele>
        <time>2013-02-23T08:52:33.000Z</time>
      </trkpt>
      <trkpt lat="47.29513" lon="4.93462">
        <ele>587.1</ele>
        <time>2013-02-23T08:52:34.000Z</time>
      </trkpt>
      <trkpt lat="47.29514" lon="4.93465">
        <ele>586.8</ele>
        <time>2013-02-23T08:52:35.000Z</time>
      </trkpt>
      <trkpt lat="47.29516" lon="4.9347">
        <ele>584.3</ele>
        <time>2013-02-23T08:52:38.000Z</time>
      </trkpt>
      <trkpt lat="47.29518" lon="4.93472">
        <ele>583.4</ele>
        <time>2013-02-23T08:52:39.000Z</time>
      </trkpt>
      <trkpt lat="47.29518" lon="4.93472">
        <ele>583.3</ele>
        <time>2013-02-23T08:53:31.000Z</time>
      </trkpt>
      <trkpt lat="47.29511" lon="4.93481">
        <ele>572</ele>
        <time>2013-02-23T08:53:38.000Z</time>
      </trkpt>
      <trkpt lat="47.29513" lon="4.93477">
        <ele>571.9</ele>
        <time>2013-02-23T08:54:18.000Z</time>
      </trkpt>
      <trkpt lat="47.29517" lon="4.93475">
        <ele>573.3</ele>
        <time>2013-02-23T08:54:19.000Z</time>
      </trkpt>
      <trkpt lat="47.29518" lon="4.93482">
        <ele>574.2</ele>
        <time>2013-02-23T08:54:27.000Z</time>
      </trkpt>
      <trkpt lat="47.29518" lon="4.93482">
        <ele>574.4</ele>
        <time>2013-02-23T08:54:28.000Z</time>
      </trkpt>
      <trkpt lat="47.29518" lon="4.93485">
        <ele>574.7</ele>
        <time>2013-02-23T08:54:31.000Z</time>
      </trkpt>
      <trkpt lat="47.29519" lon="4.93489">
        <ele>582.5</ele>
        <time>2013-02-23T08:54:38.000Z</time>
      </trkpt>
      <trkpt lat="47.2952" lon="4.93493">
        <ele>581.5</ele>
        <time>2013-02-23T08:54:41.000Z</time>
      </trkpt>
      <trkpt lat="47.29521" lon="4.93495">
        <ele>580.7</ele>
        <time>2013-02-23T08:54:42.000Z</time>
      </trkpt>
      <trkpt lat="47.29521" lon="4.935">
        <ele>579.4</ele>
        <time>2013-02-23T08:54:46.000Z</time>
      </trkpt>
      <trkpt lat="47.29522" lon="4.93503">
        <ele>578.6</ele>
        <time>2013-02-23T08:54:47.000Z</time>
      </trkpt>
      <trkpt lat="47.29524" lon="4.93509">
        <ele>579.8</ele>
        <time>2013-02-23T08:54:50.000Z</time>
      </trkpt>
      <trkpt lat="47.29524" lon="4.9351">
        <ele>580.1</ele>
        <time>2013-02-23T08:54:51.000Z</time>
      </trkpt>
      <trkpt lat="47.29525" lon="4.93516">
        <ele>579.7</ele>
        <time>2013-02-23T08:54:54.000Z</time>
      </trkpt>
      <trkpt lat="47.29526" lon="4.93518">
        <ele>579.2</ele>
        <time>2013-02-23T08:54:55.000Z</time>
      </trkpt>
      <trkpt lat="47.29527" lon="4.93522">
        <ele>578.6</ele>
        <time>2013-02-23T08:54:57.000Z</time>
      </trkpt>
      <trkpt lat="47.29527" lon="4.93525">
        <ele>577.9</ele>
        <time>2013-02-23T08:54:58.000Z</time>
      </trkpt>
      <trkpt lat="47.29528" lon="4.9353">
        <ele>577.1</ele>
        <time>2013-02-23T08:55:00.000Z</time>
      </trkpt>
      <trkpt lat="47.29529" lon="4.93532">
        <ele>576.7</ele>
        <time>2013-02-23T08:55:01.000Z</time>
      </trkpt>
      <trkpt lat="47.2953" lon="4.93537">
        <ele>576.1</ele>
        <time>2013-02-23T08:55:03.000Z</time>
      </trkpt>
      <trkpt lat="47.2953" lon="4.93539">
        <ele>575.3</ele>
        <time>2013-02-23T08:55:04.000Z</time>
      </trkpt>
      <trkpt lat="47.29532" lon="4.93544">
        <ele>574.1</ele>
        <time>2013-02-23T08:55:06.000Z</time>
      </trkpt>
      <trkpt lat="47.29533" lon="4.93547">
        <ele>573.4</ele>
        <time>2013-02-23T08:55:07.000Z</time>
      </trkpt>
      <trkpt lat="47.29534" lon="4.93552">
        <ele>572.3</ele>
        <time>2013-02-23T08:55:09.000Z</time>
      </trkpt>
      <trkpt lat="47.29534" lon="4.93555">
        <ele>571.7</ele>
        <time>2013-02-23T08:55:10.000Z</time>
      </trkpt>
      <trkpt lat="47.29535" lon="4.93557">
        <ele>571</ele>
        <time>2013-02-23T08:55:11.000Z</time>
      </trkpt>
      <trkpt lat="47.29537" lon="4.9356">
        <ele>569.8</ele>
        <time>2013-02-23T08:55:12.000Z</time>
      </trkpt>
      <trkpt lat="47.29539" lon="4.93564">
        <ele>568.8</ele>
        <time>2013-02-23T08:55:15.000Z</time>
      </trkpt>
      <trkpt lat="47.2954" lon="4.93565">
        <ele>568.7</ele>
        <time>2013-02-23T08:55:16.000Z</time>
      </trkpt>
      <trkpt lat="47.29544" lon="4.93567">
        <ele>568.5</ele>
        <time>2013-02-23T08:55:19.000Z</time>
      </trkpt>
      <trkpt lat="47.29545" lon="4.93568">
        <ele>568.5</ele>
        <time>2013-02-23T08:55:20.000Z</time>
      </trkpt>
      <trkpt lat="47.29549" lon="4.93569">
        <ele>568</ele>
        <time>2013-02-23T08:55:23.000Z</time>
      </trkpt>
      <trkpt lat="47.2955" lon="4.9357">
        <ele>567.9</ele>
        <time>2013-02-23T08:55:24.000Z</time>
      </trkpt>
      <trkpt lat="47.29554" lon="4.93572">
        <ele>567.6</ele>
        <time>2013-02-23T08:55:27.000Z</time>
      </trkpt>
      <trkpt lat="47.29556" lon="4.93572">
        <ele>567.5</ele>
        <time>2013-02-23T08:55:28.000Z</time>
      </trkpt>
      <trkpt lat="47.29559" lon="4.93573">
        <ele>567.4</ele>
        <time>2013-02-23T08:55:30.000Z</time>
      </trkpt>
      <trkpt lat="47.29561" lon="4.93573">
        <ele>567.5</ele>
        <time>2013-02-23T08:55:31.000Z</time>
      </trkpt>
      <trkpt lat="47.29573" lon="4.93575">
        <ele>563.3</ele>
        <time>2013-02-23T08:55:38.000Z</time>
      </trkpt>
      <trkpt lat="47.29576" lon="4.93575">
        <ele>564.1</ele>
        <time>2013-02-23T08:55:41.000Z</time>
      </trkpt>
      <trkpt lat="47.29577" lon="4.93575">
        <ele>565.3</ele>
        <time>2013-02-23T08:55:42.000Z</time>
      </trkpt>
      <trkpt lat="47.29581" lon="4.93576">
        <ele>568</ele>
        <time>2013-02-23T08:55:45.000Z</time>
      </trkpt>
      <trkpt lat="47.29583" lon="4.93576">
        <ele>568.8</ele>
        <time>2013-02-23T08:55:46.000Z</time>
      </trkpt>
      <trkpt lat="47.29586" lon="4.93576">
        <ele>569</ele>
        <time>2013-02-23T08:55:48.000Z</time>
      </trkpt>
      <trkpt lat="47.29587" lon="4.93576">
        <ele>569.1</ele>
        <time>2013-02-23T08:55:49.000Z</time>
      </trkpt>
      <trkpt lat="47.2959" lon="4.93575">
        <ele>568.9</ele>
        <time>2013-02-23T08:55:51.000Z</time>
      </trkpt>
      <trkpt lat="47.29592" lon="4.93575">
        <ele>569</ele>
        <time>2013-02-23T08:55:52.000Z</time>
      </trkpt>
      <trkpt lat="47.29596" lon="4.93574">
        <ele>570</ele>
        <time>2013-02-23T08:55:55.000Z</time>
      </trkpt>
      <trkpt lat="47.29597" lon="4.93573">
        <ele>570</ele>
        <time>2013-02-23T08:55:56.000Z</time>
      </trkpt>
      <trkpt lat="47.29601" lon="4.93571">
        <ele>570.6</ele>
        <time>2013-02-23T08:55:59.000Z</time>
      </trkpt>
      <trkpt lat="47.29602" lon="4.9357">
        <ele>571</ele>
        <time>2013-02-23T08:56:00.000Z</time>
      </trkpt>
      <trkpt lat="47.29605" lon="4.93568">
        <ele>572.3</ele>
        <time>2013-02-23T08:56:03.000Z</time>
      </trkpt>
      <trkpt lat="47.29607" lon="4.93567">
        <ele>572.3</ele>
        <time>2013-02-23T08:56:04.000Z</time>
      </trkpt>
      <trkpt lat="47.2961" lon="4.93564">
        <ele>573.6</ele>
        <time>2013-02-23T08:56:07.000Z</time>
      </trkpt>
      <trkpt lat="47.29611" lon="4.93563">
        <ele>573.8</ele>
        <time>2013-02-23T08:56:08.000Z</time>
      </trkpt>
      <trkpt lat="47.29615" lon="4.9356">
        <ele>574.9</ele>
        <time>2013-02-23T08:56:11.000Z</time>
      </trkpt>
      <trkpt lat="47.29616" lon="4.93559">
        <ele>575.1</ele>
        <time>2013-02-23T08:56:12.000Z</time>
      </trkpt>
      <trkpt lat="47.29619" lon="4.93555">
        <ele>575.2</ele>
        <time>2013-02-23T08:56:15.000Z</time>
      </trkpt>
      <trkpt lat="47.2962" lon="4.93554">
        <ele>575.3</ele>
        <time>2013-02-23T08:56:16.000Z</time>
      </trkpt>
      <trkpt lat="47.29623" lon="4.93552">
        <ele>575.3</ele>
        <time>2013-02-23T08:56:19.000Z</time>
      </trkpt>
      <trkpt lat="47.29624" lon="4.93551">
        <ele>575.5</ele>
        <time>2013-02-23T08:56:20.000Z</time>
      </trkpt>
      <trkpt lat="47.29627" lon="4.93548">
        <ele>576.1</ele>
        <time>2013-02-23T08:56:23.000Z</time>
      </trkpt>
      <trkpt lat="47.29628" lon="4.93547">
        <ele>576.4</ele>
        <time>2013-02-23T08:56:24.000Z</time>
      </trkpt>
      <trkpt lat="47.29631" lon="4.93543">
        <ele>576.4</ele>
        <time>2013-02-23T08:56:27.000Z</time>
      </trkpt>
      <trkpt lat="47.29632" lon="4.93543">
        <ele>576.3</ele>
        <time>2013-02-23T08:56:28.000Z</time>
      </trkpt>
      <trkpt lat="47.29635" lon="4.93539">
        <ele>576.7</ele>
        <time>2013-02-23T08:56:31.000Z</time>
      </trkpt>
      <trkpt lat="47.29643" lon="4.93536">
        <ele>580.8</ele>
        <time>2013-02-23T08:56:37.000Z</time>
      </trkpt>
      <trkpt lat="47.29645" lon="4.9353">
        <ele>585.1</ele>
        <time>2013-02-23T08:56:41.000Z</time>
      </trkpt>
      <trkpt lat="47.29646" lon="4.9353">
        <ele>585.8</ele>
        <time>2013-02-23T08:56:42.000Z</time>
      </trkpt>
      <trkpt lat="47.29649" lon="4.93528">
        <ele>587.8</ele>
        <time>2013-02-23T08:56:45.000Z</time>
      </trkpt>
      <trkpt lat="47.2965" lon="4.93527">
        <ele>588.2</ele>
        <time>2013-02-23T08:56:46.000Z</time>
      </trkpt>
      <trkpt lat="47.29654" lon="4.93525">
        <ele>588.8</ele>
        <time>2013-02-23T08:56:49.000Z</time>
      </trkpt>
      <trkpt lat="47.29655" lon="4.93524">
        <ele>589.2</ele>
        <time>2013-02-23T08:56:50.000Z</time>
      </trkpt>
      <trkpt lat="47.29658" lon="4.93521">
        <ele>590.9</ele>
        <time>2013-02-23T08:56:53.000Z</time>
      </trkpt>
      <trkpt lat="47.2966" lon="4.9352">
        <ele>590.4</ele>
        <time>2013-02-23T08:56:54.000Z</time>
      </trkpt>
      <trkpt lat="47.29663" lon="4.93518">
        <ele>589.9</ele>
        <time>2013-02-23T08:56:57.000Z</time>
      </trkpt>
      <trkpt lat="47.29664" lon="4.93517">
        <ele>589.8</ele>
        <time>2013-02-23T08:56:58.000Z</time>
      </trkpt>
      <trkpt lat="47.29669" lon="4.93515">
        <ele>589.9</ele>
        <time>2013-02-23T08:57:02.000Z</time>
      </trkpt>
      <trkpt lat="47.2967" lon="4.93514">
        <ele>589.8</ele>
        <time>2013-02-23T08:57:03.000Z</time>
      </trkpt>
      <trkpt lat="47.29673" lon="4.93511">
        <ele>590.2</ele>
        <time>2013-02-23T08:57:06.000Z</time>
      </trkpt>
      <trkpt lat="47.29674" lon="4.9351">
        <ele>590.3</ele>
        <time>2013-02-23T08:57:07.000Z</time>
      </trkpt>
      <trkpt lat="47.29678" lon="4.93508">
        <ele>589.7</ele>
        <time>2013-02-23T08:57:10.000Z</time>
      </trkpt>
      <trkpt lat="47.29679" lon="4.93507">
        <ele>589.5</ele>
        <time>2013-02-23T08:57:11.000Z</time>
      </trkpt>
      <trkpt lat="47.29682" lon="4.93503">
        <ele>588.8</ele>
        <time>2013-02-23T08:57:14.000Z</time>
      </trkpt>
      <trkpt lat="47.29683" lon="4.93502">
        <ele>588.8</ele>
        <time>2013-02-23T08:57:15.000Z</time>
      </trkpt>
      <trkpt lat="47.29686" lon="4.93499">
        <ele>588.7</ele>
        <time>2013-02-23T08:57:17.000Z</time>
      </trkpt>
      <trkpt lat="47.29688" lon="4.93498">
        <ele>588.6</ele>
        <time>2013-02-23T08:57:18.000Z</time>
      </trkpt>
      <trkpt lat="47.29692" lon="4.93497">
        <ele>589.3</ele>
        <time>2013-02-23T08:57:21.000Z</time>
      </trkpt>
      <trkpt lat="47.29693" lon="4.93496">
        <ele>589.6</ele>
        <time>2013-02-23T08:57:22.000Z</time>
      </trkpt>
      <trkpt lat="47.29697" lon="4.93494">
        <ele>590</ele>
        <time>2013-02-23T08:57:25.000Z</time>
      </trkpt>
      <trkpt lat="47.29698" lon="4.93493">
        <ele>590.1</ele>
        <time>2013-02-23T08:57:26.000Z</time>
      </trkpt>
      <trkpt lat="47.29702" lon="4.9349">
        <ele>590.9</ele>
        <time>2013-02-23T08:57:29.000Z</time>
      </trkpt>
      <trkpt lat="47.29703" lon="4.93491">
        <ele>591.1</ele>
        <time>2013-02-23T08:57:30.000Z</time>
      </trkpt>
      <trkpt lat="47.29704" lon="4.93491">
        <ele>591.4</ele>
        <time>2013-02-23T08:57:31.000Z</time>
      </trkpt>
      <trkpt lat="47.29718" lon="4.93492">
        <ele>597.3</ele>
        <time>2013-02-23T08:57:38.000Z</time>
      </trkpt>
      <trkpt lat="47.29722" lon="4.93493">
        <ele>598.4</ele>
        <time>2013-02-23T08:57:41.000Z</time>
      </trkpt>
      <trkpt lat="47.29723" lon="4.93493">
        <ele>596.9</ele>
        <time>2013-02-23T08:57:42.000Z</time>
      </trkpt>
      <trkpt lat="47.29726" lon="4.93495">
        <ele>597.4</ele>
        <time>2013-02-23T08:57:45.000Z</time>
      </trkpt>
      <trkpt lat="47.29728" lon="4.93495">
        <ele>597.4</ele>
        <time>2013-02-23T08:57:46.000Z</time>
      </trkpt>
      <trkpt lat="47.29732" lon="4.93497">
        <ele>597.8</ele>
        <time>2013-02-23T08:57:49.000Z</time>
      </trkpt>
      <trkpt lat="47.29733" lon="4.93498">
        <ele>597.4</ele>
        <time>2013-02-23T08:57:50.000Z</time>
      </trkpt>
      <trkpt lat="47.29736" lon="4.93497">
        <ele>596.4</ele>
        <time>2013-02-23T08:57:52.000Z</time>
      </trkpt>
      <trkpt lat="47.29737" lon="4.93496">
        <ele>596.1</ele>
        <time>2013-02-23T08:57:53.000Z</time>
      </trkpt>
      <trkpt lat="47.29741" lon="4.93497">
        <ele>595.6</ele>
        <time>2013-02-23T08:57:56.000Z</time>
      </trkpt>
      <trkpt lat="47.29743" lon="4.93497">
        <ele>595.5</ele>
        <time>2013-02-23T08:57:57.000Z</time>
      </trkpt>
      <trkpt lat="47.29746" lon="4.93498">
        <ele>595.1</ele>
        <time>2013-02-23T08:58:00.000Z</time>
      </trkpt>
      <trkpt lat="47.29748" lon="4.93498">
        <ele>594.8</ele>
        <time>2013-02-23T08:58:01.000Z</time>
      </trkpt>
      <trkpt lat="47.29752" lon="4.93496">
        <ele>595.1</ele>
        <time>2013-02-23T08:58:04.000Z</time>
      </trkpt>
      <trkpt lat="47.29753" lon="4.93496">
        <ele>595.1</ele>
        <time>2013-02-23T08:58:05.000Z</time>
      </trkpt>
      <trkpt lat="47.29757" lon="4.93494">
        <ele>596</ele>
        <time>2013-02-23T08:58:08.000Z</time>
      </trkpt>
      <trkpt lat="47.29759" lon="4.93494">
        <ele>596</ele>
        <time>2013-02-23T08:58:09.000Z</time>
      </trkpt>
      <trkpt lat="47.29763" lon="4.93492">
        <ele>594.7</ele>
        <time>2013-02-23T08:58:12.000Z</time>
      </trkpt>
      <trkpt lat="47.29764" lon="4.93491">
        <ele>594.5</ele>
        <time>2013-02-23T08:58:13.000Z</time>
      </trkpt>
      <trkpt lat="47.29767" lon="4.93489">
        <ele>594.4</ele>
        <time>2013-02-23T08:58:15.000Z</time>
      </trkpt>
      <trkpt lat="47.29769" lon="4.93489">
        <ele>594.4</ele>
        <time>2013-02-23T08:58:16.000Z</time>
      </trkpt>
      <trkpt lat="47.29771" lon="4.93487">
        <ele>594.5</ele>
        <time>2013-02-23T08:58:18.000Z</time>
      </trkpt>
      <trkpt lat="47.29773" lon="4.93486">
        <ele>594.5</ele>
        <time>2013-02-23T08:58:19.000Z</time>
      </trkpt>
      <trkpt lat="47.29777" lon="4.93485">
        <ele>595.2</ele>
        <time>2013-02-23T08:58:21.000Z</time>
      </trkpt>
      <trkpt lat="47.29779" lon="4.93484">
        <ele>595.1</ele>
        <time>2013-02-23T08:58:22.000Z</time>
      </trkpt>
      <trkpt lat="47.29783" lon="4.93481">
        <ele>595.1</ele>
        <time>2013-02-23T08:58:25.000Z</time>
      </trkpt>
      <trkpt lat="47.29784" lon="4.93481">
        <ele>594.9</ele>
        <time>2013-02-23T08:58:26.000Z</time>
      </trkpt>
      <trkpt lat="47.29788" lon="4.9348">
        <ele>594.9</ele>
        <time>2013-02-23T08:58:28.000Z</time>
      </trkpt>
      <trkpt lat="47.2979" lon="4.9348">
        <ele>595</ele>
        <time>2013-02-23T08:58:29.000Z</time>
      </trkpt>
      <trkpt lat="47.29793" lon="4.93478">
        <ele>594.8</ele>
        <time>2013-02-23T08:58:31.000Z</time>
      </trkpt>
      <trkpt lat="47.29806" lon="4.93469">
        <ele>587.4</ele>
        <time>2013-02-23T08:58:38.000Z</time>
      </trkpt>
      <trkpt lat="47.29809" lon="4.93466">
        <ele>590.4</ele>
        <time>2013-02-23T08:58:41.000Z</time>
      </trkpt>
      <trkpt lat="47.2981" lon="4.93465">
        <ele>590.9</ele>
        <time>2013-02-23T08:58:42.000Z</time>
      </trkpt>
      <trkpt lat="47.29813" lon="4.93465">
        <ele>592</ele>
        <time>2013-02-23T08:58:44.000Z</time>
      </trkpt>
      <trkpt lat="47.29815" lon="4.93464">
        <ele>593.4</ele>
        <time>2013-02-23T08:58:45.000Z</time>
      </trkpt>
      <trkpt lat="47.29819" lon="4.93463">
        <ele>593.5</ele>
        <time>2013-02-23T08:58:48.000Z</time>
      </trkpt>
      <trkpt lat="47.2982" lon="4.93462">
        <ele>593.5</ele>
        <time>2013-02-23T08:58:49.000Z</time>
      </trkpt>
      <trkpt lat="47.29823" lon="4.93459">
        <ele>594.2</ele>
        <time>2013-02-23T08:58:52.000Z</time>
      </trkpt>
      <trkpt lat="47.29824" lon="4.93459">
        <ele>594.2</ele>
        <time>2013-02-23T08:58:53.000Z</time>
      </trkpt>
      <trkpt lat="47.29828" lon="4.93457">
        <ele>594.5</ele>
        <time>2013-02-23T08:58:57.000Z</time>
      </trkpt>
      <trkpt lat="47.29829" lon="4.93457">
        <ele>593.8</ele>
        <time>2013-02-23T08:58:58.000Z</time>
      </trkpt>
      <trkpt lat="47.29832" lon="4.93456">
        <ele>594</ele>
        <time>2013-02-23T08:59:00.000Z</time>
      </trkpt>
      <trkpt lat="47.29834" lon="4.93454">
        <ele>594.1</ele>
        <time>2013-02-23T08:59:01.000Z</time>
      </trkpt>
      <trkpt lat="47.29837" lon="4.93452">
        <ele>593.3</ele>
        <time>2013-02-23T08:59:03.000Z</time>
      </trkpt>
      <trkpt lat="47.29838" lon="4.93452">
        <ele>593</ele>
        <time>2013-02-23T08:59:04.000Z</time>
      </trkpt>
      <trkpt lat="47.29842" lon="4.93449">
        <ele>591.1</ele>
        <time>2013-02-23T08:59:07.000Z</time>
      </trkpt>
      <trkpt lat="47.29843" lon="4.93448">
        <ele>590.4</ele>
        <time>2013-02-23T08:59:08.000Z</time>
      </trkpt>
      <trkpt lat="47.29846" lon="4.93446">
        <ele>589.5</ele>
        <time>2013-02-23T08:59:10.000Z</time>
      </trkpt>
      <trkpt lat="47.29848" lon="4.93445">
        <ele>588.9</ele>
        <time>2013-02-23T08:59:11.000Z</time>
      </trkpt>
      <trkpt lat="47.29851" lon="4.93442">
        <ele>588.5</ele>
        <time>2013-02-23T08:59:13.000Z</time>
      </trkpt>
      <trkpt lat="47.29852" lon="4.9344">
        <ele>588.2</ele>
        <time>2013-02-23T08:59:14.000Z</time>
      </trkpt>
      <trkpt lat="47.29855" lon="4.93437">
        <ele>587.8</ele>
        <time>2013-02-23T08:59:16.000Z</time>
      </trkpt>
      <trkpt lat="47.29857" lon="4.93436">
        <ele>587.3</ele>
        <time>2013-02-23T08:59:17.000Z</time>
      </trkpt>
      <trkpt lat="47.2986" lon="4.93434">
        <ele>586.8</ele>
        <time>2013-02-23T08:59:19.000Z</time>
      </trkpt>
      <trkpt lat="47.29861" lon="4.93432">
        <ele>586.7</ele>
        <time>2013-02-23T08:59:20.000Z</time>
      </trkpt>
      <trkpt lat="47.29865" lon="4.93429">
        <ele>586.2</ele>
        <time>2013-02-23T08:59:23.000Z</time>
      </trkpt>
      <trkpt lat="47.29866" lon="4.93427">
        <ele>586.1</ele>
        <time>2013-02-23T08:59:24.000Z</time>
      </trkpt>
      <trkpt lat="47.2987" lon="4.93424">
        <ele>585.8</ele>
        <time>2013-02-23T08:59:27.000Z</time>
      </trkpt>
      <trkpt lat="47.29871" lon="4.93423">
        <ele>585.5</ele>
        <time>2013-02-23T08:59:28.000Z</time>
      </trkpt>
      <trkpt lat="47.29874" lon="4.93421">
        <ele>585.3</ele>
        <time>2013-02-23T08:59:30.000Z</time>
      </trkpt>
      <trkpt lat="47.29875" lon="4.9342">
        <ele>585</ele>
        <time>2013-02-23T08:59:31.000Z</time>
      </trkpt>
      <trkpt lat="47.29893" lon="4.93413">
        <ele>574.6</ele>
        <time>2013-02-23T08:59:38.000Z</time>
      </trkpt>
      <trkpt lat="47.29897" lon="4.9341">
        <ele>573</ele>
        <time>2013-02-23T08:59:41.000Z</time>
      </trkpt>
      <trkpt lat="47.29897" lon="4.93408">
        <ele>573.1</ele>
        <time>2013-02-23T08:59:42.000Z</time>
      </trkpt>
      <trkpt lat="47.29899" lon="4.93404">
        <ele>572.5</ele>
        <time>2013-02-23T08:59:44.000Z</time>
      </trkpt>
      <trkpt lat="47.299" lon="4.93402">
        <ele>571.8</ele>
        <time>2013-02-23T08:59:45.000Z</time>
      </trkpt>
      <trkpt lat="47.29903" lon="4.93398">
        <ele>570.3</ele>
        <time>2013-02-23T08:59:48.000Z</time>
      </trkpt>
      <trkpt lat="47.29903" lon="4.93396">
        <ele>569.8</ele>
        <time>2013-02-23T08:59:49.000Z</time>
      </trkpt>
      <trkpt lat="47.29905" lon="4.93391">
        <ele>569.3</ele>
        <time>2013-02-23T08:59:52.000Z</time>
      </trkpt>
      <trkpt lat="47.29906" lon="4.93389">
        <ele>569.5</ele>
        <time>2013-02-23T08:59:53.000Z</time>
      </trkpt>
      <trkpt lat="47.29909" lon="4.93385">
        <ele>568.5</ele>
        <time>2013-02-23T08:59:55.000Z</time>
      </trkpt>
      <trkpt lat="47.2991" lon="4.93384">
        <ele>568.3</ele>
        <time>2013-02-23T08:59:56.000Z</time>
      </trkpt>
      <trkpt lat="47.29912" lon="4.93379">
        <ele>568.9</ele>
        <time>2013-02-23T08:59:59.000Z</time>
      </trkpt>
      <trkpt lat="47.29913" lon="4.93378">
        <ele>569.2</ele>
        <time>2013-02-23T09:00:00.000Z</time>
      </trkpt>
      <trkpt lat="47.29915" lon="4.93372">
        <ele>569.8</ele>
        <time>2013-02-23T09:00:03.000Z</time>
      </trkpt>
      <trkpt lat="47.29916" lon="4.9337">
        <ele>569.7</ele>
        <time>2013-02-23T09:00:04.000Z</time>
      </trkpt>
      <trkpt lat="47.29917" lon="4.93367">
        <ele>569.7</ele>
        <time>2013-02-23T09:00:06.000Z</time>
      </trkpt>
      <trkpt lat="47.29918" lon="4.93364">
        <ele>569.7</ele>
        <time>2013-02-23T09:00:07.000Z</time>
      </trkpt>
      <trkpt lat="47.29919" lon="4.9336">
        <ele>569.8</ele>
        <time>2013-02-23T09:00:09.000Z</time>
      </trkpt>
      <trkpt lat="47.2992" lon="4.93357">
        <ele>569.7</ele>
        <time>2013-02-23T09:00:10.000Z</time>
      </trkpt>
      <trkpt lat="47.29922" lon="4.93353">
        <ele>569.5</ele>
        <time>2013-02-23T09:00:12.000Z</time>
      </trkpt>
      <trkpt lat="47.29922" lon="4.9335">
        <ele>569.5</ele>
        <time>2013-02-23T09:00:13.000Z</time>
      </trkpt>
      <trkpt lat="47.29924" lon="4.93345">
        <ele>569.5</ele>
        <time>2013-02-23T09:00:16.000Z</time>
      </trkpt>
      <trkpt lat="47.29924" lon="4.93344">
        <ele>569.4</ele>
        <time>2013-02-23T09:00:17.000Z</time>
      </trkpt>
      <trkpt lat="47.29925" lon="4.93339">
        <ele>569.5</ele>
        <time>2013-02-23T09:00:19.000Z</time>
      </trkpt>
      <trkpt lat="47.29926" lon="4.93337">
        <ele>569.6</ele>
        <time>2013-02-23T09:00:20.000Z</time>
      </trkpt>
      <trkpt lat="47.29928" lon="4.93333">
        <ele>569.8</ele>
        <time>2013-02-23T09:00:22.000Z</time>
      </trkpt>
      <trkpt lat="47.29928" lon="4.93331">
        <ele>570.2</ele>
        <time>2013-02-23T09:00:23.000Z</time>
      </trkpt>
      <trkpt lat="47.2993" lon="4.93326">
        <ele>570</ele>
        <time>2013-02-23T09:00:25.000Z</time>
      </trkpt>
      <trkpt lat="47.29931" lon="4.93324">
        <ele>570</ele>
        <time>2013-02-23T09:00:26.000Z</time>
      </trkpt>
      <trkpt lat="47.29932" lon="4.93318">
        <ele>569.5</ele>
        <time>2013-02-23T09:00:30.000Z</time>
      </trkpt>
      <trkpt lat="47.29933" lon="4.93317">
        <ele>569.4</ele>
        <time>2013-02-23T09:00:31.000Z</time>
      </trkpt>
      <trkpt lat="47.29934" lon="4.93312">
        <ele>568.8</ele>
        <time>2013-02-23T09:00:34.000Z</time>
      </trkpt>
      <trkpt lat="47.29935" lon="4.9331">
        <ele>568.8</ele>
        <time>2013-02-23T09:00:35.000Z</time>
      </trkpt>
      <trkpt lat="47.29937" lon="4.93305">
        <ele>568.7</ele>
        <time>2013-02-23T09:00:37.000Z</time>
      </trkpt>
      <trkpt lat="47.29938" lon="4.93302">
        <ele>568.5</ele>
        <time>2013-02-23T09:00:38.000Z</time>
      </trkpt>
      <trkpt lat="47.2994" lon="4.93298">
        <ele>568.1</ele>
        <time>2013-02-23T09:00:40.000Z</time>
      </trkpt>
      <trkpt lat="47.29941" lon="4.93296">
        <ele>568</ele>
        <time>2013-02-23T09:00:41.000Z</time>
      </trkpt>
      <trkpt lat="47.29943" lon="4.93292">
        <ele>568</ele>
        <time>2013-02-23T09:00:43.000Z</time>
      </trkpt>
      <trkpt lat="47.29944" lon="4.93291">
        <ele>568</ele>
        <time>2013-02-23T09:00:44.000Z</time>
      </trkpt>
      <trkpt lat="47.29947" lon="4.93286">
        <ele>568.1</ele>
        <time>2013-02-23T09:00:47.000Z</time>
      </trkpt>
      <trkpt lat="47.29949" lon="4.93285">
        <ele>568</ele>
        <time>2013-02-23T09:00:48.000Z</time>
      </trkpt>
      <trkpt lat="47.29951" lon="4.93281">
        <ele>567.5</ele>
        <time>2013-02-23T09:00:50.000Z</time>
      </trkpt>
      <trkpt lat="47.29952" lon="4.93279">
        <ele>567.4</ele>
        <time>2013-02-23T09:00:51.000Z</time>
      </trkpt>
      <trkpt lat="47.29954" lon="4.93275">
        <ele>567.5</ele>
        <time>2013-02-23T09:00:53.000Z</time>
      </trkpt>
      <trkpt lat="47.29955" lon="4.93273">
        <ele>567.4</ele>
        <time>2013-02-23T09:00:54.000Z</time>
      </trkpt>
      <trkpt lat="47.29957" lon="4.93269">
        <ele>567.4</ele>
        <time>2013-02-23T09:00:56.000Z</time>
      </trkpt>
      <trkpt lat="47.29958" lon="4.93268">
        <ele>567.5</ele>
        <time>2013-02-23T09:00:57.000Z</time>
      </trkpt>
      <trkpt lat="47.29961" lon="4.93265">
        <ele>567.2</ele>
        <time>2013-02-23T09:00:59.000Z</time>
      </trkpt>
      <trkpt lat="47.29962" lon="4.93263">
        <ele>567</ele>
        <time>2013-02-23T09:01:00.000Z</time>
      </trkpt>
      <trkpt lat="47.29964" lon="4.93259">
        <ele>566.8</ele>
        <time>2013-02-23T09:01:02.000Z</time>
      </trkpt>
      <trkpt lat="47.29966" lon="4.93257">
        <ele>566.8</ele>
        <time>2013-02-23T09:01:03.000Z</time>
      </trkpt>
      <trkpt lat="47.29969" lon="4.93253">
        <ele>567</ele>
        <time>2013-02-23T09:01:05.000Z</time>
      </trkpt>
      <trkpt lat="47.2997" lon="4.93252">
        <ele>567.2</ele>
        <time>2013-02-23T09:01:06.000Z</time>
      </trkpt>
      <trkpt lat="47.29973" lon="4.93251">
        <ele>567.2</ele>
        <time>2013-02-23T09:01:08.000Z</time>
      </trkpt>
      <trkpt lat="47.29975" lon="4.9325">
        <ele>566.8</ele>
        <time>2013-02-23T09:01:09.000Z</time>
      </trkpt>
      <trkpt lat="47.29978" lon="4.93252">
        <ele>565.7</ele>
        <time>2013-02-23T09:01:19.000Z</time>
      </trkpt>
      <trkpt lat="47.29981" lon="4.93255">
        <ele>563.4</ele>
        <time>2013-02-23T09:01:20.000Z</time>
      </trkpt>
      <trkpt lat="47.29981" lon="4.93261">
        <ele>563.1</ele>
        <time>2013-02-23T09:01:25.000Z</time>
      </trkpt>
      <trkpt lat="47.29981" lon="4.93263">
        <ele>563</ele>
        <time>2013-02-23T09:01:26.000Z</time>
      </trkpt>
      <trkpt lat="47.29981" lon="4.93269">
        <ele>562.6</ele>
        <time>2013-02-23T09:01:31.000Z</time>
      </trkpt>
      <trkpt lat="47.29981" lon="4.93288">
        <ele>552.4</ele>
        <time>2013-02-23T09:01:38.000Z</time>
      </trkpt>
      <trkpt lat="47.29981" lon="4.93293">
        <ele>554.8</ele>
        <time>2013-02-23T09:01:41.000Z</time>
      </trkpt>
      <trkpt lat="47.29981" lon="4.93295">
        <ele>555.3</ele>
        <time>2013-02-23T09:01:42.000Z</time>
      </trkpt>
      <trkpt lat="47.2998" lon="4.93299">
        <ele>556.6</ele>
        <time>2013-02-23T09:01:44.000Z</time>
      </trkpt>
      <trkpt lat="47.2998" lon="4.93301">
        <ele>556.5</ele>
        <time>2013-02-23T09:01:45.000Z</time>
      </trkpt>
      <trkpt lat="47.2998" lon="4.93306">
        <ele>556.8</ele>
        <time>2013-02-23T09:01:47.000Z</time>
      </trkpt>
      <trkpt lat="47.29979" lon="4.93308">
        <ele>556.9</ele>
        <time>2013-02-23T09:01:48.000Z</time>
      </trkpt>
      <trkpt lat="47.29978" lon="4.93314">
        <ele>557.1</ele>
        <time>2013-02-23T09:01:51.000Z</time>
      </trkpt>
      <trkpt lat="47.29978" lon="4.93316">
        <ele>557.8</ele>
        <time>2013-02-23T09:01:52.000Z</time>
      </trkpt>
      <trkpt lat="47.29977" lon="4.93321">
        <ele>558.1</ele>
        <time>2013-02-23T09:01:54.000Z</time>
      </trkpt>
      <trkpt lat="47.29976" lon="4.93323">
        <ele>558.5</ele>
        <time>2013-02-23T09:01:55.000Z</time>
      </trkpt>
      <trkpt lat="47.29975" lon="4.93328">
        <ele>559.6</ele>
        <time>2013-02-23T09:01:57.000Z</time>
      </trkpt>
      <trkpt lat="47.29975" lon="4.9333">
        <ele>560</ele>
        <time>2013-02-23T09:01:58.000Z</time>
      </trkpt>
      <trkpt lat="47.29974" lon="4.93335">
        <ele>559.5</ele>
        <time>2013-02-23T09:02:00.000Z</time>
      </trkpt>
      <trkpt lat="47.29975" lon="4.93338">
        <ele>559.2</ele>
        <time>2013-02-23T09:02:01.000Z</time>
      </trkpt>
      <trkpt lat="47.29974" lon="4.93342">
        <ele>557.7</ele>
        <time>2013-02-23T09:02:03.000Z</time>
      </trkpt>
      <trkpt lat="47.29972" lon="4.93344">
        <ele>557.3</ele>
        <time>2013-02-23T09:02:04.000Z</time>
      </trkpt>
      <trkpt lat="47.29971" lon="4.93348">
        <ele>557</ele>
        <time>2013-02-23T09:02:06.000Z</time>
      </trkpt>
      <trkpt lat="47.29971" lon="4.93351">
        <ele>556.6</ele>
        <time>2013-02-23T09:02:07.000Z</time>
      </trkpt>
      <trkpt lat="47.2997" lon="4.93356">
        <ele>556</ele>
        <time>2013-02-23T09:02:09.000Z</time>
      </trkpt>
      <trkpt lat="47.29969" lon="4.93358">
        <ele>556</ele>
        <time>2013-02-23T09:02:10.000Z</time>
      </trkpt>
      <trkpt lat="47.29968" lon="4.93362">
        <ele>555.4</ele>
        <time>2013-02-23T09:02:12.000Z</time>
      </trkpt>
      <trkpt lat="47.29968" lon="4.93364">
        <ele>555.1</ele>
        <time>2013-02-23T09:02:13.000Z</time>
      </trkpt>
      <trkpt lat="47.29967" lon="4.9337">
        <ele>554.8</ele>
        <time>2013-02-23T09:02:16.000Z</time>
      </trkpt>
      <trkpt lat="47.29966" lon="4.93372">
        <ele>554.6</ele>
        <time>2013-02-23T09:02:17.000Z</time>
      </trkpt>
      <trkpt lat="47.29964" lon="4.93377">
        <ele>554.6</ele>
        <time>2013-02-23T09:02:19.000Z</time>
      </trkpt>
      <trkpt lat="47.29964" lon="4.93379">
        <ele>554.8</ele>
        <time>2013-02-23T09:02:20.000Z</time>
      </trkpt>
      <trkpt lat="47.29962" lon="4.93384">
        <ele>554.9</ele>
        <time>2013-02-23T09:02:22.000Z</time>
      </trkpt>
      <trkpt lat="47.29962" lon="4.93386">
        <ele>554.9</ele>
        <time>2013-02-23T09:02:23.000Z</time>
      </trkpt>
      <trkpt lat="47.29961" lon="4.93392">
        <ele>555</ele>
        <time>2013-02-23T09:02:25.000Z</time>
      </trkpt>
      <trkpt lat="47.29961" lon="4.93395">
        <ele>555.2</ele>
        <time>2013-02-23T09:02:26.000Z</time>
      </trkpt>
      <trkpt lat="47.2996" lon="4.934">
        <ele>555.2</ele>
        <time>2013-02-23T09:02:28.000Z</time>
      </trkpt>
      <trkpt lat="47.29959" lon="4.93403">
        <ele>555.1</ele>
        <time>2013-02-23T09:02:29.000Z</time>
      </trkpt>
      <trkpt lat="47.29957" lon="4.93407">
        <ele>554.8</ele>
        <time>2013-02-23T09:02:31.000Z</time>
      </trkpt>
      <trkpt lat="47.29953" lon="4.93423">
        <ele>555.5</ele>
        <time>2013-02-23T09:02:38.000Z</time>
      </trkpt>
      <trkpt lat="47.29951" lon="4.93427">
        <ele>554.2</ele>
        <time>2013-02-23T09:02:40.000Z</time>
      </trkpt>
      <trkpt lat="47.2995" lon="4.93429">
        <ele>554</ele>
        <time>2013-02-23T09:02:41.000Z</time>
      </trkpt>
      <trkpt lat="47.29949" lon="4.93434">
        <ele>554.1</ele>
        <time>2013-02-23T09:02:43.000Z</time>
      </trkpt>
      <trkpt lat="47.29948" lon="4.93436">
        <ele>554.3</ele>
        <time>2013-02-23T09:02:44.000Z</time>
      </trkpt>
      <trkpt lat="47.29947" lon="4.9344">
        <ele>554.6</ele>
        <time>2013-02-23T09:02:46.000Z</time>
      </trkpt>
      <trkpt lat="47.29946" lon="4.93442">
        <ele>554.4</ele>
        <time>2013-02-23T09:02:47.000Z</time>
      </trkpt>
      <trkpt lat="47.29943" lon="4.93446">
        <ele>554.1</ele>
        <time>2013-02-23T09:02:49.000Z</time>
      </trkpt>
      <trkpt lat="47.29942" lon="4.93448">
        <ele>553.7</ele>
        <time>2013-02-23T09:02:50.000Z</time>
      </trkpt>
      <trkpt lat="47.2994" lon="4.93452">
        <ele>553.4</ele>
        <time>2013-02-23T09:02:52.000Z</time>
      </trkpt>
      <trkpt lat="47.29939" lon="4.93453">
        <ele>553.4</ele>
        <time>2013-02-23T09:02:53.000Z</time>
      </trkpt>
      <trkpt lat="47.29937" lon="4.93457">
        <ele>553.3</ele>
        <time>2013-02-23T09:02:55.000Z</time>
      </trkpt>
      <trkpt lat="47.29936" lon="4.93459">
        <ele>553.5</ele>
        <time>2013-02-23T09:02:56.000Z</time>
      </trkpt>
      <trkpt lat="47.29935" lon="4.93465">
        <ele>553.9</ele>
        <time>2013-02-23T09:02:59.000Z</time>
      </trkpt>
      <trkpt lat="47.29933" lon="4.93466">
        <ele>554</ele>
        <time>2013-02-23T09:03:00.000Z</time>
      </trkpt>
      <trkpt lat="47.29931" lon="4.93471">
        <ele>553.7</ele>
        <time>2013-02-23T09:03:02.000Z</time>
      </trkpt>
      <trkpt lat="47.2993" lon="4.93472">
        <ele>553</ele>
        <time>2013-02-23T09:03:03.000Z</time>
      </trkpt>
      <trkpt lat="47.29928" lon="4.93475">
        <ele>552.1</ele>
        <time>2013-02-23T09:03:05.000Z</time>
      </trkpt>
      <trkpt lat="47.29926" lon="4.93477">
        <ele>552</ele>
        <time>2013-02-23T09:03:06.000Z</time>
      </trkpt>
      <trkpt lat="47.29923" lon="4.93479">
        <ele>551.8</ele>
        <time>2013-02-23T09:03:08.000Z</time>
      </trkpt>
      <trkpt lat="47.29922" lon="4.93481">
        <ele>551.4</ele>
        <time>2013-02-23T09:03:09.000Z</time>
      </trkpt>
      <trkpt lat="47.2992" lon="4.93484">
        <ele>550.9</ele>
        <time>2013-02-23T09:03:11.000Z</time>
      </trkpt>
      <trkpt lat="47.29918" lon="4.93487">
        <ele>550.2</ele>
        <time>2013-02-23T09:03:12.000Z</time>
      </trkpt>
      <trkpt lat="47.29915" lon="4.93491">
        <ele>549.4</ele>
        <time>2013-02-23T09:03:14.000Z</time>
      </trkpt>
      <trkpt lat="47.29914" lon="4.93493">
        <ele>549.3</ele>
        <time>2013-02-23T09:03:15.000Z</time>
      </trkpt>
      <trkpt lat="47.2991" lon="4.93496">
        <ele>548.8</ele>
        <time>2013-02-23T09:03:17.000Z</time>
      </trkpt>
      <trkpt lat="47.29909" lon="4.93498">
        <ele>548.6</ele>
        <time>2013-02-23T09:03:18.000Z</time>
      </trkpt>
      <trkpt lat="47.29906" lon="4.93501">
        <ele>548.1</ele>
        <time>2013-02-23T09:03:20.000Z</time>
      </trkpt>
      <trkpt lat="47.29904" lon="4.93502">
        <ele>547.9</ele>
        <time>2013-02-23T09:03:21.000Z</time>
      </trkpt>
      <trkpt lat="47.29901" lon="4.93504">
        <ele>547.5</ele>
        <time>2013-02-23T09:03:23.000Z</time>
      </trkpt>
      <trkpt lat="47.299" lon="4.93506">
        <ele>547.3</ele>
        <time>2013-02-23T09:03:24.000Z</time>
      </trkpt>
      <trkpt lat="47.29897" lon="4.93509">
        <ele>547</ele>
        <time>2013-02-23T09:03:27.000Z</time>
      </trkpt>
      <trkpt lat="47.29895" lon="4.9351">
        <ele>546.9</ele>
        <time>2013-02-23T09:03:28.000Z</time>
      </trkpt>
      <trkpt lat="47.29892" lon="4.93513">
        <ele>546.7</ele>
        <time>2013-02-23T09:03:30.000Z</time>
      </trkpt>
      <trkpt lat="47.29892" lon="4.93514">
        <ele>546.8</ele>
        <time>2013-02-23T09:03:31.000Z</time>
      </trkpt>
      <trkpt lat="47.29888" lon="4.93517">
        <ele>547</ele>
        <time>2013-02-23T09:03:34.000Z</time>
      </trkpt>
      <trkpt lat="47.29886" lon="4.93519">
        <ele>547.1</ele>
        <time>2013-02-23T09:03:35.000Z</time>
      </trkpt>
      <trkpt lat="47.29883" lon="4.93521">
        <ele>547.3</ele>
        <time>2013-02-23T09:03:37.000Z</time>
      </trkpt>
      <trkpt lat="47.29882" lon="4.93522">
        <ele>547.4</ele>
        <time>2013-02-23T09:03:38.000Z</time>
      </trkpt>
      <trkpt lat="47.29879" lon="4.93526">
        <ele>547.7</ele>
        <time>2013-02-23T09:03:41.000Z</time>
      </trkpt>
      <trkpt lat="47.29878" lon="4.93528">
        <ele>547.9</ele>
        <time>2013-02-23T09:03:42.000Z</time>
      </trkpt>
      <trkpt lat="47.29875" lon="4.93531">
        <ele>548.4</ele>
        <time>2013-02-23T09:03:45.000Z</time>
      </trkpt>
      <trkpt lat="47.29874" lon="4.93533">
        <ele>548.6</ele>
        <time>2013-02-23T09:03:46.000Z</time>
      </trkpt>
      <trkpt lat="47.2987" lon="4.93536">
        <ele>549</ele>
        <time>2013-02-23T09:03:49.000Z</time>
      </trkpt>
      <trkpt lat="47.29869" lon="4.93537">
        <ele>549.1</ele>
        <time>2013-02-23T09:03:50.000Z</time>
      </trkpt>
      <trkpt lat="47.29866" lon="4.93542">
        <ele>548.9</ele>
        <time>2013-02-23T09:03:53.000Z</time>
      </trkpt>
      <trkpt lat="47.29865" lon="4.93543">
        <ele>548.9</ele>
        <time>2013-02-23T09:03:54.000Z</time>
      </trkpt>
      <trkpt lat="47.29862" lon="4.93545">
        <ele>548.9</ele>
        <time>2013-02-23T09:03:56.000Z</time>
      </trkpt>
      <trkpt lat="47.29861" lon="4.93546">
        <ele>548.9</ele>
        <time>2013-02-23T09:03:57.000Z</time>
      </trkpt>
      <trkpt lat="47.29857" lon="4.9355">
        <ele>548.9</ele>
        <time>2013-02-23T09:04:00.000Z</time>
      </trkpt>
      <trkpt lat="47.29856" lon="4.93551">
        <ele>548.9</ele>
        <time>2013-02-23T09:04:01.000Z</time>
      </trkpt>
      <trkpt lat="47.29853" lon="4.93555">
        <ele>548.7</ele>
        <time>2013-02-23T09:04:03.000Z</time>
      </trkpt>
      <trkpt lat="47.29852" lon="4.93556">
        <ele>548.7</ele>
        <time>2013-02-23T09:04:04.000Z</time>
      </trkpt>
      <trkpt lat="47.2985" lon="4.9356">
        <ele>548.9</ele>
        <time>2013-02-23T09:04:06.000Z</time>
      </trkpt>
      <trkpt lat="47.29849" lon="4.93562">
        <ele>549</ele>
        <time>2013-02-23T09:04:07.000Z</time>
      </trkpt>
      <trkpt lat="47.29846" lon="4.93564">
        <ele>549.1</ele>
        <time>2013-02-23T09:04:09.000Z</time>
      </trkpt>
      <trkpt lat="47.29845" lon="4.93565">
        <ele>549.1</ele>
        <time>2013-02-23T09:04:10.000Z</time>
      </trkpt>
      <trkpt lat="47.29843" lon="4.93569">
        <ele>549</ele>
        <time>2013-02-23T09:04:12.000Z</time>
      </trkpt>
      <trkpt lat="47.29841" lon="4.93571">
        <ele>549.2</ele>
        <time>2013-02-23T09:04:13.000Z</time>
      </trkpt>
      <trkpt lat="47.29839" lon="4.93574">
        <ele>549.1</ele>
        <time>2013-02-23T09:04:15.000Z</time>
      </trkpt>
      <trkpt lat="47.29837" lon="4.93575">
        <ele>549</ele>
        <time>2013-02-23T09:04:16.000Z</time>
      </trkpt>
      <trkpt lat="47.29835" lon="4.93578">
        <ele>549</ele>
        <time>2013-02-23T09:04:18.000Z</time>
      </trkpt>
      <trkpt lat="47.29834" lon="4.9358">
        <ele>549</ele>
        <time>2013-02-23T09:04:19.000Z</time>
      </trkpt>
      <trkpt lat="47.29831" lon="4.93582">
        <ele>549.1</ele>
        <time>2013-02-23T09:04:21.000Z</time>
      </trkpt>
      <trkpt lat="47.2983" lon="4.93584">
        <ele>549.1</ele>
        <time>2013-02-23T09:04:22.000Z</time>
      </trkpt>
      <trkpt lat="47.29827" lon="4.93588">
        <ele>549.2</ele>
        <time>2013-02-23T09:04:24.000Z</time>
      </trkpt>
      <trkpt lat="47.29825" lon="4.93589">
        <ele>549.3</ele>
        <time>2013-02-23T09:04:25.000Z</time>
      </trkpt>
      <trkpt lat="47.29822" lon="4.93593">
        <ele>549</ele>
        <time>2013-02-23T09:04:27.000Z</time>
      </trkpt>
      <trkpt lat="47.29821" lon="4.93595">
        <ele>548.9</ele>
        <time>2013-02-23T09:04:28.000Z</time>
      </trkpt>
      <trkpt lat="47.29818" lon="4.93598">
        <ele>548.6</ele>
        <time>2013-02-23T09:04:30.000Z</time>
      </trkpt>
      <trkpt lat="47.29817" lon="4.936">
        <ele>548.6</ele>
        <time>2013-02-23T09:04:31.000Z</time>
      </trkpt>
      <trkpt lat="47.29802" lon="4.93613">
        <ele>545.3</ele>
        <time>2013-02-23T09:04:38.000Z</time>
      </trkpt>
      <trkpt lat="47.298" lon="4.93618">
        <ele>544.4</ele>
        <time>2013-02-23T09:04:41.000Z</time>
      </trkpt>
      <trkpt lat="47.298" lon="4.9362">
        <ele>544.6</ele>
        <time>2013-02-23T09:04:42.000Z</time>
      </trkpt>
      <trkpt lat="47.29798" lon="4.93624">
        <ele>545.1</ele>
        <time>2013-02-23T09:04:45.000Z</time>
      </trkpt>
      <trkpt lat="47.29797" lon="4.93625">
        <ele>545.3</ele>
        <time>2013-02-23T09:04:46.000Z</time>
      </trkpt>
      <trkpt lat="47.29794" lon="4.93629">
        <ele>545.4</ele>
        <time>2013-02-23T09:04:49.000Z</time>
      </trkpt>
      <trkpt lat="47.29793" lon="4.9363">
        <ele>545.4</ele>
        <time>2013-02-23T09:04:50.000Z</time>
      </trkpt>
      <trkpt lat="47.2979" lon="4.93633">
        <ele>545</ele>
        <time>2013-02-23T09:04:53.000Z</time>
      </trkpt>
      <trkpt lat="47.29789" lon="4.93634">
        <ele>545</ele>
        <time>2013-02-23T09:04:54.000Z</time>
      </trkpt>
      <trkpt lat="47.29785" lon="4.93638">
        <ele>545.1</ele>
        <time>2013-02-23T09:04:58.000Z</time>
      </trkpt>
      <trkpt lat="47.29785" lon="4.93638">
        <ele>545.2</ele>
        <time>2013-02-23T09:04:59.000Z</time>
      </trkpt>
      <trkpt lat="47.29784" lon="4.93638">
        <ele>544.9</ele>
        <time>2013-02-23T09:05:40.000Z</time>
      </trkpt>
    </trkseg>
  </trk>
</gpx>